<?xml version='1.0' encoding='UTF-8'?><gpx version="1.1" creator="JPX - https://github.com/jenetics/jpx" xmlns="http://www.topografix.com/GPX/1/1"><trk><trkseg><trkpt lat="43.4754783" lon="11.6176267"><ele>242.0</ele><time>2026-03-27T10:15:53.796Z</time></trkpt><trkpt lat="43.4753333" lon="11.6174633"><ele>241.0</ele><time>2026-03-27T10:15:56.797Z</time></trkpt><trkpt lat="43.4752467" lon="11.6174017"><ele>240.0</ele><time>2026-03-27T10:15:57.797Z</time></trkpt><trkpt lat="43.4751417" lon="11.61733"><ele>239.0</ele><time>2026-03-27T10:15:58.799Z</time></trkpt><trkpt lat="43.4750183" lon="11.6172517"><ele>239.0</ele><time>2026-03-27T10:15:59.799Z</time></trkpt><trkpt lat="43.4748817" lon="11.61717"><ele>239.0</ele><time>2026-03-27T10:16:00.8Z</time></trkpt><trkpt lat="43.47474" lon="11.6170833"><ele>239.0</ele><time>2026-03-27T10:16:01.797Z</time></trkpt><trkpt lat="43.4745933" lon="11.6169933"><ele>240.33333333333334</ele><time>2026-03-27T10:16:02.798Z</time></trkpt><trkpt lat="43.4744417" lon="11.616905"><ele>241.66666666666669</ele><time>2026-03-27T10:16:03.799Z</time></trkpt><trkpt lat="43.474295" lon="11.616815"><ele>243.0</ele><time>2026-03-27T10:16:04.797Z</time></trkpt><trkpt lat="43.474155" lon="11.6167283"><ele>243.0</ele><time>2026-03-27T10:16:05.797Z</time></trkpt><trkpt lat="43.4740217" lon="11.616655"><ele>243.0</ele><time>2026-03-27T10:16:06.802Z</time></trkpt><trkpt lat="43.4739033" lon="11.61659"><ele>243.0</ele><time>2026-03-27T10:16:07.793Z</time></trkpt><trkpt lat="43.473795" lon="11.616525"><ele>243.0</ele><time>2026-03-27T10:16:08.799Z</time></trkpt><trkpt lat="43.4736933" lon="11.6164583"><ele>244.0</ele><time>2026-03-27T10:16:09.801Z</time></trkpt><trkpt lat="43.4735983" lon="11.6163983"><ele>245.0</ele><time>2026-03-27T10:16:10.796Z</time></trkpt><trkpt lat="43.4735083" lon="11.6163467"><ele>246.0</ele><time>2026-03-27T10:16:11.802Z</time></trkpt><trkpt lat="43.473425" lon="11.6162983"><ele>247.0</ele><time>2026-03-27T10:16:12.798Z</time></trkpt><trkpt lat="43.47334" lon="11.6162467"><ele>248.0</ele><time>2026-03-27T10:16:13.798Z</time></trkpt><trkpt lat="43.47326" lon="11.6161983"><ele>247.66666666666669</ele><time>2026-03-27T10:16:14.802Z</time></trkpt><trkpt lat="43.4731833" lon="11.6161483"><ele>247.33333333333334</ele><time>2026-03-27T10:16:15.799Z</time></trkpt><trkpt lat="43.4731117" lon="11.6161033"><ele>247.0</ele><time>2026-03-27T10:16:16.796Z</time></trkpt><trkpt lat="43.4730383" lon="11.6160617"><ele>246.66666666666669</ele><time>2026-03-27T10:16:17.801Z</time></trkpt><trkpt lat="43.4729633" lon="11.6160183"><ele>246.33333333333334</ele><time>2026-03-27T10:16:18.805Z</time></trkpt><trkpt lat="43.4728867" lon="11.6159733"><ele>246.0</ele><time>2026-03-27T10:16:19.796Z</time></trkpt><trkpt lat="43.4728167" lon="11.61593"><ele>246.83333333333334</ele><time>2026-03-27T10:16:20.8Z</time></trkpt><trkpt lat="43.47275" lon="11.6158883"><ele>247.66666666666669</ele><time>2026-03-27T10:16:21.796Z</time></trkpt><trkpt lat="43.4726817" lon="11.6158483"><ele>248.5</ele><time>2026-03-27T10:16:22.797Z</time></trkpt><trkpt lat="43.4726067" lon="11.615805"><ele>249.33333333333334</ele><time>2026-03-27T10:16:23.8Z</time></trkpt><trkpt lat="43.4725333" lon="11.6157633"><ele>250.16666666666669</ele><time>2026-03-27T10:16:24.799Z</time></trkpt><trkpt lat="43.47246" lon="11.6157117"><ele>251.0</ele><time>2026-03-27T10:16:25.799Z</time></trkpt><trkpt lat="43.4723817" lon="11.6156533"><ele>251.0</ele><time>2026-03-27T10:16:26.8Z</time></trkpt><trkpt lat="43.4723033" lon="11.6155867"><ele>251.00000000000003</ele><time>2026-03-27T10:16:27.804Z</time></trkpt><trkpt lat="43.47222" lon="11.61552"><ele>251.00000000000003</ele><time>2026-03-27T10:16:28.799Z</time></trkpt><trkpt lat="43.4721367" lon="11.61545"><ele>251.0</ele><time>2026-03-27T10:16:29.798Z</time></trkpt><trkpt lat="43.4720517" lon="11.6153717"><ele>251.0</ele><time>2026-03-27T10:16:30.799Z</time></trkpt><trkpt lat="43.4719583" lon="11.6152917"><ele>251.25</ele><time>2026-03-27T10:16:31.798Z</time></trkpt><trkpt lat="43.4718583" lon="11.6152083"><ele>251.5</ele><time>2026-03-27T10:16:32.798Z</time></trkpt><trkpt lat="43.4717517" lon="11.6151233"><ele>251.75</ele><time>2026-03-27T10:16:33.799Z</time></trkpt><trkpt lat="43.4716383" lon="11.6150467"><ele>252.0</ele><time>2026-03-27T10:16:34.802Z</time></trkpt><trkpt lat="43.4715167" lon="11.6149867"><ele>252.0</ele><time>2026-03-27T10:16:35.798Z</time></trkpt><trkpt lat="43.471385" lon="11.6149467"><ele>252.0</ele><time>2026-03-27T10:16:36.796Z</time></trkpt><trkpt lat="43.4712517" lon="11.614925"><ele>252.0</ele><time>2026-03-27T10:16:37.802Z</time></trkpt><trkpt lat="43.47111" lon="11.6149183"><ele>252.0</ele><time>2026-03-27T10:16:38.799Z</time></trkpt><trkpt lat="43.47097" lon="11.6149233"><ele>251.0</ele><time>2026-03-27T10:16:39.796Z</time></trkpt><trkpt lat="43.4708317" lon="11.6149367"><ele>250.0</ele><time>2026-03-27T10:16:40.802Z</time></trkpt><trkpt lat="43.4706917" lon="11.6149483"><ele>249.0</ele><time>2026-03-27T10:16:41.803Z</time></trkpt><trkpt lat="43.470555" lon="11.614955"><ele>248.0</ele><time>2026-03-27T10:16:42.804Z</time></trkpt><trkpt lat="43.4704183" lon="11.6149467"><ele>246.75</ele><time>2026-03-27T10:16:43.798Z</time></trkpt><trkpt lat="43.4702817" lon="11.6149183"><ele>245.5</ele><time>2026-03-27T10:16:44.799Z</time></trkpt><trkpt lat="43.4701467" lon="11.6148717"><ele>244.25</ele><time>2026-03-27T10:16:45.797Z</time></trkpt><trkpt lat="43.470015" lon="11.614805"><ele>243.0</ele><time>2026-03-27T10:16:46.801Z</time></trkpt><trkpt lat="43.469885" lon="11.614715"><ele>243.0</ele><time>2026-03-27T10:16:47.797Z</time></trkpt><trkpt lat="43.4697517" lon="11.6146033"><ele>243.0</ele><time>2026-03-27T10:16:48.799Z</time></trkpt><trkpt lat="43.46962" lon="11.6144733"><ele>243.0</ele><time>2026-03-27T10:16:49.797Z</time></trkpt><trkpt lat="43.469495" lon="11.6143417"><ele>242.25</ele><time>2026-03-27T10:16:50.801Z</time></trkpt><trkpt lat="43.4693817" lon="11.6142183"><ele>241.5</ele><time>2026-03-27T10:16:51.796Z</time></trkpt><trkpt lat="43.4692767" lon="11.6141033"><ele>240.75</ele><time>2026-03-27T10:16:52.798Z</time></trkpt><trkpt lat="43.4691783" lon="11.613995"><ele>240.0</ele><time>2026-03-27T10:16:53.8Z</time></trkpt><trkpt lat="43.469085" lon="11.613895"><ele>240.0</ele><time>2026-03-27T10:16:54.804Z</time></trkpt><trkpt lat="43.4690017" lon="11.6137917"><ele>240.0</ele><time>2026-03-27T10:16:55.803Z</time></trkpt><trkpt lat="43.4689367" lon="11.6136717"><ele>240.0</ele><time>2026-03-27T10:16:56.801Z</time></trkpt><trkpt lat="43.468905" lon="11.613535"><ele>240.0</ele><time>2026-03-27T10:16:57.799Z</time></trkpt><trkpt lat="43.468905" lon="11.6133733"><ele>240.0</ele><time>2026-03-27T10:16:58.797Z</time></trkpt><trkpt lat="43.4689283" lon="11.613205"><ele>239.5</ele><time>2026-03-27T10:16:59.798Z</time></trkpt><trkpt lat="43.4689683" lon="11.6130367"><ele>239.0</ele><time>2026-03-27T10:17:00.802Z</time></trkpt><trkpt lat="43.46901" lon="11.612875"><ele>238.5</ele><time>2026-03-27T10:17:01.796Z</time></trkpt><trkpt lat="43.4690533" lon="11.6127133"><ele>238.0</ele><time>2026-03-27T10:17:02.805Z</time></trkpt><trkpt lat="43.4690967" lon="11.6125483"><ele>238.0</ele><time>2026-03-27T10:17:03.796Z</time></trkpt><trkpt lat="43.4691383" lon="11.6123733"><ele>238.0</ele><time>2026-03-27T10:17:04.797Z</time></trkpt><trkpt lat="43.469185" lon="11.6121917"><ele>238.0</ele><time>2026-03-27T10:17:05.798Z</time></trkpt><trkpt lat="43.4692317" lon="11.6120067"><ele>238.0</ele><time>2026-03-27T10:17:06.798Z</time></trkpt><trkpt lat="43.469285" lon="11.61181"><ele>237.33333333333331</ele><time>2026-03-27T10:17:07.802Z</time></trkpt><trkpt lat="43.4693367" lon="11.6116017"><ele>236.66666666666669</ele><time>2026-03-27T10:17:08.798Z</time></trkpt><trkpt lat="43.46939" lon="11.6113983"><ele>236.0</ele><time>2026-03-27T10:17:09.797Z</time></trkpt><trkpt lat="43.46944" lon="11.6112017"><ele>236.25</ele><time>2026-03-27T10:17:10.805Z</time></trkpt><trkpt lat="43.4694867" lon="11.6110133"><ele>236.5</ele><time>2026-03-27T10:17:11.802Z</time></trkpt><trkpt lat="43.4695317" lon="11.6108283"><ele>236.75</ele><time>2026-03-27T10:17:12.804Z</time></trkpt><trkpt lat="43.469575" lon="11.610655"><ele>237.0</ele><time>2026-03-27T10:17:13.798Z</time></trkpt><trkpt lat="43.4696083" lon="11.6105017"><ele>236.6</ele><time>2026-03-27T10:17:14.799Z</time></trkpt><trkpt lat="43.4696433" lon="11.610355"><ele>236.2</ele><time>2026-03-27T10:17:15.798Z</time></trkpt><trkpt lat="43.469675" lon="11.6102183"><ele>235.8</ele><time>2026-03-27T10:17:16.795Z</time></trkpt><trkpt lat="43.469705" lon="11.610095"><ele>235.4</ele><time>2026-03-27T10:17:17.796Z</time></trkpt><trkpt lat="43.4697267" lon="11.609985"><ele>235.0</ele><time>2026-03-27T10:17:18.797Z</time></trkpt><trkpt lat="43.4697333" lon="11.6098917"><ele>234.99999999999997</ele><time>2026-03-27T10:17:19.795Z</time></trkpt><trkpt lat="43.46972" lon="11.6097983"><ele>235.0</ele><time>2026-03-27T10:17:20.8Z</time></trkpt><trkpt lat="43.46968" lon="11.6097167"><ele>235.0</ele><time>2026-03-27T10:17:21.797Z</time></trkpt><trkpt lat="43.46961" lon="11.6096583"><ele>235.0</ele><time>2026-03-27T10:17:22.797Z</time></trkpt><trkpt lat="43.4695233" lon="11.6095983"><ele>234.99999999999997</ele><time>2026-03-27T10:17:23.797Z</time></trkpt><trkpt lat="43.4694367" lon="11.60954"><ele>235.0</ele><time>2026-03-27T10:17:24.796Z</time></trkpt><trkpt lat="43.4693567" lon="11.60948"><ele>234.8</ele><time>2026-03-27T10:17:25.796Z</time></trkpt><trkpt lat="43.4692733" lon="11.609415"><ele>234.6</ele><time>2026-03-27T10:17:26.799Z</time></trkpt><trkpt lat="43.46918" lon="11.609345"><ele>234.39999999999998</ele><time>2026-03-27T10:17:27.797Z</time></trkpt><trkpt lat="43.4690867" lon="11.6092683"><ele>234.2</ele><time>2026-03-27T10:17:28.797Z</time></trkpt><trkpt lat="43.4689867" lon="11.6091933"><ele>234.0</ele><time>2026-03-27T10:17:29.798Z</time></trkpt><trkpt lat="43.468885" lon="11.6091183"><ele>234.0</ele><time>2026-03-27T10:17:30.8Z</time></trkpt><trkpt lat="43.4687833" lon="11.609035"><ele>234.0</ele><time>2026-03-27T10:17:31.798Z</time></trkpt><trkpt lat="43.4686767" lon="11.6089517"><ele>234.0</ele><time>2026-03-27T10:17:32.797Z</time></trkpt><trkpt lat="43.4685733" lon="11.6088667"><ele>234.0</ele><time>2026-03-27T10:17:33.797Z</time></trkpt><trkpt lat="43.4684667" lon="11.6087933"><ele>234.79999999999998</ele><time>2026-03-27T10:17:34.8Z</time></trkpt><trkpt lat="43.468365" lon="11.6087217"><ele>235.59999999999997</ele><time>2026-03-27T10:17:35.799Z</time></trkpt><trkpt lat="43.4682667" lon="11.60866"><ele>236.4</ele><time>2026-03-27T10:17:36.795Z</time></trkpt><trkpt lat="43.46817" lon="11.6085917"><ele>237.2</ele><time>2026-03-27T10:17:37.794Z</time></trkpt><trkpt lat="43.46808" lon="11.6085167"><ele>238.0</ele><time>2026-03-27T10:17:38.796Z</time></trkpt><trkpt lat="43.4679933" lon="11.60843"><ele>239.4</ele><time>2026-03-27T10:17:39.798Z</time></trkpt><trkpt lat="43.4679067" lon="11.6083383"><ele>240.8</ele><time>2026-03-27T10:17:40.796Z</time></trkpt><trkpt lat="43.46782" lon="11.6082433"><ele>242.2</ele><time>2026-03-27T10:17:41.8Z</time></trkpt><trkpt lat="43.467735" lon="11.6081467"><ele>243.6</ele><time>2026-03-27T10:17:42.8Z</time></trkpt><trkpt lat="43.467655" lon="11.6080583"><ele>245.0</ele><time>2026-03-27T10:17:43.801Z</time></trkpt><trkpt lat="43.4675817" lon="11.6079767"><ele>245.0</ele><time>2026-03-27T10:17:44.802Z</time></trkpt><trkpt lat="43.46751" lon="11.6078983"><ele>245.0</ele><time>2026-03-27T10:17:45.797Z</time></trkpt><trkpt lat="43.4674333" lon="11.6078233"><ele>245.0</ele><time>2026-03-27T10:17:46.797Z</time></trkpt><trkpt lat="43.4673483" lon="11.6077533"><ele>245.0</ele><time>2026-03-27T10:17:47.799Z</time></trkpt><trkpt lat="43.4672633" lon="11.6076833"><ele>245.0</ele><time>2026-03-27T10:17:48.799Z</time></trkpt><trkpt lat="43.4671783" lon="11.6076117"><ele>246.2</ele><time>2026-03-27T10:17:49.799Z</time></trkpt><trkpt lat="43.467095" lon="11.6075367"><ele>247.4</ele><time>2026-03-27T10:17:50.797Z</time></trkpt><trkpt lat="43.4670083" lon="11.607465"><ele>248.60000000000002</ele><time>2026-03-27T10:17:51.796Z</time></trkpt><trkpt lat="43.4669183" lon="11.607395"><ele>249.8</ele><time>2026-03-27T10:17:52.795Z</time></trkpt><trkpt lat="43.4668283" lon="11.6073217"><ele>251.0</ele><time>2026-03-27T10:17:53.8Z</time></trkpt><trkpt lat="43.46674" lon="11.6072383"><ele>251.0</ele><time>2026-03-27T10:17:54.795Z</time></trkpt><trkpt lat="43.46665" lon="11.6071617"><ele>251.00000000000003</ele><time>2026-03-27T10:17:55.796Z</time></trkpt><trkpt lat="43.4665583" lon="11.6070783"><ele>251.00000000000003</ele><time>2026-03-27T10:17:56.798Z</time></trkpt><trkpt lat="43.466465" lon="11.6069933"><ele>251.0</ele><time>2026-03-27T10:17:57.794Z</time></trkpt><trkpt lat="43.466365" lon="11.606905"><ele>251.0</ele><time>2026-03-27T10:17:58.796Z</time></trkpt><trkpt lat="43.466255" lon="11.606815"><ele>251.75</ele><time>2026-03-27T10:17:59.797Z</time></trkpt><trkpt lat="43.4661433" lon="11.606725"><ele>252.5</ele><time>2026-03-27T10:18:00.796Z</time></trkpt><trkpt lat="43.46604" lon="11.6066483"><ele>253.25</ele><time>2026-03-27T10:18:01.8Z</time></trkpt><trkpt lat="43.4659383" lon="11.6066"><ele>254.0</ele><time>2026-03-27T10:18:02.798Z</time></trkpt><trkpt lat="43.4658267" lon="11.606595"><ele>254.0</ele><time>2026-03-27T10:18:03.798Z</time></trkpt><trkpt lat="43.4656983" lon="11.60663"><ele>254.0</ele><time>2026-03-27T10:18:04.797Z</time></trkpt><trkpt lat="43.4655633" lon="11.6067033"><ele>254.0</ele><time>2026-03-27T10:18:05.795Z</time></trkpt><trkpt lat="43.465425" lon="11.6067933"><ele>254.0</ele><time>2026-03-27T10:18:06.801Z</time></trkpt><trkpt lat="43.4652783" lon="11.6068867"><ele>254.33333333333334</ele><time>2026-03-27T10:18:07.796Z</time></trkpt><trkpt lat="43.4651317" lon="11.6069833"><ele>254.66666666666669</ele><time>2026-03-27T10:18:08.802Z</time></trkpt><trkpt lat="43.4649817" lon="11.6070633"><ele>255.0</ele><time>2026-03-27T10:18:09.802Z</time></trkpt><trkpt lat="43.46484" lon="11.6071217"><ele>255.0</ele><time>2026-03-27T10:18:10.806Z</time></trkpt><trkpt lat="43.4647083" lon="11.6071517"><ele>255.0</ele><time>2026-03-27T10:18:11.8Z</time></trkpt><trkpt lat="43.4645817" lon="11.6071567"><ele>255.0</ele><time>2026-03-27T10:18:12.8Z</time></trkpt><trkpt lat="43.46446" lon="11.607145"><ele>255.0</ele><time>2026-03-27T10:18:13.798Z</time></trkpt><trkpt lat="43.4643433" lon="11.60712"><ele>255.0</ele><time>2026-03-27T10:18:14.8Z</time></trkpt><trkpt lat="43.4642233" lon="11.6070867"><ele>255.0</ele><time>2026-03-27T10:18:15.796Z</time></trkpt><trkpt lat="43.4641017" lon="11.6070433"><ele>255.0</ele><time>2026-03-27T10:18:16.795Z</time></trkpt><trkpt lat="43.4639833" lon="11.6069917"><ele>255.0</ele><time>2026-03-27T10:18:17.799Z</time></trkpt><trkpt lat="43.4638683" lon="11.6069333"><ele>252.0</ele><time>2026-03-27T10:18:18.799Z</time></trkpt><trkpt lat="43.46376" lon="11.6068733"><ele>249.0</ele><time>2026-03-27T10:18:19.803Z</time></trkpt><trkpt lat="43.463655" lon="11.6068033"><ele>246.0</ele><time>2026-03-27T10:18:20.805Z</time></trkpt><trkpt lat="43.4635567" lon="11.6067217"><ele>243.0</ele><time>2026-03-27T10:18:21.802Z</time></trkpt><trkpt lat="43.463455" lon="11.606625"><ele>243.0</ele><time>2026-03-27T10:18:22.797Z</time></trkpt><trkpt lat="43.4633433" lon="11.6065167"><ele>243.0</ele><time>2026-03-27T10:18:23.8Z</time></trkpt><trkpt lat="43.4632217" lon="11.6063883"><ele>243.0</ele><time>2026-03-27T10:18:24.797Z</time></trkpt><trkpt lat="43.4631033" lon="11.60625"><ele>243.0</ele><time>2026-03-27T10:18:25.794Z</time></trkpt><trkpt lat="43.4629917" lon="11.606115"><ele>240.33333333333331</ele><time>2026-03-27T10:18:26.803Z</time></trkpt><trkpt lat="43.4628817" lon="11.6059817"><ele>237.66666666666666</ele><time>2026-03-27T10:18:27.797Z</time></trkpt><trkpt lat="43.462765" lon="11.6058433"><ele>235.0</ele><time>2026-03-27T10:18:28.799Z</time></trkpt><trkpt lat="43.4626467" lon="11.6056983"><ele>235.0</ele><time>2026-03-27T10:18:29.797Z</time></trkpt><trkpt lat="43.4625283" lon="11.6055567"><ele>235.0</ele><time>2026-03-27T10:18:30.8Z</time></trkpt><trkpt lat="43.4624133" lon="11.605415"><ele>235.0</ele><time>2026-03-27T10:18:31.797Z</time></trkpt><trkpt lat="43.4623033" lon="11.6052783"><ele>235.75</ele><time>2026-03-27T10:18:32.797Z</time></trkpt><trkpt lat="43.4621933" lon="11.60515"><ele>236.5</ele><time>2026-03-27T10:18:33.8Z</time></trkpt><trkpt lat="43.4620867" lon="11.6050283"><ele>237.25</ele><time>2026-03-27T10:18:34.794Z</time></trkpt><trkpt lat="43.4619867" lon="11.6049133"><ele>238.0</ele><time>2026-03-27T10:18:35.803Z</time></trkpt><trkpt lat="43.4618917" lon="11.6047967"><ele>239.5</ele><time>2026-03-27T10:18:36.801Z</time></trkpt><trkpt lat="43.4618" lon="11.6046833"><ele>241.0</ele><time>2026-03-27T10:18:37.795Z</time></trkpt><trkpt lat="43.461705" lon="11.6045633"><ele>242.5</ele><time>2026-03-27T10:18:38.799Z</time></trkpt><trkpt lat="43.46161" lon="11.6044433"><ele>244.0</ele><time>2026-03-27T10:18:39.799Z</time></trkpt><trkpt lat="43.4615117" lon="11.60432"><ele>244.5</ele><time>2026-03-27T10:18:40.797Z</time></trkpt><trkpt lat="43.46141" lon="11.6041967"><ele>245.0</ele><time>2026-03-27T10:18:41.795Z</time></trkpt><trkpt lat="43.4613067" lon="11.604075"><ele>245.5</ele><time>2026-03-27T10:18:42.807Z</time></trkpt><trkpt lat="43.4612067" lon="11.6039517"><ele>246.0</ele><time>2026-03-27T10:18:43.795Z</time></trkpt><trkpt lat="43.4611183" lon="11.603845"><ele>247.20000000000002</ele><time>2026-03-27T10:18:44.797Z</time></trkpt><trkpt lat="43.46104" lon="11.6037483"><ele>248.40000000000003</ele><time>2026-03-27T10:18:45.796Z</time></trkpt><trkpt lat="43.46097" lon="11.6036483"><ele>249.6</ele><time>2026-03-27T10:18:46.796Z</time></trkpt><trkpt lat="43.4608967" lon="11.6035483"><ele>250.8</ele><time>2026-03-27T10:18:47.798Z</time></trkpt><trkpt lat="43.4608133" lon="11.60344"><ele>252.0</ele><time>2026-03-27T10:18:48.797Z</time></trkpt><trkpt lat="43.4607217" lon="11.6033267"><ele>251.75</ele><time>2026-03-27T10:18:49.797Z</time></trkpt><trkpt lat="43.4606233" lon="11.6031983"><ele>251.5</ele><time>2026-03-27T10:18:50.797Z</time></trkpt><trkpt lat="43.4605183" lon="11.6030683"><ele>251.25</ele><time>2026-03-27T10:18:51.796Z</time></trkpt><trkpt lat="43.460405" lon="11.6029283"><ele>251.0</ele><time>2026-03-27T10:18:52.796Z</time></trkpt><trkpt lat="43.460285" lon="11.6027783"><ele>253.66666666666669</ele><time>2026-03-27T10:18:53.796Z</time></trkpt><trkpt lat="43.4601583" lon="11.60262"><ele>256.3333333333333</ele><time>2026-03-27T10:18:54.797Z</time></trkpt><trkpt lat="43.4600217" lon="11.6024633"><ele>259.0</ele><time>2026-03-27T10:18:55.797Z</time></trkpt><trkpt lat="43.4598917" lon="11.6023133"><ele>259.0</ele><time>2026-03-27T10:18:56.797Z</time></trkpt><trkpt lat="43.4597767" lon="11.602185"><ele>259.0</ele><time>2026-03-27T10:18:57.795Z</time></trkpt><trkpt lat="43.4596633" lon="11.602085"><ele>259.0</ele><time>2026-03-27T10:18:58.796Z</time></trkpt><trkpt lat="43.4595383" lon="11.6020217"><ele>259.0</ele><time>2026-03-27T10:18:59.796Z</time></trkpt><trkpt lat="43.459405" lon="11.6019833"><ele>259.25</ele><time>2026-03-27T10:19:00.796Z</time></trkpt><trkpt lat="43.459275" lon="11.60196"><ele>259.5</ele><time>2026-03-27T10:19:01.795Z</time></trkpt><trkpt lat="43.459155" lon="11.6019317"><ele>259.75</ele><time>2026-03-27T10:19:02.798Z</time></trkpt><trkpt lat="43.459045" lon="11.60186"><ele>260.0</ele><time>2026-03-27T10:19:03.797Z</time></trkpt><trkpt lat="43.4589467" lon="11.6017383"><ele>260.0</ele><time>2026-03-27T10:19:04.796Z</time></trkpt><trkpt lat="43.458865" lon="11.6015833"><ele>260.0</ele><time>2026-03-27T10:19:05.797Z</time></trkpt><trkpt lat="43.4587817" lon="11.6014133"><ele>260.0</ele><time>2026-03-27T10:19:06.797Z</time></trkpt><trkpt lat="43.4586933" lon="11.6012283"><ele>260.0</ele><time>2026-03-27T10:19:07.797Z</time></trkpt><trkpt lat="43.4585917" lon="11.6010267"><ele>259.6666666666667</ele><time>2026-03-27T10:19:08.798Z</time></trkpt><trkpt lat="43.4584817" lon="11.600805"><ele>259.3333333333333</ele><time>2026-03-27T10:19:09.797Z</time></trkpt><trkpt lat="43.458365" lon="11.6005617"><ele>259.0</ele><time>2026-03-27T10:19:10.797Z</time></trkpt><trkpt lat="43.45824" lon="11.6002983"><ele>261.0</ele><time>2026-03-27T10:19:11.797Z</time></trkpt><trkpt lat="43.4581083" lon="11.60002"><ele>263.0</ele><time>2026-03-27T10:19:12.797Z</time></trkpt><trkpt lat="43.4579783" lon="11.5997483"><ele>263.0</ele><time>2026-03-27T10:19:13.798Z</time></trkpt><trkpt lat="43.457865" lon="11.5995117"><ele>263.0</ele><time>2026-03-27T10:19:14.793Z</time></trkpt><trkpt lat="43.4577667" lon="11.5993083"><ele>263.0</ele><time>2026-03-27T10:19:15.796Z</time></trkpt><trkpt lat="43.4576867" lon="11.5991333"><ele>264.25</ele><time>2026-03-27T10:19:16.796Z</time></trkpt><trkpt lat="43.4576183" lon="11.59898"><ele>265.5</ele><time>2026-03-27T10:19:17.798Z</time></trkpt><trkpt lat="43.4575617" lon="11.5988367"><ele>266.75</ele><time>2026-03-27T10:19:18.794Z</time></trkpt><trkpt lat="43.45751" lon="11.5986967"><ele>268.0</ele><time>2026-03-27T10:19:19.796Z</time></trkpt><trkpt lat="43.457465" lon="11.5985583"><ele>268.6</ele><time>2026-03-27T10:19:20.793Z</time></trkpt><trkpt lat="43.45742" lon="11.5984133"><ele>269.20000000000005</ele><time>2026-03-27T10:19:21.796Z</time></trkpt><trkpt lat="43.4573783" lon="11.5982733"><ele>269.8</ele><time>2026-03-27T10:19:22.796Z</time></trkpt><trkpt lat="43.4573267" lon="11.5981467"><ele>270.40000000000003</ele><time>2026-03-27T10:19:23.797Z</time></trkpt><trkpt lat="43.4572667" lon="11.59802"><ele>271.0</ele><time>2026-03-27T10:19:24.798Z</time></trkpt><trkpt lat="43.4572033" lon="11.5979083"><ele>271.40000000000003</ele><time>2026-03-27T10:19:25.796Z</time></trkpt><trkpt lat="43.4571417" lon="11.5977967"><ele>271.8</ele><time>2026-03-27T10:19:26.797Z</time></trkpt><trkpt lat="43.457075" lon="11.597705"><ele>272.20000000000005</ele><time>2026-03-27T10:19:27.796Z</time></trkpt><trkpt lat="43.457015" lon="11.5976267"><ele>272.6</ele><time>2026-03-27T10:19:28.795Z</time></trkpt><trkpt lat="43.4569633" lon="11.5975517"><ele>273.0</ele><time>2026-03-27T10:19:29.796Z</time></trkpt><trkpt lat="43.4568917" lon="11.59743"><ele>273.0</ele><time>2026-03-27T10:19:31.795Z</time></trkpt><trkpt lat="43.456855" lon="11.5972783"><ele>273.0</ele><time>2026-03-27T10:19:33.796Z</time></trkpt><trkpt lat="43.4568483" lon="11.5971717"><ele>273.0</ele><time>2026-03-27T10:19:34.795Z</time></trkpt><trkpt lat="43.4568417" lon="11.5970617"><ele>273.0</ele><time>2026-03-27T10:19:35.796Z</time></trkpt><trkpt lat="43.45682" lon="11.59696"><ele>273.0</ele><time>2026-03-27T10:19:36.796Z</time></trkpt><trkpt lat="43.4567733" lon="11.59687"><ele>273.0</ele><time>2026-03-27T10:19:37.796Z</time></trkpt><trkpt lat="43.45671" lon="11.5967867"><ele>273.1666666666667</ele><time>2026-03-27T10:19:38.793Z</time></trkpt><trkpt lat="43.4566433" lon="11.5967217"><ele>273.3333333333333</ele><time>2026-03-27T10:19:39.795Z</time></trkpt><trkpt lat="43.456585" lon="11.5966817"><ele>273.5</ele><time>2026-03-27T10:19:40.794Z</time></trkpt><trkpt lat="43.4565183" lon="11.59665"><ele>273.66666666666663</ele><time>2026-03-27T10:19:41.791Z</time></trkpt><trkpt lat="43.45644" lon="11.596615"><ele>273.8333333333333</ele><time>2026-03-27T10:19:42.795Z</time></trkpt><trkpt lat="43.4563633" lon="11.59658"><ele>274.0</ele><time>2026-03-27T10:19:43.795Z</time></trkpt><trkpt lat="43.4562933" lon="11.5965467"><ele>275.59999999999997</ele><time>2026-03-27T10:19:44.795Z</time></trkpt><trkpt lat="43.4561917" lon="11.5965133"><ele>277.2</ele><time>2026-03-27T10:19:46.794Z</time></trkpt><trkpt lat="43.4560733" lon="11.5965033"><ele>278.79999999999995</ele><time>2026-03-27T10:19:48.796Z</time></trkpt><trkpt lat="43.455995" lon="11.5965017"><ele>280.4</ele><time>2026-03-27T10:19:49.795Z</time></trkpt><trkpt lat="43.455915" lon="11.5965117"><ele>282.0</ele><time>2026-03-27T10:19:50.797Z</time></trkpt><trkpt lat="43.455845" lon="11.5965183"><ele>282.0</ele><time>2026-03-27T10:19:51.796Z</time></trkpt><trkpt lat="43.4557817" lon="11.5965133"><ele>282.0</ele><time>2026-03-27T10:19:52.795Z</time></trkpt><trkpt lat="43.4557167" lon="11.5964483"><ele>282.0</ele><time>2026-03-27T10:19:53.796Z</time></trkpt><trkpt lat="43.4556633" lon="11.5963667"><ele>282.0</ele><time>2026-03-27T10:19:54.795Z</time></trkpt><trkpt lat="43.45562" lon="11.5963017"><ele>282.0</ele><time>2026-03-27T10:19:55.796Z</time></trkpt><trkpt lat="43.4555367" lon="11.5961633"><ele>282.0</ele><time>2026-03-27T10:19:57.795Z</time></trkpt><trkpt lat="43.4554683" lon="11.596095"><ele>282.5</ele><time>2026-03-27T10:19:58.796Z</time></trkpt><trkpt lat="43.4553867" lon="11.59604"><ele>283.0</ele><time>2026-03-27T10:19:59.796Z</time></trkpt><trkpt lat="43.455305" lon="11.595985"><ele>283.5</ele><time>2026-03-27T10:20:00.796Z</time></trkpt><trkpt lat="43.4552383" lon="11.595925"><ele>284.0</ele><time>2026-03-27T10:20:01.796Z</time></trkpt><trkpt lat="43.45519" lon="11.595845"><ele>284.5</ele><time>2026-03-27T10:20:02.797Z</time></trkpt><trkpt lat="43.4551433" lon="11.59573"><ele>285.0</ele><time>2026-03-27T10:20:03.796Z</time></trkpt><trkpt lat="43.455105" lon="11.595585"><ele>285.0</ele><time>2026-03-27T10:20:04.796Z</time></trkpt><trkpt lat="43.4550717" lon="11.595445"><ele>285.0</ele><time>2026-03-27T10:20:05.795Z</time></trkpt><trkpt lat="43.4550483" lon="11.595315"><ele>285.0</ele><time>2026-03-27T10:20:06.796Z</time></trkpt><trkpt lat="43.45504" lon="11.5951967"><ele>285.0</ele><time>2026-03-27T10:20:07.795Z</time></trkpt><trkpt lat="43.45504" lon="11.5950817"><ele>285.0</ele><time>2026-03-27T10:20:08.797Z</time></trkpt><trkpt lat="43.45504" lon="11.5949683"><ele>286.2</ele><time>2026-03-27T10:20:09.795Z</time></trkpt><trkpt lat="43.4550317" lon="11.5948683"><ele>287.4</ele><time>2026-03-27T10:20:10.793Z</time></trkpt><trkpt lat="43.4549717" lon="11.5947317"><ele>288.6</ele><time>2026-03-27T10:20:12.795Z</time></trkpt><trkpt lat="43.4548933" lon="11.594735"><ele>289.8</ele><time>2026-03-27T10:20:13.796Z</time></trkpt><trkpt lat="43.4548283" lon="11.5947483"><ele>291.0</ele><time>2026-03-27T10:20:14.797Z</time></trkpt><trkpt lat="43.454705" lon="11.59477"><ele>291.0</ele><time>2026-03-27T10:20:16.796Z</time></trkpt><trkpt lat="43.4546367" lon="11.5948"><ele>291.0</ele><time>2026-03-27T10:20:17.796Z</time></trkpt><trkpt lat="43.454565" lon="11.594845"><ele>291.0</ele><time>2026-03-27T10:20:18.796Z</time></trkpt><trkpt lat="43.4545017" lon="11.5948967"><ele>291.0</ele><time>2026-03-27T10:20:19.794Z</time></trkpt><trkpt lat="43.454445" lon="11.5949417"><ele>291.0</ele><time>2026-03-27T10:20:20.797Z</time></trkpt><trkpt lat="43.4543433" lon="11.59499"><ele>291.0</ele><time>2026-03-27T10:20:22.795Z</time></trkpt><trkpt lat="43.4542433" lon="11.5949617"><ele>290.6</ele><time>2026-03-27T10:20:24.796Z</time></trkpt><trkpt lat="43.4541333" lon="11.5948567"><ele>290.20000000000005</ele><time>2026-03-27T10:20:26.797Z</time></trkpt><trkpt lat="43.4540583" lon="11.5947733"><ele>289.79999999999995</ele><time>2026-03-27T10:20:27.795Z</time></trkpt><trkpt lat="43.4539867" lon="11.5947067"><ele>289.4</ele><time>2026-03-27T10:20:28.795Z</time></trkpt><trkpt lat="43.4539283" lon="11.5946517"><ele>289.0</ele><time>2026-03-27T10:20:29.795Z</time></trkpt><trkpt lat="43.4538817" lon="11.5945267"><ele>291.2</ele><time>2026-03-27T10:20:31.796Z</time></trkpt><trkpt lat="43.4539117" lon="11.59436"><ele>293.4</ele><time>2026-03-27T10:20:33.796Z</time></trkpt><trkpt lat="43.4539367" lon="11.5942517"><ele>295.6</ele><time>2026-03-27T10:20:34.795Z</time></trkpt><trkpt lat="43.45395" lon="11.594145"><ele>297.8</ele><time>2026-03-27T10:20:35.797Z</time></trkpt><trkpt lat="43.45395" lon="11.5940317"><ele>300.0</ele><time>2026-03-27T10:20:36.796Z</time></trkpt><trkpt lat="43.4539383" lon="11.5939183"><ele>300.0</ele><time>2026-03-27T10:20:37.795Z</time></trkpt><trkpt lat="43.4539283" lon="11.5938183"><ele>300.0</ele><time>2026-03-27T10:20:38.797Z</time></trkpt><trkpt lat="43.453935" lon="11.5937217"><ele>300.0</ele><time>2026-03-27T10:20:39.796Z</time></trkpt><trkpt lat="43.4539633" lon="11.593625"><ele>300.0</ele><time>2026-03-27T10:20:40.796Z</time></trkpt><trkpt lat="43.454025" lon="11.5935283"><ele>300.0</ele><time>2026-03-27T10:20:41.797Z</time></trkpt><trkpt lat="43.4541033" lon="11.59344"><ele>300.0</ele><time>2026-03-27T10:20:42.794Z</time></trkpt><trkpt lat="43.45418" lon="11.59336"><ele>300.8</ele><time>2026-03-27T10:20:43.796Z</time></trkpt><trkpt lat="43.45424" lon="11.5932967"><ele>301.6</ele><time>2026-03-27T10:20:44.796Z</time></trkpt><trkpt lat="43.4542967" lon="11.59317"><ele>302.4</ele><time>2026-03-27T10:20:46.795Z</time></trkpt><trkpt lat="43.4543" lon="11.5930133"><ele>303.2</ele><time>2026-03-27T10:20:48.796Z</time></trkpt><trkpt lat="43.454285" lon="11.5929067"><ele>304.0</ele><time>2026-03-27T10:20:49.795Z</time></trkpt><trkpt lat="43.4542567" lon="11.59277"><ele>304.75</ele><time>2026-03-27T10:20:50.797Z</time></trkpt><trkpt lat="43.45422" lon="11.5926233"><ele>305.5</ele><time>2026-03-27T10:20:51.795Z</time></trkpt><trkpt lat="43.4541783" lon="11.592485"><ele>306.25</ele><time>2026-03-27T10:20:52.796Z</time></trkpt><trkpt lat="43.4541233" lon="11.5923467"><ele>307.0</ele><time>2026-03-27T10:20:53.796Z</time></trkpt><trkpt lat="43.45406" lon="11.5922033"><ele>307.0</ele><time>2026-03-27T10:20:54.796Z</time></trkpt><trkpt lat="43.4539933" lon="11.5920667"><ele>307.0</ele><time>2026-03-27T10:20:55.793Z</time></trkpt><trkpt lat="43.4539317" lon="11.5919317"><ele>307.0</ele><time>2026-03-27T10:20:56.796Z</time></trkpt><trkpt lat="43.453885" lon="11.5918133"><ele>307.0</ele><time>2026-03-27T10:20:57.796Z</time></trkpt><trkpt lat="43.4538567" lon="11.5916883"><ele>307.0</ele><time>2026-03-27T10:20:58.795Z</time></trkpt><trkpt lat="43.45385" lon="11.5915733"><ele>308.16666666666663</ele><time>2026-03-27T10:20:59.796Z</time></trkpt><trkpt lat="43.4538583" lon="11.5914717"><ele>309.3333333333333</ele><time>2026-03-27T10:21:00.795Z</time></trkpt><trkpt lat="43.4538717" lon="11.5913733"><ele>310.5</ele><time>2026-03-27T10:21:01.796Z</time></trkpt><trkpt lat="43.4538867" lon="11.59127"><ele>311.6666666666667</ele><time>2026-03-27T10:21:02.797Z</time></trkpt><trkpt lat="43.4538967" lon="11.5911683"><ele>312.83333333333337</ele><time>2026-03-27T10:21:03.796Z</time></trkpt><trkpt lat="43.453905" lon="11.59106"><ele>314.0</ele><time>2026-03-27T10:21:04.796Z</time></trkpt><trkpt lat="43.4539117" lon="11.5909533"><ele>315.6666666666667</ele><time>2026-03-27T10:21:05.796Z</time></trkpt><trkpt lat="43.4539133" lon="11.5908467"><ele>317.33333333333337</ele><time>2026-03-27T10:21:06.797Z</time></trkpt><trkpt lat="43.4539117" lon="11.59074"><ele>319.0</ele><time>2026-03-27T10:21:07.796Z</time></trkpt><trkpt lat="43.4539033" lon="11.5906367"><ele>320.6666666666667</ele><time>2026-03-27T10:21:08.796Z</time></trkpt><trkpt lat="43.4538833" lon="11.5905417"><ele>322.3333333333333</ele><time>2026-03-27T10:21:09.796Z</time></trkpt><trkpt lat="43.4538633" lon="11.59045"><ele>324.0</ele><time>2026-03-27T10:21:10.794Z</time></trkpt><trkpt lat="43.4538617" lon="11.5902817"><ele>326.2</ele><time>2026-03-27T10:21:12.798Z</time></trkpt><trkpt lat="43.4539067" lon="11.590145"><ele>328.4</ele><time>2026-03-27T10:21:14.797Z</time></trkpt><trkpt lat="43.4539583" lon="11.5900517"><ele>330.6</ele><time>2026-03-27T10:21:16.799Z</time></trkpt><trkpt lat="43.4540083" lon="11.5899517"><ele>332.8</ele><time>2026-03-27T10:21:18.796Z</time></trkpt><trkpt lat="43.4540383" lon="11.5897933"><ele>335.0</ele><time>2026-03-27T10:21:20.797Z</time></trkpt><trkpt lat="43.4540483" lon="11.5896983"><ele>335.0</ele><time>2026-03-27T10:21:21.797Z</time></trkpt><trkpt lat="43.45407" lon="11.589595"><ele>335.0</ele><time>2026-03-27T10:21:22.795Z</time></trkpt><trkpt lat="43.4540933" lon="11.5894883"><ele>335.0</ele><time>2026-03-27T10:21:23.794Z</time></trkpt><trkpt lat="43.4541233" lon="11.5893767"><ele>335.0</ele><time>2026-03-27T10:21:24.794Z</time></trkpt><trkpt lat="43.4541467" lon="11.589255"><ele>335.0</ele><time>2026-03-27T10:21:25.795Z</time></trkpt><trkpt lat="43.4541617" lon="11.58913"><ele>335.0</ele><time>2026-03-27T10:21:26.796Z</time></trkpt><trkpt lat="43.4541483" lon="11.5890067"><ele>336.83333333333337</ele><time>2026-03-27T10:21:27.794Z</time></trkpt><trkpt lat="43.4541433" lon="11.5888967"><ele>338.6666666666667</ele><time>2026-03-27T10:21:28.795Z</time></trkpt><trkpt lat="43.4541533" lon="11.5887917"><ele>340.5</ele><time>2026-03-27T10:21:29.795Z</time></trkpt><trkpt lat="43.4541717" lon="11.5886867"><ele>342.3333333333333</ele><time>2026-03-27T10:21:30.795Z</time></trkpt><trkpt lat="43.4541783" lon="11.5885733"><ele>344.16666666666663</ele><time>2026-03-27T10:21:31.796Z</time></trkpt><trkpt lat="43.454165" lon="11.588455"><ele>346.0</ele><time>2026-03-27T10:21:32.796Z</time></trkpt><trkpt lat="43.4541367" lon="11.5883367"><ele>347.20000000000005</ele><time>2026-03-27T10:21:33.796Z</time></trkpt><trkpt lat="43.4540983" lon="11.5882167"><ele>348.40000000000003</ele><time>2026-03-27T10:21:34.796Z</time></trkpt><trkpt lat="43.4540683" lon="11.58809"><ele>349.6</ele><time>2026-03-27T10:21:35.796Z</time></trkpt><trkpt lat="43.4540417" lon="11.5879567"><ele>350.8</ele><time>2026-03-27T10:21:36.796Z</time></trkpt><trkpt lat="43.4540217" lon="11.5878233"><ele>352.0</ele><time>2026-03-27T10:21:37.797Z</time></trkpt><trkpt lat="43.4540117" lon="11.5876983"><ele>352.8333333333333</ele><time>2026-03-27T10:21:38.797Z</time></trkpt><trkpt lat="43.4540117" lon="11.5875783"><ele>353.66666666666663</ele><time>2026-03-27T10:21:39.796Z</time></trkpt><trkpt lat="43.4540217" lon="11.5874583"><ele>354.5</ele><time>2026-03-27T10:21:40.795Z</time></trkpt><trkpt lat="43.454035" lon="11.58735"><ele>355.3333333333333</ele><time>2026-03-27T10:21:41.796Z</time></trkpt><trkpt lat="43.4540417" lon="11.5872417"><ele>356.1666666666667</ele><time>2026-03-27T10:21:42.797Z</time></trkpt><trkpt lat="43.4540567" lon="11.58712"><ele>357.0</ele><time>2026-03-27T10:21:43.796Z</time></trkpt><trkpt lat="43.4540767" lon="11.586985"><ele>357.8</ele><time>2026-03-27T10:21:44.796Z</time></trkpt><trkpt lat="43.4541" lon="11.5868267"><ele>358.6</ele><time>2026-03-27T10:21:45.797Z</time></trkpt><trkpt lat="43.4541167" lon="11.5866667"><ele>359.40000000000003</ele><time>2026-03-27T10:21:46.795Z</time></trkpt><trkpt lat="43.454125" lon="11.586525"><ele>360.20000000000005</ele><time>2026-03-27T10:21:47.796Z</time></trkpt><trkpt lat="43.4541333" lon="11.586385"><ele>361.0</ele><time>2026-03-27T10:21:48.796Z</time></trkpt><trkpt lat="43.4541417" lon="11.5862567"><ele>362.3333333333333</ele><time>2026-03-27T10:21:49.796Z</time></trkpt><trkpt lat="43.4541467" lon="11.58615"><ele>363.66666666666663</ele><time>2026-03-27T10:21:50.796Z</time></trkpt><trkpt lat="43.4541533" lon="11.586045"><ele>365.0</ele><time>2026-03-27T10:21:51.795Z</time></trkpt><trkpt lat="43.4541583" lon="11.5859433"><ele>366.3333333333333</ele><time>2026-03-27T10:21:52.795Z</time></trkpt><trkpt lat="43.454155" lon="11.58583"><ele>367.6666666666667</ele><time>2026-03-27T10:21:53.794Z</time></trkpt><trkpt lat="43.45415" lon="11.5857117"><ele>369.0</ele><time>2026-03-27T10:21:54.796Z</time></trkpt><trkpt lat="43.4541483" lon="11.585585"><ele>369.0</ele><time>2026-03-27T10:21:55.795Z</time></trkpt><trkpt lat="43.4541467" lon="11.58546"><ele>369.0</ele><time>2026-03-27T10:21:56.798Z</time></trkpt><trkpt lat="43.4541317" lon="11.5853233"><ele>369.0</ele><time>2026-03-27T10:21:57.795Z</time></trkpt><trkpt lat="43.454115" lon="11.5851867"><ele>369.0</ele><time>2026-03-27T10:21:58.796Z</time></trkpt><trkpt lat="43.45409" lon="11.5850633"><ele>369.0</ele><time>2026-03-27T10:21:59.795Z</time></trkpt><trkpt lat="43.4540533" lon="11.5849483"><ele>371.0</ele><time>2026-03-27T10:22:00.795Z</time></trkpt><trkpt lat="43.454005" lon="11.5848267"><ele>373.0</ele><time>2026-03-27T10:22:01.794Z</time></trkpt><trkpt lat="43.4539633" lon="11.584695"><ele>375.0</ele><time>2026-03-27T10:22:02.796Z</time></trkpt><trkpt lat="43.4539233" lon="11.584575"><ele>377.0</ele><time>2026-03-27T10:22:03.795Z</time></trkpt><trkpt lat="43.4538817" lon="11.5844583"><ele>379.0</ele><time>2026-03-27T10:22:04.794Z</time></trkpt><trkpt lat="43.453845" lon="11.584345"><ele>381.79999999999995</ele><time>2026-03-27T10:22:05.794Z</time></trkpt><trkpt lat="43.4538267" lon="11.58422"><ele>384.59999999999997</ele><time>2026-03-27T10:22:06.796Z</time></trkpt><trkpt lat="43.4538217" lon="11.58409"><ele>387.4</ele><time>2026-03-27T10:22:07.794Z</time></trkpt><trkpt lat="43.4538367" lon="11.58396"><ele>390.2</ele><time>2026-03-27T10:22:08.797Z</time></trkpt><trkpt lat="43.4538517" lon="11.5838283"><ele>393.0</ele><time>2026-03-27T10:22:09.795Z</time></trkpt><trkpt lat="43.4538583" lon="11.5837083"><ele>394.5</ele><time>2026-03-27T10:22:10.796Z</time></trkpt><trkpt lat="43.4538633" lon="11.5835917"><ele>396.0</ele><time>2026-03-27T10:22:11.796Z</time></trkpt><trkpt lat="43.45387" lon="11.5834767"><ele>397.5</ele><time>2026-03-27T10:22:12.796Z</time></trkpt><trkpt lat="43.45388" lon="11.5833733"><ele>399.0</ele><time>2026-03-27T10:22:13.798Z</time></trkpt><trkpt lat="43.45389" lon="11.5832767"><ele>400.5</ele><time>2026-03-27T10:22:14.798Z</time></trkpt><trkpt lat="43.4539017" lon="11.5831817"><ele>402.0</ele><time>2026-03-27T10:22:15.797Z</time></trkpt><trkpt lat="43.4539117" lon="11.58309"><ele>402.0</ele><time>2026-03-27T10:22:16.797Z</time></trkpt><trkpt lat="43.4539117" lon="11.582995"><ele>402.0</ele><time>2026-03-27T10:22:17.796Z</time></trkpt><trkpt lat="43.4539117" lon="11.5828967"><ele>402.0</ele><time>2026-03-27T10:22:18.797Z</time></trkpt><trkpt lat="43.4539167" lon="11.582795"><ele>402.0</ele><time>2026-03-27T10:22:19.798Z</time></trkpt><trkpt lat="43.4539333" lon="11.5826867"><ele>402.0</ele><time>2026-03-27T10:22:20.799Z</time></trkpt><trkpt lat="43.4539533" lon="11.58259"><ele>402.0</ele><time>2026-03-27T10:22:21.797Z</time></trkpt><trkpt lat="43.4539567" lon="11.5824783"><ele>402.0</ele><time>2026-03-27T10:22:22.795Z</time></trkpt><trkpt lat="43.45397" lon="11.582375"><ele>402.3333333333333</ele><time>2026-03-27T10:22:23.794Z</time></trkpt><trkpt lat="43.4539883" lon="11.582285"><ele>402.66666666666663</ele><time>2026-03-27T10:22:24.795Z</time></trkpt><trkpt lat="43.4540167" lon="11.5822017"><ele>403.0</ele><time>2026-03-27T10:22:25.796Z</time></trkpt><trkpt lat="43.4540417" lon="11.58212"><ele>403.3333333333333</ele><time>2026-03-27T10:22:26.796Z</time></trkpt><trkpt lat="43.4540583" lon="11.5819717"><ele>403.66666666666663</ele><time>2026-03-27T10:22:28.795Z</time></trkpt><trkpt lat="43.45406" lon="11.5818333"><ele>404.0</ele><time>2026-03-27T10:22:30.794Z</time></trkpt><trkpt lat="43.4540233" lon="11.5817233"><ele>406.6</ele><time>2026-03-27T10:22:32.797Z</time></trkpt><trkpt lat="43.4539833" lon="11.581615"><ele>409.2</ele><time>2026-03-27T10:22:34.795Z</time></trkpt><trkpt lat="43.4539867" lon="11.5814933"><ele>411.8</ele><time>2026-03-27T10:22:36.795Z</time></trkpt><trkpt lat="43.4539533" lon="11.5813733"><ele>414.40000000000003</ele><time>2026-03-27T10:22:38.795Z</time></trkpt><trkpt lat="43.4539" lon="11.5812617"><ele>417.0</ele><time>2026-03-27T10:22:40.795Z</time></trkpt><trkpt lat="43.4538" lon="11.58111"><ele>419.40000000000003</ele><time>2026-03-27T10:22:42.794Z</time></trkpt><trkpt lat="43.4537333" lon="11.5810133"><ele>421.8</ele><time>2026-03-27T10:22:43.795Z</time></trkpt><trkpt lat="43.45365" lon="11.5809"><ele>424.2</ele><time>2026-03-27T10:22:44.797Z</time></trkpt><trkpt lat="43.45357" lon="11.5808"><ele>426.6</ele><time>2026-03-27T10:22:45.794Z</time></trkpt><trkpt lat="43.4534883" lon="11.5807217"><ele>429.0</ele><time>2026-03-27T10:22:46.796Z</time></trkpt><trkpt lat="43.453415" lon="11.5806567"><ele>429.0</ele><time>2026-03-27T10:22:47.796Z</time></trkpt><trkpt lat="43.4533483" lon="11.5806133"><ele>429.0</ele><time>2026-03-27T10:22:48.796Z</time></trkpt><trkpt lat="43.4532683" lon="11.5805833"><ele>429.0</ele><time>2026-03-27T10:22:49.796Z</time></trkpt><trkpt lat="43.453175" lon="11.5805517"><ele>429.0</ele><time>2026-03-27T10:22:50.796Z</time></trkpt><trkpt lat="43.4530783" lon="11.5805283"><ele>429.0</ele><time>2026-03-27T10:22:51.801Z</time></trkpt><trkpt lat="43.45297" lon="11.58051"><ele>431.5</ele><time>2026-03-27T10:22:52.796Z</time></trkpt><trkpt lat="43.452845" lon="11.5805217"><ele>434.0</ele><time>2026-03-27T10:22:53.797Z</time></trkpt><trkpt lat="43.4527183" lon="11.5805383"><ele>436.5</ele><time>2026-03-27T10:22:54.796Z</time></trkpt><trkpt lat="43.4525833" lon="11.5805683"><ele>439.0</ele><time>2026-03-27T10:22:55.794Z</time></trkpt><trkpt lat="43.452465" lon="11.5805917"><ele>439.00000000000006</ele><time>2026-03-27T10:22:56.798Z</time></trkpt><trkpt lat="43.4523667" lon="11.58061"><ele>439.0</ele><time>2026-03-27T10:22:57.795Z</time></trkpt><trkpt lat="43.4522783" lon="11.58061"><ele>439.0</ele><time>2026-03-27T10:22:58.795Z</time></trkpt><trkpt lat="43.452195" lon="11.5805967"><ele>439.0</ele><time>2026-03-27T10:22:59.795Z</time></trkpt><trkpt lat="43.45211" lon="11.5805817"><ele>439.00000000000006</ele><time>2026-03-27T10:23:00.795Z</time></trkpt><trkpt lat="43.4520283" lon="11.5805767"><ele>439.0</ele><time>2026-03-27T10:23:01.797Z</time></trkpt><trkpt lat="43.451945" lon="11.5805817"><ele>440.6</ele><time>2026-03-27T10:23:02.797Z</time></trkpt><trkpt lat="43.451855" lon="11.5806017"><ele>442.2</ele><time>2026-03-27T10:23:03.796Z</time></trkpt><trkpt lat="43.45176" lon="11.580635"><ele>443.80000000000007</ele><time>2026-03-27T10:23:04.795Z</time></trkpt><trkpt lat="43.451665" lon="11.5806817"><ele>445.40000000000003</ele><time>2026-03-27T10:23:05.796Z</time></trkpt><trkpt lat="43.45158" lon="11.5807417"><ele>447.0</ele><time>2026-03-27T10:23:06.798Z</time></trkpt><trkpt lat="43.4514933" lon="11.5808033"><ele>447.0</ele><time>2026-03-27T10:23:07.795Z</time></trkpt><trkpt lat="43.45141" lon="11.580865"><ele>447.0</ele><time>2026-03-27T10:23:08.796Z</time></trkpt><trkpt lat="43.4513367" lon="11.5809283"><ele>447.0</ele><time>2026-03-27T10:23:09.795Z</time></trkpt><trkpt lat="43.45127" lon="11.5809967"><ele>447.0</ele><time>2026-03-27T10:23:10.795Z</time></trkpt><trkpt lat="43.4512217" lon="11.5810733"><ele>447.0</ele><time>2026-03-27T10:23:11.796Z</time></trkpt><trkpt lat="43.45118" lon="11.581155"><ele>447.0</ele><time>2026-03-27T10:23:12.796Z</time></trkpt><trkpt lat="43.4511467" lon="11.5812467"><ele>449.1428571428571</ele><time>2026-03-27T10:23:13.797Z</time></trkpt><trkpt lat="43.4511483" lon="11.5813483"><ele>451.2857142857143</ele><time>2026-03-27T10:23:14.796Z</time></trkpt><trkpt lat="43.451165" lon="11.5814417"><ele>453.42857142857144</ele><time>2026-03-27T10:23:15.795Z</time></trkpt><trkpt lat="43.4511867" lon="11.5815367"><ele>455.57142857142856</ele><time>2026-03-27T10:23:16.796Z</time></trkpt><trkpt lat="43.4512083" lon="11.5816367"><ele>457.7142857142857</ele><time>2026-03-27T10:23:17.797Z</time></trkpt><trkpt lat="43.451225" lon="11.5817383"><ele>459.85714285714283</ele><time>2026-03-27T10:23:18.795Z</time></trkpt><trkpt lat="43.4512317" lon="11.5818367"><ele>462.0</ele><time>2026-03-27T10:23:19.797Z</time></trkpt><trkpt lat="43.4511833" lon="11.5819683"><ele>462.0</ele><time>2026-03-27T10:23:21.797Z</time></trkpt><trkpt lat="43.4510567" lon="11.5819417"><ele>462.00000000000006</ele><time>2026-03-27T10:23:23.796Z</time></trkpt><trkpt lat="43.4509833" lon="11.5818767"><ele>462.00000000000006</ele><time>2026-03-27T10:23:24.797Z</time></trkpt><trkpt lat="43.4509067" lon="11.5818283"><ele>462.0</ele><time>2026-03-27T10:23:25.796Z</time></trkpt><trkpt lat="43.45083" lon="11.5817917"><ele>462.0</ele><time>2026-03-27T10:23:26.797Z</time></trkpt><trkpt lat="43.4507533" lon="11.58177"><ele>462.0</ele><time>2026-03-27T10:23:27.794Z</time></trkpt><trkpt lat="43.45067" lon="11.581765"><ele>462.00000000000006</ele><time>2026-03-27T10:23:28.796Z</time></trkpt><trkpt lat="43.45057" lon="11.58178"><ele>462.00000000000006</ele><time>2026-03-27T10:23:29.796Z</time></trkpt><trkpt lat="43.4504567" lon="11.5818"><ele>462.0</ele><time>2026-03-27T10:23:30.795Z</time></trkpt><trkpt lat="43.4503417" lon="11.5818133"><ele>462.0</ele><time>2026-03-27T10:23:31.795Z</time></trkpt><trkpt lat="43.4502367" lon="11.5818183"><ele>461.6</ele><time>2026-03-27T10:23:32.798Z</time></trkpt><trkpt lat="43.45013" lon="11.5818283"><ele>461.20000000000005</ele><time>2026-03-27T10:23:33.795Z</time></trkpt><trkpt lat="43.45003" lon="11.581845"><ele>460.8</ele><time>2026-03-27T10:23:34.797Z</time></trkpt><trkpt lat="43.449935" lon="11.5818867"><ele>460.4</ele><time>2026-03-27T10:23:35.794Z</time></trkpt><trkpt lat="43.4498333" lon="11.5819517"><ele>460.0</ele><time>2026-03-27T10:23:36.796Z</time></trkpt><trkpt lat="43.44972" lon="11.58202"><ele>461.4</ele><time>2026-03-27T10:23:37.797Z</time></trkpt><trkpt lat="43.4496083" lon="11.582085"><ele>462.8</ele><time>2026-03-27T10:23:38.797Z</time></trkpt><trkpt lat="43.4495067" lon="11.582155"><ele>464.20000000000005</ele><time>2026-03-27T10:23:39.797Z</time></trkpt><trkpt lat="43.4494117" lon="11.58222"><ele>465.6</ele><time>2026-03-27T10:23:40.795Z</time></trkpt><trkpt lat="43.4493333" lon="11.58231"><ele>467.0</ele><time>2026-03-27T10:23:41.797Z</time></trkpt><trkpt lat="43.4492683" lon="11.58244"><ele>467.0</ele><time>2026-03-27T10:23:42.796Z</time></trkpt><trkpt lat="43.449215" lon="11.5825817"><ele>467.00000000000006</ele><time>2026-03-27T10:23:43.796Z</time></trkpt><trkpt lat="43.4491817" lon="11.5827217"><ele>467.00000000000006</ele><time>2026-03-27T10:23:44.797Z</time></trkpt><trkpt lat="43.449165" lon="11.5828333"><ele>467.0</ele><time>2026-03-27T10:23:45.795Z</time></trkpt><trkpt lat="43.4491483" lon="11.5829283"><ele>467.0</ele><time>2026-03-27T10:23:46.796Z</time></trkpt><trkpt lat="43.4490717" lon="11.5830083"><ele>466.8333333333333</ele><time>2026-03-27T10:23:48.795Z</time></trkpt><trkpt lat="43.4490083" lon="11.58303"><ele>466.66666666666663</ele><time>2026-03-27T10:23:49.797Z</time></trkpt><trkpt lat="43.448925" lon="11.58305"><ele>466.5</ele><time>2026-03-27T10:23:50.797Z</time></trkpt><trkpt lat="43.448835" lon="11.5830767"><ele>466.33333333333337</ele><time>2026-03-27T10:23:51.797Z</time></trkpt><trkpt lat="43.4487483" lon="11.5831083"><ele>466.1666666666667</ele><time>2026-03-27T10:23:52.796Z</time></trkpt><trkpt lat="43.4486667" lon="11.583135"><ele>466.0</ele><time>2026-03-27T10:23:53.795Z</time></trkpt><trkpt lat="43.448585" lon="11.5831583"><ele>468.33333333333337</ele><time>2026-03-27T10:23:54.796Z</time></trkpt><trkpt lat="43.448515" lon="11.5831883"><ele>470.6666666666667</ele><time>2026-03-27T10:23:55.796Z</time></trkpt><trkpt lat="43.44845" lon="11.583215"><ele>473.0</ele><time>2026-03-27T10:23:56.796Z</time></trkpt><trkpt lat="43.4483883" lon="11.58324"><ele>475.33333333333337</ele><time>2026-03-27T10:23:57.796Z</time></trkpt><trkpt lat="43.4482767" lon="11.5832667"><ele>477.6666666666667</ele><time>2026-03-27T10:23:59.796Z</time></trkpt><trkpt lat="43.44821" lon="11.5832883"><ele>480.0</ele><time>2026-03-27T10:24:00.796Z</time></trkpt><trkpt lat="43.4481383" lon="11.5833167"><ele>480.0</ele><time>2026-03-27T10:24:01.8Z</time></trkpt><trkpt lat="43.44806" lon="11.5833533"><ele>480.0</ele><time>2026-03-27T10:24:02.8Z</time></trkpt><trkpt lat="43.4479783" lon="11.58339"><ele>480.0</ele><time>2026-03-27T10:24:03.797Z</time></trkpt><trkpt lat="43.4479" lon="11.5834317"><ele>480.0</ele><time>2026-03-27T10:24:04.797Z</time></trkpt><trkpt lat="43.4478217" lon="11.5834833"><ele>480.0</ele><time>2026-03-27T10:24:05.797Z</time></trkpt><trkpt lat="43.4477433" lon="11.5835267"><ele>480.0</ele><time>2026-03-27T10:24:06.799Z</time></trkpt><trkpt lat="43.44766" lon="11.583555"><ele>478.2</ele><time>2026-03-27T10:24:07.797Z</time></trkpt><trkpt lat="43.4475683" lon="11.5835733"><ele>476.4</ele><time>2026-03-27T10:24:08.797Z</time></trkpt><trkpt lat="43.4474683" lon="11.5835917"><ele>474.6</ele><time>2026-03-27T10:24:09.797Z</time></trkpt><trkpt lat="43.4473617" lon="11.5836267"><ele>472.8</ele><time>2026-03-27T10:24:10.797Z</time></trkpt><trkpt lat="43.4472617" lon="11.583675"><ele>471.0</ele><time>2026-03-27T10:24:11.796Z</time></trkpt><trkpt lat="43.447175" lon="11.5837167"><ele>472.1666666666667</ele><time>2026-03-27T10:24:12.796Z</time></trkpt><trkpt lat="43.4470967" lon="11.58376"><ele>473.33333333333337</ele><time>2026-03-27T10:24:13.796Z</time></trkpt><trkpt lat="43.4470167" lon="11.5837917"><ele>474.5</ele><time>2026-03-27T10:24:14.796Z</time></trkpt><trkpt lat="43.4469217" lon="11.5838083"><ele>475.6666666666667</ele><time>2026-03-27T10:24:15.795Z</time></trkpt><trkpt lat="43.4468283" lon="11.58382"><ele>476.83333333333337</ele><time>2026-03-27T10:24:16.795Z</time></trkpt><trkpt lat="43.4467417" lon="11.5838267"><ele>478.0</ele><time>2026-03-27T10:24:17.796Z</time></trkpt><trkpt lat="43.4466617" lon="11.5838517"><ele>478.0</ele><time>2026-03-27T10:24:18.797Z</time></trkpt><trkpt lat="43.446585" lon="11.58388"><ele>477.99999999999994</ele><time>2026-03-27T10:24:19.797Z</time></trkpt><trkpt lat="43.4465083" lon="11.5839017"><ele>477.99999999999994</ele><time>2026-03-27T10:24:20.797Z</time></trkpt><trkpt lat="43.4464233" lon="11.5839133"><ele>478.0</ele><time>2026-03-27T10:24:21.797Z</time></trkpt><trkpt lat="43.4463217" lon="11.5838617"><ele>478.0</ele><time>2026-03-27T10:24:22.797Z</time></trkpt><trkpt lat="43.4462183" lon="11.5838017"><ele>476.0</ele><time>2026-03-27T10:24:23.796Z</time></trkpt><trkpt lat="43.4461183" lon="11.5837467"><ele>473.99999999999994</ele><time>2026-03-27T10:24:24.795Z</time></trkpt><trkpt lat="43.4460133" lon="11.5836967"><ele>471.99999999999994</ele><time>2026-03-27T10:24:25.795Z</time></trkpt><trkpt lat="43.4459067" lon="11.5836417"><ele>470.0</ele><time>2026-03-27T10:24:26.796Z</time></trkpt><trkpt lat="43.4458133" lon="11.58359"><ele>468.0</ele><time>2026-03-27T10:24:27.796Z</time></trkpt><trkpt lat="43.4457283" lon="11.5835367"><ele>471.4</ele><time>2026-03-27T10:24:28.796Z</time></trkpt><trkpt lat="43.44564" lon="11.58348"><ele>474.79999999999995</ele><time>2026-03-27T10:24:29.796Z</time></trkpt><trkpt lat="43.445545" lon="11.583405"><ele>478.2</ele><time>2026-03-27T10:24:30.797Z</time></trkpt><trkpt lat="43.4454467" lon="11.5833167"><ele>481.6</ele><time>2026-03-27T10:24:31.797Z</time></trkpt><trkpt lat="43.4453667" lon="11.5832383"><ele>485.0</ele><time>2026-03-27T10:24:32.797Z</time></trkpt><trkpt lat="43.445305" lon="11.5831817"><ele>484.99999999999994</ele><time>2026-03-27T10:24:33.797Z</time></trkpt><trkpt lat="43.4451917" lon="11.5831317"><ele>485.0</ele><time>2026-03-27T10:24:35.797Z</time></trkpt><trkpt lat="43.4451283" lon="11.5831533"><ele>485.0</ele><time>2026-03-27T10:24:36.797Z</time></trkpt><trkpt lat="43.4450633" lon="11.583205"><ele>485.0</ele><time>2026-03-27T10:24:37.796Z</time></trkpt><trkpt lat="43.44499" lon="11.5832733"><ele>484.99999999999994</ele><time>2026-03-27T10:24:38.798Z</time></trkpt><trkpt lat="43.44492" lon="11.583335"><ele>485.0</ele><time>2026-03-27T10:24:39.794Z</time></trkpt><trkpt lat="43.444855" lon="11.5833867"><ele>484.99999999999994</ele><time>2026-03-27T10:24:40.795Z</time></trkpt><trkpt lat="43.4447917" lon="11.5834417"><ele>485.0</ele><time>2026-03-27T10:24:41.801Z</time></trkpt><trkpt lat="43.44473" lon="11.583495"><ele>485.0</ele><time>2026-03-27T10:24:42.795Z</time></trkpt><trkpt lat="43.4446617" lon="11.583545"><ele>485.0</ele><time>2026-03-27T10:24:43.802Z</time></trkpt><trkpt lat="43.4445917" lon="11.5835883"><ele>484.99999999999994</ele><time>2026-03-27T10:24:44.798Z</time></trkpt><trkpt lat="43.4445217" lon="11.5836167"><ele>485.0</ele><time>2026-03-27T10:24:45.796Z</time></trkpt><trkpt lat="43.4444383" lon="11.583625"><ele>486.8</ele><time>2026-03-27T10:24:46.798Z</time></trkpt><trkpt lat="43.4443483" lon="11.58362"><ele>488.6</ele><time>2026-03-27T10:24:47.797Z</time></trkpt><trkpt lat="43.4442517" lon="11.5836017"><ele>490.4</ele><time>2026-03-27T10:24:48.797Z</time></trkpt><trkpt lat="43.4441467" lon="11.58359"><ele>492.2</ele><time>2026-03-27T10:24:49.797Z</time></trkpt><trkpt lat="43.4440317" lon="11.5835983"><ele>494.0</ele><time>2026-03-27T10:24:50.797Z</time></trkpt><trkpt lat="43.44392" lon="11.58361"><ele>494.0</ele><time>2026-03-27T10:24:51.796Z</time></trkpt><trkpt lat="43.4438167" lon="11.58361"><ele>494.0</ele><time>2026-03-27T10:24:52.797Z</time></trkpt><trkpt lat="43.443725" lon="11.5835967"><ele>494.0</ele><time>2026-03-27T10:24:53.797Z</time></trkpt><trkpt lat="43.44363" lon="11.5835833"><ele>494.0</ele><time>2026-03-27T10:24:54.797Z</time></trkpt><trkpt lat="43.4435233" lon="11.5835817"><ele>494.0</ele><time>2026-03-27T10:24:55.797Z</time></trkpt><trkpt lat="43.4434067" lon="11.5835983"><ele>493.6</ele><time>2026-03-27T10:24:56.797Z</time></trkpt><trkpt lat="43.4433" lon="11.583615"><ele>493.2</ele><time>2026-03-27T10:24:57.796Z</time></trkpt><trkpt lat="43.4432033" lon="11.5836167"><ele>492.80000000000007</ele><time>2026-03-27T10:24:58.795Z</time></trkpt><trkpt lat="43.44311" lon="11.5836167"><ele>492.40000000000003</ele><time>2026-03-27T10:24:59.796Z</time></trkpt><trkpt lat="43.44301" lon="11.5836133"><ele>492.0</ele><time>2026-03-27T10:25:00.795Z</time></trkpt><trkpt lat="43.44292" lon="11.583605"><ele>492.0</ele><time>2026-03-27T10:25:01.795Z</time></trkpt><trkpt lat="43.4428333" lon="11.5835967"><ele>492.00000000000006</ele><time>2026-03-27T10:25:02.797Z</time></trkpt><trkpt lat="43.44273" lon="11.5835917"><ele>492.00000000000006</ele><time>2026-03-27T10:25:03.796Z</time></trkpt><trkpt lat="43.4426317" lon="11.5835917"><ele>492.0</ele><time>2026-03-27T10:25:04.796Z</time></trkpt><trkpt lat="43.442545" lon="11.583605"><ele>492.0</ele><time>2026-03-27T10:25:05.796Z</time></trkpt><trkpt lat="43.4424683" lon="11.58363"><ele>492.0</ele><time>2026-03-27T10:25:06.797Z</time></trkpt><trkpt lat="43.44239" lon="11.5836533"><ele>492.00000000000006</ele><time>2026-03-27T10:25:07.797Z</time></trkpt><trkpt lat="43.4422967" lon="11.5836367"><ele>492.00000000000006</ele><time>2026-03-27T10:25:08.797Z</time></trkpt><trkpt lat="43.4422083" lon="11.58359"><ele>492.0</ele><time>2026-03-27T10:25:09.795Z</time></trkpt><trkpt lat="43.4421267" lon="11.583535"><ele>492.0</ele><time>2026-03-27T10:25:10.796Z</time></trkpt><trkpt lat="43.4420433" lon="11.5834583"><ele>490.8333333333333</ele><time>2026-03-27T10:25:11.796Z</time></trkpt><trkpt lat="43.4419633" lon="11.583395"><ele>489.66666666666663</ele><time>2026-03-27T10:25:12.796Z</time></trkpt><trkpt lat="43.4418883" lon="11.583355"><ele>488.5</ele><time>2026-03-27T10:25:13.796Z</time></trkpt><trkpt lat="43.4418083" lon="11.5833433"><ele>487.3333333333333</ele><time>2026-03-27T10:25:14.797Z</time></trkpt><trkpt lat="43.4417133" lon="11.58336"><ele>486.16666666666663</ele><time>2026-03-27T10:25:15.795Z</time></trkpt><trkpt lat="43.441625" lon="11.583395"><ele>485.0</ele><time>2026-03-27T10:25:16.796Z</time></trkpt><trkpt lat="43.4415433" lon="11.5834483"><ele>485.0</ele><time>2026-03-27T10:25:17.796Z</time></trkpt><trkpt lat="43.441465" lon="11.58348"><ele>485.0</ele><time>2026-03-27T10:25:18.797Z</time></trkpt><trkpt lat="43.4413767" lon="11.58349"><ele>485.0</ele><time>2026-03-27T10:25:19.797Z</time></trkpt><trkpt lat="43.4412733" lon="11.583465"><ele>485.0</ele><time>2026-03-27T10:25:20.799Z</time></trkpt><trkpt lat="43.4411733" lon="11.5834167"><ele>485.0</ele><time>2026-03-27T10:25:21.797Z</time></trkpt><trkpt lat="43.4410833" lon="11.58336"><ele>483.49999999999994</ele><time>2026-03-27T10:25:22.795Z</time></trkpt><trkpt lat="43.4410067" lon="11.5832933"><ele>482.0</ele><time>2026-03-27T10:25:23.797Z</time></trkpt><trkpt lat="43.4409433" lon="11.5832283"><ele>480.5</ele><time>2026-03-27T10:25:24.797Z</time></trkpt><trkpt lat="43.440895" lon="11.58317"><ele>479.0</ele><time>2026-03-27T10:25:25.797Z</time></trkpt><trkpt lat="43.4409733" lon="11.5831867"><ele>477.49999999999994</ele><time>2026-03-27T10:25:34.795Z</time></trkpt><trkpt lat="43.441025" lon="11.5832367"><ele>476.0</ele><time>2026-03-27T10:25:35.796Z</time></trkpt><trkpt lat="43.4411283" lon="11.58331"><ele>476.0</ele><time>2026-03-27T10:25:37.796Z</time></trkpt><trkpt lat="43.4412367" lon="11.583295"><ele>476.0</ele><time>2026-03-27T10:25:39.794Z</time></trkpt><trkpt lat="43.4412533" lon="11.5831817"><ele>476.0</ele><time>2026-03-27T10:25:41.795Z</time></trkpt><trkpt lat="43.4411767" lon="11.583035"><ele>476.0</ele><time>2026-03-27T10:25:43.794Z</time></trkpt><trkpt lat="43.4411233" lon="11.5829367"><ele>476.0</ele><time>2026-03-27T10:25:44.796Z</time></trkpt><trkpt lat="43.441075" lon="11.58281"><ele>479.5</ele><time>2026-03-27T10:25:45.795Z</time></trkpt><trkpt lat="43.4410317" lon="11.5826367"><ele>483.0</ele><time>2026-03-27T10:25:46.796Z</time></trkpt><trkpt lat="43.441005" lon="11.58248"><ele>486.5</ele><time>2026-03-27T10:25:47.789Z</time></trkpt><trkpt lat="43.441005" lon="11.5823383"><ele>490.0</ele><time>2026-03-27T10:25:48.795Z</time></trkpt><trkpt lat="43.44102" lon="11.582205"><ele>490.00000000000006</ele><time>2026-03-27T10:25:49.795Z</time></trkpt><trkpt lat="43.4410467" lon="11.5820833"><ele>490.0</ele><time>2026-03-27T10:25:50.795Z</time></trkpt><trkpt lat="43.4410717" lon="11.58197"><ele>490.0</ele><time>2026-03-27T10:25:51.794Z</time></trkpt><trkpt lat="43.4410867" lon="11.581865"><ele>490.0</ele><time>2026-03-27T10:25:52.795Z</time></trkpt><trkpt lat="43.4411033" lon="11.581765"><ele>490.00000000000006</ele><time>2026-03-27T10:25:53.796Z</time></trkpt><trkpt lat="43.4411267" lon="11.5816733"><ele>490.0</ele><time>2026-03-27T10:25:54.795Z</time></trkpt><trkpt lat="43.4411517" lon="11.5815817"><ele>491.33333333333337</ele><time>2026-03-27T10:25:55.795Z</time></trkpt><trkpt lat="43.441185" lon="11.5815"><ele>492.6666666666667</ele><time>2026-03-27T10:25:56.797Z</time></trkpt><trkpt lat="43.44124" lon="11.5813567"><ele>494.0</ele><time>2026-03-27T10:25:58.795Z</time></trkpt><trkpt lat="43.441265" lon="11.5812617"><ele>495.33333333333337</ele><time>2026-03-27T10:25:59.794Z</time></trkpt><trkpt lat="43.4412783" lon="11.5811617"><ele>496.6666666666667</ele><time>2026-03-27T10:26:00.795Z</time></trkpt><trkpt lat="43.441285" lon="11.5810583"><ele>498.0</ele><time>2026-03-27T10:26:01.796Z</time></trkpt><trkpt lat="43.441285" lon="11.5809517"><ele>498.3333333333333</ele><time>2026-03-27T10:26:02.796Z</time></trkpt><trkpt lat="43.4412617" lon="11.5808433"><ele>498.66666666666663</ele><time>2026-03-27T10:26:03.795Z</time></trkpt><trkpt lat="43.441215" lon="11.580735"><ele>499.0</ele><time>2026-03-27T10:26:04.794Z</time></trkpt><trkpt lat="43.44115" lon="11.5806383"><ele>499.3333333333333</ele><time>2026-03-27T10:26:05.795Z</time></trkpt><trkpt lat="43.441085" lon="11.5805583"><ele>499.66666666666663</ele><time>2026-03-27T10:26:06.795Z</time></trkpt><trkpt lat="43.44103" lon="11.5804733"><ele>500.0</ele><time>2026-03-27T10:26:07.795Z</time></trkpt><trkpt lat="43.4409833" lon="11.58038"><ele>498.0</ele><time>2026-03-27T10:26:08.797Z</time></trkpt><trkpt lat="43.440945" lon="11.58027"><ele>496.0</ele><time>2026-03-27T10:26:09.796Z</time></trkpt><trkpt lat="43.4409233" lon="11.5801433"><ele>494.0</ele><time>2026-03-27T10:26:10.795Z</time></trkpt><trkpt lat="43.4409217" lon="11.5800183"><ele>492.0</ele><time>2026-03-27T10:26:11.798Z</time></trkpt><trkpt lat="43.440915" lon="11.579895"><ele>490.0</ele><time>2026-03-27T10:26:12.796Z</time></trkpt><trkpt lat="43.4408933" lon="11.5797567"><ele>490.0</ele><time>2026-03-27T10:26:13.796Z</time></trkpt><trkpt lat="43.4408517" lon="11.579625"><ele>490.0</ele><time>2026-03-27T10:26:14.797Z</time></trkpt><trkpt lat="43.4408067" lon="11.5794983"><ele>490.0</ele><time>2026-03-27T10:26:15.794Z</time></trkpt><trkpt lat="43.44076" lon="11.5793867"><ele>490.0</ele><time>2026-03-27T10:26:16.794Z</time></trkpt><trkpt lat="43.440715" lon="11.5793"><ele>490.0</ele><time>2026-03-27T10:26:17.795Z</time></trkpt><trkpt lat="43.4406817" lon="11.57917"><ele>489.2</ele><time>2026-03-27T10:26:19.796Z</time></trkpt><trkpt lat="43.44071" lon="11.57908"><ele>488.4</ele><time>2026-03-27T10:26:21.797Z</time></trkpt><trkpt lat="43.440775" lon="11.579055"><ele>487.6</ele><time>2026-03-27T10:26:22.795Z</time></trkpt><trkpt lat="43.4409067" lon="11.579105"><ele>486.8</ele><time>2026-03-27T10:26:23.797Z</time></trkpt><trkpt lat="43.4410433" lon="11.57916"><ele>486.0</ele><time>2026-03-27T10:26:24.796Z</time></trkpt><trkpt lat="43.4411633" lon="11.57917"><ele>486.0</ele><time>2026-03-27T10:26:25.795Z</time></trkpt><trkpt lat="43.44126" lon="11.5791583"><ele>486.0</ele><time>2026-03-27T10:26:26.796Z</time></trkpt><trkpt lat="43.4413517" lon="11.5791233"><ele>486.0</ele><time>2026-03-27T10:26:27.795Z</time></trkpt><trkpt lat="43.4414383" lon="11.5790483"><ele>486.0</ele><time>2026-03-27T10:26:28.795Z</time></trkpt><trkpt lat="43.4415033" lon="11.578945"><ele>486.0</ele><time>2026-03-27T10:26:29.797Z</time></trkpt><trkpt lat="43.44158" lon="11.5788767"><ele>486.8333333333333</ele><time>2026-03-27T10:26:30.797Z</time></trkpt><trkpt lat="43.4416717" lon="11.5788467"><ele>487.66666666666663</ele><time>2026-03-27T10:26:31.797Z</time></trkpt><trkpt lat="43.4417583" lon="11.5788083"><ele>488.5</ele><time>2026-03-27T10:26:32.797Z</time></trkpt><trkpt lat="43.4418383" lon="11.5787733"><ele>489.3333333333333</ele><time>2026-03-27T10:26:33.798Z</time></trkpt><trkpt lat="43.4418967" lon="11.5787133"><ele>490.16666666666663</ele><time>2026-03-27T10:26:34.797Z</time></trkpt><trkpt lat="43.4419517" lon="11.578615"><ele>491.0</ele><time>2026-03-27T10:26:35.799Z</time></trkpt><trkpt lat="43.4420067" lon="11.5784983"><ele>491.0</ele><time>2026-03-27T10:26:36.796Z</time></trkpt><trkpt lat="43.4420583" lon="11.57838"><ele>491.0</ele><time>2026-03-27T10:26:37.797Z</time></trkpt><trkpt lat="43.442105" lon="11.57826"><ele>491.0</ele><time>2026-03-27T10:26:38.796Z</time></trkpt><trkpt lat="43.44214" lon="11.5781183"><ele>491.0</ele><time>2026-03-27T10:26:39.795Z</time></trkpt><trkpt lat="43.4421683" lon="11.577975"><ele>491.0</ele><time>2026-03-27T10:26:40.795Z</time></trkpt><trkpt lat="43.442175" lon="11.5778133"><ele>483.0</ele><time>2026-03-27T10:26:41.8Z</time></trkpt><trkpt lat="43.4421767" lon="11.5776433"><ele>475.0</ele><time>2026-03-27T10:26:42.796Z</time></trkpt><trkpt lat="43.442195" lon="11.57746"><ele>467.0</ele><time>2026-03-27T10:26:43.795Z</time></trkpt><trkpt lat="43.4422417" lon="11.577265"><ele>459.0</ele><time>2026-03-27T10:26:44.794Z</time></trkpt><trkpt lat="43.4422817" lon="11.5770967"><ele>459.3333333333333</ele><time>2026-03-27T10:26:45.796Z</time></trkpt><trkpt lat="43.4423167" lon="11.5769617"><ele>459.66666666666663</ele><time>2026-03-27T10:26:46.796Z</time></trkpt><trkpt lat="43.4423383" lon="11.57685"><ele>460.0</ele><time>2026-03-27T10:26:47.796Z</time></trkpt><trkpt lat="43.4423433" lon="11.57674"><ele>460.3333333333333</ele><time>2026-03-27T10:26:48.796Z</time></trkpt><trkpt lat="43.4423283" lon="11.5766317"><ele>460.66666666666663</ele><time>2026-03-27T10:26:49.796Z</time></trkpt><trkpt lat="43.4422867" lon="11.57652"><ele>461.0</ele><time>2026-03-27T10:26:50.797Z</time></trkpt><trkpt lat="43.442225" lon="11.576395"><ele>461.0</ele><time>2026-03-27T10:26:51.795Z</time></trkpt><trkpt lat="43.4421517" lon="11.576265"><ele>461.0</ele><time>2026-03-27T10:26:52.795Z</time></trkpt><trkpt lat="43.4420867" lon="11.5761567"><ele>461.0</ele><time>2026-03-27T10:26:53.796Z</time></trkpt><trkpt lat="43.4420317" lon="11.5760783"><ele>461.0</ele><time>2026-03-27T10:26:54.796Z</time></trkpt><trkpt lat="43.4419817" lon="11.57595"><ele>461.0</ele><time>2026-03-27T10:26:56.796Z</time></trkpt><trkpt lat="43.4420017" lon="11.575825"><ele>463.4</ele><time>2026-03-27T10:26:58.795Z</time></trkpt><trkpt lat="43.4420467" lon="11.57576"><ele>465.8</ele><time>2026-03-27T10:26:59.795Z</time></trkpt><trkpt lat="43.44209" lon="11.5756233"><ele>468.19999999999993</ele><time>2026-03-27T10:27:01.8Z</time></trkpt><trkpt lat="43.4421033" lon="11.5755267"><ele>470.59999999999997</ele><time>2026-03-27T10:27:02.796Z</time></trkpt><trkpt lat="43.4420717" lon="11.5753567"><ele>473.0</ele><time>2026-03-27T10:27:03.794Z</time></trkpt><trkpt lat="43.4420233" lon="11.5751583"><ele>473.0</ele><time>2026-03-27T10:27:04.796Z</time></trkpt><trkpt lat="43.44197" lon="11.5749667"><ele>473.0</ele><time>2026-03-27T10:27:05.794Z</time></trkpt><trkpt lat="43.441915" lon="11.5747883"><ele>473.0</ele><time>2026-03-27T10:27:06.793Z</time></trkpt><trkpt lat="43.4418717" lon="11.574605"><ele>473.0</ele><time>2026-03-27T10:27:07.795Z</time></trkpt><trkpt lat="43.4418317" lon="11.57443"><ele>470.0</ele><time>2026-03-27T10:27:08.796Z</time></trkpt><trkpt lat="43.4418033" lon="11.5742567"><ele>467.0</ele><time>2026-03-27T10:27:09.797Z</time></trkpt><trkpt lat="43.4417683" lon="11.5740983"><ele>464.0</ele><time>2026-03-27T10:27:10.81Z</time></trkpt><trkpt lat="43.4417317" lon="11.573955"><ele>461.0</ele><time>2026-03-27T10:27:11.795Z</time></trkpt><trkpt lat="43.4416867" lon="11.573825"><ele>461.0</ele><time>2026-03-27T10:27:12.797Z</time></trkpt><trkpt lat="43.4416383" lon="11.5737033"><ele>461.0</ele><time>2026-03-27T10:27:13.794Z</time></trkpt><trkpt lat="43.44159" lon="11.5735833"><ele>461.0</ele><time>2026-03-27T10:27:14.795Z</time></trkpt><trkpt lat="43.4415483" lon="11.5734633"><ele>461.0</ele><time>2026-03-27T10:27:15.794Z</time></trkpt><trkpt lat="43.44151" lon="11.5733533"><ele>461.0</ele><time>2026-03-27T10:27:16.795Z</time></trkpt><trkpt lat="43.441485" lon="11.5732567"><ele>459.0</ele><time>2026-03-27T10:27:17.796Z</time></trkpt><trkpt lat="43.441455" lon="11.5731217"><ele>457.0</ele><time>2026-03-27T10:27:19.795Z</time></trkpt><trkpt lat="43.44142" lon="11.5730417"><ele>455.0</ele><time>2026-03-27T10:27:22.796Z</time></trkpt><trkpt lat="43.4415217" lon="11.5730717"><ele>453.0</ele><time>2026-03-27T10:27:44.797Z</time></trkpt><trkpt lat="43.441635" lon="11.573145"><ele>451.0</ele><time>2026-03-27T10:27:46.795Z</time></trkpt><trkpt lat="43.4417" lon="11.573185"><ele>451.0</ele><time>2026-03-27T10:27:47.795Z</time></trkpt><trkpt lat="43.44179" lon="11.5732417"><ele>451.0</ele><time>2026-03-27T10:27:48.795Z</time></trkpt><trkpt lat="43.4418667" lon="11.573325"><ele>451.0</ele><time>2026-03-27T10:27:49.795Z</time></trkpt><trkpt lat="43.4419433" lon="11.5734133"><ele>451.0</ele><time>2026-03-27T10:27:50.795Z</time></trkpt><trkpt lat="43.4420133" lon="11.5735317"><ele>451.0</ele><time>2026-03-27T10:27:51.796Z</time></trkpt><trkpt lat="43.4420933" lon="11.5736483"><ele>451.0</ele><time>2026-03-27T10:27:52.796Z</time></trkpt><trkpt lat="43.4421683" lon="11.573815"><ele>451.0</ele><time>2026-03-27T10:27:53.795Z</time></trkpt><trkpt lat="43.44225" lon="11.5739933"><ele>451.0</ele><time>2026-03-27T10:27:54.794Z</time></trkpt><trkpt lat="43.4423317" lon="11.57417"><ele>451.0</ele><time>2026-03-27T10:27:55.794Z</time></trkpt><trkpt lat="43.4424283" lon="11.5743483"><ele>451.0</ele><time>2026-03-27T10:27:56.797Z</time></trkpt><trkpt lat="43.4425333" lon="11.5745183"><ele>451.0</ele><time>2026-03-27T10:27:57.794Z</time></trkpt><trkpt lat="43.4426317" lon="11.5746667"><ele>451.0</ele><time>2026-03-27T10:27:58.795Z</time></trkpt><trkpt lat="43.44271" lon="11.5748117"><ele>451.0</ele><time>2026-03-27T10:27:59.795Z</time></trkpt><trkpt lat="43.4427883" lon="11.5749733"><ele>449.75</ele><time>2026-03-27T10:28:00.795Z</time></trkpt><trkpt lat="43.4428533" lon="11.5751183"><ele>448.5</ele><time>2026-03-27T10:28:01.797Z</time></trkpt><trkpt lat="43.4429167" lon="11.5752583"><ele>447.25</ele><time>2026-03-27T10:28:02.795Z</time></trkpt><trkpt lat="43.4429983" lon="11.575395"><ele>446.0</ele><time>2026-03-27T10:28:03.796Z</time></trkpt><trkpt lat="43.4430867" lon="11.5755283"><ele>445.8</ele><time>2026-03-27T10:28:04.795Z</time></trkpt><trkpt lat="43.4431633" lon="11.5756633"><ele>445.6</ele><time>2026-03-27T10:28:05.796Z</time></trkpt><trkpt lat="43.4432233" lon="11.5757917"><ele>445.4</ele><time>2026-03-27T10:28:06.795Z</time></trkpt><trkpt lat="43.4432733" lon="11.5759067"><ele>445.2</ele><time>2026-03-27T10:28:07.795Z</time></trkpt><trkpt lat="43.4433083" lon="11.5760267"><ele>445.0</ele><time>2026-03-27T10:28:08.796Z</time></trkpt><trkpt lat="43.4433283" lon="11.5761617"><ele>444.0</ele><time>2026-03-27T10:28:09.796Z</time></trkpt><trkpt lat="43.44334" lon="11.5763067"><ele>443.0</ele><time>2026-03-27T10:28:10.795Z</time></trkpt><trkpt lat="43.4433617" lon="11.57645"><ele>442.0</ele><time>2026-03-27T10:28:11.794Z</time></trkpt><trkpt lat="43.4434067" lon="11.5765983"><ele>441.0</ele><time>2026-03-27T10:28:12.795Z</time></trkpt><trkpt lat="43.4434633" lon="11.576755"><ele>441.0</ele><time>2026-03-27T10:28:13.795Z</time></trkpt><trkpt lat="43.4435133" lon="11.576905"><ele>441.0</ele><time>2026-03-27T10:28:14.796Z</time></trkpt><trkpt lat="43.4435533" lon="11.5770433"><ele>441.0</ele><time>2026-03-27T10:28:15.795Z</time></trkpt><trkpt lat="43.4435867" lon="11.5771833"><ele>441.0</ele><time>2026-03-27T10:28:16.794Z</time></trkpt><trkpt lat="43.4436133" lon="11.5773117"><ele>441.0</ele><time>2026-03-27T10:28:17.794Z</time></trkpt><trkpt lat="43.4436517" lon="11.57743"><ele>440.3333333333333</ele><time>2026-03-27T10:28:18.797Z</time></trkpt><trkpt lat="43.443695" lon="11.577525"><ele>439.66666666666663</ele><time>2026-03-27T10:28:19.792Z</time></trkpt><trkpt lat="43.4437467" lon="11.5776017"><ele>439.0</ele><time>2026-03-27T10:28:20.796Z</time></trkpt><trkpt lat="43.4438" lon="11.5776617"><ele>438.3333333333333</ele><time>2026-03-27T10:28:21.796Z</time></trkpt><trkpt lat="43.4439117" lon="11.577695"><ele>437.66666666666663</ele><time>2026-03-27T10:28:23.795Z</time></trkpt><trkpt lat="43.4439983" lon="11.5776167"><ele>437.0</ele><time>2026-03-27T10:28:25.796Z</time></trkpt><trkpt lat="43.4440383" lon="11.5774817"><ele>439.49999999999994</ele><time>2026-03-27T10:28:27.796Z</time></trkpt><trkpt lat="43.444025" lon="11.57739"><ele>442.0</ele><time>2026-03-27T10:28:28.793Z</time></trkpt><trkpt lat="43.443995" lon="11.5772933"><ele>444.5</ele><time>2026-03-27T10:28:29.79Z</time></trkpt><trkpt lat="43.4439917" lon="11.577135"><ele>447.0</ele><time>2026-03-27T10:28:31.795Z</time></trkpt><trkpt lat="43.44407" lon="11.5770933"><ele>449.49999999999994</ele><time>2026-03-27T10:28:33.794Z</time></trkpt><trkpt lat="43.444155" lon="11.5770917"><ele>452.0</ele><time>2026-03-27T10:28:35.795Z</time></trkpt><trkpt lat="43.4442283" lon="11.5770417"><ele>454.8</ele><time>2026-03-27T10:28:37.794Z</time></trkpt><trkpt lat="43.44429" lon="11.576995"><ele>457.6</ele><time>2026-03-27T10:28:39.794Z</time></trkpt><trkpt lat="43.444405" lon="11.57695"><ele>460.40000000000003</ele><time>2026-03-27T10:28:41.796Z</time></trkpt><trkpt lat="43.4445117" lon="11.5768867"><ele>463.20000000000005</ele><time>2026-03-27T10:28:43.796Z</time></trkpt><trkpt lat="43.4445267" lon="11.5767733"><ele>466.0</ele><time>2026-03-27T10:28:45.797Z</time></trkpt><trkpt lat="43.4445" lon="11.5766933"><ele>466.00000000000006</ele><time>2026-03-27T10:28:46.794Z</time></trkpt><trkpt lat="43.4444717" lon="11.57659"><ele>466.0</ele><time>2026-03-27T10:28:47.795Z</time></trkpt><trkpt lat="43.44445" lon="11.576495"><ele>466.0</ele><time>2026-03-27T10:28:48.798Z</time></trkpt><trkpt lat="43.4444433" lon="11.5763933"><ele>466.0</ele><time>2026-03-27T10:28:49.797Z</time></trkpt><trkpt lat="43.4444483" lon="11.5762817"><ele>466.00000000000006</ele><time>2026-03-27T10:28:50.796Z</time></trkpt><trkpt lat="43.4444633" lon="11.5761567"><ele>466.0</ele><time>2026-03-27T10:28:51.796Z</time></trkpt><trkpt lat="43.4444867" lon="11.5760233"><ele>467.6</ele><time>2026-03-27T10:28:52.796Z</time></trkpt><trkpt lat="43.4445083" lon="11.5758683"><ele>469.20000000000005</ele><time>2026-03-27T10:28:53.796Z</time></trkpt><trkpt lat="43.4445117" lon="11.5757167"><ele>470.79999999999995</ele><time>2026-03-27T10:28:54.797Z</time></trkpt><trkpt lat="43.444515" lon="11.5755683"><ele>472.4</ele><time>2026-03-27T10:28:55.795Z</time></trkpt><trkpt lat="43.4445217" lon="11.5754367"><ele>474.0</ele><time>2026-03-27T10:28:56.795Z</time></trkpt><trkpt lat="43.4445317" lon="11.5753167"><ele>475.71428571428567</ele><time>2026-03-27T10:28:57.796Z</time></trkpt><trkpt lat="43.4445483" lon="11.5752067"><ele>477.42857142857144</ele><time>2026-03-27T10:28:58.795Z</time></trkpt><trkpt lat="43.4445683" lon="11.57511"><ele>479.1428571428571</ele><time>2026-03-27T10:28:59.795Z</time></trkpt><trkpt lat="43.4445867" lon="11.57501"><ele>480.85714285714283</ele><time>2026-03-27T10:29:00.796Z</time></trkpt><trkpt lat="43.44458" lon="11.57491"><ele>482.57142857142856</ele><time>2026-03-27T10:29:01.796Z</time></trkpt><trkpt lat="43.44457" lon="11.5748117"><ele>484.2857142857143</ele><time>2026-03-27T10:29:02.796Z</time></trkpt><trkpt lat="43.4445717" lon="11.57472"><ele>486.0</ele><time>2026-03-27T10:29:03.795Z</time></trkpt><trkpt lat="43.4446233" lon="11.5745683"><ele>489.4</ele><time>2026-03-27T10:29:05.794Z</time></trkpt><trkpt lat="43.4446583" lon="11.574485"><ele>492.8</ele><time>2026-03-27T10:29:06.797Z</time></trkpt><trkpt lat="43.44469" lon="11.5744033"><ele>496.19999999999993</ele><time>2026-03-27T10:29:07.796Z</time></trkpt><trkpt lat="43.44472" lon="11.5742517"><ele>499.59999999999997</ele><time>2026-03-27T10:29:09.796Z</time></trkpt><trkpt lat="43.444725" lon="11.574065"><ele>503.0</ele><time>2026-03-27T10:29:11.795Z</time></trkpt><trkpt lat="43.4447383" lon="11.5739717"><ele>502.99999999999994</ele><time>2026-03-27T10:29:12.796Z</time></trkpt><trkpt lat="43.44475" lon="11.5738683"><ele>503.0</ele><time>2026-03-27T10:29:13.795Z</time></trkpt><trkpt lat="43.44476" lon="11.573765"><ele>503.0</ele><time>2026-03-27T10:29:14.798Z</time></trkpt><trkpt lat="43.4447617" lon="11.57366"><ele>503.0</ele><time>2026-03-27T10:29:15.797Z</time></trkpt><trkpt lat="43.444755" lon="11.5735483"><ele>502.99999999999994</ele><time>2026-03-27T10:29:16.797Z</time></trkpt><trkpt lat="43.4447517" lon="11.57343"><ele>503.0</ele><time>2026-03-27T10:29:17.797Z</time></trkpt><trkpt lat="43.44475" lon="11.5733083"><ele>504.42857142857144</ele><time>2026-03-27T10:29:18.796Z</time></trkpt><trkpt lat="43.4447317" lon="11.5732033"><ele>505.8571428571429</ele><time>2026-03-27T10:29:19.796Z</time></trkpt><trkpt lat="43.4447" lon="11.5731217"><ele>507.28571428571433</ele><time>2026-03-27T10:29:20.797Z</time></trkpt><trkpt lat="43.4446733" lon="11.57304"><ele>508.7142857142858</ele><time>2026-03-27T10:29:21.795Z</time></trkpt><trkpt lat="43.44466" lon="11.5729517"><ele>510.14285714285717</ele><time>2026-03-27T10:29:22.797Z</time></trkpt><trkpt lat="43.4446617" lon="11.5728467"><ele>511.57142857142867</ele><time>2026-03-27T10:29:23.796Z</time></trkpt><trkpt lat="43.4446717" lon="11.5727317"><ele>513.0</ele><time>2026-03-27T10:29:24.797Z</time></trkpt><trkpt lat="43.4446917" lon="11.5726133"><ele>515.1666666666666</ele><time>2026-03-27T10:29:25.796Z</time></trkpt><trkpt lat="43.44471" lon="11.5725"><ele>517.3333333333334</ele><time>2026-03-27T10:29:26.797Z</time></trkpt><trkpt lat="43.4447333" lon="11.572405"><ele>519.5</ele><time>2026-03-27T10:29:27.796Z</time></trkpt><trkpt lat="43.4447583" lon="11.5723233"><ele>521.6666666666667</ele><time>2026-03-27T10:29:28.795Z</time></trkpt><trkpt lat="43.4447883" lon="11.572235"><ele>523.8333333333334</ele><time>2026-03-27T10:29:29.797Z</time></trkpt><trkpt lat="43.4448367" lon="11.5721317"><ele>526.0</ele><time>2026-03-27T10:29:30.796Z</time></trkpt><trkpt lat="43.44489" lon="11.57202"><ele>526.25</ele><time>2026-03-27T10:29:31.795Z</time></trkpt><trkpt lat="43.44495" lon="11.5718983"><ele>526.5</ele><time>2026-03-27T10:29:32.796Z</time></trkpt><trkpt lat="43.4450217" lon="11.57177"><ele>526.75</ele><time>2026-03-27T10:29:33.793Z</time></trkpt><trkpt lat="43.44509" lon="11.5716433"><ele>527.0</ele><time>2026-03-27T10:29:34.796Z</time></trkpt><trkpt lat="43.4451667" lon="11.5715233"><ele>527.0</ele><time>2026-03-27T10:29:35.793Z</time></trkpt><trkpt lat="43.4452417" lon="11.5714117"><ele>527.0</ele><time>2026-03-27T10:29:36.792Z</time></trkpt><trkpt lat="43.44532" lon="11.5713133"><ele>527.0</ele><time>2026-03-27T10:29:37.796Z</time></trkpt><trkpt lat="43.4453933" lon="11.5712317"><ele>527.0</ele><time>2026-03-27T10:29:38.796Z</time></trkpt><trkpt lat="43.4454583" lon="11.5711567"><ele>527.0</ele><time>2026-03-27T10:29:39.795Z</time></trkpt><trkpt lat="43.445525" lon="11.571075"><ele>526.6666666666666</ele><time>2026-03-27T10:29:40.794Z</time></trkpt><trkpt lat="43.445585" lon="11.57099"><ele>526.3333333333333</ele><time>2026-03-27T10:29:41.795Z</time></trkpt><trkpt lat="43.4456333" lon="11.5708967"><ele>526.0</ele><time>2026-03-27T10:29:42.796Z</time></trkpt><trkpt lat="43.4456733" lon="11.570815"><ele>525.6666666666666</ele><time>2026-03-27T10:29:43.796Z</time></trkpt><trkpt lat="43.445715" lon="11.5707483"><ele>525.3333333333334</ele><time>2026-03-27T10:29:44.796Z</time></trkpt><trkpt lat="43.44576" lon="11.570675"><ele>525.0</ele><time>2026-03-27T10:29:45.795Z</time></trkpt><trkpt lat="43.4458217" lon="11.5705933"><ele>525.0</ele><time>2026-03-27T10:29:46.795Z</time></trkpt><trkpt lat="43.4458817" lon="11.5705183"><ele>525.0</ele><time>2026-03-27T10:29:47.796Z</time></trkpt><trkpt lat="43.4459333" lon="11.5704617"><ele>525.0</ele><time>2026-03-27T10:29:48.795Z</time></trkpt><trkpt lat="43.44597" lon="11.57039"><ele>525.0</ele><time>2026-03-27T10:29:49.797Z</time></trkpt><trkpt lat="43.4459783" lon="11.5702917"><ele>525.0</ele><time>2026-03-27T10:29:50.796Z</time></trkpt><trkpt lat="43.4459733" lon="11.5701683"><ele>525.0</ele><time>2026-03-27T10:29:51.796Z</time></trkpt><trkpt lat="43.4459817" lon="11.5700167"><ele>524.8</ele><time>2026-03-27T10:29:52.794Z</time></trkpt><trkpt lat="43.4459967" lon="11.5698733"><ele>524.6</ele><time>2026-03-27T10:29:53.796Z</time></trkpt><trkpt lat="43.4460167" lon="11.5697517"><ele>524.4</ele><time>2026-03-27T10:29:54.797Z</time></trkpt><trkpt lat="43.4460417" lon="11.5696383"><ele>524.2</ele><time>2026-03-27T10:29:55.796Z</time></trkpt><trkpt lat="43.4460733" lon="11.569535"><ele>524.0</ele><time>2026-03-27T10:29:56.797Z</time></trkpt><trkpt lat="43.4461083" lon="11.5694167"><ele>523.4</ele><time>2026-03-27T10:29:57.795Z</time></trkpt><trkpt lat="43.44614" lon="11.5693033"><ele>522.8</ele><time>2026-03-27T10:29:58.795Z</time></trkpt><trkpt lat="43.4461717" lon="11.5692067"><ele>522.2</ele><time>2026-03-27T10:29:59.795Z</time></trkpt><trkpt lat="43.4462067" lon="11.56913"><ele>521.6</ele><time>2026-03-27T10:30:00.796Z</time></trkpt><trkpt lat="43.4462917" lon="11.5690433"><ele>521.0</ele><time>2026-03-27T10:30:02.797Z</time></trkpt><trkpt lat="43.44643" lon="11.5690283"><ele>523.0</ele><time>2026-03-27T10:30:04.796Z</time></trkpt><trkpt lat="43.4465033" lon="11.5690183"><ele>525.0</ele><time>2026-03-27T10:30:05.796Z</time></trkpt><trkpt lat="43.4465633" lon="11.5689883"><ele>527.0</ele><time>2026-03-27T10:30:06.796Z</time></trkpt><trkpt lat="43.4466317" lon="11.5689317"><ele>529.0</ele><time>2026-03-27T10:30:07.796Z</time></trkpt><trkpt lat="43.4467067" lon="11.568855"><ele>531.0</ele><time>2026-03-27T10:30:08.797Z</time></trkpt><trkpt lat="43.4467867" lon="11.5687733"><ele>533.0</ele><time>2026-03-27T10:30:09.798Z</time></trkpt><trkpt lat="43.446855" lon="11.568685"><ele>533.3333333333333</ele><time>2026-03-27T10:30:10.796Z</time></trkpt><trkpt lat="43.446895" lon="11.5686"><ele>533.6666666666666</ele><time>2026-03-27T10:30:11.796Z</time></trkpt><trkpt lat="43.4469117" lon="11.5684983"><ele>534.0</ele><time>2026-03-27T10:30:12.8Z</time></trkpt><trkpt lat="43.4469283" lon="11.56839"><ele>534.3333333333334</ele><time>2026-03-27T10:30:13.795Z</time></trkpt><trkpt lat="43.4469517" lon="11.5682783"><ele>534.6666666666667</ele><time>2026-03-27T10:30:14.796Z</time></trkpt><trkpt lat="43.4469667" lon="11.5681667"><ele>535.0</ele><time>2026-03-27T10:30:15.795Z</time></trkpt><trkpt lat="43.4469733" lon="11.5680517"><ele>535.0</ele><time>2026-03-27T10:30:16.794Z</time></trkpt><trkpt lat="43.4469767" lon="11.5679333"><ele>535.0</ele><time>2026-03-27T10:30:17.795Z</time></trkpt><trkpt lat="43.4469867" lon="11.567815"><ele>535.0</ele><time>2026-03-27T10:30:18.796Z</time></trkpt><trkpt lat="43.4469983" lon="11.5677067"><ele>535.0</ele><time>2026-03-27T10:30:19.796Z</time></trkpt><trkpt lat="43.4470167" lon="11.56762"><ele>535.0</ele><time>2026-03-27T10:30:20.797Z</time></trkpt><trkpt lat="43.4470467" lon="11.567535"><ele>535.0</ele><time>2026-03-27T10:30:21.796Z</time></trkpt><trkpt lat="43.4470833" lon="11.5674483"><ele>536.0</ele><time>2026-03-27T10:30:22.795Z</time></trkpt><trkpt lat="43.447125" lon="11.5673667"><ele>537.0</ele><time>2026-03-27T10:30:23.795Z</time></trkpt><trkpt lat="43.447155" lon="11.5672833"><ele>538.0</ele><time>2026-03-27T10:30:24.794Z</time></trkpt><trkpt lat="43.4471867" lon="11.5671117"><ele>539.0</ele><time>2026-03-27T10:30:26.796Z</time></trkpt><trkpt lat="43.4472133" lon="11.5669983"><ele>540.0</ele><time>2026-03-27T10:30:27.794Z</time></trkpt><trkpt lat="43.44725" lon="11.5668917"><ele>541.0</ele><time>2026-03-27T10:30:28.795Z</time></trkpt><trkpt lat="43.447285" lon="11.5667967"><ele>543.4</ele><time>2026-03-27T10:30:29.796Z</time></trkpt><trkpt lat="43.4473033" lon="11.56665"><ele>545.8</ele><time>2026-03-27T10:30:31.796Z</time></trkpt><trkpt lat="43.447295" lon="11.566495"><ele>548.1999999999999</ele><time>2026-03-27T10:30:33.795Z</time></trkpt><trkpt lat="43.44731" lon="11.5663467"><ele>550.6</ele><time>2026-03-27T10:30:35.794Z</time></trkpt><trkpt lat="43.4473083" lon="11.5662567"><ele>553.0</ele><time>2026-03-27T10:30:36.796Z</time></trkpt><trkpt lat="43.44729" lon="11.5661683"><ele>553.8333333333334</ele><time>2026-03-27T10:30:37.797Z</time></trkpt><trkpt lat="43.4472833" lon="11.56608"><ele>554.6666666666667</ele><time>2026-03-27T10:30:38.796Z</time></trkpt><trkpt lat="43.4472867" lon="11.565975"><ele>555.5</ele><time>2026-03-27T10:30:39.795Z</time></trkpt><trkpt lat="43.447295" lon="11.5658583"><ele>556.3333333333334</ele><time>2026-03-27T10:30:40.795Z</time></trkpt><trkpt lat="43.4472983" lon="11.5657367"><ele>557.1666666666666</ele><time>2026-03-27T10:30:41.796Z</time></trkpt><trkpt lat="43.4473" lon="11.565605"><ele>558.0</ele><time>2026-03-27T10:30:42.796Z</time></trkpt><trkpt lat="43.4472917" lon="11.5654517"><ele>558.25</ele><time>2026-03-27T10:30:43.796Z</time></trkpt><trkpt lat="43.4472817" lon="11.5652767"><ele>558.5</ele><time>2026-03-27T10:30:44.798Z</time></trkpt><trkpt lat="43.4472633" lon="11.5651067"><ele>558.75</ele><time>2026-03-27T10:30:45.795Z</time></trkpt><trkpt lat="43.4472483" lon="11.5649633"><ele>559.0</ele><time>2026-03-27T10:30:46.796Z</time></trkpt><trkpt lat="43.4472267" lon="11.5648133"><ele>559.0</ele><time>2026-03-27T10:30:47.796Z</time></trkpt><trkpt lat="43.4471933" lon="11.5646567"><ele>559.0</ele><time>2026-03-27T10:30:48.795Z</time></trkpt><trkpt lat="43.4471533" lon="11.56451"><ele>559.0</ele><time>2026-03-27T10:30:49.794Z</time></trkpt><trkpt lat="43.4471167" lon="11.56439"><ele>559.0</ele><time>2026-03-27T10:30:50.799Z</time></trkpt><trkpt lat="43.447085" lon="11.5642967"><ele>559.0</ele><time>2026-03-27T10:30:51.796Z</time></trkpt><trkpt lat="43.4470667" lon="11.5642083"><ele>559.0</ele><time>2026-03-27T10:30:52.794Z</time></trkpt><trkpt lat="43.4470533" lon="11.5640967"><ele>559.0</ele><time>2026-03-27T10:30:53.795Z</time></trkpt><trkpt lat="43.4470483" lon="11.5639483"><ele>559.0</ele><time>2026-03-27T10:30:54.804Z</time></trkpt><trkpt lat="43.4470517" lon="11.5638"><ele>559.0</ele><time>2026-03-27T10:30:55.794Z</time></trkpt><trkpt lat="43.4470583" lon="11.56367"><ele>559.0</ele><time>2026-03-27T10:30:56.798Z</time></trkpt><trkpt lat="43.44707" lon="11.563555"><ele>559.0</ele><time>2026-03-27T10:30:57.794Z</time></trkpt><trkpt lat="43.447095" lon="11.5634433"><ele>559.0</ele><time>2026-03-27T10:30:58.796Z</time></trkpt><trkpt lat="43.4471467" lon="11.563335"><ele>559.0</ele><time>2026-03-27T10:30:59.795Z</time></trkpt><trkpt lat="43.4472117" lon="11.563255"><ele>559.0</ele><time>2026-03-27T10:31:00.794Z</time></trkpt><trkpt lat="43.4472833" lon="11.563185"><ele>559.0</ele><time>2026-03-27T10:31:01.796Z</time></trkpt><trkpt lat="43.4473633" lon="11.5631433"><ele>559.0</ele><time>2026-03-27T10:31:02.794Z</time></trkpt><trkpt lat="43.4474417" lon="11.56313"><ele>560.5</ele><time>2026-03-27T10:31:03.798Z</time></trkpt><trkpt lat="43.4475133" lon="11.5631367"><ele>562.0</ele><time>2026-03-27T10:31:04.796Z</time></trkpt><trkpt lat="43.4475833" lon="11.5631783"><ele>563.5</ele><time>2026-03-27T10:31:05.796Z</time></trkpt><trkpt lat="43.4476467" lon="11.5632333"><ele>565.0</ele><time>2026-03-27T10:31:06.797Z</time></trkpt><trkpt lat="43.4477283" lon="11.5632883"><ele>566.5</ele><time>2026-03-27T10:31:08.798Z</time></trkpt><trkpt lat="43.4478183" lon="11.5632833"><ele>568.0</ele><time>2026-03-27T10:31:10.796Z</time></trkpt><trkpt lat="43.447885" lon="11.5632567"><ele>568.0</ele><time>2026-03-27T10:31:12.795Z</time></trkpt><trkpt lat="43.4479783" lon="11.563175"><ele>568.0</ele><time>2026-03-27T10:31:15.794Z</time></trkpt><trkpt lat="43.4480717" lon="11.56312"><ele>568.0</ele><time>2026-03-27T10:31:17.794Z</time></trkpt><trkpt lat="43.448135" lon="11.5631333"><ele>568.0</ele><time>2026-03-27T10:31:19.796Z</time></trkpt><trkpt lat="43.4481517" lon="11.5630367"><ele>568.0</ele><time>2026-03-27T10:31:23.796Z</time></trkpt><trkpt lat="43.4481133" lon="11.5628983"><ele>568.8571428571429</ele><time>2026-03-27T10:31:25.795Z</time></trkpt><trkpt lat="43.4481" lon="11.5628133"><ele>569.7142857142857</ele><time>2026-03-27T10:31:26.796Z</time></trkpt><trkpt lat="43.448095" lon="11.562725"><ele>570.5714285714286</ele><time>2026-03-27T10:31:27.794Z</time></trkpt><trkpt lat="43.4480917" lon="11.5626367"><ele>571.4285714285714</ele><time>2026-03-27T10:31:28.795Z</time></trkpt><trkpt lat="43.44808" lon="11.5625433"><ele>572.2857142857142</ele><time>2026-03-27T10:31:29.796Z</time></trkpt><trkpt lat="43.44804" lon="11.5624383"><ele>573.1428571428571</ele><time>2026-03-27T10:31:30.795Z</time></trkpt><trkpt lat="43.4479817" lon="11.5623233"><ele>574.0</ele><time>2026-03-27T10:31:31.795Z</time></trkpt><trkpt lat="43.4478933" lon="11.5622083"><ele>574.75</ele><time>2026-03-27T10:31:32.797Z</time></trkpt><trkpt lat="43.4478033" lon="11.5620867"><ele>575.5</ele><time>2026-03-27T10:31:33.796Z</time></trkpt><trkpt lat="43.447715" lon="11.5619583"><ele>576.25</ele><time>2026-03-27T10:31:34.796Z</time></trkpt><trkpt lat="43.4476433" lon="11.5618233"><ele>577.0</ele><time>2026-03-27T10:31:35.796Z</time></trkpt><trkpt lat="43.4475917" lon="11.5617"><ele>578.4</ele><time>2026-03-27T10:31:36.797Z</time></trkpt><trkpt lat="43.4475433" lon="11.5615883"><ele>579.8000000000001</ele><time>2026-03-27T10:31:37.797Z</time></trkpt><trkpt lat="43.4474933" lon="11.5614817"><ele>581.2</ele><time>2026-03-27T10:31:38.797Z</time></trkpt><trkpt lat="43.4474417" lon="11.5613783"><ele>582.6</ele><time>2026-03-27T10:31:39.796Z</time></trkpt><trkpt lat="43.4473717" lon="11.5612667"><ele>584.0</ele><time>2026-03-27T10:31:40.794Z</time></trkpt><trkpt lat="43.4472867" lon="11.5611517"><ele>584.25</ele><time>2026-03-27T10:31:41.795Z</time></trkpt><trkpt lat="43.4472067" lon="11.561035"><ele>584.5</ele><time>2026-03-27T10:31:42.794Z</time></trkpt><trkpt lat="43.447135" lon="11.5609017"><ele>584.75</ele><time>2026-03-27T10:31:43.795Z</time></trkpt><trkpt lat="43.4470517" lon="11.5607517"><ele>585.0</ele><time>2026-03-27T10:31:44.799Z</time></trkpt><trkpt lat="43.4469533" lon="11.5606083"><ele>585.5</ele><time>2026-03-27T10:31:45.794Z</time></trkpt><trkpt lat="43.4468467" lon="11.5604617"><ele>586.0</ele><time>2026-03-27T10:31:46.794Z</time></trkpt><trkpt lat="43.4467333" lon="11.5603183"><ele>586.5</ele><time>2026-03-27T10:31:47.795Z</time></trkpt><trkpt lat="43.4466383" lon="11.5601983"><ele>587.0</ele><time>2026-03-27T10:31:48.796Z</time></trkpt><trkpt lat="43.4465533" lon="11.5600817"><ele>588.2</ele><time>2026-03-27T10:31:49.794Z</time></trkpt><trkpt lat="43.44649" lon="11.559975"><ele>589.4000000000001</ele><time>2026-03-27T10:31:50.796Z</time></trkpt><trkpt lat="43.4464383" lon="11.5598733"><ele>590.5999999999999</ele><time>2026-03-27T10:31:51.795Z</time></trkpt><trkpt lat="43.4463983" lon="11.55975"><ele>591.8</ele><time>2026-03-27T10:31:52.795Z</time></trkpt><trkpt lat="43.4463667" lon="11.5596233"><ele>593.0</ele><time>2026-03-27T10:31:53.794Z</time></trkpt><trkpt lat="43.446335" lon="11.5595283"><ele>595.0</ele><time>2026-03-27T10:31:54.795Z</time></trkpt><trkpt lat="43.4462517" lon="11.559425"><ele>597.0</ele><time>2026-03-27T10:31:56.796Z</time></trkpt><trkpt lat="43.446185" lon="11.5593983"><ele>599.0</ele><time>2026-03-27T10:31:57.796Z</time></trkpt><trkpt lat="43.4461117" lon="11.55935"><ele>601.0</ele><time>2026-03-27T10:31:58.796Z</time></trkpt><trkpt lat="43.4460233" lon="11.55927"><ele>603.0</ele><time>2026-03-27T10:31:59.795Z</time></trkpt><trkpt lat="43.4459267" lon="11.559185"><ele>603.0</ele><time>2026-03-27T10:32:00.795Z</time></trkpt><trkpt lat="43.4458317" lon="11.559105"><ele>603.0</ele><time>2026-03-27T10:32:01.795Z</time></trkpt><trkpt lat="43.44576" lon="11.5590367"><ele>603.0</ele><time>2026-03-27T10:32:02.806Z</time></trkpt><trkpt lat="43.445715" lon="11.5589717"><ele>603.0</ele><time>2026-03-27T10:32:03.796Z</time></trkpt><trkpt lat="43.4456917" lon="11.5587933"><ele>603.0</ele><time>2026-03-27T10:32:05.795Z</time></trkpt><trkpt lat="43.4457033" lon="11.55869"><ele>603.6</ele><time>2026-03-27T10:32:06.799Z</time></trkpt><trkpt lat="43.4456983" lon="11.558585"><ele>604.1999999999999</ele><time>2026-03-27T10:32:07.795Z</time></trkpt><trkpt lat="43.4456733" lon="11.558465"><ele>604.8</ele><time>2026-03-27T10:32:08.796Z</time></trkpt><trkpt lat="43.4456267" lon="11.5583383"><ele>605.4</ele><time>2026-03-27T10:32:09.796Z</time></trkpt><trkpt lat="43.4455567" lon="11.558215"><ele>606.0</ele><time>2026-03-27T10:32:10.795Z</time></trkpt><trkpt lat="43.445465" lon="11.5580933"><ele>605.75</ele><time>2026-03-27T10:32:11.795Z</time></trkpt><trkpt lat="43.445375" lon="11.5579733"><ele>605.5</ele><time>2026-03-27T10:32:12.795Z</time></trkpt><trkpt lat="43.4452833" lon="11.5578417"><ele>605.25</ele><time>2026-03-27T10:32:13.795Z</time></trkpt><trkpt lat="43.445185" lon="11.5576917"><ele>605.0</ele><time>2026-03-27T10:32:14.796Z</time></trkpt><trkpt lat="43.445095" lon="11.5575467"><ele>605.0</ele><time>2026-03-27T10:32:15.796Z</time></trkpt><trkpt lat="43.4450233" lon="11.55743"><ele>605.0</ele><time>2026-03-27T10:32:16.795Z</time></trkpt><trkpt lat="43.4449667" lon="11.5573417"><ele>605.0</ele><time>2026-03-27T10:32:17.795Z</time></trkpt><trkpt lat="43.4448967" lon="11.5572733"><ele>605.0</ele><time>2026-03-27T10:32:18.794Z</time></trkpt><trkpt lat="43.4448017" lon="11.5572033"><ele>605.0</ele><time>2026-03-27T10:32:19.794Z</time></trkpt><trkpt lat="43.4446567" lon="11.5571417"><ele>605.0</ele><time>2026-03-27T10:32:20.797Z</time></trkpt><trkpt lat="43.444525" lon="11.55708"><ele>605.0</ele><time>2026-03-27T10:32:21.797Z</time></trkpt><trkpt lat="43.4444033" lon="11.5570433"><ele>605.0</ele><time>2026-03-27T10:32:22.795Z</time></trkpt><trkpt lat="43.4443283" lon="11.5570117"><ele>605.0</ele><time>2026-03-27T10:32:23.795Z</time></trkpt><trkpt lat="43.4442583" lon="11.5569567"><ele>605.0</ele><time>2026-03-27T10:32:25.795Z</time></trkpt><trkpt lat="43.4443333" lon="11.5568033"><ele>606.0</ele><time>2026-03-27T10:32:28.795Z</time></trkpt><trkpt lat="43.444415" lon="11.5566983"><ele>607.0</ele><time>2026-03-27T10:32:29.796Z</time></trkpt><trkpt lat="43.4444683" lon="11.5565833"><ele>608.0</ele><time>2026-03-27T10:32:30.795Z</time></trkpt><trkpt lat="43.4445083" lon="11.5564533"><ele>609.0</ele><time>2026-03-27T10:32:31.796Z</time></trkpt><trkpt lat="43.4445333" lon="11.5563133"><ele>610.0</ele><time>2026-03-27T10:32:32.796Z</time></trkpt><trkpt lat="43.4445467" lon="11.5561767"><ele>610.0</ele><time>2026-03-27T10:32:33.796Z</time></trkpt><trkpt lat="43.4445583" lon="11.5560383"><ele>610.0</ele><time>2026-03-27T10:32:34.795Z</time></trkpt><trkpt lat="43.4445583" lon="11.5559083"><ele>610.0</ele><time>2026-03-27T10:32:35.795Z</time></trkpt><trkpt lat="43.4445517" lon="11.5557933"><ele>610.0</ele><time>2026-03-27T10:32:36.795Z</time></trkpt><trkpt lat="43.4445217" lon="11.5556733"><ele>610.0</ele><time>2026-03-27T10:32:37.796Z</time></trkpt><trkpt lat="43.4444767" lon="11.5555483"><ele>610.0</ele><time>2026-03-27T10:32:38.797Z</time></trkpt><trkpt lat="43.4444183" lon="11.5554267"><ele>610.0</ele><time>2026-03-27T10:32:39.796Z</time></trkpt><trkpt lat="43.4443583" lon="11.5553017"><ele>610.0</ele><time>2026-03-27T10:32:40.794Z</time></trkpt><trkpt lat="43.444295" lon="11.555155"><ele>610.0</ele><time>2026-03-27T10:32:41.794Z</time></trkpt><trkpt lat="43.44422" lon="11.55498"><ele>607.5</ele><time>2026-03-27T10:32:42.794Z</time></trkpt><trkpt lat="43.4441417" lon="11.5548117"><ele>605.0</ele><time>2026-03-27T10:32:43.795Z</time></trkpt><trkpt lat="43.4440667" lon="11.5546567"><ele>602.5</ele><time>2026-03-27T10:32:44.795Z</time></trkpt><trkpt lat="43.4439967" lon="11.5544967"><ele>600.0</ele><time>2026-03-27T10:32:45.795Z</time></trkpt><trkpt lat="43.4439267" lon="11.5543433"><ele>597.25</ele><time>2026-03-27T10:32:46.795Z</time></trkpt><trkpt lat="43.4438683" lon="11.5541883"><ele>594.5</ele><time>2026-03-27T10:32:47.796Z</time></trkpt><trkpt lat="43.4438183" lon="11.554025"><ele>591.75</ele><time>2026-03-27T10:32:48.795Z</time></trkpt><trkpt lat="43.4437683" lon="11.5538683"><ele>589.0</ele><time>2026-03-27T10:32:49.796Z</time></trkpt><trkpt lat="43.4437283" lon="11.55373"><ele>593.6</ele><time>2026-03-27T10:32:50.796Z</time></trkpt><trkpt lat="43.4436933" lon="11.5535983"><ele>598.2</ele><time>2026-03-27T10:32:51.795Z</time></trkpt><trkpt lat="43.4436733" lon="11.55347"><ele>602.8000000000001</ele><time>2026-03-27T10:32:52.796Z</time></trkpt><trkpt lat="43.4436483" lon="11.5533517"><ele>607.4</ele><time>2026-03-27T10:32:53.795Z</time></trkpt><trkpt lat="43.4436183" lon="11.5532183"><ele>612.0</ele><time>2026-03-27T10:32:54.796Z</time></trkpt><trkpt lat="43.4435583" lon="11.553065"><ele>612.0</ele><time>2026-03-27T10:32:55.795Z</time></trkpt><trkpt lat="43.4434933" lon="11.5529083"><ele>612.0</ele><time>2026-03-27T10:32:56.795Z</time></trkpt><trkpt lat="43.4434367" lon="11.55276"><ele>612.0</ele><time>2026-03-27T10:32:57.795Z</time></trkpt><trkpt lat="43.44339" lon="11.552625"><ele>612.0</ele><time>2026-03-27T10:32:58.795Z</time></trkpt><trkpt lat="43.44334" lon="11.552495"><ele>607.25</ele><time>2026-03-27T10:32:59.796Z</time></trkpt><trkpt lat="43.4432833" lon="11.5523683"><ele>602.5</ele><time>2026-03-27T10:33:00.795Z</time></trkpt><trkpt lat="43.443225" lon="11.5522383"><ele>597.75</ele><time>2026-03-27T10:33:01.796Z</time></trkpt><trkpt lat="43.4431667" lon="11.5521033"><ele>593.0</ele><time>2026-03-27T10:33:02.797Z</time></trkpt><trkpt lat="43.4430967" lon="11.5519733"><ele>593.5</ele><time>2026-03-27T10:33:03.796Z</time></trkpt><trkpt lat="43.4430117" lon="11.5518467"><ele>594.0</ele><time>2026-03-27T10:33:04.796Z</time></trkpt><trkpt lat="43.442935" lon="11.55172"><ele>594.5</ele><time>2026-03-27T10:33:05.796Z</time></trkpt><trkpt lat="43.4428717" lon="11.5515767"><ele>595.0</ele><time>2026-03-27T10:33:06.794Z</time></trkpt><trkpt lat="43.442825" lon="11.5514417"><ele>595.0</ele><time>2026-03-27T10:33:07.795Z</time></trkpt><trkpt lat="43.44277" lon="11.55133"><ele>595.0</ele><time>2026-03-27T10:33:08.795Z</time></trkpt><trkpt lat="43.4426983" lon="11.55122"><ele>595.0</ele><time>2026-03-27T10:33:09.794Z</time></trkpt><trkpt lat="43.4426" lon="11.5511217"><ele>595.0</ele><time>2026-03-27T10:33:10.795Z</time></trkpt><trkpt lat="43.4425033" lon="11.551015"><ele>593.25</ele><time>2026-03-27T10:33:11.794Z</time></trkpt><trkpt lat="43.442415" lon="11.5508883"><ele>591.5</ele><time>2026-03-27T10:33:12.796Z</time></trkpt><trkpt lat="43.4423333" lon="11.5507367"><ele>589.75</ele><time>2026-03-27T10:33:13.796Z</time></trkpt><trkpt lat="43.4422567" lon="11.5505617"><ele>588.0</ele><time>2026-03-27T10:33:14.796Z</time></trkpt><trkpt lat="43.4421883" lon="11.5503767"><ele>588.6666666666666</ele><time>2026-03-27T10:33:15.795Z</time></trkpt><trkpt lat="43.4421333" lon="11.5502433"><ele>589.3333333333334</ele><time>2026-03-27T10:33:16.79Z</time></trkpt><trkpt lat="43.4421083" lon="11.5501317"><ele>590.0</ele><time>2026-03-27T10:33:17.793Z</time></trkpt><trkpt lat="43.4421033" lon="11.5500317"><ele>590.6666666666667</ele><time>2026-03-27T10:33:18.796Z</time></trkpt><trkpt lat="43.4421183" lon="11.5499267"><ele>591.3333333333334</ele><time>2026-03-27T10:33:19.796Z</time></trkpt><trkpt lat="43.4421533" lon="11.5498067"><ele>592.0</ele><time>2026-03-27T10:33:20.797Z</time></trkpt><trkpt lat="43.4422" lon="11.5496683"><ele>592.5</ele><time>2026-03-27T10:33:21.795Z</time></trkpt><trkpt lat="43.4422383" lon="11.5495383"><ele>593.0</ele><time>2026-03-27T10:33:22.797Z</time></trkpt><trkpt lat="43.4422617" lon="11.5493983"><ele>593.5</ele><time>2026-03-27T10:33:23.795Z</time></trkpt><trkpt lat="43.4422683" lon="11.54924"><ele>594.0</ele><time>2026-03-27T10:33:24.795Z</time></trkpt><trkpt lat="43.4422733" lon="11.5490617"><ele>594.0</ele><time>2026-03-27T10:33:25.795Z</time></trkpt><trkpt lat="43.4422767" lon="11.5488767"><ele>594.0</ele><time>2026-03-27T10:33:26.794Z</time></trkpt><trkpt lat="43.4422817" lon="11.5487083"><ele>594.0</ele><time>2026-03-27T10:33:27.796Z</time></trkpt><trkpt lat="43.44229" lon="11.548545"><ele>594.0</ele><time>2026-03-27T10:33:28.795Z</time></trkpt><trkpt lat="43.442295" lon="11.5483883"><ele>593.6</ele><time>2026-03-27T10:33:29.795Z</time></trkpt><trkpt lat="43.4422917" lon="11.5482367"><ele>593.2</ele><time>2026-03-27T10:33:30.796Z</time></trkpt><trkpt lat="43.4422833" lon="11.548095"><ele>592.8000000000001</ele><time>2026-03-27T10:33:31.794Z</time></trkpt><trkpt lat="43.4422717" lon="11.5479433"><ele>592.4</ele><time>2026-03-27T10:33:32.795Z</time></trkpt><trkpt lat="43.4422467" lon="11.5478"><ele>592.0</ele><time>2026-03-27T10:33:33.794Z</time></trkpt><trkpt lat="43.4422117" lon="11.54766"><ele>592.0</ele><time>2026-03-27T10:33:34.794Z</time></trkpt><trkpt lat="43.4421667" lon="11.5475167"><ele>592.0</ele><time>2026-03-27T10:33:35.795Z</time></trkpt><trkpt lat="43.4421317" lon="11.5473833"><ele>592.0</ele><time>2026-03-27T10:33:36.795Z</time></trkpt><trkpt lat="43.4421183" lon="11.5472483"><ele>592.0</ele><time>2026-03-27T10:33:37.795Z</time></trkpt><trkpt lat="43.442125" lon="11.547115"><ele>592.0</ele><time>2026-03-27T10:33:38.796Z</time></trkpt><trkpt lat="43.4421433" lon="11.5469983"><ele>593.5</ele><time>2026-03-27T10:33:39.794Z</time></trkpt><trkpt lat="43.442165" lon="11.5469017"><ele>595.0</ele><time>2026-03-27T10:33:40.795Z</time></trkpt><trkpt lat="43.4421883" lon="11.546815"><ele>596.5</ele><time>2026-03-27T10:33:41.794Z</time></trkpt><trkpt lat="43.4422217" lon="11.546725"><ele>598.0</ele><time>2026-03-27T10:33:42.797Z</time></trkpt><trkpt lat="43.44227" lon="11.5466283"><ele>599.5</ele><time>2026-03-27T10:33:43.794Z</time></trkpt><trkpt lat="43.44234" lon="11.5465233"><ele>601.0</ele><time>2026-03-27T10:33:44.797Z</time></trkpt><trkpt lat="43.4424233" lon="11.54643"><ele>601.0</ele><time>2026-03-27T10:33:45.796Z</time></trkpt><trkpt lat="43.4425067" lon="11.546355"><ele>601.0</ele><time>2026-03-27T10:33:46.795Z</time></trkpt><trkpt lat="43.44258" lon="11.546305"><ele>601.0</ele><time>2026-03-27T10:33:47.796Z</time></trkpt><trkpt lat="43.4426467" lon="11.546265"><ele>601.0</ele><time>2026-03-27T10:33:48.795Z</time></trkpt><trkpt lat="43.4427167" lon="11.5462183"><ele>601.0</ele><time>2026-03-27T10:33:49.794Z</time></trkpt><trkpt lat="43.44279" lon="11.546165"><ele>601.0</ele><time>2026-03-27T10:33:50.796Z</time></trkpt><trkpt lat="43.44285" lon="11.5460783"><ele>602.6666666666667</ele><time>2026-03-27T10:33:51.795Z</time></trkpt><trkpt lat="43.4428917" lon="11.5459883"><ele>604.3333333333334</ele><time>2026-03-27T10:33:52.793Z</time></trkpt><trkpt lat="43.4429183" lon="11.5458867"><ele>606.0</ele><time>2026-03-27T10:33:53.795Z</time></trkpt><trkpt lat="43.442915" lon="11.5457617"><ele>607.6666666666666</ele><time>2026-03-27T10:33:54.797Z</time></trkpt><trkpt lat="43.4428983" lon="11.545635"><ele>609.3333333333333</ele><time>2026-03-27T10:33:55.796Z</time></trkpt><trkpt lat="43.442875" lon="11.545525"><ele>611.0</ele><time>2026-03-27T10:33:56.791Z</time></trkpt><trkpt lat="43.4428383" lon="11.54542"><ele>609.0</ele><time>2026-03-27T10:33:57.793Z</time></trkpt><trkpt lat="43.4427967" lon="11.5453"><ele>607.0</ele><time>2026-03-27T10:33:58.793Z</time></trkpt><trkpt lat="43.4427517" lon="11.5451767"><ele>605.0</ele><time>2026-03-27T10:33:59.798Z</time></trkpt><trkpt lat="43.442705" lon="11.5450567"><ele>603.0</ele><time>2026-03-27T10:34:00.795Z</time></trkpt><trkpt lat="43.442655" lon="11.5449317"><ele>601.0</ele><time>2026-03-27T10:34:01.796Z</time></trkpt><trkpt lat="43.4425933" lon="11.5448067"><ele>601.0</ele><time>2026-03-27T10:34:02.794Z</time></trkpt><trkpt lat="43.4425333" lon="11.5446917"><ele>601.0</ele><time>2026-03-27T10:34:03.795Z</time></trkpt><trkpt lat="43.4424833" lon="11.5445933"><ele>601.0</ele><time>2026-03-27T10:34:04.795Z</time></trkpt><trkpt lat="43.44243" lon="11.5445033"><ele>601.0</ele><time>2026-03-27T10:34:05.794Z</time></trkpt><trkpt lat="43.4423817" lon="11.5444083"><ele>601.0</ele><time>2026-03-27T10:34:06.796Z</time></trkpt><trkpt lat="43.442345" lon="11.5443067"><ele>601.0</ele><time>2026-03-27T10:34:07.795Z</time></trkpt><trkpt lat="43.4423233" lon="11.5441917"><ele>599.1666666666667</ele><time>2026-03-27T10:34:08.797Z</time></trkpt><trkpt lat="43.4423083" lon="11.5440683"><ele>597.3333333333334</ele><time>2026-03-27T10:34:09.796Z</time></trkpt><trkpt lat="43.4422933" lon="11.54395"><ele>595.5</ele><time>2026-03-27T10:34:10.794Z</time></trkpt><trkpt lat="43.4422683" lon="11.5438367"><ele>593.6666666666666</ele><time>2026-03-27T10:34:11.795Z</time></trkpt><trkpt lat="43.4422483" lon="11.5437333"><ele>591.8333333333333</ele><time>2026-03-27T10:34:12.797Z</time></trkpt><trkpt lat="43.4422367" lon="11.5436317"><ele>590.0</ele><time>2026-03-27T10:34:13.796Z</time></trkpt><trkpt lat="43.4422317" lon="11.5435083"><ele>589.2</ele><time>2026-03-27T10:34:14.797Z</time></trkpt><trkpt lat="43.4422417" lon="11.5433583"><ele>588.4</ele><time>2026-03-27T10:34:15.8Z</time></trkpt><trkpt lat="43.442265" lon="11.5432017"><ele>587.6</ele><time>2026-03-27T10:34:16.794Z</time></trkpt><trkpt lat="43.442295" lon="11.5430633"><ele>586.8</ele><time>2026-03-27T10:34:17.796Z</time></trkpt><trkpt lat="43.4423217" lon="11.54295"><ele>586.0</ele><time>2026-03-27T10:34:18.797Z</time></trkpt><trkpt lat="43.442325" lon="11.5428533"><ele>585.6666666666667</ele><time>2026-03-27T10:34:19.795Z</time></trkpt><trkpt lat="43.4423083" lon="11.5427633"><ele>585.3333333333334</ele><time>2026-03-27T10:34:20.793Z</time></trkpt><trkpt lat="43.4422783" lon="11.5426717"><ele>585.0</ele><time>2026-03-27T10:34:21.794Z</time></trkpt><trkpt lat="43.4422333" lon="11.54259"><ele>584.6666666666666</ele><time>2026-03-27T10:34:22.795Z</time></trkpt><trkpt lat="43.4421883" lon="11.5424983"><ele>584.3333333333333</ele><time>2026-03-27T10:34:23.795Z</time></trkpt><trkpt lat="43.4421433" lon="11.5424017"><ele>584.0</ele><time>2026-03-27T10:34:24.794Z</time></trkpt><trkpt lat="43.4421033" lon="11.542295"><ele>583.0</ele><time>2026-03-27T10:34:25.795Z</time></trkpt><trkpt lat="43.44207" lon="11.542195"><ele>582.0</ele><time>2026-03-27T10:34:26.792Z</time></trkpt><trkpt lat="43.4420533" lon="11.5420883"><ele>581.0</ele><time>2026-03-27T10:34:27.796Z</time></trkpt><trkpt lat="43.4420567" lon="11.5419817"><ele>580.0</ele><time>2026-03-27T10:34:28.794Z</time></trkpt><trkpt lat="43.44207" lon="11.5418767"><ele>579.0</ele><time>2026-03-27T10:34:29.797Z</time></trkpt><trkpt lat="43.4420817" lon="11.54174"><ele>578.0</ele><time>2026-03-27T10:34:30.794Z</time></trkpt><trkpt lat="43.4420867" lon="11.541595"><ele>581.1666666666666</ele><time>2026-03-27T10:34:31.795Z</time></trkpt><trkpt lat="43.4420867" lon="11.5414583"><ele>584.3333333333333</ele><time>2026-03-27T10:34:32.795Z</time></trkpt><trkpt lat="43.4420817" lon="11.5413267"><ele>587.5</ele><time>2026-03-27T10:34:33.796Z</time></trkpt><trkpt lat="43.4420617" lon="11.5412167"><ele>590.6666666666666</ele><time>2026-03-27T10:34:34.794Z</time></trkpt><trkpt lat="43.4420283" lon="11.5411217"><ele>593.8333333333334</ele><time>2026-03-27T10:34:35.795Z</time></trkpt><trkpt lat="43.442" lon="11.541015"><ele>597.0</ele><time>2026-03-27T10:34:36.795Z</time></trkpt><trkpt lat="43.4419883" lon="11.5409017"><ele>600.2</ele><time>2026-03-27T10:34:37.794Z</time></trkpt><trkpt lat="43.4419833" lon="11.54078"><ele>603.4000000000001</ele><time>2026-03-27T10:34:38.795Z</time></trkpt><trkpt lat="43.4419967" lon="11.5406417"><ele>606.5999999999999</ele><time>2026-03-27T10:34:39.799Z</time></trkpt><trkpt lat="43.4420033" lon="11.540505"><ele>609.8</ele><time>2026-03-27T10:34:40.794Z</time></trkpt><trkpt lat="43.4420117" lon="11.5403583"><ele>613.0</ele><time>2026-03-27T10:34:41.794Z</time></trkpt><trkpt lat="43.44201" lon="11.540235"><ele>613.1999999999999</ele><time>2026-03-27T10:34:42.798Z</time></trkpt><trkpt lat="43.442015" lon="11.5401117"><ele>613.4</ele><time>2026-03-27T10:34:43.794Z</time></trkpt><trkpt lat="43.4420033" lon="11.5399833"><ele>613.5999999999999</ele><time>2026-03-27T10:34:44.796Z</time></trkpt><trkpt lat="43.4419817" lon="11.5398533"><ele>613.8</ele><time>2026-03-27T10:34:45.795Z</time></trkpt><trkpt lat="43.4419617" lon="11.53973"><ele>614.0</ele><time>2026-03-27T10:34:46.795Z</time></trkpt><trkpt lat="43.4419567" lon="11.5396"><ele>613.4</ele><time>2026-03-27T10:34:47.795Z</time></trkpt><trkpt lat="43.441965" lon="11.53946"><ele>612.8</ele><time>2026-03-27T10:34:48.795Z</time></trkpt><trkpt lat="43.4419717" lon="11.5393267"><ele>612.2</ele><time>2026-03-27T10:34:49.796Z</time></trkpt><trkpt lat="43.441985" lon="11.539195"><ele>611.6</ele><time>2026-03-27T10:34:50.796Z</time></trkpt><trkpt lat="43.441995" lon="11.5390767"><ele>611.0</ele><time>2026-03-27T10:34:51.796Z</time></trkpt><trkpt lat="43.4419883" lon="11.5389783"><ele>611.0</ele><time>2026-03-27T10:34:52.797Z</time></trkpt><trkpt lat="43.4419367" lon="11.5388433"><ele>611.0</ele><time>2026-03-27T10:34:54.794Z</time></trkpt><trkpt lat="43.441855" lon="11.53876"><ele>611.0</ele><time>2026-03-27T10:34:56.796Z</time></trkpt><trkpt lat="43.441855" lon="11.5386417"><ele>611.0</ele><time>2026-03-27T10:34:59.794Z</time></trkpt><trkpt lat="43.4418817" lon="11.53855"><ele>611.0</ele><time>2026-03-27T10:35:01.794Z</time></trkpt><trkpt lat="43.44187" lon="11.538425"><ele>611.0</ele><time>2026-03-27T10:35:03.796Z</time></trkpt><trkpt lat="43.4418533" lon="11.5383083"><ele>611.0</ele><time>2026-03-27T10:35:05.795Z</time></trkpt><trkpt lat="43.4418983" lon="11.5381817"><ele>611.0</ele><time>2026-03-27T10:35:07.795Z</time></trkpt><trkpt lat="43.44194" lon="11.5380533"><ele>611.0</ele><time>2026-03-27T10:35:09.795Z</time></trkpt><trkpt lat="43.4419733" lon="11.5378767"><ele>611.0</ele><time>2026-03-27T10:35:11.793Z</time></trkpt><trkpt lat="43.4419983" lon="11.5377617"><ele>611.5</ele><time>2026-03-27T10:35:12.795Z</time></trkpt><trkpt lat="43.442015" lon="11.5376367"><ele>612.0</ele><time>2026-03-27T10:35:13.795Z</time></trkpt><trkpt lat="43.4420283" lon="11.5375217"><ele>612.5</ele><time>2026-03-27T10:35:14.795Z</time></trkpt><trkpt lat="43.442035" lon="11.5374217"><ele>613.0</ele><time>2026-03-27T10:35:15.795Z</time></trkpt><trkpt lat="43.44204" lon="11.5373333"><ele>613.5</ele><time>2026-03-27T10:35:16.794Z</time></trkpt><trkpt lat="43.442055" lon="11.5372467"><ele>614.0</ele><time>2026-03-27T10:35:17.795Z</time></trkpt><trkpt lat="43.4420717" lon="11.5371433"><ele>614.6</ele><time>2026-03-27T10:35:18.796Z</time></trkpt><trkpt lat="43.4420933" lon="11.5370333"><ele>615.2</ele><time>2026-03-27T10:35:19.794Z</time></trkpt><trkpt lat="43.4421033" lon="11.5369117"><ele>615.8000000000001</ele><time>2026-03-27T10:35:20.796Z</time></trkpt><trkpt lat="43.4421" lon="11.536765"><ele>616.4</ele><time>2026-03-27T10:35:21.795Z</time></trkpt><trkpt lat="43.4420933" lon="11.5366067"><ele>617.0</ele><time>2026-03-27T10:35:22.795Z</time></trkpt><trkpt lat="43.4420833" lon="11.5364517"><ele>617.0</ele><time>2026-03-27T10:35:23.795Z</time></trkpt><trkpt lat="43.4420867" lon="11.5363067"><ele>617.0</ele><time>2026-03-27T10:35:24.794Z</time></trkpt><trkpt lat="43.4420917" lon="11.5361733"><ele>617.0</ele><time>2026-03-27T10:35:25.795Z</time></trkpt><trkpt lat="43.442095" lon="11.5360617"><ele>617.0</ele><time>2026-03-27T10:35:26.794Z</time></trkpt><trkpt lat="43.4421" lon="11.53597"><ele>617.0</ele><time>2026-03-27T10:35:27.794Z</time></trkpt><trkpt lat="43.44212" lon="11.5358167"><ele>619.3333333333333</ele><time>2026-03-27T10:35:29.794Z</time></trkpt><trkpt lat="43.4421867" lon="11.535745"><ele>621.6666666666666</ele><time>2026-03-27T10:35:31.794Z</time></trkpt><trkpt lat="43.4422583" lon="11.5356683"><ele>624.0</ele><time>2026-03-27T10:35:33.795Z</time></trkpt><trkpt lat="43.4422783" lon="11.53554"><ele>626.3333333333334</ele><time>2026-03-27T10:35:35.796Z</time></trkpt><trkpt lat="43.4422783" lon="11.5354483"><ele>628.6666666666667</ele><time>2026-03-27T10:35:36.795Z</time></trkpt><trkpt lat="43.442275" lon="11.5353417"><ele>631.0</ele><time>2026-03-27T10:35:37.795Z</time></trkpt><trkpt lat="43.4422767" lon="11.535225"><ele>631.5</ele><time>2026-03-27T10:35:38.797Z</time></trkpt><trkpt lat="43.4422667" lon="11.5351133"><ele>632.0</ele><time>2026-03-27T10:35:39.795Z</time></trkpt><trkpt lat="43.4422517" lon="11.535005"><ele>632.5</ele><time>2026-03-27T10:35:40.796Z</time></trkpt><trkpt lat="43.44224" lon="11.5349033"><ele>633.0</ele><time>2026-03-27T10:35:41.795Z</time></trkpt><trkpt lat="43.4422233" lon="11.5348167"><ele>633.5</ele><time>2026-03-27T10:35:42.795Z</time></trkpt><trkpt lat="43.442145" lon="11.5347033"><ele>634.0</ele><time>2026-03-27T10:35:44.795Z</time></trkpt><trkpt lat="43.4420417" lon="11.5346533"><ele>634.0</ele><time>2026-03-27T10:35:46.792Z</time></trkpt><trkpt lat="43.4419367" lon="11.534665"><ele>634.0</ele><time>2026-03-27T10:35:48.797Z</time></trkpt><trkpt lat="43.4418433" lon="11.534625"><ele>634.0</ele><time>2026-03-27T10:35:50.796Z</time></trkpt><trkpt lat="43.4417883" lon="11.5345667"><ele>634.0</ele><time>2026-03-27T10:35:51.796Z</time></trkpt><trkpt lat="43.4417217" lon="11.5344583"><ele>634.0</ele><time>2026-03-27T10:35:52.796Z</time></trkpt><trkpt lat="43.4416683" lon="11.5343633"><ele>635.6666666666667</ele><time>2026-03-27T10:35:53.797Z</time></trkpt><trkpt lat="43.4416083" lon="11.534245"><ele>637.3333333333334</ele><time>2026-03-27T10:35:54.795Z</time></trkpt><trkpt lat="43.4415567" lon="11.5341617"><ele>639.0</ele><time>2026-03-27T10:35:55.795Z</time></trkpt><trkpt lat="43.4415083" lon="11.5340083"><ele>640.6666666666666</ele><time>2026-03-27T10:35:57.795Z</time></trkpt><trkpt lat="43.4415067" lon="11.53391"><ele>642.3333333333333</ele><time>2026-03-27T10:35:58.794Z</time></trkpt><trkpt lat="43.441515" lon="11.5338167"><ele>644.0</ele><time>2026-03-27T10:35:59.793Z</time></trkpt><trkpt lat="43.4415167" lon="11.53373"><ele>644.3333333333333</ele><time>2026-03-27T10:36:00.796Z</time></trkpt><trkpt lat="43.4415117" lon="11.5336433"><ele>644.6666666666666</ele><time>2026-03-27T10:36:01.793Z</time></trkpt><trkpt lat="43.4415067" lon="11.533555"><ele>645.0</ele><time>2026-03-27T10:36:02.797Z</time></trkpt><trkpt lat="43.4415017" lon="11.533465"><ele>645.3333333333334</ele><time>2026-03-27T10:36:03.796Z</time></trkpt><trkpt lat="43.44149" lon="11.5333633"><ele>645.6666666666667</ele><time>2026-03-27T10:36:04.795Z</time></trkpt><trkpt lat="43.44146" lon="11.5332417"><ele>646.0</ele><time>2026-03-27T10:36:05.796Z</time></trkpt><trkpt lat="43.4414367" lon="11.5331183"><ele>646.0</ele><time>2026-03-27T10:36:06.794Z</time></trkpt><trkpt lat="43.4414067" lon="11.5330067"><ele>646.0</ele><time>2026-03-27T10:36:07.796Z</time></trkpt><trkpt lat="43.4413917" lon="11.5329"><ele>646.0</ele><time>2026-03-27T10:36:08.798Z</time></trkpt><trkpt lat="43.4413717" lon="11.53281"><ele>646.0</ele><time>2026-03-27T10:36:09.797Z</time></trkpt><trkpt lat="43.4413433" lon="11.532665"><ele>646.0</ele><time>2026-03-27T10:36:11.796Z</time></trkpt><trkpt lat="43.4413417" lon="11.5325783"><ele>646.0</ele><time>2026-03-27T10:36:12.796Z</time></trkpt><trkpt lat="43.4413467" lon="11.5324767"><ele>646.8</ele><time>2026-03-27T10:36:13.796Z</time></trkpt><trkpt lat="43.4413583" lon="11.5323417"><ele>647.5999999999999</ele><time>2026-03-27T10:36:14.796Z</time></trkpt><trkpt lat="43.4413867" lon="11.5322017"><ele>648.4</ele><time>2026-03-27T10:36:15.795Z</time></trkpt><trkpt lat="43.4414133" lon="11.5320717"><ele>649.2</ele><time>2026-03-27T10:36:16.795Z</time></trkpt><trkpt lat="43.441435" lon="11.5319533"><ele>650.0</ele><time>2026-03-27T10:36:17.796Z</time></trkpt><trkpt lat="43.4414367" lon="11.5318383"><ele>651.0</ele><time>2026-03-27T10:36:18.796Z</time></trkpt><trkpt lat="43.4414267" lon="11.5317317"><ele>652.0</ele><time>2026-03-27T10:36:19.795Z</time></trkpt><trkpt lat="43.4414" lon="11.5316217"><ele>653.0</ele><time>2026-03-27T10:36:20.797Z</time></trkpt><trkpt lat="43.4413683" lon="11.5315083"><ele>654.0</ele><time>2026-03-27T10:36:21.796Z</time></trkpt><trkpt lat="43.4413383" lon="11.531395"><ele>655.0</ele><time>2026-03-27T10:36:22.796Z</time></trkpt><trkpt lat="43.4413133" lon="11.5312933"><ele>656.0</ele><time>2026-03-27T10:36:23.796Z</time></trkpt><trkpt lat="43.4412917" lon="11.5312"><ele>655.3333333333333</ele><time>2026-03-27T10:36:24.796Z</time></trkpt><trkpt lat="43.4412767" lon="11.531095"><ele>654.6666666666666</ele><time>2026-03-27T10:36:25.796Z</time></trkpt><trkpt lat="43.441275" lon="11.53098"><ele>654.0</ele><time>2026-03-27T10:36:26.796Z</time></trkpt><trkpt lat="43.441275" lon="11.5308733"><ele>653.3333333333334</ele><time>2026-03-27T10:36:27.795Z</time></trkpt><trkpt lat="43.44128" lon="11.5307717"><ele>652.6666666666667</ele><time>2026-03-27T10:36:28.795Z</time></trkpt><trkpt lat="43.441295" lon="11.5306783"><ele>652.0</ele><time>2026-03-27T10:36:29.796Z</time></trkpt><trkpt lat="43.4413117" lon="11.53054"><ele>652.0</ele><time>2026-03-27T10:36:31.795Z</time></trkpt><trkpt lat="43.4413183" lon="11.530445"><ele>652.0</ele><time>2026-03-27T10:36:33.795Z</time></trkpt><trkpt lat="43.4413317" lon="11.530325"><ele>652.0</ele><time>2026-03-27T10:36:36.795Z</time></trkpt><trkpt lat="43.44133" lon="11.5302367"><ele>652.0</ele><time>2026-03-27T10:36:39.796Z</time></trkpt><trkpt lat="43.4412267" lon="11.5301783"><ele>652.0</ele><time>2026-03-27T10:36:42.796Z</time></trkpt><trkpt lat="43.4411233" lon="11.530155"><ele>652.0</ele><time>2026-03-27T10:36:44.795Z</time></trkpt><trkpt lat="43.441035" lon="11.5301383"><ele>648.5</ele><time>2026-03-27T10:36:46.795Z</time></trkpt><trkpt lat="43.4409667" lon="11.53013"><ele>645.0</ele><time>2026-03-27T10:36:48.797Z</time></trkpt><trkpt lat="43.4408817" lon="11.5301"><ele>641.5</ele><time>2026-03-27T10:36:51.795Z</time></trkpt><trkpt lat="43.4408483" lon="11.5299883"><ele>638.0</ele><time>2026-03-27T10:36:54.795Z</time></trkpt><trkpt lat="43.44091" lon="11.5299117"><ele>634.5</ele><time>2026-03-27T10:36:56.796Z</time></trkpt><trkpt lat="43.4409667" lon="11.52986"><ele>631.0</ele><time>2026-03-27T10:36:58.795Z</time></trkpt><trkpt lat="43.44097" lon="11.5297617"><ele>631.0</ele><time>2026-03-27T10:37:00.796Z</time></trkpt><trkpt lat="43.4409167" lon="11.529685"><ele>631.0</ele><time>2026-03-27T10:37:02.8Z</time></trkpt><trkpt lat="43.4408617" lon="11.5296033"><ele>631.0</ele><time>2026-03-27T10:37:04.796Z</time></trkpt><trkpt lat="43.44083" lon="11.5293917"><ele>631.0</ele><time>2026-03-27T10:37:06.797Z</time></trkpt><trkpt lat="43.4408233" lon="11.5292267"><ele>631.0</ele><time>2026-03-27T10:37:07.798Z</time></trkpt><trkpt lat="43.44082" lon="11.52906"><ele>629.2</ele><time>2026-03-27T10:37:08.798Z</time></trkpt><trkpt lat="43.44082" lon="11.52891"><ele>627.4000000000001</ele><time>2026-03-27T10:37:09.795Z</time></trkpt><trkpt lat="43.4408267" lon="11.5287767"><ele>625.6</ele><time>2026-03-27T10:37:10.796Z</time></trkpt><trkpt lat="43.4408483" lon="11.52865"><ele>623.8000000000001</ele><time>2026-03-27T10:37:11.796Z</time></trkpt><trkpt lat="43.440885" lon="11.5285167"><ele>622.0</ele><time>2026-03-27T10:37:12.798Z</time></trkpt><trkpt lat="43.44093" lon="11.5283833"><ele>622.0</ele><time>2026-03-27T10:37:13.796Z</time></trkpt><trkpt lat="43.4409783" lon="11.52825"><ele>622.0</ele><time>2026-03-27T10:37:14.796Z</time></trkpt><trkpt lat="43.4410317" lon="11.5281217"><ele>622.0</ele><time>2026-03-27T10:37:15.795Z</time></trkpt><trkpt lat="43.4410883" lon="11.5279983"><ele>622.0</ele><time>2026-03-27T10:37:16.796Z</time></trkpt><trkpt lat="43.4411433" lon="11.5278817"><ele>622.0</ele><time>2026-03-27T10:37:17.795Z</time></trkpt><trkpt lat="43.4412017" lon="11.5277817"><ele>621.0</ele><time>2026-03-27T10:37:18.796Z</time></trkpt><trkpt lat="43.441265" lon="11.527695"><ele>620.0</ele><time>2026-03-27T10:37:19.795Z</time></trkpt><trkpt lat="43.4413333" lon="11.5276183"><ele>619.0</ele><time>2026-03-27T10:37:20.797Z</time></trkpt><trkpt lat="43.4414017" lon="11.5275533"><ele>618.0</ele><time>2026-03-27T10:37:21.795Z</time></trkpt><trkpt lat="43.44148" lon="11.5274983"><ele>617.0</ele><time>2026-03-27T10:37:22.796Z</time></trkpt><trkpt lat="43.44156" lon="11.5274517"><ele>616.0</ele><time>2026-03-27T10:37:23.796Z</time></trkpt><trkpt lat="43.44164" lon="11.5274083"><ele>615.2</ele><time>2026-03-27T10:37:24.796Z</time></trkpt><trkpt lat="43.4417333" lon="11.5273567"><ele>614.4000000000001</ele><time>2026-03-27T10:37:25.796Z</time></trkpt><trkpt lat="43.4418383" lon="11.5273"><ele>613.6</ele><time>2026-03-27T10:37:26.797Z</time></trkpt><trkpt lat="43.4419433" lon="11.5272383"><ele>612.8000000000001</ele><time>2026-03-27T10:37:27.796Z</time></trkpt><trkpt lat="43.4420433" lon="11.52719"><ele>612.0</ele><time>2026-03-27T10:37:28.795Z</time></trkpt><trkpt lat="43.4421367" lon="11.5271683"><ele>611.5</ele><time>2026-03-27T10:37:29.797Z</time></trkpt><trkpt lat="43.4422217" lon="11.5271683"><ele>611.0</ele><time>2026-03-27T10:37:30.797Z</time></trkpt><trkpt lat="43.4423017" lon="11.527175"><ele>610.5</ele><time>2026-03-27T10:37:31.796Z</time></trkpt><trkpt lat="43.4423767" lon="11.527185"><ele>610.0</ele><time>2026-03-27T10:37:32.797Z</time></trkpt><trkpt lat="43.44245" lon="11.5271967"><ele>609.5</ele><time>2026-03-27T10:37:33.795Z</time></trkpt><trkpt lat="43.442535" lon="11.5272083"><ele>609.0</ele><time>2026-03-27T10:37:34.796Z</time></trkpt><trkpt lat="43.4426333" lon="11.527215"><ele>609.0</ele><time>2026-03-27T10:37:35.795Z</time></trkpt><trkpt lat="43.442735" lon="11.527215"><ele>609.0</ele><time>2026-03-27T10:37:36.797Z</time></trkpt><trkpt lat="43.442835" lon="11.5271983"><ele>609.0</ele><time>2026-03-27T10:37:37.795Z</time></trkpt><trkpt lat="43.442915" lon="11.5271567"><ele>609.0</ele><time>2026-03-27T10:37:38.797Z</time></trkpt><trkpt lat="43.44299" lon="11.5270917"><ele>609.0</ele><time>2026-03-27T10:37:39.796Z</time></trkpt><trkpt lat="43.4430567" lon="11.5269817"><ele>610.6</ele><time>2026-03-27T10:37:40.794Z</time></trkpt><trkpt lat="43.443115" lon="11.5268533"><ele>612.2</ele><time>2026-03-27T10:37:41.796Z</time></trkpt><trkpt lat="43.4431617" lon="11.5267183"><ele>613.8000000000001</ele><time>2026-03-27T10:37:42.795Z</time></trkpt><trkpt lat="43.443185" lon="11.5265733"><ele>615.4</ele><time>2026-03-27T10:37:43.796Z</time></trkpt><trkpt lat="43.44319" lon="11.52643"><ele>617.0</ele><time>2026-03-27T10:37:44.797Z</time></trkpt><trkpt lat="43.4431717" lon="11.5262667"><ele>616.75</ele><time>2026-03-27T10:37:45.795Z</time></trkpt><trkpt lat="43.4431283" lon="11.52609"><ele>616.5</ele><time>2026-03-27T10:37:46.795Z</time></trkpt><trkpt lat="43.4430733" lon="11.525905"><ele>616.25</ele><time>2026-03-27T10:37:47.796Z</time></trkpt><trkpt lat="43.4430183" lon="11.5257267"><ele>616.0</ele><time>2026-03-27T10:37:48.797Z</time></trkpt><trkpt lat="43.4429717" lon="11.5255717"><ele>616.8</ele><time>2026-03-27T10:37:49.797Z</time></trkpt><trkpt lat="43.4429283" lon="11.5254433"><ele>617.6</ele><time>2026-03-27T10:37:50.797Z</time></trkpt><trkpt lat="43.4428867" lon="11.5253367"><ele>618.4</ele><time>2026-03-27T10:37:51.796Z</time></trkpt><trkpt lat="43.44285" lon="11.5252433"><ele>619.2</ele><time>2026-03-27T10:37:52.794Z</time></trkpt><trkpt lat="43.442795" lon="11.52509"><ele>620.0</ele><time>2026-03-27T10:37:54.795Z</time></trkpt><trkpt lat="43.442775" lon="11.525005"><ele>620.0</ele><time>2026-03-27T10:37:55.795Z</time></trkpt><trkpt lat="43.4427483" lon="11.524925"><ele>620.0</ele><time>2026-03-27T10:37:57.795Z</time></trkpt><trkpt lat="43.442775" lon="11.5248383"><ele>620.0</ele><time>2026-03-27T10:38:11.797Z</time></trkpt><trkpt lat="43.4427633" lon="11.5247033"><ele>620.0</ele><time>2026-03-27T10:38:13.796Z</time></trkpt><trkpt lat="43.442755" lon="11.5245917"><ele>620.0</ele><time>2026-03-27T10:38:15.794Z</time></trkpt><trkpt lat="43.4427533" lon="11.5244833"><ele>620.0</ele><time>2026-03-27T10:38:17.794Z</time></trkpt><trkpt lat="43.442755" lon="11.5243917"><ele>622.6666666666666</ele><time>2026-03-27T10:38:19.795Z</time></trkpt><trkpt lat="43.4427267" lon="11.524205"><ele>625.3333333333333</ele><time>2026-03-27T10:39:02.796Z</time></trkpt><trkpt lat="43.44273" lon="11.524085"><ele>628.0</ele><time>2026-03-27T10:39:08.798Z</time></trkpt><trkpt lat="43.44273" lon="11.5239917"><ele>630.6666666666666</ele><time>2026-03-27T10:39:10.796Z</time></trkpt><trkpt lat="43.4427283" lon="11.5238883"><ele>633.3333333333334</ele><time>2026-03-27T10:39:12.794Z</time></trkpt><trkpt lat="43.44272" lon="11.523785"><ele>636.0</ele><time>2026-03-27T10:39:16.795Z</time></trkpt><trkpt lat="43.4427217" lon="11.52369"><ele>638.6666666666666</ele><time>2026-03-27T10:39:22.796Z</time></trkpt><trkpt lat="43.4427167" lon="11.5236033"><ele>641.3333333333334</ele><time>2026-03-27T10:39:30.796Z</time></trkpt><trkpt lat="43.4427183" lon="11.5235083"><ele>644.0</ele><time>2026-03-27T10:39:53.794Z</time></trkpt><trkpt lat="43.442725" lon="11.52342"><ele>646.6666666666667</ele><time>2026-03-27T10:39:55.797Z</time></trkpt><trkpt lat="43.4427283" lon="11.5232967"><ele>649.3333333333334</ele><time>2026-03-27T10:39:58.797Z</time></trkpt><trkpt lat="43.4427233" lon="11.5231933"><ele>652.0</ele><time>2026-03-27T10:40:01.795Z</time></trkpt><trkpt lat="43.4427333" lon="11.5230717"><ele>652.0</ele><time>2026-03-27T10:40:04.792Z</time></trkpt><trkpt lat="43.44274" lon="11.5229833"><ele>652.0</ele><time>2026-03-27T10:40:06.794Z</time></trkpt><trkpt lat="43.4427483" lon="11.5228867"><ele>652.0</ele><time>2026-03-27T10:40:08.795Z</time></trkpt><trkpt lat="43.4427533" lon="11.5227683"><ele>652.0</ele><time>2026-03-27T10:40:10.794Z</time></trkpt><trkpt lat="43.4427483" lon="11.522655"><ele>652.0</ele><time>2026-03-27T10:40:12.794Z</time></trkpt><trkpt lat="43.44274" lon="11.52254"><ele>652.0</ele><time>2026-03-27T10:40:14.795Z</time></trkpt><trkpt lat="43.4427333" lon="11.52243"><ele>652.0</ele><time>2026-03-27T10:40:16.794Z</time></trkpt><trkpt lat="43.4427317" lon="11.5223283"><ele>652.0</ele><time>2026-03-27T10:40:18.796Z</time></trkpt><trkpt lat="43.442735" lon="11.5222217"><ele>652.0</ele><time>2026-03-27T10:40:21.796Z</time></trkpt><trkpt lat="43.4427317" lon="11.5221017"><ele>652.0</ele><time>2026-03-27T10:40:23.797Z</time></trkpt><trkpt lat="43.4427133" lon="11.5219933"><ele>652.0</ele><time>2026-03-27T10:40:25.793Z</time></trkpt><trkpt lat="43.4427" lon="11.5218983"><ele>652.0</ele><time>2026-03-27T10:40:27.795Z</time></trkpt><trkpt lat="43.4426933" lon="11.52178"><ele>652.0</ele><time>2026-03-27T10:40:29.795Z</time></trkpt><trkpt lat="43.442695" lon="11.5216433"><ele>652.0</ele><time>2026-03-27T10:40:31.794Z</time></trkpt><trkpt lat="43.4426967" lon="11.52154"><ele>652.0</ele><time>2026-03-27T10:40:35.795Z</time></trkpt><trkpt lat="43.442695" lon="11.52145"><ele>652.0</ele><time>2026-03-27T10:41:11.793Z</time></trkpt><trkpt lat="43.4426767" lon="11.5213417"><ele>652.0</ele><time>2026-03-27T10:41:13.795Z</time></trkpt><trkpt lat="43.44267" lon="11.521165"><ele>652.0</ele><time>2026-03-27T10:41:15.795Z</time></trkpt><trkpt lat="43.4426783" lon="11.5210683"><ele>651.4000000000001</ele><time>2026-03-27T10:41:16.795Z</time></trkpt><trkpt lat="43.4427017" lon="11.52096"><ele>650.8000000000001</ele><time>2026-03-27T10:41:17.797Z</time></trkpt><trkpt lat="43.4427383" lon="11.52083"><ele>650.2</ele><time>2026-03-27T10:41:18.796Z</time></trkpt><trkpt lat="43.4427917" lon="11.5206783"><ele>649.6</ele><time>2026-03-27T10:41:19.796Z</time></trkpt><trkpt lat="43.4428483" lon="11.52053"><ele>649.0</ele><time>2026-03-27T10:41:20.796Z</time></trkpt><trkpt lat="43.4429" lon="11.5203933"><ele>648.6</ele><time>2026-03-27T10:41:21.796Z</time></trkpt><trkpt lat="43.44295" lon="11.5202717"><ele>648.2</ele><time>2026-03-27T10:41:22.795Z</time></trkpt><trkpt lat="43.4429983" lon="11.520155"><ele>647.8000000000001</ele><time>2026-03-27T10:41:23.797Z</time></trkpt><trkpt lat="43.4430467" lon="11.520045"><ele>647.4000000000001</ele><time>2026-03-27T10:41:24.796Z</time></trkpt><trkpt lat="43.4431" lon="11.5199383"><ele>647.0</ele><time>2026-03-27T10:41:25.796Z</time></trkpt><trkpt lat="43.4431583" lon="11.5198417"><ele>648.2</ele><time>2026-03-27T10:41:26.795Z</time></trkpt><trkpt lat="43.443225" lon="11.51975"><ele>649.4000000000001</ele><time>2026-03-27T10:41:27.795Z</time></trkpt><trkpt lat="43.4432917" lon="11.5196633"><ele>650.5999999999999</ele><time>2026-03-27T10:41:28.795Z</time></trkpt><trkpt lat="43.443345" lon="11.5195617"><ele>651.8</ele><time>2026-03-27T10:41:29.795Z</time></trkpt><trkpt lat="43.443385" lon="11.519445"><ele>653.0</ele><time>2026-03-27T10:41:30.794Z</time></trkpt><trkpt lat="43.44342" lon="11.519305"><ele>655.4</ele><time>2026-03-27T10:41:31.797Z</time></trkpt><trkpt lat="43.44345" lon="11.5191417"><ele>657.8</ele><time>2026-03-27T10:41:32.796Z</time></trkpt><trkpt lat="43.4434767" lon="11.5189883"><ele>660.2</ele><time>2026-03-27T10:41:33.795Z</time></trkpt><trkpt lat="43.4435" lon="11.518845"><ele>662.6</ele><time>2026-03-27T10:41:34.795Z</time></trkpt><trkpt lat="43.4435133" lon="11.518705"><ele>665.0</ele><time>2026-03-27T10:41:35.796Z</time></trkpt><trkpt lat="43.4435167" lon="11.518575"><ele>666.4</ele><time>2026-03-27T10:41:36.795Z</time></trkpt><trkpt lat="43.443525" lon="11.5184567"><ele>667.8</ele><time>2026-03-27T10:41:37.796Z</time></trkpt><trkpt lat="43.4435483" lon="11.5183483"><ele>669.2</ele><time>2026-03-27T10:41:38.796Z</time></trkpt><trkpt lat="43.443595" lon="11.518245"><ele>670.6</ele><time>2026-03-27T10:41:39.794Z</time></trkpt><trkpt lat="43.4436733" lon="11.5181417"><ele>672.0</ele><time>2026-03-27T10:41:40.794Z</time></trkpt><trkpt lat="43.4437617" lon="11.518055"><ele>672.6666666666666</ele><time>2026-03-27T10:41:41.793Z</time></trkpt><trkpt lat="43.443845" lon="11.5179833"><ele>673.3333333333334</ele><time>2026-03-27T10:41:42.796Z</time></trkpt><trkpt lat="43.4439217" lon="11.5179317"><ele>674.0</ele><time>2026-03-27T10:41:43.794Z</time></trkpt><trkpt lat="43.4439883" lon="11.5178667"><ele>674.6666666666667</ele><time>2026-03-27T10:41:44.796Z</time></trkpt><trkpt lat="43.44404" lon="11.5177917"><ele>675.3333333333334</ele><time>2026-03-27T10:41:45.794Z</time></trkpt><trkpt lat="43.444085" lon="11.5176967"><ele>676.0</ele><time>2026-03-27T10:41:46.794Z</time></trkpt><trkpt lat="43.4441117" lon="11.517585"><ele>676.0</ele><time>2026-03-27T10:41:47.794Z</time></trkpt><trkpt lat="43.4441183" lon="11.5174617"><ele>676.0</ele><time>2026-03-27T10:41:48.796Z</time></trkpt><trkpt lat="43.4441117" lon="11.5173383"><ele>676.0</ele><time>2026-03-27T10:41:49.796Z</time></trkpt><trkpt lat="43.4441183" lon="11.517215"><ele>676.0</ele><time>2026-03-27T10:41:50.796Z</time></trkpt><trkpt lat="43.4441383" lon="11.51709"><ele>676.0</ele><time>2026-03-27T10:41:51.796Z</time></trkpt><trkpt lat="43.4441733" lon="11.516975"><ele>678.6666666666667</ele><time>2026-03-27T10:41:52.795Z</time></trkpt><trkpt lat="43.444225" lon="11.5168733"><ele>681.3333333333334</ele><time>2026-03-27T10:41:53.796Z</time></trkpt><trkpt lat="43.44428" lon="11.516795"><ele>684.0</ele><time>2026-03-27T10:41:54.796Z</time></trkpt><trkpt lat="43.4443367" lon="11.5167383"><ele>686.6666666666666</ele><time>2026-03-27T10:41:55.796Z</time></trkpt><trkpt lat="43.4443917" lon="11.51669"><ele>689.3333333333333</ele><time>2026-03-27T10:41:56.795Z</time></trkpt><trkpt lat="43.4445117" lon="11.5166967"><ele>692.0</ele><time>2026-03-27T10:41:58.795Z</time></trkpt><trkpt lat="43.4445817" lon="11.51684"><ele>692.0</ele><time>2026-03-27T10:42:00.796Z</time></trkpt><trkpt lat="43.4445817" lon="11.5169617"><ele>692.0</ele><time>2026-03-27T10:42:01.795Z</time></trkpt><trkpt lat="43.4445917" lon="11.517095"><ele>692.0</ele><time>2026-03-27T10:42:02.795Z</time></trkpt><trkpt lat="43.444615" lon="11.517225"><ele>692.0</ele><time>2026-03-27T10:42:03.795Z</time></trkpt><trkpt lat="43.4446567" lon="11.5173667"><ele>692.0</ele><time>2026-03-27T10:42:04.795Z</time></trkpt><trkpt lat="43.4447167" lon="11.51751"><ele>691.6</ele><time>2026-03-27T10:42:05.794Z</time></trkpt><trkpt lat="43.4447783" lon="11.517635"><ele>691.2</ele><time>2026-03-27T10:42:06.794Z</time></trkpt><trkpt lat="43.4448417" lon="11.5177383"><ele>690.8</ele><time>2026-03-27T10:42:07.794Z</time></trkpt><trkpt lat="43.444925" lon="11.5178317"><ele>690.4</ele><time>2026-03-27T10:42:08.795Z</time></trkpt><trkpt lat="43.4450233" lon="11.51792"><ele>690.0</ele><time>2026-03-27T10:42:09.794Z</time></trkpt><trkpt lat="43.4451417" lon="11.518015"><ele>690.75</ele><time>2026-03-27T10:42:10.794Z</time></trkpt><trkpt lat="43.4452617" lon="11.5181133"><ele>691.5</ele><time>2026-03-27T10:42:11.795Z</time></trkpt><trkpt lat="43.4453767" lon="11.5182117"><ele>692.25</ele><time>2026-03-27T10:42:12.794Z</time></trkpt><trkpt lat="43.4454767" lon="11.5182967"><ele>693.0</ele><time>2026-03-27T10:42:13.794Z</time></trkpt><trkpt lat="43.4455767" lon="11.5183567"><ele>693.0</ele><time>2026-03-27T10:42:14.796Z</time></trkpt><trkpt lat="43.44569" lon="11.518405"><ele>693.0</ele><time>2026-03-27T10:42:15.794Z</time></trkpt><trkpt lat="43.4458" lon="11.5184433"><ele>693.0</ele><time>2026-03-27T10:42:16.794Z</time></trkpt><trkpt lat="43.445925" lon="11.5184683"><ele>693.0</ele><time>2026-03-27T10:42:17.794Z</time></trkpt><trkpt lat="43.44606" lon="11.5184733"><ele>693.0</ele><time>2026-03-27T10:42:18.794Z</time></trkpt><trkpt lat="43.4461867" lon="11.5184683"><ele>693.0</ele><time>2026-03-27T10:42:19.794Z</time></trkpt><trkpt lat="43.4463033" lon="11.5184683"><ele>693.0</ele><time>2026-03-27T10:42:20.796Z</time></trkpt><trkpt lat="43.4464133" lon="11.5184867"><ele>693.0</ele><time>2026-03-27T10:42:21.796Z</time></trkpt><trkpt lat="43.44652" lon="11.5185217"><ele>692.6666666666666</ele><time>2026-03-27T10:42:22.794Z</time></trkpt><trkpt lat="43.44661" lon="11.5185667"><ele>692.3333333333334</ele><time>2026-03-27T10:42:23.793Z</time></trkpt><trkpt lat="43.4466883" lon="11.518615"><ele>692.0</ele><time>2026-03-27T10:42:24.793Z</time></trkpt><trkpt lat="43.44676" lon="11.5186533"><ele>691.6666666666667</ele><time>2026-03-27T10:42:25.794Z</time></trkpt><trkpt lat="43.4468233" lon="11.51868"><ele>691.3333333333334</ele><time>2026-03-27T10:42:26.795Z</time></trkpt><trkpt lat="43.446935" lon="11.5186533"><ele>691.0</ele><time>2026-03-27T10:42:28.794Z</time></trkpt><trkpt lat="43.44699" lon="11.518595"><ele>691.0</ele><time>2026-03-27T10:42:29.795Z</time></trkpt><trkpt lat="43.4470333" lon="11.51851"><ele>691.0</ele><time>2026-03-27T10:42:30.794Z</time></trkpt><trkpt lat="43.4470617" lon="11.5184183"><ele>691.0</ele><time>2026-03-27T10:42:31.795Z</time></trkpt><trkpt lat="43.44709" lon="11.5183367"><ele>691.0</ele><time>2026-03-27T10:42:32.796Z</time></trkpt><trkpt lat="43.4471567" lon="11.51823"><ele>691.0</ele><time>2026-03-27T10:42:34.795Z</time></trkpt><trkpt lat="43.4472333" lon="11.51817"><ele>691.0</ele><time>2026-03-27T10:42:36.796Z</time></trkpt><trkpt lat="43.44729" lon="11.518125"><ele>687.4</ele><time>2026-03-27T10:42:39.794Z</time></trkpt><trkpt lat="43.4472767" lon="11.5179733"><ele>683.8</ele><time>2026-03-27T10:42:42.795Z</time></trkpt><trkpt lat="43.44724" lon="11.5178733"><ele>680.1999999999999</ele><time>2026-03-27T10:42:43.794Z</time></trkpt><trkpt lat="43.4472017" lon="11.5177483"><ele>676.5999999999999</ele><time>2026-03-27T10:42:44.796Z</time></trkpt><trkpt lat="43.44718" lon="11.5176167"><ele>673.0</ele><time>2026-03-27T10:42:45.796Z</time></trkpt><trkpt lat="43.4471683" lon="11.5174667"><ele>672.75</ele><time>2026-03-27T10:42:46.796Z</time></trkpt><trkpt lat="43.4471617" lon="11.5173033"><ele>672.5</ele><time>2026-03-27T10:42:47.795Z</time></trkpt><trkpt lat="43.4471683" lon="11.51713"><ele>672.25</ele><time>2026-03-27T10:42:48.795Z</time></trkpt><trkpt lat="43.4471833" lon="11.51695"><ele>672.0</ele><time>2026-03-27T10:42:49.794Z</time></trkpt><trkpt lat="43.4471967" lon="11.51678"><ele>672.5</ele><time>2026-03-27T10:42:50.796Z</time></trkpt><trkpt lat="43.447195" lon="11.516625"><ele>673.0</ele><time>2026-03-27T10:42:51.795Z</time></trkpt><trkpt lat="43.44718" lon="11.51648"><ele>673.5</ele><time>2026-03-27T10:42:52.795Z</time></trkpt><trkpt lat="43.4471233" lon="11.5163383"><ele>674.0</ele><time>2026-03-27T10:42:53.796Z</time></trkpt><trkpt lat="43.44704" lon="11.5162067"><ele>682.0</ele><time>2026-03-27T10:42:54.795Z</time></trkpt><trkpt lat="43.44694" lon="11.5160867"><ele>690.0</ele><time>2026-03-27T10:42:55.796Z</time></trkpt><trkpt lat="43.446825" lon="11.51598"><ele>698.0</ele><time>2026-03-27T10:42:56.796Z</time></trkpt><trkpt lat="43.44671" lon="11.5158567"><ele>706.0</ele><time>2026-03-27T10:42:57.794Z</time></trkpt><trkpt lat="43.4465833" lon="11.5157417"><ele>706.0</ele><time>2026-03-27T10:42:58.794Z</time></trkpt><trkpt lat="43.44645" lon="11.5156383"><ele>706.0</ele><time>2026-03-27T10:42:59.795Z</time></trkpt><trkpt lat="43.4463383" lon="11.5155283"><ele>706.0</ele><time>2026-03-27T10:43:00.795Z</time></trkpt><trkpt lat="43.4462483" lon="11.515415"><ele>706.0</ele><time>2026-03-27T10:43:01.795Z</time></trkpt><trkpt lat="43.446185" lon="11.5152783"><ele>711.75</ele><time>2026-03-27T10:43:02.796Z</time></trkpt><trkpt lat="43.4461433" lon="11.515115"><ele>717.5</ele><time>2026-03-27T10:43:03.794Z</time></trkpt><trkpt lat="43.4461067" lon="11.514945"><ele>723.25</ele><time>2026-03-27T10:43:04.795Z</time></trkpt><trkpt lat="43.446065" lon="11.5147867"><ele>729.0</ele><time>2026-03-27T10:43:05.796Z</time></trkpt><trkpt lat="43.4459967" lon="11.51464"><ele>725.75</ele><time>2026-03-27T10:43:06.796Z</time></trkpt><trkpt lat="43.445905" lon="11.514505"><ele>722.5</ele><time>2026-03-27T10:43:07.794Z</time></trkpt><trkpt lat="43.44581" lon="11.5143817"><ele>719.25</ele><time>2026-03-27T10:43:08.796Z</time></trkpt><trkpt lat="43.4457283" lon="11.5142617"><ele>716.0</ele><time>2026-03-27T10:43:09.795Z</time></trkpt><trkpt lat="43.44567" lon="11.5141483"><ele>716.0</ele><time>2026-03-27T10:43:10.794Z</time></trkpt><trkpt lat="43.4456417" lon="11.514035"><ele>716.0</ele><time>2026-03-27T10:43:11.796Z</time></trkpt><trkpt lat="43.4456367" lon="11.51391"><ele>716.0</ele><time>2026-03-27T10:43:12.796Z</time></trkpt><trkpt lat="43.4456617" lon="11.5137667"><ele>716.0</ele><time>2026-03-27T10:43:13.795Z</time></trkpt><trkpt lat="43.4456983" lon="11.5136083"><ele>716.0</ele><time>2026-03-27T10:43:14.796Z</time></trkpt><trkpt lat="43.4457383" lon="11.5134517"><ele>715.0</ele><time>2026-03-27T10:43:15.795Z</time></trkpt><trkpt lat="43.4457783" lon="11.5133117"><ele>714.0</ele><time>2026-03-27T10:43:16.796Z</time></trkpt><trkpt lat="43.445805" lon="11.5131717"><ele>713.0</ele><time>2026-03-27T10:43:17.796Z</time></trkpt><trkpt lat="43.4458033" lon="11.5130333"><ele>712.0</ele><time>2026-03-27T10:43:18.796Z</time></trkpt><trkpt lat="43.4457667" lon="11.5128867"><ele>711.0</ele><time>2026-03-27T10:43:19.795Z</time></trkpt><trkpt lat="43.44571" lon="11.5127317"><ele>710.75</ele><time>2026-03-27T10:43:20.797Z</time></trkpt><trkpt lat="43.4456433" lon="11.5125967"><ele>710.5</ele><time>2026-03-27T10:43:21.795Z</time></trkpt><trkpt lat="43.4455917" lon="11.5124483"><ele>710.25</ele><time>2026-03-27T10:43:22.797Z</time></trkpt><trkpt lat="43.4455617" lon="11.5122883"><ele>710.0</ele><time>2026-03-27T10:43:23.796Z</time></trkpt><trkpt lat="43.44554" lon="11.5121133"><ele>712.0</ele><time>2026-03-27T10:43:24.794Z</time></trkpt><trkpt lat="43.44554" lon="11.5119233"><ele>714.0</ele><time>2026-03-27T10:43:25.835Z</time></trkpt><trkpt lat="43.4455483" lon="11.511715"><ele>716.0</ele><time>2026-03-27T10:43:26.798Z</time></trkpt><trkpt lat="43.4455567" lon="11.5114967"><ele>718.0</ele><time>2026-03-27T10:43:27.795Z</time></trkpt><trkpt lat="43.4455583" lon="11.5112917"><ele>721.25</ele><time>2026-03-27T10:43:28.796Z</time></trkpt><trkpt lat="43.4455567" lon="11.5111067"><ele>724.5</ele><time>2026-03-27T10:43:29.795Z</time></trkpt><trkpt lat="43.4455517" lon="11.5109317"><ele>727.75</ele><time>2026-03-27T10:43:30.795Z</time></trkpt><trkpt lat="43.4455333" lon="11.510765"><ele>731.0</ele><time>2026-03-27T10:43:31.796Z</time></trkpt><trkpt lat="43.4455017" lon="11.510605"><ele>731.25</ele><time>2026-03-27T10:43:32.797Z</time></trkpt><trkpt lat="43.44546" lon="11.5104417"><ele>731.5</ele><time>2026-03-27T10:43:33.796Z</time></trkpt><trkpt lat="43.44542" lon="11.510275"><ele>731.75</ele><time>2026-03-27T10:43:34.796Z</time></trkpt><trkpt lat="43.4453883" lon="11.5101083"><ele>732.0</ele><time>2026-03-27T10:43:35.796Z</time></trkpt><trkpt lat="43.4453617" lon="11.5099317"><ele>732.0</ele><time>2026-03-27T10:43:36.796Z</time></trkpt><trkpt lat="43.44533" lon="11.5097567"><ele>732.0</ele><time>2026-03-27T10:43:37.796Z</time></trkpt><trkpt lat="43.4452783" lon="11.5095867"><ele>732.0</ele><time>2026-03-27T10:43:38.797Z</time></trkpt><trkpt lat="43.4452117" lon="11.50942"><ele>732.0</ele><time>2026-03-27T10:43:39.796Z</time></trkpt><trkpt lat="43.4451383" lon="11.5092517"><ele>738.0</ele><time>2026-03-27T10:43:40.797Z</time></trkpt><trkpt lat="43.4450617" lon="11.50908"><ele>744.0</ele><time>2026-03-27T10:43:41.797Z</time></trkpt><trkpt lat="43.444995" lon="11.5089217"><ele>750.0</ele><time>2026-03-27T10:43:42.797Z</time></trkpt><trkpt lat="43.4449333" lon="11.5087883"><ele>756.0</ele><time>2026-03-27T10:43:43.795Z</time></trkpt><trkpt lat="43.4448583" lon="11.50868"><ele>762.75</ele><time>2026-03-27T10:43:44.797Z</time></trkpt><trkpt lat="43.4447667" lon="11.508595"><ele>769.5</ele><time>2026-03-27T10:43:45.794Z</time></trkpt><trkpt lat="43.4446567" lon="11.508535"><ele>776.25</ele><time>2026-03-27T10:43:46.796Z</time></trkpt><trkpt lat="43.4445267" lon="11.5085083"><ele>783.0</ele><time>2026-03-27T10:43:47.796Z</time></trkpt><trkpt lat="43.4443833" lon="11.5085083"><ele>783.0</ele><time>2026-03-27T10:43:48.795Z</time></trkpt><trkpt lat="43.4442417" lon="11.5085183"><ele>783.0</ele><time>2026-03-27T10:43:49.795Z</time></trkpt><trkpt lat="43.4441117" lon="11.5085367"><ele>783.0</ele><time>2026-03-27T10:43:50.796Z</time></trkpt><trkpt lat="43.4439917" lon="11.508535"><ele>783.0</ele><time>2026-03-27T10:43:51.796Z</time></trkpt><trkpt lat="43.4438817" lon="11.508485"><ele>780.5</ele><time>2026-03-27T10:43:52.796Z</time></trkpt><trkpt lat="43.4437783" lon="11.5083967"><ele>778.0</ele><time>2026-03-27T10:43:53.796Z</time></trkpt><trkpt lat="43.44368" lon="11.5083067"><ele>775.5</ele><time>2026-03-27T10:43:54.796Z</time></trkpt><trkpt lat="43.44358" lon="11.5082417"><ele>773.0</ele><time>2026-03-27T10:43:55.797Z</time></trkpt><trkpt lat="43.4434633" lon="11.50821"><ele>773.0</ele><time>2026-03-27T10:43:56.797Z</time></trkpt><trkpt lat="43.4433483" lon="11.508185"><ele>773.0</ele><time>2026-03-27T10:43:57.796Z</time></trkpt><trkpt lat="43.4432417" lon="11.5081533"><ele>773.0</ele><time>2026-03-27T10:43:58.796Z</time></trkpt><trkpt lat="43.4431367" lon="11.5080867"><ele>773.0</ele><time>2026-03-27T10:43:59.797Z</time></trkpt><trkpt lat="43.44306" lon="11.5079733"><ele>777.0</ele><time>2026-03-27T10:44:00.796Z</time></trkpt><trkpt lat="43.4429917" lon="11.5078367"><ele>781.0</ele><time>2026-03-27T10:44:01.796Z</time></trkpt><trkpt lat="43.4429167" lon="11.507675"><ele>785.0</ele><time>2026-03-27T10:44:02.798Z</time></trkpt><trkpt lat="43.442865" lon="11.5074967"><ele>789.0</ele><time>2026-03-27T10:44:03.795Z</time></trkpt><trkpt lat="43.442825" lon="11.5072867"><ele>789.0</ele><time>2026-03-27T10:44:04.796Z</time></trkpt><trkpt lat="43.4427917" lon="11.5070917"><ele>789.0</ele><time>2026-03-27T10:44:05.796Z</time></trkpt><trkpt lat="43.4427667" lon="11.5069083"><ele>789.0</ele><time>2026-03-27T10:44:06.796Z</time></trkpt><trkpt lat="43.4427567" lon="11.5067383"><ele>789.0</ele><time>2026-03-27T10:44:07.796Z</time></trkpt><trkpt lat="43.442775" lon="11.5065817"><ele>787.8000000000001</ele><time>2026-03-27T10:44:08.798Z</time></trkpt><trkpt lat="43.4428017" lon="11.5064367"><ele>786.6</ele><time>2026-03-27T10:44:09.796Z</time></trkpt><trkpt lat="43.442845" lon="11.506305"><ele>785.4</ele><time>2026-03-27T10:44:10.796Z</time></trkpt><trkpt lat="43.442895" lon="11.506175"><ele>784.2</ele><time>2026-03-27T10:44:11.797Z</time></trkpt><trkpt lat="43.442955" lon="11.5060617"><ele>783.0</ele><time>2026-03-27T10:44:12.797Z</time></trkpt><trkpt lat="43.443035" lon="11.5059867"><ele>783.0</ele><time>2026-03-27T10:44:13.796Z</time></trkpt><trkpt lat="43.443125" lon="11.5059133"><ele>783.0</ele><time>2026-03-27T10:44:14.797Z</time></trkpt><trkpt lat="43.4432183" lon="11.5058467"><ele>783.0</ele><time>2026-03-27T10:44:15.796Z</time></trkpt><trkpt lat="43.44332" lon="11.5058"><ele>783.0</ele><time>2026-03-27T10:44:16.794Z</time></trkpt><trkpt lat="43.4434117" lon="11.5057433"><ele>783.0</ele><time>2026-03-27T10:44:17.797Z</time></trkpt><trkpt lat="43.4435083" lon="11.5057283"><ele>783.0</ele><time>2026-03-27T10:44:18.797Z</time></trkpt><trkpt lat="43.4435933" lon="11.5057083"><ele>783.0</ele><time>2026-03-27T10:44:19.795Z</time></trkpt><trkpt lat="43.443685" lon="11.5057333"><ele>783.0</ele><time>2026-03-27T10:44:20.796Z</time></trkpt><trkpt lat="43.4437567" lon="11.505755"><ele>783.0</ele><time>2026-03-27T10:44:21.796Z</time></trkpt><trkpt lat="43.4438183" lon="11.5057817"><ele>783.0</ele><time>2026-03-27T10:44:22.796Z</time></trkpt><trkpt lat="43.44388" lon="11.505815"><ele>783.0</ele><time>2026-03-27T10:44:23.796Z</time></trkpt><trkpt lat="43.4439683" lon="11.5058617"><ele>782.4</ele><time>2026-03-27T10:44:24.798Z</time></trkpt><trkpt lat="43.4440583" lon="11.505905"><ele>781.8</ele><time>2026-03-27T10:44:25.796Z</time></trkpt><trkpt lat="43.44416" lon="11.5059417"><ele>781.2</ele><time>2026-03-27T10:44:26.796Z</time></trkpt><trkpt lat="43.444265" lon="11.5059533"><ele>780.6</ele><time>2026-03-27T10:44:27.796Z</time></trkpt><trkpt lat="43.44436" lon="11.5059433"><ele>780.0</ele><time>2026-03-27T10:44:28.797Z</time></trkpt><trkpt lat="43.4444567" lon="11.5058983"><ele>780.0</ele><time>2026-03-27T10:44:29.796Z</time></trkpt><trkpt lat="43.444555" lon="11.505805"><ele>780.0</ele><time>2026-03-27T10:44:30.797Z</time></trkpt><trkpt lat="43.4446383" lon="11.5056717"><ele>780.0</ele><time>2026-03-27T10:44:31.797Z</time></trkpt><trkpt lat="43.4447167" lon="11.5055183"><ele>780.0</ele><time>2026-03-27T10:44:32.796Z</time></trkpt><trkpt lat="43.4447933" lon="11.505365"><ele>778.75</ele><time>2026-03-27T10:44:33.794Z</time></trkpt><trkpt lat="43.4448767" lon="11.505245"><ele>777.5</ele><time>2026-03-27T10:44:34.796Z</time></trkpt><trkpt lat="43.444965" lon="11.5051383"><ele>776.25</ele><time>2026-03-27T10:44:35.796Z</time></trkpt><trkpt lat="43.4450617" lon="11.505065"><ele>775.0</ele><time>2026-03-27T10:44:36.795Z</time></trkpt><trkpt lat="43.44518" lon="11.50502"><ele>775.0</ele><time>2026-03-27T10:44:37.796Z</time></trkpt><trkpt lat="43.4453117" lon="11.50501"><ele>775.0</ele><time>2026-03-27T10:44:38.795Z</time></trkpt><trkpt lat="43.4454383" lon="11.505025"><ele>775.0</ele><time>2026-03-27T10:44:39.796Z</time></trkpt><trkpt lat="43.4455517" lon="11.5050517"><ele>775.0</ele><time>2026-03-27T10:44:40.796Z</time></trkpt><trkpt lat="43.4456517" lon="11.50505"><ele>775.4</ele><time>2026-03-27T10:44:41.797Z</time></trkpt><trkpt lat="43.4457467" lon="11.505025"><ele>775.8</ele><time>2026-03-27T10:44:42.796Z</time></trkpt><trkpt lat="43.4458317" lon="11.5049617"><ele>776.2</ele><time>2026-03-27T10:44:43.796Z</time></trkpt><trkpt lat="43.4459" lon="11.5048383"><ele>776.6</ele><time>2026-03-27T10:44:44.798Z</time></trkpt><trkpt lat="43.4459483" lon="11.5046717"><ele>777.0</ele><time>2026-03-27T10:44:45.796Z</time></trkpt><trkpt lat="43.44599" lon="11.5044883"><ele>777.0</ele><time>2026-03-27T10:44:46.796Z</time></trkpt><trkpt lat="43.4460383" lon="11.50433"><ele>777.0</ele><time>2026-03-27T10:44:47.795Z</time></trkpt><trkpt lat="43.4461017" lon="11.5042083"><ele>777.0</ele><time>2026-03-27T10:44:48.795Z</time></trkpt><trkpt lat="43.4461783" lon="11.5041133"><ele>777.0</ele><time>2026-03-27T10:44:49.794Z</time></trkpt><trkpt lat="43.4462683" lon="11.50403"><ele>777.0</ele><time>2026-03-27T10:44:50.796Z</time></trkpt><trkpt lat="43.4463533" lon="11.5039483"><ele>776.75</ele><time>2026-03-27T10:44:51.796Z</time></trkpt><trkpt lat="43.446435" lon="11.5038483"><ele>776.5</ele><time>2026-03-27T10:44:52.795Z</time></trkpt><trkpt lat="43.44651" lon="11.50372"><ele>776.25</ele><time>2026-03-27T10:44:53.796Z</time></trkpt><trkpt lat="43.4465783" lon="11.5035833"><ele>776.0</ele><time>2026-03-27T10:44:54.796Z</time></trkpt><trkpt lat="43.4466417" lon="11.503455"><ele>776.0</ele><time>2026-03-27T10:44:55.795Z</time></trkpt><trkpt lat="43.4467" lon="11.50334"><ele>776.0</ele><time>2026-03-27T10:44:56.797Z</time></trkpt><trkpt lat="43.446765" lon="11.503235"><ele>776.0</ele><time>2026-03-27T10:44:57.797Z</time></trkpt><trkpt lat="43.4468433" lon="11.5031417"><ele>776.0</ele><time>2026-03-27T10:44:58.796Z</time></trkpt><trkpt lat="43.4469383" lon="11.5030633"><ele>776.0</ele><time>2026-03-27T10:44:59.796Z</time></trkpt><trkpt lat="43.4470433" lon="11.503015"><ele>777.75</ele><time>2026-03-27T10:45:00.796Z</time></trkpt><trkpt lat="43.4471533" lon="11.503005"><ele>779.5</ele><time>2026-03-27T10:45:01.795Z</time></trkpt><trkpt lat="43.4472733" lon="11.5030233"><ele>781.25</ele><time>2026-03-27T10:45:02.797Z</time></trkpt><trkpt lat="43.4473867" lon="11.5030667"><ele>783.0</ele><time>2026-03-27T10:45:03.795Z</time></trkpt><trkpt lat="43.4475017" lon="11.50312"><ele>783.0</ele><time>2026-03-27T10:45:04.796Z</time></trkpt><trkpt lat="43.4476183" lon="11.5031733"><ele>783.0</ele><time>2026-03-27T10:45:05.796Z</time></trkpt><trkpt lat="43.44774" lon="11.5032217"><ele>783.0</ele><time>2026-03-27T10:45:06.795Z</time></trkpt><trkpt lat="43.4478567" lon="11.5032617"><ele>783.0</ele><time>2026-03-27T10:45:07.795Z</time></trkpt><trkpt lat="43.447965" lon="11.50328"><ele>781.4</ele><time>2026-03-27T10:45:08.797Z</time></trkpt><trkpt lat="43.4480733" lon="11.5032983"><ele>779.8</ele><time>2026-03-27T10:45:09.796Z</time></trkpt><trkpt lat="43.4481783" lon="11.5033117"><ele>778.2</ele><time>2026-03-27T10:45:10.796Z</time></trkpt><trkpt lat="43.44828" lon="11.5033017"><ele>776.6</ele><time>2026-03-27T10:45:11.795Z</time></trkpt><trkpt lat="43.4483767" lon="11.50327"><ele>775.0</ele><time>2026-03-27T10:45:12.795Z</time></trkpt><trkpt lat="43.4484683" lon="11.5032033"><ele>775.0</ele><time>2026-03-27T10:45:13.798Z</time></trkpt><trkpt lat="43.4485567" lon="11.5031083"><ele>775.0</ele><time>2026-03-27T10:45:14.797Z</time></trkpt><trkpt lat="43.44864" lon="11.5029917"><ele>775.0</ele><time>2026-03-27T10:45:15.796Z</time></trkpt><trkpt lat="43.4487233" lon="11.5028783"><ele>775.0</ele><time>2026-03-27T10:45:16.795Z</time></trkpt><trkpt lat="43.4488183" lon="11.5027767"><ele>769.75</ele><time>2026-03-27T10:45:17.796Z</time></trkpt><trkpt lat="43.4489167" lon="11.5026833"><ele>764.5</ele><time>2026-03-27T10:45:18.796Z</time></trkpt><trkpt lat="43.4490233" lon="11.502615"><ele>759.25</ele><time>2026-03-27T10:45:19.795Z</time></trkpt><trkpt lat="43.4491367" lon="11.50256"><ele>754.0</ele><time>2026-03-27T10:45:20.801Z</time></trkpt><trkpt lat="43.4492417" lon="11.5025217"><ele>754.0</ele><time>2026-03-27T10:45:21.795Z</time></trkpt><trkpt lat="43.44935" lon="11.5024883"><ele>754.0</ele><time>2026-03-27T10:45:22.795Z</time></trkpt><trkpt lat="43.4494683" lon="11.502455"><ele>754.0</ele><time>2026-03-27T10:45:23.796Z</time></trkpt><trkpt lat="43.4495883" lon="11.5024133"><ele>754.0</ele><time>2026-03-27T10:45:24.795Z</time></trkpt><trkpt lat="43.4497083" lon="11.5023933"><ele>756.75</ele><time>2026-03-27T10:45:25.795Z</time></trkpt><trkpt lat="43.4498283" lon="11.5024033"><ele>759.5</ele><time>2026-03-27T10:45:26.797Z</time></trkpt><trkpt lat="43.449955" lon="11.5024317"><ele>762.25</ele><time>2026-03-27T10:45:27.795Z</time></trkpt><trkpt lat="43.450075" lon="11.502465"><ele>765.0</ele><time>2026-03-27T10:45:28.795Z</time></trkpt><trkpt lat="43.4501817" lon="11.5024867"><ele>765.0</ele><time>2026-03-27T10:45:29.796Z</time></trkpt><trkpt lat="43.45028" lon="11.5025117"><ele>765.0</ele><time>2026-03-27T10:45:30.796Z</time></trkpt><trkpt lat="43.450375" lon="11.50254"><ele>765.0</ele><time>2026-03-27T10:45:31.794Z</time></trkpt><trkpt lat="43.4504733" lon="11.5025817"><ele>765.0</ele><time>2026-03-27T10:45:32.795Z</time></trkpt><trkpt lat="43.4505717" lon="11.5026433"><ele>765.0</ele><time>2026-03-27T10:45:33.795Z</time></trkpt><trkpt lat="43.4506667" lon="11.5027067"><ele>766.0</ele><time>2026-03-27T10:45:34.794Z</time></trkpt><trkpt lat="43.45076" lon="11.5027517"><ele>767.0</ele><time>2026-03-27T10:45:35.795Z</time></trkpt><trkpt lat="43.4508517" lon="11.5027683"><ele>768.0</ele><time>2026-03-27T10:45:36.797Z</time></trkpt><trkpt lat="43.4509433" lon="11.5027633"><ele>769.0</ele><time>2026-03-27T10:45:37.793Z</time></trkpt><trkpt lat="43.4510317" lon="11.5027433"><ele>770.0</ele><time>2026-03-27T10:45:38.796Z</time></trkpt><trkpt lat="43.451115" lon="11.5027133"><ele>770.0</ele><time>2026-03-27T10:45:39.795Z</time></trkpt><trkpt lat="43.4512033" lon="11.5026717"><ele>770.0</ele><time>2026-03-27T10:45:40.794Z</time></trkpt><trkpt lat="43.4512933" lon="11.5026217"><ele>770.0</ele><time>2026-03-27T10:45:41.796Z</time></trkpt><trkpt lat="43.45138" lon="11.5025683"><ele>770.0</ele><time>2026-03-27T10:45:42.797Z</time></trkpt><trkpt lat="43.4514533" lon="11.50252"><ele>770.0</ele><time>2026-03-27T10:45:43.796Z</time></trkpt><trkpt lat="43.45153" lon="11.5024617"><ele>770.0</ele><time>2026-03-27T10:45:45.796Z</time></trkpt><trkpt lat="43.4514717" lon="11.5024983"><ele>770.0</ele><time>2026-03-27T10:45:54.798Z</time></trkpt><trkpt lat="43.4514033" lon="11.5025283"><ele>770.0</ele><time>2026-03-27T10:45:55.796Z</time></trkpt><trkpt lat="43.4513117" lon="11.5025667"><ele>770.0</ele><time>2026-03-27T10:45:56.797Z</time></trkpt><trkpt lat="43.4512017" lon="11.50262"><ele>770.0</ele><time>2026-03-27T10:45:57.795Z</time></trkpt><trkpt lat="43.4510983" lon="11.5026567"><ele>770.0</ele><time>2026-03-27T10:45:58.806Z</time></trkpt><trkpt lat="43.451" lon="11.5026783"><ele>770.0</ele><time>2026-03-27T10:45:59.796Z</time></trkpt><trkpt lat="43.4509" lon="11.5026933"><ele>770.0</ele><time>2026-03-27T10:46:00.796Z</time></trkpt><trkpt lat="43.45079" lon="11.50269"><ele>770.0</ele><time>2026-03-27T10:46:01.794Z</time></trkpt><trkpt lat="43.4506867" lon="11.50266"><ele>770.0</ele><time>2026-03-27T10:46:02.797Z</time></trkpt><trkpt lat="43.4506" lon="11.502625"><ele>770.0000000000001</ele><time>2026-03-27T10:46:03.796Z</time></trkpt><trkpt lat="43.4505367" lon="11.5026033"><ele>770.0</ele><time>2026-03-27T10:46:04.794Z</time></trkpt><trkpt lat="43.4504733" lon="11.50258"><ele>770.0</ele><time>2026-03-27T10:46:06.796Z</time></trkpt><trkpt lat="43.4505117" lon="11.5024617"><ele>770.0</ele><time>2026-03-27T10:46:10.795Z</time></trkpt><trkpt lat="43.450585" lon="11.5023933"><ele>770.0000000000001</ele><time>2026-03-27T10:46:11.796Z</time></trkpt><trkpt lat="43.4506867" lon="11.502305"><ele>770.0</ele><time>2026-03-27T10:46:12.797Z</time></trkpt><trkpt lat="43.450815" lon="11.5021767"><ele>772.6666666666667</ele><time>2026-03-27T10:46:13.796Z</time></trkpt><trkpt lat="43.4509483" lon="11.50204"><ele>775.3333333333333</ele><time>2026-03-27T10:46:14.798Z</time></trkpt><trkpt lat="43.4510783" lon="11.5019"><ele>778.0</ele><time>2026-03-27T10:46:15.796Z</time></trkpt><trkpt lat="43.45119" lon="11.5017933"><ele>779.25</ele><time>2026-03-27T10:46:16.796Z</time></trkpt><trkpt lat="43.4512967" lon="11.5017117"><ele>780.5</ele><time>2026-03-27T10:46:17.797Z</time></trkpt><trkpt lat="43.4514083" lon="11.5016567"><ele>781.75</ele><time>2026-03-27T10:46:18.797Z</time></trkpt><trkpt lat="43.4515167" lon="11.5016233"><ele>783.0</ele><time>2026-03-27T10:46:19.798Z</time></trkpt><trkpt lat="43.451625" lon="11.5015917"><ele>783.0</ele><time>2026-03-27T10:46:20.797Z</time></trkpt><trkpt lat="43.4517283" lon="11.501535"><ele>783.0</ele><time>2026-03-27T10:46:21.796Z</time></trkpt><trkpt lat="43.4518317" lon="11.501445"><ele>783.0</ele><time>2026-03-27T10:46:22.796Z</time></trkpt><trkpt lat="43.451935" lon="11.5013283"><ele>783.0</ele><time>2026-03-27T10:46:23.795Z</time></trkpt><trkpt lat="43.4520367" lon="11.5012167"><ele>786.25</ele><time>2026-03-27T10:46:24.795Z</time></trkpt><trkpt lat="43.4521367" lon="11.5011367"><ele>789.5</ele><time>2026-03-27T10:46:25.795Z</time></trkpt><trkpt lat="43.4522483" lon="11.5010817"><ele>792.75</ele><time>2026-03-27T10:46:26.795Z</time></trkpt><trkpt lat="43.4523717" lon="11.5010583"><ele>796.0</ele><time>2026-03-27T10:46:27.795Z</time></trkpt><trkpt lat="43.4525017" lon="11.5010583"><ele>796.0</ele><time>2026-03-27T10:46:28.796Z</time></trkpt><trkpt lat="43.4526317" lon="11.501065"><ele>796.0</ele><time>2026-03-27T10:46:29.796Z</time></trkpt><trkpt lat="43.4527533" lon="11.501085"><ele>796.0</ele><time>2026-03-27T10:46:30.794Z</time></trkpt><trkpt lat="43.4528733" lon="11.5011383"><ele>796.0</ele><time>2026-03-27T10:46:31.794Z</time></trkpt><trkpt lat="43.4529983" lon="11.5012033"><ele>794.8</ele><time>2026-03-27T10:46:32.798Z</time></trkpt><trkpt lat="43.453115" lon="11.5012667"><ele>793.5999999999999</ele><time>2026-03-27T10:46:33.795Z</time></trkpt><trkpt lat="43.4532167" lon="11.5013217"><ele>792.4</ele><time>2026-03-27T10:46:34.796Z</time></trkpt><trkpt lat="43.4533" lon="11.5013633"><ele>791.2</ele><time>2026-03-27T10:46:35.795Z</time></trkpt><trkpt lat="43.4533783" lon="11.5013833"><ele>790.0</ele><time>2026-03-27T10:46:36.796Z</time></trkpt><trkpt lat="43.4534617" lon="11.501385"><ele>790.0</ele><time>2026-03-27T10:46:37.796Z</time></trkpt><trkpt lat="43.4535533" lon="11.5013683"><ele>790.0</ele><time>2026-03-27T10:46:38.795Z</time></trkpt><trkpt lat="43.4536583" lon="11.5013"><ele>790.0</ele><time>2026-03-27T10:46:39.796Z</time></trkpt><trkpt lat="43.4537683" lon="11.5012183"><ele>790.0</ele><time>2026-03-27T10:46:40.795Z</time></trkpt><trkpt lat="43.4538767" lon="11.50114"><ele>790.6666666666666</ele><time>2026-03-27T10:46:41.794Z</time></trkpt><trkpt lat="43.454" lon="11.5010567"><ele>791.3333333333333</ele><time>2026-03-27T10:46:42.796Z</time></trkpt><trkpt lat="43.45415" lon="11.5009867"><ele>792.0</ele><time>2026-03-27T10:46:43.795Z</time></trkpt><trkpt lat="43.4543067" lon="11.5009367"><ele>792.0</ele><time>2026-03-27T10:46:44.795Z</time></trkpt><trkpt lat="43.4544467" lon="11.500885"><ele>792.0</ele><time>2026-03-27T10:46:45.796Z</time></trkpt><trkpt lat="43.4545717" lon="11.500825"><ele>792.0</ele><time>2026-03-27T10:46:46.795Z</time></trkpt><trkpt lat="43.45468" lon="11.5007767"><ele>792.0</ele><time>2026-03-27T10:46:47.796Z</time></trkpt><trkpt lat="43.454775" lon="11.5007367"><ele>792.0</ele><time>2026-03-27T10:46:48.795Z</time></trkpt><trkpt lat="43.4548633" lon="11.5007067"><ele>792.0</ele><time>2026-03-27T10:46:49.795Z</time></trkpt><trkpt lat="43.4549567" lon="11.5007083"><ele>792.0</ele><time>2026-03-27T10:46:50.797Z</time></trkpt><trkpt lat="43.45506" lon="11.500755"><ele>792.0</ele><time>2026-03-27T10:46:51.797Z</time></trkpt><trkpt lat="43.4551633" lon="11.500795"><ele>792.0</ele><time>2026-03-27T10:46:52.796Z</time></trkpt><trkpt lat="43.4552667" lon="11.5008167"><ele>792.0</ele><time>2026-03-27T10:46:53.796Z</time></trkpt><trkpt lat="43.455375" lon="11.5008117"><ele>792.0</ele><time>2026-03-27T10:46:54.796Z</time></trkpt><trkpt lat="43.4554883" lon="11.500775"><ele>792.0</ele><time>2026-03-27T10:46:55.797Z</time></trkpt><trkpt lat="43.4556033" lon="11.5007317"><ele>792.0</ele><time>2026-03-27T10:46:56.797Z</time></trkpt><trkpt lat="43.4557067" lon="11.500695"><ele>792.2</ele><time>2026-03-27T10:46:57.797Z</time></trkpt><trkpt lat="43.455815" lon="11.5006767"><ele>792.4000000000001</ele><time>2026-03-27T10:46:58.795Z</time></trkpt><trkpt lat="43.45592" lon="11.5006667"><ele>792.5999999999999</ele><time>2026-03-27T10:46:59.794Z</time></trkpt><trkpt lat="43.4560183" lon="11.50066"><ele>792.8</ele><time>2026-03-27T10:47:00.796Z</time></trkpt><trkpt lat="43.45612" lon="11.5006383"><ele>793.0</ele><time>2026-03-27T10:47:01.796Z</time></trkpt><trkpt lat="43.45621" lon="11.5005767"><ele>795.0</ele><time>2026-03-27T10:47:02.797Z</time></trkpt><trkpt lat="43.456325" lon="11.5005617"><ele>797.0</ele><time>2026-03-27T10:47:03.796Z</time></trkpt><trkpt lat="43.45642" lon="11.5004817"><ele>799.0</ele><time>2026-03-27T10:47:04.797Z</time></trkpt><trkpt lat="43.4565233" lon="11.5004117"><ele>801.0</ele><time>2026-03-27T10:47:05.796Z</time></trkpt><trkpt lat="43.4566383" lon="11.5003433"><ele>795.75</ele><time>2026-03-27T10:47:06.796Z</time></trkpt><trkpt lat="43.4567633" lon="11.5002767"><ele>790.5</ele><time>2026-03-27T10:47:07.797Z</time></trkpt><trkpt lat="43.4568683" lon="11.5002133"><ele>785.25</ele><time>2026-03-27T10:47:08.797Z</time></trkpt><trkpt lat="43.4569733" lon="11.5001633"><ele>780.0</ele><time>2026-03-27T10:47:09.794Z</time></trkpt><trkpt lat="43.4570783" lon="11.50013"><ele>780.25</ele><time>2026-03-27T10:47:10.795Z</time></trkpt><trkpt lat="43.4571983" lon="11.5001333"><ele>780.5</ele><time>2026-03-27T10:47:11.794Z</time></trkpt><trkpt lat="43.457335" lon="11.5001767"><ele>780.75</ele><time>2026-03-27T10:47:12.796Z</time></trkpt><trkpt lat="43.4574783" lon="11.50024"><ele>781.0</ele><time>2026-03-27T10:47:13.796Z</time></trkpt><trkpt lat="43.457615" lon="11.5003083"><ele>781.0</ele><time>2026-03-27T10:47:14.797Z</time></trkpt><trkpt lat="43.4577333" lon="11.5003633"><ele>781.0</ele><time>2026-03-27T10:47:15.796Z</time></trkpt><trkpt lat="43.4578367" lon="11.5004067"><ele>781.0</ele><time>2026-03-27T10:47:16.796Z</time></trkpt><trkpt lat="43.45793" lon="11.5004467"><ele>781.0</ele><time>2026-03-27T10:47:17.796Z</time></trkpt><trkpt lat="43.458015" lon="11.5004833"><ele>781.0</ele><time>2026-03-27T10:47:18.796Z</time></trkpt><trkpt lat="43.4580967" lon="11.500515"><ele>779.8333333333333</ele><time>2026-03-27T10:47:19.796Z</time></trkpt><trkpt lat="43.45818" lon="11.500545"><ele>778.6666666666666</ele><time>2026-03-27T10:47:20.796Z</time></trkpt><trkpt lat="43.4582533" lon="11.5005833"><ele>777.5</ele><time>2026-03-27T10:47:21.796Z</time></trkpt><trkpt lat="43.4583217" lon="11.5006233"><ele>776.3333333333333</ele><time>2026-03-27T10:47:22.796Z</time></trkpt><trkpt lat="43.4583883" lon="11.50068"><ele>775.1666666666666</ele><time>2026-03-27T10:47:23.796Z</time></trkpt><trkpt lat="43.458455" lon="11.5007383"><ele>774.0</ele><time>2026-03-27T10:47:24.795Z</time></trkpt><trkpt lat="43.4585217" lon="11.50079"><ele>774.0</ele><time>2026-03-27T10:47:25.795Z</time></trkpt><trkpt lat="43.4585817" lon="11.5008417"><ele>774.0</ele><time>2026-03-27T10:47:26.797Z</time></trkpt><trkpt lat="43.4586367" lon="11.500895"><ele>774.0</ele><time>2026-03-27T10:47:27.795Z</time></trkpt><trkpt lat="43.4586983" lon="11.5009483"><ele>774.0</ele><time>2026-03-27T10:47:28.795Z</time></trkpt><trkpt lat="43.4587667" lon="11.500985"><ele>774.0</ele><time>2026-03-27T10:47:29.796Z</time></trkpt><trkpt lat="43.4588467" lon="11.5010117"><ele>774.0</ele><time>2026-03-27T10:47:30.797Z</time></trkpt><trkpt lat="43.458925" lon="11.5010383"><ele>774.0</ele><time>2026-03-27T10:47:31.796Z</time></trkpt><trkpt lat="43.459" lon="11.5010583"><ele>772.1666666666666</ele><time>2026-03-27T10:47:32.795Z</time></trkpt><trkpt lat="43.4590733" lon="11.5010867"><ele>770.3333333333334</ele><time>2026-03-27T10:47:33.796Z</time></trkpt><trkpt lat="43.45915" lon="11.5010833"><ele>768.5</ele><time>2026-03-27T10:47:34.796Z</time></trkpt><trkpt lat="43.4592333" lon="11.5010683"><ele>766.6666666666667</ele><time>2026-03-27T10:47:35.795Z</time></trkpt><trkpt lat="43.4593117" lon="11.5010283"><ele>764.8333333333334</ele><time>2026-03-27T10:47:36.797Z</time></trkpt><trkpt lat="43.459385" lon="11.5009817"><ele>763.0</ele><time>2026-03-27T10:47:37.795Z</time></trkpt><trkpt lat="43.45945" lon="11.50093"><ele>763.0</ele><time>2026-03-27T10:47:38.797Z</time></trkpt><trkpt lat="43.4595067" lon="11.5008767"><ele>763.0</ele><time>2026-03-27T10:47:39.795Z</time></trkpt><trkpt lat="43.4595617" lon="11.5008267"><ele>763.0</ele><time>2026-03-27T10:47:40.795Z</time></trkpt><trkpt lat="43.4596167" lon="11.50078"><ele>763.0</ele><time>2026-03-27T10:47:41.794Z</time></trkpt><trkpt lat="43.4596833" lon="11.50074"><ele>763.0</ele><time>2026-03-27T10:47:42.795Z</time></trkpt><trkpt lat="43.4597667" lon="11.5007167"><ele>763.0</ele><time>2026-03-27T10:47:43.795Z</time></trkpt><trkpt lat="43.459845" lon="11.50071"><ele>763.0</ele><time>2026-03-27T10:47:44.795Z</time></trkpt><trkpt lat="43.459915" lon="11.5007117"><ele>761.4</ele><time>2026-03-27T10:47:45.795Z</time></trkpt><trkpt lat="43.4599783" lon="11.5007217"><ele>759.8</ele><time>2026-03-27T10:47:46.796Z</time></trkpt><trkpt lat="43.46009" lon="11.5008067"><ele>758.2</ele><time>2026-03-27T10:47:48.796Z</time></trkpt><trkpt lat="43.4601617" lon="11.5009017"><ele>756.6</ele><time>2026-03-27T10:47:49.794Z</time></trkpt><trkpt lat="43.4602533" lon="11.5010217"><ele>755.0</ele><time>2026-03-27T10:47:50.796Z</time></trkpt><trkpt lat="43.4603367" lon="11.5011283"><ele>755.0</ele><time>2026-03-27T10:47:51.796Z</time></trkpt><trkpt lat="43.4604033" lon="11.5012083"><ele>755.0</ele><time>2026-03-27T10:47:52.793Z</time></trkpt><trkpt lat="43.4604583" lon="11.5012867"><ele>755.0</ele><time>2026-03-27T10:47:53.796Z</time></trkpt><trkpt lat="43.46051" lon="11.50138"><ele>755.0</ele><time>2026-03-27T10:47:54.795Z</time></trkpt><trkpt lat="43.460545" lon="11.5015"><ele>755.0</ele><time>2026-03-27T10:47:55.796Z</time></trkpt><trkpt lat="43.4605883" lon="11.5016567"><ele>756.0</ele><time>2026-03-27T10:47:56.796Z</time></trkpt><trkpt lat="43.4606333" lon="11.5018067"><ele>757.0</ele><time>2026-03-27T10:47:57.796Z</time></trkpt><trkpt lat="43.46068" lon="11.5019483"><ele>758.0</ele><time>2026-03-27T10:47:58.795Z</time></trkpt><trkpt lat="43.4607283" lon="11.5020933"><ele>759.0</ele><time>2026-03-27T10:47:59.795Z</time></trkpt><trkpt lat="43.460775" lon="11.5022417"><ele>757.0</ele><time>2026-03-27T10:48:00.795Z</time></trkpt><trkpt lat="43.460825" lon="11.502375"><ele>755.0</ele><time>2026-03-27T10:48:01.796Z</time></trkpt><trkpt lat="43.4608783" lon="11.5024967"><ele>753.0</ele><time>2026-03-27T10:48:02.795Z</time></trkpt><trkpt lat="43.4609333" lon="11.5026117"><ele>751.0</ele><time>2026-03-27T10:48:03.795Z</time></trkpt><trkpt lat="43.4609917" lon="11.50273"><ele>749.0</ele><time>2026-03-27T10:48:04.796Z</time></trkpt><trkpt lat="43.4610517" lon="11.5028517"><ele>749.8333333333333</ele><time>2026-03-27T10:48:05.794Z</time></trkpt><trkpt lat="43.4611117" lon="11.502965"><ele>750.6666666666666</ele><time>2026-03-27T10:48:06.796Z</time></trkpt><trkpt lat="43.4611717" lon="11.5030617"><ele>751.5</ele><time>2026-03-27T10:48:07.795Z</time></trkpt><trkpt lat="43.461225" lon="11.5031267"><ele>752.3333333333334</ele><time>2026-03-27T10:48:08.796Z</time></trkpt><trkpt lat="43.46128" lon="11.5031883"><ele>753.1666666666667</ele><time>2026-03-27T10:48:09.795Z</time></trkpt><trkpt lat="43.461325" lon="11.5032567"><ele>754.0</ele><time>2026-03-27T10:48:10.795Z</time></trkpt><trkpt lat="43.4613967" lon="11.50338"><ele>754.0</ele><time>2026-03-27T10:48:12.795Z</time></trkpt><trkpt lat="43.46147" lon="11.50347"><ele>754.0</ele><time>2026-03-27T10:48:14.797Z</time></trkpt><trkpt lat="43.4615817" lon="11.5035483"><ele>754.0</ele><time>2026-03-27T10:48:16.796Z</time></trkpt><trkpt lat="43.4616517" lon="11.5035767"><ele>754.0</ele><time>2026-03-27T10:48:17.795Z</time></trkpt><trkpt lat="43.4617267" lon="11.5035917"><ele>754.0</ele><time>2026-03-27T10:48:18.796Z</time></trkpt><trkpt lat="43.46179" lon="11.5036117"><ele>754.0</ele><time>2026-03-27T10:48:19.797Z</time></trkpt><trkpt lat="43.4618533" lon="11.503635"><ele>753.9999999999999</ele><time>2026-03-27T10:48:20.797Z</time></trkpt><trkpt lat="43.4619217" lon="11.5036517"><ele>754.0</ele><time>2026-03-27T10:48:21.796Z</time></trkpt><trkpt lat="43.4619933" lon="11.5036567"><ele>754.0</ele><time>2026-03-27T10:48:22.795Z</time></trkpt><trkpt lat="43.4620617" lon="11.5036367"><ele>754.0</ele><time>2026-03-27T10:48:23.797Z</time></trkpt><trkpt lat="43.46213" lon="11.5035983"><ele>754.0</ele><time>2026-03-27T10:48:24.795Z</time></trkpt><trkpt lat="43.4622" lon="11.5035567"><ele>753.9999999999999</ele><time>2026-03-27T10:48:25.796Z</time></trkpt><trkpt lat="43.4622717" lon="11.5035233"><ele>754.0</ele><time>2026-03-27T10:48:26.796Z</time></trkpt><trkpt lat="43.4623433" lon="11.50351"><ele>753.8333333333334</ele><time>2026-03-27T10:48:27.796Z</time></trkpt><trkpt lat="43.4624133" lon="11.5035183"><ele>753.6666666666667</ele><time>2026-03-27T10:48:28.794Z</time></trkpt><trkpt lat="43.4624867" lon="11.5035417"><ele>753.5</ele><time>2026-03-27T10:48:29.795Z</time></trkpt><trkpt lat="43.4625533" lon="11.5035683"><ele>753.3333333333334</ele><time>2026-03-27T10:48:30.796Z</time></trkpt><trkpt lat="43.4626767" lon="11.5036083"><ele>753.1666666666666</ele><time>2026-03-27T10:48:32.795Z</time></trkpt><trkpt lat="43.4627433" lon="11.5036367"><ele>753.0</ele><time>2026-03-27T10:48:33.796Z</time></trkpt><trkpt lat="43.4628117" lon="11.5036667"><ele>753.0</ele><time>2026-03-27T10:48:34.796Z</time></trkpt><trkpt lat="43.4628817" lon="11.503695"><ele>753.0</ele><time>2026-03-27T10:48:35.797Z</time></trkpt><trkpt lat="43.462955" lon="11.5037217"><ele>753.0</ele><time>2026-03-27T10:48:36.796Z</time></trkpt><trkpt lat="43.4630217" lon="11.50377"><ele>753.0</ele><time>2026-03-27T10:48:37.796Z</time></trkpt><trkpt lat="43.46308" lon="11.5038233"><ele>753.0</ele><time>2026-03-27T10:48:38.796Z</time></trkpt><trkpt lat="43.463135" lon="11.5038733"><ele>753.0</ele><time>2026-03-27T10:48:39.795Z</time></trkpt><trkpt lat="43.46319" lon="11.503925"><ele>753.0</ele><time>2026-03-27T10:48:40.796Z</time></trkpt><trkpt lat="43.46325" lon="11.503985"><ele>750.0</ele><time>2026-03-27T10:48:41.794Z</time></trkpt><trkpt lat="43.4632967" lon="11.5040467"><ele>747.0</ele><time>2026-03-27T10:48:42.797Z</time></trkpt><trkpt lat="43.463345" lon="11.50411"><ele>744.0</ele><time>2026-03-27T10:48:43.795Z</time></trkpt><trkpt lat="43.4633883" lon="11.50418"><ele>741.0</ele><time>2026-03-27T10:48:44.797Z</time></trkpt><trkpt lat="43.463465" lon="11.504305"><ele>738.0</ele><time>2026-03-27T10:48:46.794Z</time></trkpt><trkpt lat="43.4635267" lon="11.50436"><ele>735.0</ele><time>2026-03-27T10:48:47.796Z</time></trkpt><trkpt lat="43.4636" lon="11.5044233"><ele>735.0</ele><time>2026-03-27T10:48:48.796Z</time></trkpt><trkpt lat="43.4636783" lon="11.504475"><ele>735.0</ele><time>2026-03-27T10:48:49.796Z</time></trkpt><trkpt lat="43.4637533" lon="11.5045233"><ele>735.0</ele><time>2026-03-27T10:48:50.796Z</time></trkpt><trkpt lat="43.4638317" lon="11.504575"><ele>735.0</ele><time>2026-03-27T10:48:51.797Z</time></trkpt><trkpt lat="43.4639183" lon="11.5046267"><ele>735.0</ele><time>2026-03-27T10:48:52.795Z</time></trkpt><trkpt lat="43.4640117" lon="11.5046717"><ele>733.1666666666666</ele><time>2026-03-27T10:48:53.797Z</time></trkpt><trkpt lat="43.464105" lon="11.5046967"><ele>731.3333333333334</ele><time>2026-03-27T10:48:54.795Z</time></trkpt><trkpt lat="43.4641967" lon="11.50471"><ele>729.5</ele><time>2026-03-27T10:48:55.796Z</time></trkpt><trkpt lat="43.46428" lon="11.5047033"><ele>727.6666666666667</ele><time>2026-03-27T10:48:56.796Z</time></trkpt><trkpt lat="43.4643533" lon="11.50468"><ele>725.8333333333334</ele><time>2026-03-27T10:48:57.795Z</time></trkpt><trkpt lat="43.464415" lon="11.5046467"><ele>724.0</ele><time>2026-03-27T10:48:58.794Z</time></trkpt><trkpt lat="43.4644983" lon="11.50459"><ele>724.0</ele><time>2026-03-27T10:49:00.795Z</time></trkpt><trkpt lat="43.4645817" lon="11.5046083"><ele>724.0</ele><time>2026-03-27T10:49:02.797Z</time></trkpt><trkpt lat="43.4646317" lon="11.5046717"><ele>724.0</ele><time>2026-03-27T10:49:03.795Z</time></trkpt><trkpt lat="43.4646683" lon="11.5047567"><ele>724.0</ele><time>2026-03-27T10:49:04.796Z</time></trkpt><trkpt lat="43.4646917" lon="11.5048433"><ele>724.0</ele><time>2026-03-27T10:49:05.795Z</time></trkpt><trkpt lat="43.4647183" lon="11.5049617"><ele>724.0</ele><time>2026-03-27T10:49:07.795Z</time></trkpt><trkpt lat="43.4647467" lon="11.50507"><ele>722.8000000000001</ele><time>2026-03-27T10:49:10.797Z</time></trkpt><trkpt lat="43.464785" lon="11.50514"><ele>721.6</ele><time>2026-03-27T10:49:13.796Z</time></trkpt><trkpt lat="43.46478" lon="11.5050533"><ele>720.4</ele><time>2026-03-27T10:49:43.797Z</time></trkpt><trkpt lat="43.46473" lon="11.5049217"><ele>719.2</ele><time>2026-03-27T10:49:45.795Z</time></trkpt><trkpt lat="43.4646883" lon="11.504785"><ele>718.0</ele><time>2026-03-27T10:49:47.798Z</time></trkpt><trkpt lat="43.4646133" lon="11.5046483"><ele>719.0</ele><time>2026-03-27T10:49:49.795Z</time></trkpt><trkpt lat="43.4645333" lon="11.5045933"><ele>720.0</ele><time>2026-03-27T10:49:51.795Z</time></trkpt><trkpt lat="43.4644667" lon="11.5046067"><ele>721.0</ele><time>2026-03-27T10:49:53.795Z</time></trkpt><trkpt lat="43.4644067" lon="11.5046417"><ele>722.0</ele><time>2026-03-27T10:49:54.796Z</time></trkpt><trkpt lat="43.4643317" lon="11.50467"><ele>723.0</ele><time>2026-03-27T10:49:55.796Z</time></trkpt><trkpt lat="43.4642317" lon="11.50468"><ele>724.0</ele><time>2026-03-27T10:49:56.797Z</time></trkpt><trkpt lat="43.4641367" lon="11.50467"><ele>724.0</ele><time>2026-03-27T10:49:57.796Z</time></trkpt><trkpt lat="43.4640383" lon="11.5046383"><ele>724.0</ele><time>2026-03-27T10:49:58.794Z</time></trkpt><trkpt lat="43.4639333" lon="11.5045983"><ele>724.0</ele><time>2026-03-27T10:49:59.795Z</time></trkpt><trkpt lat="43.4638283" lon="11.5045433"><ele>724.0</ele><time>2026-03-27T10:50:00.796Z</time></trkpt><trkpt lat="43.4637367" lon="11.50449"><ele>724.0</ele><time>2026-03-27T10:50:01.796Z</time></trkpt><trkpt lat="43.4636517" lon="11.50444"><ele>725.8333333333334</ele><time>2026-03-27T10:50:02.797Z</time></trkpt><trkpt lat="43.4635783" lon="11.5043883"><ele>727.6666666666667</ele><time>2026-03-27T10:50:03.795Z</time></trkpt><trkpt lat="43.4635083" lon="11.5043317"><ele>729.5</ele><time>2026-03-27T10:50:04.795Z</time></trkpt><trkpt lat="43.4634483" lon="11.50426"><ele>731.3333333333334</ele><time>2026-03-27T10:50:05.795Z</time></trkpt><trkpt lat="43.4633983" lon="11.5041683"><ele>733.1666666666666</ele><time>2026-03-27T10:50:06.796Z</time></trkpt><trkpt lat="43.463345" lon="11.5040817"><ele>735.0</ele><time>2026-03-27T10:50:07.795Z</time></trkpt><trkpt lat="43.4632867" lon="11.504005"><ele>735.0</ele><time>2026-03-27T10:50:08.797Z</time></trkpt><trkpt lat="43.46322" lon="11.5039283"><ele>735.0</ele><time>2026-03-27T10:50:09.795Z</time></trkpt><trkpt lat="43.46315" lon="11.5038567"><ele>735.0</ele><time>2026-03-27T10:50:10.795Z</time></trkpt><trkpt lat="43.4630817" lon="11.5037917"><ele>735.0</ele><time>2026-03-27T10:50:11.795Z</time></trkpt><trkpt lat="43.4630117" lon="11.50373"><ele>735.0</ele><time>2026-03-27T10:50:12.796Z</time></trkpt><trkpt lat="43.4629383" lon="11.5036767"><ele>735.0</ele><time>2026-03-27T10:50:13.795Z</time></trkpt><trkpt lat="43.46286" lon="11.50363"><ele>738.6</ele><time>2026-03-27T10:50:14.797Z</time></trkpt><trkpt lat="43.462765" lon="11.5036"><ele>742.2</ele><time>2026-03-27T10:50:15.795Z</time></trkpt><trkpt lat="43.4626617" lon="11.5035733"><ele>745.8</ele><time>2026-03-27T10:50:16.794Z</time></trkpt><trkpt lat="43.4625683" lon="11.5035417"><ele>749.4</ele><time>2026-03-27T10:50:17.793Z</time></trkpt><trkpt lat="43.4624783" lon="11.5035267"><ele>753.0</ele><time>2026-03-27T10:50:18.796Z</time></trkpt><trkpt lat="43.4623967" lon="11.5035117"><ele>753.0</ele><time>2026-03-27T10:50:19.795Z</time></trkpt><trkpt lat="43.4623267" lon="11.5035017"><ele>753.0</ele><time>2026-03-27T10:50:20.798Z</time></trkpt><trkpt lat="43.4622433" lon="11.50352"><ele>753.0</ele><time>2026-03-27T10:50:21.796Z</time></trkpt><trkpt lat="43.4621633" lon="11.50355"><ele>753.0</ele><time>2026-03-27T10:50:22.795Z</time></trkpt><trkpt lat="43.462085" lon="11.5035917"><ele>753.0</ele><time>2026-03-27T10:50:23.795Z</time></trkpt><trkpt lat="43.462" lon="11.5036217"><ele>753.0</ele><time>2026-03-27T10:50:24.796Z</time></trkpt><trkpt lat="43.4619183" lon="11.5036317"><ele>753.2</ele><time>2026-03-27T10:50:25.795Z</time></trkpt><trkpt lat="43.4618183" lon="11.5036233"><ele>753.4</ele><time>2026-03-27T10:50:26.796Z</time></trkpt><trkpt lat="43.4617117" lon="11.5035833"><ele>753.6</ele><time>2026-03-27T10:50:27.796Z</time></trkpt><trkpt lat="43.4616117" lon="11.5035483"><ele>753.8000000000001</ele><time>2026-03-27T10:50:28.795Z</time></trkpt><trkpt lat="43.4615233" lon="11.5035133"><ele>754.0</ele><time>2026-03-27T10:50:29.795Z</time></trkpt><trkpt lat="43.46145" lon="11.503465"><ele>754.0</ele><time>2026-03-27T10:50:30.797Z</time></trkpt><trkpt lat="43.4613767" lon="11.50341"><ele>754.0</ele><time>2026-03-27T10:50:31.796Z</time></trkpt><trkpt lat="43.4613183" lon="11.5033367"><ele>754.0</ele><time>2026-03-27T10:50:32.796Z</time></trkpt><trkpt lat="43.4612717" lon="11.5032517"><ele>754.0</ele><time>2026-03-27T10:50:33.797Z</time></trkpt><trkpt lat="43.46122" lon="11.5031733"><ele>754.0</ele><time>2026-03-27T10:50:34.794Z</time></trkpt><trkpt lat="43.4611667" lon="11.5030933"><ele>754.0</ele><time>2026-03-27T10:50:35.795Z</time></trkpt><trkpt lat="43.4611083" lon="11.502995"><ele>752.75</ele><time>2026-03-27T10:50:36.795Z</time></trkpt><trkpt lat="43.4610433" lon="11.5028667"><ele>751.5</ele><time>2026-03-27T10:50:37.795Z</time></trkpt><trkpt lat="43.4609733" lon="11.50273"><ele>750.25</ele><time>2026-03-27T10:50:38.796Z</time></trkpt><trkpt lat="43.4609067" lon="11.5026033"><ele>749.0</ele><time>2026-03-27T10:50:39.794Z</time></trkpt><trkpt lat="43.4608417" lon="11.5024833"><ele>749.0</ele><time>2026-03-27T10:50:40.794Z</time></trkpt><trkpt lat="43.460775" lon="11.5023533"><ele>749.0</ele><time>2026-03-27T10:50:41.796Z</time></trkpt><trkpt lat="43.4607183" lon="11.50221"><ele>749.0</ele><time>2026-03-27T10:50:42.794Z</time></trkpt><trkpt lat="43.4606633" lon="11.5020583"><ele>749.0</ele><time>2026-03-27T10:50:43.795Z</time></trkpt><trkpt lat="43.46062" lon="11.5019017"><ele>751.0</ele><time>2026-03-27T10:50:44.796Z</time></trkpt><trkpt lat="43.46058" lon="11.5017467"><ele>753.0</ele><time>2026-03-27T10:50:45.794Z</time></trkpt><trkpt lat="43.4605433" lon="11.5015917"><ele>755.0</ele><time>2026-03-27T10:50:46.794Z</time></trkpt><trkpt lat="43.4605083" lon="11.5014467"><ele>757.0</ele><time>2026-03-27T10:50:47.794Z</time></trkpt><trkpt lat="43.460485" lon="11.5013283"><ele>759.0</ele><time>2026-03-27T10:50:48.795Z</time></trkpt><trkpt lat="43.4604567" lon="11.501235"><ele>758.2</ele><time>2026-03-27T10:50:49.796Z</time></trkpt><trkpt lat="43.4604083" lon="11.5011533"><ele>757.4000000000001</ele><time>2026-03-27T10:50:50.795Z</time></trkpt><trkpt lat="43.4603467" lon="11.5010633"><ele>756.6</ele><time>2026-03-27T10:50:51.796Z</time></trkpt><trkpt lat="43.4602567" lon="11.5009633"><ele>755.8</ele><time>2026-03-27T10:50:52.795Z</time></trkpt><trkpt lat="43.4601733" lon="11.5008583"><ele>755.0</ele><time>2026-03-27T10:50:53.794Z</time></trkpt><trkpt lat="43.4601083" lon="11.5007733"><ele>755.0</ele><time>2026-03-27T10:50:54.794Z</time></trkpt><trkpt lat="43.46005" lon="11.5007067"><ele>755.0</ele><time>2026-03-27T10:50:55.793Z</time></trkpt><trkpt lat="43.4599567" lon="11.5006"><ele>755.0</ele><time>2026-03-27T10:50:57.794Z</time></trkpt><trkpt lat="43.4598267" lon="11.500525"><ele>755.0</ele><time>2026-03-27T10:50:59.795Z</time></trkpt><trkpt lat="43.4597167" lon="11.5005033"><ele>755.0</ele><time>2026-03-27T10:51:00.796Z</time></trkpt><trkpt lat="43.4596033" lon="11.5004767"><ele>756.0</ele><time>2026-03-27T10:51:01.795Z</time></trkpt><trkpt lat="43.45948" lon="11.5004483"><ele>757.0</ele><time>2026-03-27T10:51:02.796Z</time></trkpt><trkpt lat="43.4593467" lon="11.50043"><ele>758.0</ele><time>2026-03-27T10:51:03.794Z</time></trkpt><trkpt lat="43.45921" lon="11.500415"><ele>759.0</ele><time>2026-03-27T10:51:04.795Z</time></trkpt><trkpt lat="43.45907" lon="11.50041"><ele>759.0</ele><time>2026-03-27T10:51:05.794Z</time></trkpt><trkpt lat="43.4589417" lon="11.5004133"><ele>759.0</ele><time>2026-03-27T10:51:06.796Z</time></trkpt><trkpt lat="43.4588317" lon="11.50042"><ele>759.0</ele><time>2026-03-27T10:51:07.794Z</time></trkpt><trkpt lat="43.4587167" lon="11.5004217"><ele>759.0</ele><time>2026-03-27T10:51:08.795Z</time></trkpt><trkpt lat="43.4585983" lon="11.500415"><ele>760.0</ele><time>2026-03-27T10:51:09.795Z</time></trkpt><trkpt lat="43.4584867" lon="11.5003983"><ele>761.0</ele><time>2026-03-27T10:51:10.795Z</time></trkpt><trkpt lat="43.4583867" lon="11.5003883"><ele>762.0</ele><time>2026-03-27T10:51:11.795Z</time></trkpt><trkpt lat="43.4582983" lon="11.5003983"><ele>763.0</ele><time>2026-03-27T10:51:12.795Z</time></trkpt><trkpt lat="43.45821" lon="11.500415"><ele>764.0</ele><time>2026-03-27T10:51:13.794Z</time></trkpt><trkpt lat="43.458105" lon="11.5004317"><ele>766.5</ele><time>2026-03-27T10:51:14.796Z</time></trkpt><trkpt lat="43.457985" lon="11.50043"><ele>769.0</ele><time>2026-03-27T10:51:15.794Z</time></trkpt><trkpt lat="43.4578467" lon="11.500395"><ele>771.5</ele><time>2026-03-27T10:51:16.795Z</time></trkpt><trkpt lat="43.4576967" lon="11.5003333"><ele>774.0</ele><time>2026-03-27T10:51:17.794Z</time></trkpt><trkpt lat="43.4575467" lon="11.5002617"><ele>775.5</ele><time>2026-03-27T10:51:18.796Z</time></trkpt><trkpt lat="43.4574167" lon="11.5001933"><ele>777.0</ele><time>2026-03-27T10:51:19.796Z</time></trkpt><trkpt lat="43.4573017" lon="11.5001283"><ele>778.5</ele><time>2026-03-27T10:51:20.796Z</time></trkpt><trkpt lat="43.45719" lon="11.5000917"><ele>780.0</ele><time>2026-03-27T10:51:21.795Z</time></trkpt><trkpt lat="43.4570817" lon="11.50009"><ele>780.0</ele><time>2026-03-27T10:51:22.795Z</time></trkpt><trkpt lat="43.4569617" lon="11.500115"><ele>780.0</ele><time>2026-03-27T10:51:23.796Z</time></trkpt><trkpt lat="43.456845" lon="11.5001783"><ele>780.0</ele><time>2026-03-27T10:51:24.796Z</time></trkpt><trkpt lat="43.4567233" lon="11.5002483"><ele>780.0</ele><time>2026-03-27T10:51:25.796Z</time></trkpt><trkpt lat="43.4565933" lon="11.5003017"><ele>780.0</ele><time>2026-03-27T10:51:26.796Z</time></trkpt><trkpt lat="43.45647" lon="11.5003633"><ele>780.0</ele><time>2026-03-27T10:51:27.796Z</time></trkpt><trkpt lat="43.4563567" lon="11.5004467"><ele>780.0</ele><time>2026-03-27T10:51:28.795Z</time></trkpt><trkpt lat="43.45626" lon="11.50054"><ele>780.0</ele><time>2026-03-27T10:51:29.797Z</time></trkpt><trkpt lat="43.4561617" lon="11.5006267"><ele>783.25</ele><time>2026-03-27T10:51:30.795Z</time></trkpt><trkpt lat="43.4560717" lon="11.5007017"><ele>786.5</ele><time>2026-03-27T10:51:31.797Z</time></trkpt><trkpt lat="43.45597" lon="11.500755"><ele>789.75</ele><time>2026-03-27T10:51:32.799Z</time></trkpt><trkpt lat="43.4558517" lon="11.500795"><ele>793.0</ele><time>2026-03-27T10:51:33.796Z</time></trkpt><trkpt lat="43.4557167" lon="11.500825"><ele>793.0</ele><time>2026-03-27T10:51:34.797Z</time></trkpt><trkpt lat="43.4555817" lon="11.500865"><ele>793.0</ele><time>2026-03-27T10:51:35.796Z</time></trkpt><trkpt lat="43.4554517" lon="11.5009083"><ele>793.0</ele><time>2026-03-27T10:51:36.796Z</time></trkpt><trkpt lat="43.45533" lon="11.50092"><ele>793.0</ele><time>2026-03-27T10:51:37.796Z</time></trkpt><trkpt lat="43.4552017" lon="11.500845"><ele>792.8</ele><time>2026-03-27T10:51:38.797Z</time></trkpt><trkpt lat="43.4550883" lon="11.5007983"><ele>792.5999999999999</ele><time>2026-03-27T10:51:39.795Z</time></trkpt><trkpt lat="43.454995" lon="11.5007317"><ele>792.4000000000001</ele><time>2026-03-27T10:51:40.797Z</time></trkpt><trkpt lat="43.4548933" lon="11.500715"><ele>792.2</ele><time>2026-03-27T10:51:41.796Z</time></trkpt><trkpt lat="43.4547933" lon="11.500735"><ele>792.0</ele><time>2026-03-27T10:51:42.796Z</time></trkpt><trkpt lat="43.454665" lon="11.5007783"><ele>792.0</ele><time>2026-03-27T10:51:43.795Z</time></trkpt><trkpt lat="43.4545167" lon="11.5008433"><ele>792.0</ele><time>2026-03-27T10:51:44.797Z</time></trkpt><trkpt lat="43.454365" lon="11.5009"><ele>792.0</ele><time>2026-03-27T10:51:45.797Z</time></trkpt><trkpt lat="43.4542183" lon="11.5009467"><ele>792.0</ele><time>2026-03-27T10:51:46.795Z</time></trkpt><trkpt lat="43.454085" lon="11.5009867"><ele>792.0</ele><time>2026-03-27T10:51:47.797Z</time></trkpt><trkpt lat="43.4539633" lon="11.5010467"><ele>792.0</ele><time>2026-03-27T10:51:48.796Z</time></trkpt><trkpt lat="43.4538383" lon="11.5011267"><ele>792.0</ele><time>2026-03-27T10:51:49.795Z</time></trkpt><trkpt lat="43.45373" lon="11.5012033"><ele>791.6</ele><time>2026-03-27T10:51:50.798Z</time></trkpt><trkpt lat="43.4536283" lon="11.50128"><ele>791.2</ele><time>2026-03-27T10:51:51.797Z</time></trkpt><trkpt lat="43.4535433" lon="11.50134"><ele>790.8</ele><time>2026-03-27T10:51:52.797Z</time></trkpt><trkpt lat="43.4534483" lon="11.5013717"><ele>790.4</ele><time>2026-03-27T10:51:53.797Z</time></trkpt><trkpt lat="43.4533483" lon="11.5013783"><ele>790.0</ele><time>2026-03-27T10:51:54.797Z</time></trkpt><trkpt lat="43.4532167" lon="11.5013417"><ele>790.0</ele><time>2026-03-27T10:51:55.797Z</time></trkpt><trkpt lat="43.4530783" lon="11.5012883"><ele>790.0</ele><time>2026-03-27T10:51:56.798Z</time></trkpt><trkpt lat="43.4529383" lon="11.501235"><ele>790.0</ele><time>2026-03-27T10:51:57.797Z</time></trkpt><trkpt lat="43.45282" lon="11.5011733"><ele>790.0</ele><time>2026-03-27T10:51:58.796Z</time></trkpt><trkpt lat="43.45271" lon="11.501105"><ele>791.2</ele><time>2026-03-27T10:51:59.795Z</time></trkpt><trkpt lat="43.4526083" lon="11.5010783"><ele>792.4</ele><time>2026-03-27T10:52:00.796Z</time></trkpt><trkpt lat="43.4524983" lon="11.501075"><ele>793.5999999999999</ele><time>2026-03-27T10:52:01.796Z</time></trkpt><trkpt lat="43.45238" lon="11.501085"><ele>794.8</ele><time>2026-03-27T10:52:02.796Z</time></trkpt><trkpt lat="43.4522683" lon="11.5011"><ele>796.0</ele><time>2026-03-27T10:52:03.795Z</time></trkpt><trkpt lat="43.4521717" lon="11.5011283"><ele>795.4</ele><time>2026-03-27T10:52:04.796Z</time></trkpt><trkpt lat="43.4520783" lon="11.50118"><ele>794.8</ele><time>2026-03-27T10:52:05.796Z</time></trkpt><trkpt lat="43.4519783" lon="11.5012633"><ele>794.1999999999999</ele><time>2026-03-27T10:52:06.796Z</time></trkpt><trkpt lat="43.45188" lon="11.5013617"><ele>793.5999999999999</ele><time>2026-03-27T10:52:07.797Z</time></trkpt><trkpt lat="43.4517933" lon="11.501455"><ele>793.0</ele><time>2026-03-27T10:52:08.797Z</time></trkpt><trkpt lat="43.451705" lon="11.501535"><ele>790.5</ele><time>2026-03-27T10:52:09.795Z</time></trkpt><trkpt lat="43.4515983" lon="11.5015983"><ele>788.0</ele><time>2026-03-27T10:52:10.797Z</time></trkpt><trkpt lat="43.451485" lon="11.5016383"><ele>785.5</ele><time>2026-03-27T10:52:11.796Z</time></trkpt><trkpt lat="43.4513717" lon="11.5016783"><ele>783.0</ele><time>2026-03-27T10:52:12.797Z</time></trkpt><trkpt lat="43.4512517" lon="11.5017483"><ele>781.75</ele><time>2026-03-27T10:52:13.796Z</time></trkpt><trkpt lat="43.45113" lon="11.5018533"><ele>780.5</ele><time>2026-03-27T10:52:14.796Z</time></trkpt><trkpt lat="43.4510167" lon="11.50198"><ele>779.25</ele><time>2026-03-27T10:52:15.796Z</time></trkpt><trkpt lat="43.4509017" lon="11.5021"><ele>778.0</ele><time>2026-03-27T10:52:16.795Z</time></trkpt><trkpt lat="43.4507967" lon="11.502205"><ele>776.4</ele><time>2026-03-27T10:52:17.795Z</time></trkpt><trkpt lat="43.4506983" lon="11.5022967"><ele>774.8</ele><time>2026-03-27T10:52:18.795Z</time></trkpt><trkpt lat="43.450605" lon="11.502375"><ele>773.2</ele><time>2026-03-27T10:52:19.796Z</time></trkpt><trkpt lat="43.450515" lon="11.5024433"><ele>771.6</ele><time>2026-03-27T10:52:20.797Z</time></trkpt><trkpt lat="43.450425" lon="11.5024917"><ele>770.0</ele><time>2026-03-27T10:52:21.796Z</time></trkpt><trkpt lat="43.4503117" lon="11.502505"><ele>768.75</ele><time>2026-03-27T10:52:22.795Z</time></trkpt><trkpt lat="43.45017" lon="11.5024867"><ele>767.5</ele><time>2026-03-27T10:52:23.797Z</time></trkpt><trkpt lat="43.45002" lon="11.50245"><ele>766.25</ele><time>2026-03-27T10:52:24.793Z</time></trkpt><trkpt lat="43.449885" lon="11.502415"><ele>765.0</ele><time>2026-03-27T10:52:25.796Z</time></trkpt><trkpt lat="43.4497633" lon="11.5024033"><ele>765.0</ele><time>2026-03-27T10:52:26.796Z</time></trkpt><trkpt lat="43.4496367" lon="11.5024217"><ele>765.0</ele><time>2026-03-27T10:52:27.796Z</time></trkpt><trkpt lat="43.4495183" lon="11.5024633"><ele>765.0</ele><time>2026-03-27T10:52:28.797Z</time></trkpt><trkpt lat="43.4494183" lon="11.5025083"><ele>765.0</ele><time>2026-03-27T10:52:29.795Z</time></trkpt><trkpt lat="43.4493283" lon="11.5025433"><ele>765.0</ele><time>2026-03-27T10:52:30.796Z</time></trkpt><trkpt lat="43.4492433" lon="11.50256"><ele>762.8</ele><time>2026-03-27T10:52:31.795Z</time></trkpt><trkpt lat="43.4491567" lon="11.5025883"><ele>760.6</ele><time>2026-03-27T10:52:32.796Z</time></trkpt><trkpt lat="43.449065" lon="11.5026333"><ele>758.4000000000001</ele><time>2026-03-27T10:52:33.797Z</time></trkpt><trkpt lat="43.44897" lon="11.5027033"><ele>756.2</ele><time>2026-03-27T10:52:34.796Z</time></trkpt><trkpt lat="43.448865" lon="11.5027817"><ele>754.0</ele><time>2026-03-27T10:52:35.797Z</time></trkpt><trkpt lat="43.448765" lon="11.50287"><ele>759.25</ele><time>2026-03-27T10:52:36.796Z</time></trkpt><trkpt lat="43.4486717" lon="11.5029783"><ele>764.5</ele><time>2026-03-27T10:52:37.796Z</time></trkpt><trkpt lat="43.4485867" lon="11.5031117"><ele>769.75</ele><time>2026-03-27T10:52:38.797Z</time></trkpt><trkpt lat="43.448505" lon="11.5032333"><ele>775.0</ele><time>2026-03-27T10:52:39.795Z</time></trkpt><trkpt lat="43.4484117" lon="11.50333"><ele>775.0</ele><time>2026-03-27T10:52:40.795Z</time></trkpt><trkpt lat="43.4482983" lon="11.50339"><ele>775.0</ele><time>2026-03-27T10:52:41.796Z</time></trkpt><trkpt lat="43.448165" lon="11.5034017"><ele>775.0</ele><time>2026-03-27T10:52:42.797Z</time></trkpt><trkpt lat="43.448025" lon="11.5033833"><ele>775.0</ele><time>2026-03-27T10:52:43.797Z</time></trkpt><trkpt lat="43.447875" lon="11.5033417"><ele>777.6666666666666</ele><time>2026-03-27T10:52:44.798Z</time></trkpt><trkpt lat="43.4477217" lon="11.5032667"><ele>780.3333333333333</ele><time>2026-03-27T10:52:45.795Z</time></trkpt><trkpt lat="43.447575" lon="11.5031767"><ele>783.0</ele><time>2026-03-27T10:52:46.796Z</time></trkpt><trkpt lat="43.44745" lon="11.5030917"><ele>783.0</ele><time>2026-03-27T10:52:47.796Z</time></trkpt><trkpt lat="43.4473317" lon="11.503025"><ele>783.0</ele><time>2026-03-27T10:52:48.796Z</time></trkpt><trkpt lat="43.447235" lon="11.5029817"><ele>783.0</ele><time>2026-03-27T10:52:49.796Z</time></trkpt><trkpt lat="43.4471267" lon="11.5029667"><ele>783.0</ele><time>2026-03-27T10:52:50.795Z</time></trkpt><trkpt lat="43.4470233" lon="11.5029817"><ele>783.0</ele><time>2026-03-27T10:52:51.796Z</time></trkpt><trkpt lat="43.4468833" lon="11.503045"><ele>781.25</ele><time>2026-03-27T10:52:52.796Z</time></trkpt><trkpt lat="43.446755" lon="11.5031417"><ele>779.5</ele><time>2026-03-27T10:52:53.794Z</time></trkpt><trkpt lat="43.4466433" lon="11.50327"><ele>777.75</ele><time>2026-03-27T10:52:54.797Z</time></trkpt><trkpt lat="43.4465483" lon="11.50342"><ele>776.0</ele><time>2026-03-27T10:52:55.796Z</time></trkpt><trkpt lat="43.4464717" lon="11.50358"><ele>776.0</ele><time>2026-03-27T10:52:56.798Z</time></trkpt><trkpt lat="43.4464033" lon="11.5037333"><ele>776.0</ele><time>2026-03-27T10:52:57.794Z</time></trkpt><trkpt lat="43.4463217" lon="11.5038633"><ele>776.0</ele><time>2026-03-27T10:52:58.795Z</time></trkpt><trkpt lat="43.4462217" lon="11.5039567"><ele>776.0</ele><time>2026-03-27T10:52:59.796Z</time></trkpt><trkpt lat="43.44613" lon="11.5040567"><ele>776.25</ele><time>2026-03-27T10:53:00.795Z</time></trkpt><trkpt lat="43.4460517" lon="11.5041817"><ele>776.5</ele><time>2026-03-27T10:53:01.796Z</time></trkpt><trkpt lat="43.445995" lon="11.5043517"><ele>776.75</ele><time>2026-03-27T10:53:02.796Z</time></trkpt><trkpt lat="43.4459467" lon="11.504535"><ele>777.0</ele><time>2026-03-27T10:53:03.794Z</time></trkpt><trkpt lat="43.4458983" lon="11.5047033"><ele>781.0</ele><time>2026-03-27T10:53:04.796Z</time></trkpt><trkpt lat="43.4458467" lon="11.5048617"><ele>785.0</ele><time>2026-03-27T10:53:05.795Z</time></trkpt><trkpt lat="43.445775" lon="11.5049783"><ele>789.0</ele><time>2026-03-27T10:53:06.797Z</time></trkpt><trkpt lat="43.4456933" lon="11.5050683"><ele>793.0</ele><time>2026-03-27T10:53:07.795Z</time></trkpt><trkpt lat="43.4455683" lon="11.5050867"><ele>788.5</ele><time>2026-03-27T10:53:08.8Z</time></trkpt><trkpt lat="43.445435" lon="11.5050767"><ele>784.0</ele><time>2026-03-27T10:53:09.798Z</time></trkpt><trkpt lat="43.4453017" lon="11.50507"><ele>779.5</ele><time>2026-03-27T10:53:10.795Z</time></trkpt><trkpt lat="43.4451617" lon="11.505085"><ele>775.0</ele><time>2026-03-27T10:53:11.796Z</time></trkpt><trkpt lat="43.4450317" lon="11.505125"><ele>775.0</ele><time>2026-03-27T10:53:12.798Z</time></trkpt><trkpt lat="43.44493" lon="11.5051867"><ele>775.0</ele><time>2026-03-27T10:53:13.797Z</time></trkpt><trkpt lat="43.4448333" lon="11.505295"><ele>775.0</ele><time>2026-03-27T10:53:14.796Z</time></trkpt><trkpt lat="43.4447467" lon="11.505435"><ele>775.0</ele><time>2026-03-27T10:53:15.795Z</time></trkpt><trkpt lat="43.4446633" lon="11.505595"><ele>776.25</ele><time>2026-03-27T10:53:16.795Z</time></trkpt><trkpt lat="43.44458" lon="11.5057433"><ele>777.5</ele><time>2026-03-27T10:53:17.795Z</time></trkpt><trkpt lat="43.4444983" lon="11.5058733"><ele>778.75</ele><time>2026-03-27T10:53:18.797Z</time></trkpt><trkpt lat="43.4444167" lon="11.5059733"><ele>780.0</ele><time>2026-03-27T10:53:19.796Z</time></trkpt><trkpt lat="43.4443233" lon="11.50602"><ele>780.0</ele><time>2026-03-27T10:53:20.796Z</time></trkpt><trkpt lat="43.4441967" lon="11.5059917"><ele>780.0</ele><time>2026-03-27T10:53:21.796Z</time></trkpt><trkpt lat="43.4440617" lon="11.5059367"><ele>780.0</ele><time>2026-03-27T10:53:22.794Z</time></trkpt><trkpt lat="43.4439233" lon="11.5058767"><ele>780.0</ele><time>2026-03-27T10:53:23.795Z</time></trkpt><trkpt lat="43.4438017" lon="11.5058367"><ele>780.75</ele><time>2026-03-27T10:53:24.796Z</time></trkpt><trkpt lat="43.4436917" lon="11.5058283"><ele>781.5</ele><time>2026-03-27T10:53:25.796Z</time></trkpt><trkpt lat="43.44353" lon="11.50581"><ele>782.25</ele><time>2026-03-27T10:53:26.796Z</time></trkpt><trkpt lat="43.4434067" lon="11.5058783"><ele>783.0</ele><time>2026-03-27T10:53:27.796Z</time></trkpt><trkpt lat="43.443295" lon="11.505955"><ele>783.0</ele><time>2026-03-27T10:53:28.796Z</time></trkpt><trkpt lat="43.4431667" lon="11.5060367"><ele>783.0</ele><time>2026-03-27T10:53:29.796Z</time></trkpt><trkpt lat="43.4430417" lon="11.506115"><ele>783.0</ele><time>2026-03-27T10:53:30.797Z</time></trkpt><trkpt lat="43.4429333" lon="11.50619"><ele>783.0</ele><time>2026-03-27T10:53:31.797Z</time></trkpt><trkpt lat="43.4428483" lon="11.506305"><ele>785.5999999999999</ele><time>2026-03-27T10:53:32.796Z</time></trkpt><trkpt lat="43.442785" lon="11.50641"><ele>788.1999999999999</ele><time>2026-03-27T10:53:33.796Z</time></trkpt><trkpt lat="43.442725" lon="11.50653"><ele>790.8</ele><time>2026-03-27T10:53:34.796Z</time></trkpt><trkpt lat="43.4426733" lon="11.5066617"><ele>793.4</ele><time>2026-03-27T10:53:35.796Z</time></trkpt><trkpt lat="43.4426517" lon="11.5068133"><ele>796.0</ele><time>2026-03-27T10:53:36.796Z</time></trkpt><trkpt lat="43.4426567" lon="11.50697"><ele>794.5999999999999</ele><time>2026-03-27T10:53:37.796Z</time></trkpt><trkpt lat="43.4426883" lon="11.507115"><ele>793.2</ele><time>2026-03-27T10:53:38.798Z</time></trkpt><trkpt lat="43.442715" lon="11.5072367"><ele>791.8</ele><time>2026-03-27T10:53:39.794Z</time></trkpt><trkpt lat="43.4427433" lon="11.5073567"><ele>790.4000000000001</ele><time>2026-03-27T10:53:40.795Z</time></trkpt><trkpt lat="43.4427683" lon="11.5075"><ele>789.0</ele><time>2026-03-27T10:53:41.796Z</time></trkpt><trkpt lat="43.4428017" lon="11.50764"><ele>789.0</ele><time>2026-03-27T10:53:42.796Z</time></trkpt><trkpt lat="43.4428367" lon="11.50778"><ele>789.0</ele><time>2026-03-27T10:53:43.795Z</time></trkpt><trkpt lat="43.44287" lon="11.507915"><ele>789.0</ele><time>2026-03-27T10:53:44.796Z</time></trkpt><trkpt lat="43.4429417" lon="11.50803"><ele>789.0</ele><time>2026-03-27T10:53:45.795Z</time></trkpt><trkpt lat="43.44302" lon="11.5081283"><ele>789.0</ele><time>2026-03-27T10:53:46.796Z</time></trkpt><trkpt lat="43.4431117" lon="11.5082033"><ele>785.0</ele><time>2026-03-27T10:53:47.795Z</time></trkpt><trkpt lat="43.443225" lon="11.5082767"><ele>781.0</ele><time>2026-03-27T10:53:48.796Z</time></trkpt><trkpt lat="43.4433533" lon="11.5083217"><ele>777.0</ele><time>2026-03-27T10:53:49.796Z</time></trkpt><trkpt lat="43.4435017" lon="11.5083967"><ele>773.0</ele><time>2026-03-27T10:53:50.795Z</time></trkpt><trkpt lat="43.443625" lon="11.5084783"><ele>773.0</ele><time>2026-03-27T10:53:51.797Z</time></trkpt><trkpt lat="43.44372" lon="11.508555"><ele>773.0</ele><time>2026-03-27T10:53:52.796Z</time></trkpt><trkpt lat="43.443825" lon="11.5085917"><ele>773.0</ele><time>2026-03-27T10:53:53.797Z</time></trkpt><trkpt lat="43.4439467" lon="11.508605"><ele>773.0</ele><time>2026-03-27T10:53:54.795Z</time></trkpt><trkpt lat="43.44409" lon="11.5086017"><ele>776.3333333333334</ele><time>2026-03-27T10:53:55.796Z</time></trkpt><trkpt lat="43.4442533" lon="11.5085867"><ele>779.6666666666667</ele><time>2026-03-27T10:53:56.796Z</time></trkpt><trkpt lat="43.4444183" lon="11.50858"><ele>783.0</ele><time>2026-03-27T10:53:57.796Z</time></trkpt><trkpt lat="43.4445617" lon="11.50859"><ele>785.5</ele><time>2026-03-27T10:53:58.796Z</time></trkpt><trkpt lat="43.4446783" lon="11.5086167"><ele>788.0</ele><time>2026-03-27T10:53:59.796Z</time></trkpt><trkpt lat="43.444775" lon="11.5086817"><ele>790.5</ele><time>2026-03-27T10:54:00.796Z</time></trkpt><trkpt lat="43.4448633" lon="11.5088017"><ele>793.0</ele><time>2026-03-27T10:54:01.796Z</time></trkpt><trkpt lat="43.4449467" lon="11.508965"><ele>780.6666666666666</ele><time>2026-03-27T10:54:02.795Z</time></trkpt><trkpt lat="43.4450333" lon="11.5091667"><ele>768.3333333333333</ele><time>2026-03-27T10:54:03.794Z</time></trkpt><trkpt lat="43.4451267" lon="11.5093683"><ele>756.0</ele><time>2026-03-27T10:54:04.794Z</time></trkpt><trkpt lat="43.4452083" lon="11.5095567"><ele>748.0</ele><time>2026-03-27T10:54:05.795Z</time></trkpt><trkpt lat="43.4452733" lon="11.5097483"><ele>740.0</ele><time>2026-03-27T10:54:06.797Z</time></trkpt><trkpt lat="43.4453267" lon="11.5099483"><ele>732.0</ele><time>2026-03-27T10:54:07.795Z</time></trkpt><trkpt lat="43.44538" lon="11.5101517"><ele>732.0</ele><time>2026-03-27T10:54:08.796Z</time></trkpt><trkpt lat="43.4454283" lon="11.5103533"><ele>732.0</ele><time>2026-03-27T10:54:09.796Z</time></trkpt><trkpt lat="43.4454867" lon="11.510555"><ele>732.0</ele><time>2026-03-27T10:54:10.795Z</time></trkpt><trkpt lat="43.4455183" lon="11.510755"><ele>731.6666666666666</ele><time>2026-03-27T10:54:11.796Z</time></trkpt><trkpt lat="43.4455483" lon="11.5109567"><ele>731.3333333333333</ele><time>2026-03-27T10:54:12.795Z</time></trkpt><trkpt lat="43.445555" lon="11.5111533"><ele>731.0</ele><time>2026-03-27T10:54:13.796Z</time></trkpt><trkpt lat="43.4455533" lon="11.5113733"><ele>726.6666666666666</ele><time>2026-03-27T10:54:14.796Z</time></trkpt><trkpt lat="43.4455433" lon="11.51159"><ele>722.3333333333334</ele><time>2026-03-27T10:54:15.796Z</time></trkpt><trkpt lat="43.4455333" lon="11.5118"><ele>718.0</ele><time>2026-03-27T10:54:16.796Z</time></trkpt><trkpt lat="43.4455283" lon="11.512"><ele>716.0</ele><time>2026-03-27T10:54:17.795Z</time></trkpt><trkpt lat="43.4455283" lon="11.5121883"><ele>714.0</ele><time>2026-03-27T10:54:18.796Z</time></trkpt><trkpt lat="43.445545" lon="11.5123633"><ele>712.0</ele><time>2026-03-27T10:54:19.795Z</time></trkpt><trkpt lat="43.4455833" lon="11.5125283"><ele>710.0</ele><time>2026-03-27T10:54:20.796Z</time></trkpt><trkpt lat="43.4456533" lon="11.51268"><ele>710.0</ele><time>2026-03-27T10:54:21.796Z</time></trkpt><trkpt lat="43.445725" lon="11.51282"><ele>710.0</ele><time>2026-03-27T10:54:22.796Z</time></trkpt><trkpt lat="43.4457683" lon="11.51296"><ele>710.0</ele><time>2026-03-27T10:54:23.796Z</time></trkpt><trkpt lat="43.44578" lon="11.5131"><ele>710.0</ele><time>2026-03-27T10:54:24.795Z</time></trkpt><trkpt lat="43.44576" lon="11.5132617"><ele>710.2</ele><time>2026-03-27T10:54:25.795Z</time></trkpt><trkpt lat="43.445725" lon="11.513425"><ele>710.4</ele><time>2026-03-27T10:54:26.797Z</time></trkpt><trkpt lat="43.4456867" lon="11.5135733"><ele>710.5999999999999</ele><time>2026-03-27T10:54:27.796Z</time></trkpt><trkpt lat="43.4456533" lon="11.5137017"><ele>710.8</ele><time>2026-03-27T10:54:28.796Z</time></trkpt><trkpt lat="43.4456283" lon="11.5138267"><ele>711.0</ele><time>2026-03-27T10:54:29.797Z</time></trkpt><trkpt lat="43.44562" lon="11.5139483"><ele>712.0</ele><time>2026-03-27T10:54:30.796Z</time></trkpt><trkpt lat="43.4456367" lon="11.51407"><ele>713.0</ele><time>2026-03-27T10:54:31.797Z</time></trkpt><trkpt lat="43.445665" lon="11.51419"><ele>714.0</ele><time>2026-03-27T10:54:32.797Z</time></trkpt><trkpt lat="43.445715" lon="11.5143167"><ele>715.0</ele><time>2026-03-27T10:54:33.796Z</time></trkpt><trkpt lat="43.44581" lon="11.5144583"><ele>716.0</ele><time>2026-03-27T10:54:34.796Z</time></trkpt><trkpt lat="43.4459017" lon="11.514595"><ele>719.25</ele><time>2026-03-27T10:54:35.797Z</time></trkpt><trkpt lat="43.44598" lon="11.5147367"><ele>722.5</ele><time>2026-03-27T10:54:36.797Z</time></trkpt><trkpt lat="43.446045" lon="11.5148883"><ele>725.75</ele><time>2026-03-27T10:54:37.796Z</time></trkpt><trkpt lat="43.4461" lon="11.5150517"><ele>729.0</ele><time>2026-03-27T10:54:38.798Z</time></trkpt><trkpt lat="43.4461417" lon="11.5152167"><ele>729.0</ele><time>2026-03-27T10:54:39.795Z</time></trkpt><trkpt lat="43.4461867" lon="11.515375"><ele>729.0</ele><time>2026-03-27T10:54:40.795Z</time></trkpt><trkpt lat="43.446265" lon="11.5155083"><ele>729.0</ele><time>2026-03-27T10:54:41.796Z</time></trkpt><trkpt lat="43.44638" lon="11.5156317"><ele>729.0</ele><time>2026-03-27T10:54:42.796Z</time></trkpt><trkpt lat="43.4465283" lon="11.51575"><ele>721.3333333333334</ele><time>2026-03-27T10:54:43.795Z</time></trkpt><trkpt lat="43.44668" lon="11.5158817"><ele>713.6666666666667</ele><time>2026-03-27T10:54:44.797Z</time></trkpt><trkpt lat="43.4468217" lon="11.5160233"><ele>706.0</ele><time>2026-03-27T10:54:45.796Z</time></trkpt><trkpt lat="43.446945" lon="11.5161567"><ele>708.75</ele><time>2026-03-27T10:54:46.795Z</time></trkpt><trkpt lat="43.4470517" lon="11.5162733"><ele>711.5</ele><time>2026-03-27T10:54:47.796Z</time></trkpt><trkpt lat="43.447135" lon="11.5163883"><ele>714.25</ele><time>2026-03-27T10:54:48.795Z</time></trkpt><trkpt lat="43.4471917" lon="11.5165233"><ele>717.0</ele><time>2026-03-27T10:54:49.795Z</time></trkpt><trkpt lat="43.4472333" lon="11.516665"><ele>706.25</ele><time>2026-03-27T10:54:50.798Z</time></trkpt><trkpt lat="43.44725" lon="11.5168483"><ele>695.5</ele><time>2026-03-27T10:54:51.797Z</time></trkpt><trkpt lat="43.4472433" lon="11.5170417"><ele>684.75</ele><time>2026-03-27T10:54:52.796Z</time></trkpt><trkpt lat="43.44723" lon="11.5172417"><ele>674.0</ele><time>2026-03-27T10:54:53.797Z</time></trkpt><trkpt lat="43.4472267" lon="11.5174217"><ele>673.6666666666666</ele><time>2026-03-27T10:54:54.797Z</time></trkpt><trkpt lat="43.4472183" lon="11.5175667"><ele>673.3333333333333</ele><time>2026-03-27T10:54:55.796Z</time></trkpt><trkpt lat="43.4472017" lon="11.51767"><ele>673.0</ele><time>2026-03-27T10:54:56.798Z</time></trkpt><trkpt lat="43.4471617" lon="11.517815"><ele>672.6666666666666</ele><time>2026-03-27T10:54:58.795Z</time></trkpt><trkpt lat="43.44711" lon="11.5178667"><ele>672.3333333333334</ele><time>2026-03-27T10:54:59.797Z</time></trkpt><trkpt lat="43.4470683" lon="11.5179333"><ele>672.0</ele><time>2026-03-27T10:55:00.796Z</time></trkpt><trkpt lat="43.4470383" lon="11.51801"><ele>675.1666666666666</ele><time>2026-03-27T10:55:01.797Z</time></trkpt><trkpt lat="43.4470433" lon="11.5181033"><ele>678.3333333333334</ele><time>2026-03-27T10:55:02.797Z</time></trkpt><trkpt lat="43.4470617" lon="11.5182083"><ele>681.5</ele><time>2026-03-27T10:55:03.796Z</time></trkpt><trkpt lat="43.44707" lon="11.51832"><ele>684.6666666666667</ele><time>2026-03-27T10:55:04.796Z</time></trkpt><trkpt lat="43.44706" lon="11.5184433"><ele>687.8333333333334</ele><time>2026-03-27T10:55:05.795Z</time></trkpt><trkpt lat="43.447035" lon="11.5185683"><ele>691.0</ele><time>2026-03-27T10:55:06.797Z</time></trkpt><trkpt lat="43.4469867" lon="11.5186617"><ele>691.0</ele><time>2026-03-27T10:55:07.796Z</time></trkpt><trkpt lat="43.446935" lon="11.5187167"><ele>691.0</ele><time>2026-03-27T10:55:08.796Z</time></trkpt><trkpt lat="43.446865" lon="11.5187333"><ele>691.0</ele><time>2026-03-27T10:55:09.796Z</time></trkpt><trkpt lat="43.4467483" lon="11.5186583"><ele>691.0</ele><time>2026-03-27T10:55:10.795Z</time></trkpt><trkpt lat="43.4466317" lon="11.5185883"><ele>691.0</ele><time>2026-03-27T10:55:11.796Z</time></trkpt><trkpt lat="43.44651" lon="11.5185217"><ele>691.0</ele><time>2026-03-27T10:55:12.794Z</time></trkpt><trkpt lat="43.4463783" lon="11.5184717"><ele>691.0</ele><time>2026-03-27T10:55:13.796Z</time></trkpt><trkpt lat="43.4462417" lon="11.5184433"><ele>691.0</ele><time>2026-03-27T10:55:14.797Z</time></trkpt><trkpt lat="43.44611" lon="11.518435"><ele>691.0</ele><time>2026-03-27T10:55:15.795Z</time></trkpt><trkpt lat="43.4459817" lon="11.51844"><ele>691.5</ele><time>2026-03-27T10:55:16.795Z</time></trkpt><trkpt lat="43.445865" lon="11.5184367"><ele>692.0</ele><time>2026-03-27T10:55:17.795Z</time></trkpt><trkpt lat="43.445745" lon="11.5184267"><ele>692.5</ele><time>2026-03-27T10:55:18.797Z</time></trkpt><trkpt lat="43.44563" lon="11.5183983"><ele>693.0</ele><time>2026-03-27T10:55:19.798Z</time></trkpt><trkpt lat="43.4455267" lon="11.5183467"><ele>688.0</ele><time>2026-03-27T10:55:20.797Z</time></trkpt><trkpt lat="43.44543" lon="11.5182817"><ele>683.0</ele><time>2026-03-27T10:55:21.795Z</time></trkpt><trkpt lat="43.445325" lon="11.5182017"><ele>678.0</ele><time>2026-03-27T10:55:22.796Z</time></trkpt><trkpt lat="43.4452217" lon="11.5181117"><ele>673.0</ele><time>2026-03-27T10:55:23.79Z</time></trkpt><trkpt lat="43.4451117" lon="11.5180283"><ele>673.0</ele><time>2026-03-27T10:55:24.791Z</time></trkpt><trkpt lat="43.4450067" lon="11.5179533"><ele>673.0</ele><time>2026-03-27T10:55:25.794Z</time></trkpt><trkpt lat="43.44491" lon="11.5178733"><ele>673.0</ele><time>2026-03-27T10:55:26.79Z</time></trkpt><trkpt lat="43.4448283" lon="11.5177833"><ele>673.0</ele><time>2026-03-27T10:55:27.789Z</time></trkpt><trkpt lat="43.4447517" lon="11.5176633"><ele>673.75</ele><time>2026-03-27T10:55:28.79Z</time></trkpt><trkpt lat="43.4446783" lon="11.5175267"><ele>674.5</ele><time>2026-03-27T10:55:29.79Z</time></trkpt><trkpt lat="43.44462" lon="11.5173917"><ele>675.25</ele><time>2026-03-27T10:55:30.789Z</time></trkpt><trkpt lat="43.4445833" lon="11.517245"><ele>676.0</ele><time>2026-03-27T10:55:31.79Z</time></trkpt><trkpt lat="43.4445617" lon="11.5170867"><ele>679.1999999999999</ele><time>2026-03-27T10:55:32.793Z</time></trkpt><trkpt lat="43.4445567" lon="11.516935"><ele>682.4</ele><time>2026-03-27T10:55:33.791Z</time></trkpt><trkpt lat="43.4445533" lon="11.5168183"><ele>685.6</ele><time>2026-03-27T10:55:34.796Z</time></trkpt><trkpt lat="43.44455" lon="11.5167183"><ele>688.8</ele><time>2026-03-27T10:55:35.795Z</time></trkpt><trkpt lat="43.4445117" lon="11.51658"><ele>692.0</ele><time>2026-03-27T10:55:37.796Z</time></trkpt><trkpt lat="43.44442" lon="11.5166267"><ele>692.0</ele><time>2026-03-27T10:55:39.795Z</time></trkpt><trkpt lat="43.4443417" lon="11.51678"><ele>692.0</ele><time>2026-03-27T10:55:40.793Z</time></trkpt><trkpt lat="43.44427" lon="11.5169033"><ele>692.0</ele><time>2026-03-27T10:55:41.796Z</time></trkpt><trkpt lat="43.4442033" lon="11.5170483"><ele>692.0</ele><time>2026-03-27T10:55:42.797Z</time></trkpt><trkpt lat="43.4441217" lon="11.517195"><ele>688.8</ele><time>2026-03-27T10:55:43.795Z</time></trkpt><trkpt lat="43.4440867" lon="11.5173417"><ele>685.6</ele><time>2026-03-27T10:55:44.797Z</time></trkpt><trkpt lat="43.4440883" lon="11.5174933"><ele>682.4</ele><time>2026-03-27T10:55:45.796Z</time></trkpt><trkpt lat="43.4440733" lon="11.517635"><ele>679.1999999999999</ele><time>2026-03-27T10:55:46.796Z</time></trkpt><trkpt lat="43.4440567" lon="11.51776"><ele>676.0</ele><time>2026-03-27T10:55:47.795Z</time></trkpt><trkpt lat="43.444025" lon="11.5178567"><ele>675.1999999999999</ele><time>2026-03-27T10:55:48.795Z</time></trkpt><trkpt lat="43.4439783" lon="11.5179467"><ele>674.4</ele><time>2026-03-27T10:55:49.795Z</time></trkpt><trkpt lat="43.443915" lon="11.51802"><ele>673.6</ele><time>2026-03-27T10:55:50.797Z</time></trkpt><trkpt lat="43.44382" lon="11.5181083"><ele>672.8</ele><time>2026-03-27T10:55:51.795Z</time></trkpt><trkpt lat="43.443725" lon="11.5182017"><ele>672.0</ele><time>2026-03-27T10:55:52.795Z</time></trkpt><trkpt lat="43.4436433" lon="11.5182967"><ele>672.0</ele><time>2026-03-27T10:55:53.796Z</time></trkpt><trkpt lat="43.4435817" lon="11.51839"><ele>672.0</ele><time>2026-03-27T10:55:54.795Z</time></trkpt><trkpt lat="43.4435433" lon="11.5185017"><ele>672.0</ele><time>2026-03-27T10:55:55.795Z</time></trkpt><trkpt lat="43.4435117" lon="11.51863"><ele>672.0</ele><time>2026-03-27T10:55:56.79Z</time></trkpt><trkpt lat="43.4434967" lon="11.51877"><ele>672.0</ele><time>2026-03-27T10:55:57.795Z</time></trkpt><trkpt lat="43.4434833" lon="11.518915"><ele>670.6</ele><time>2026-03-27T10:55:58.796Z</time></trkpt><trkpt lat="43.4434633" lon="11.5190683"><ele>669.2</ele><time>2026-03-27T10:55:59.795Z</time></trkpt><trkpt lat="43.4434383" lon="11.519215"><ele>667.8</ele><time>2026-03-27T10:56:00.795Z</time></trkpt><trkpt lat="43.4434067" lon="11.51936"><ele>666.4</ele><time>2026-03-27T10:56:01.795Z</time></trkpt><trkpt lat="43.4433717" lon="11.5194933"><ele>665.0</ele><time>2026-03-27T10:56:02.795Z</time></trkpt><trkpt lat="43.4433283" lon="11.5196133"><ele>662.6</ele><time>2026-03-27T10:56:03.795Z</time></trkpt><trkpt lat="43.44327" lon="11.5197233"><ele>660.2</ele><time>2026-03-27T10:56:04.795Z</time></trkpt><trkpt lat="43.4432" lon="11.5198183"><ele>657.8</ele><time>2026-03-27T10:56:05.795Z</time></trkpt><trkpt lat="43.4431283" lon="11.5199067"><ele>655.4</ele><time>2026-03-27T10:56:06.795Z</time></trkpt><trkpt lat="43.4430567" lon="11.5200183"><ele>653.0</ele><time>2026-03-27T10:56:07.796Z</time></trkpt><trkpt lat="43.442985" lon="11.5201767"><ele>651.6666666666666</ele><time>2026-03-27T10:56:08.795Z</time></trkpt><trkpt lat="43.4429117" lon="11.5203767"><ele>650.3333333333334</ele><time>2026-03-27T10:56:09.795Z</time></trkpt><trkpt lat="43.4428283" lon="11.5205967"><ele>649.0</ele><time>2026-03-27T10:56:10.795Z</time></trkpt><trkpt lat="43.44275" lon="11.52081"><ele>649.0</ele><time>2026-03-27T10:56:11.795Z</time></trkpt><trkpt lat="43.44268" lon="11.5209967"><ele>649.0</ele><time>2026-03-27T10:56:12.795Z</time></trkpt><trkpt lat="43.442615" lon="11.5211583"><ele>649.0</ele><time>2026-03-27T10:56:13.797Z</time></trkpt><trkpt lat="43.442535" lon="11.521305"><ele>649.0</ele><time>2026-03-27T10:56:14.795Z</time></trkpt><trkpt lat="43.4424383" lon="11.5214383"><ele>649.75</ele><time>2026-03-27T10:56:15.795Z</time></trkpt><trkpt lat="43.4423317" lon="11.5215733"><ele>650.5</ele><time>2026-03-27T10:56:16.796Z</time></trkpt><trkpt lat="43.44222" lon="11.5216967"><ele>651.25</ele><time>2026-03-27T10:56:17.795Z</time></trkpt><trkpt lat="43.442115" lon="11.5218067"><ele>652.0</ele><time>2026-03-27T10:56:18.797Z</time></trkpt><trkpt lat="43.442005" lon="11.5219133"><ele>651.2</ele><time>2026-03-27T10:56:19.795Z</time></trkpt><trkpt lat="43.4418967" lon="11.5220183"><ele>650.4000000000001</ele><time>2026-03-27T10:56:20.799Z</time></trkpt><trkpt lat="43.4417983" lon="11.5221133"><ele>649.5999999999999</ele><time>2026-03-27T10:56:21.796Z</time></trkpt><trkpt lat="43.44172" lon="11.52219"><ele>648.8</ele><time>2026-03-27T10:56:22.795Z</time></trkpt><trkpt lat="43.44166" lon="11.522255"><ele>648.0</ele><time>2026-03-27T10:56:23.795Z</time></trkpt><trkpt lat="43.4416033" lon="11.52232"><ele>648.0</ele><time>2026-03-27T10:56:24.796Z</time></trkpt><trkpt lat="43.4415517" lon="11.52241"><ele>648.0</ele><time>2026-03-27T10:56:25.795Z</time></trkpt><trkpt lat="43.441515" lon="11.5225317"><ele>648.0</ele><time>2026-03-27T10:56:26.797Z</time></trkpt><trkpt lat="43.44149" lon="11.52269"><ele>648.0</ele><time>2026-03-27T10:56:27.794Z</time></trkpt><trkpt lat="43.4414567" lon="11.5228233"><ele>648.0</ele><time>2026-03-27T10:56:28.795Z</time></trkpt><trkpt lat="43.44142" lon="11.522925"><ele>646.8333333333334</ele><time>2026-03-27T10:56:29.795Z</time></trkpt><trkpt lat="43.4413833" lon="11.52301"><ele>645.6666666666666</ele><time>2026-03-27T10:56:30.795Z</time></trkpt><trkpt lat="43.4413467" lon="11.5231283"><ele>644.5</ele><time>2026-03-27T10:56:32.796Z</time></trkpt><trkpt lat="43.441395" lon="11.5232417"><ele>643.3333333333333</ele><time>2026-03-27T10:56:34.796Z</time></trkpt><trkpt lat="43.441475" lon="11.52329"><ele>642.1666666666666</ele><time>2026-03-27T10:56:35.795Z</time></trkpt><trkpt lat="43.4415583" lon="11.523345"><ele>641.0</ele><time>2026-03-27T10:56:36.797Z</time></trkpt><trkpt lat="43.4416467" lon="11.52341"><ele>641.0</ele><time>2026-03-27T10:56:37.794Z</time></trkpt><trkpt lat="43.4417533" lon="11.5234883"><ele>641.0</ele><time>2026-03-27T10:56:38.797Z</time></trkpt><trkpt lat="43.4418717" lon="11.5235783"><ele>641.0</ele><time>2026-03-27T10:56:39.795Z</time></trkpt><trkpt lat="43.44198" lon="11.5236583"><ele>641.0</ele><time>2026-03-27T10:56:40.796Z</time></trkpt><trkpt lat="43.4420833" lon="11.52372"><ele>640.1666666666666</ele><time>2026-03-27T10:56:41.796Z</time></trkpt><trkpt lat="43.4421667" lon="11.523765"><ele>639.3333333333333</ele><time>2026-03-27T10:56:42.796Z</time></trkpt><trkpt lat="43.4422233" lon="11.5238233"><ele>638.5</ele><time>2026-03-27T10:56:43.796Z</time></trkpt><trkpt lat="43.4422733" lon="11.5238967"><ele>637.6666666666666</ele><time>2026-03-27T10:56:44.797Z</time></trkpt><trkpt lat="43.4422967" lon="11.5239983"><ele>636.8333333333334</ele><time>2026-03-27T10:56:45.795Z</time></trkpt><trkpt lat="43.4422983" lon="11.5241267"><ele>636.0</ele><time>2026-03-27T10:56:46.796Z</time></trkpt><trkpt lat="43.4423167" lon="11.5242317"><ele>636.0</ele><time>2026-03-27T10:56:47.795Z</time></trkpt><trkpt lat="43.4423383" lon="11.524335"><ele>636.0</ele><time>2026-03-27T10:56:48.796Z</time></trkpt><trkpt lat="43.4423717" lon="11.5244467"><ele>636.0</ele><time>2026-03-27T10:56:49.796Z</time></trkpt><trkpt lat="43.4424267" lon="11.524545"><ele>636.0</ele><time>2026-03-27T10:56:50.796Z</time></trkpt><trkpt lat="43.4424967" lon="11.52464"><ele>636.0</ele><time>2026-03-27T10:56:51.795Z</time></trkpt><trkpt lat="43.4425833" lon="11.5247333"><ele>632.8</ele><time>2026-03-27T10:56:52.795Z</time></trkpt><trkpt lat="43.4426583" lon="11.5248317"><ele>629.6</ele><time>2026-03-27T10:56:53.795Z</time></trkpt><trkpt lat="43.4427217" lon="11.5249417"><ele>626.4</ele><time>2026-03-27T10:56:54.794Z</time></trkpt><trkpt lat="43.4427683" lon="11.5250533"><ele>623.2</ele><time>2026-03-27T10:56:55.796Z</time></trkpt><trkpt lat="43.4428067" lon="11.5251617"><ele>620.0</ele><time>2026-03-27T10:56:56.798Z</time></trkpt><trkpt lat="43.442845" lon="11.5252617"><ele>620.0</ele><time>2026-03-27T10:56:57.798Z</time></trkpt><trkpt lat="43.4428883" lon="11.525365"><ele>620.0</ele><time>2026-03-27T10:56:58.794Z</time></trkpt><trkpt lat="43.4429333" lon="11.525485"><ele>620.0</ele><time>2026-03-27T10:56:59.794Z</time></trkpt><trkpt lat="43.44297" lon="11.5256217"><ele>620.0</ele><time>2026-03-27T10:57:00.796Z</time></trkpt><trkpt lat="43.4430183" lon="11.525795"><ele>620.0</ele><time>2026-03-27T10:57:01.796Z</time></trkpt><trkpt lat="43.4430733" lon="11.5259783"><ele>619.25</ele><time>2026-03-27T10:57:02.797Z</time></trkpt><trkpt lat="43.4431183" lon="11.526165"><ele>618.5</ele><time>2026-03-27T10:57:03.794Z</time></trkpt><trkpt lat="43.4431467" lon="11.5263433"><ele>617.75</ele><time>2026-03-27T10:57:04.796Z</time></trkpt><trkpt lat="43.4431583" lon="11.5265033"><ele>617.0</ele><time>2026-03-27T10:57:05.795Z</time></trkpt><trkpt lat="43.4431517" lon="11.5266433"><ele>617.0</ele><time>2026-03-27T10:57:06.796Z</time></trkpt><trkpt lat="43.443115" lon="11.52677"><ele>617.0</ele><time>2026-03-27T10:57:07.795Z</time></trkpt><trkpt lat="43.443055" lon="11.5268983"><ele>617.0</ele><time>2026-03-27T10:57:08.796Z</time></trkpt><trkpt lat="43.4429933" lon="11.5270217"><ele>617.0</ele><time>2026-03-27T10:57:09.791Z</time></trkpt><trkpt lat="43.4429367" lon="11.5271167"><ele>617.0</ele><time>2026-03-27T10:57:10.795Z</time></trkpt><trkpt lat="43.442865" lon="11.52718"><ele>615.0</ele><time>2026-03-27T10:57:11.795Z</time></trkpt><trkpt lat="43.4427667" lon="11.527215"><ele>613.0</ele><time>2026-03-27T10:57:12.794Z</time></trkpt><trkpt lat="43.4426433" lon="11.5272183"><ele>611.0</ele><time>2026-03-27T10:57:13.795Z</time></trkpt><trkpt lat="43.442495" lon="11.5271917"><ele>609.0</ele><time>2026-03-27T10:57:14.795Z</time></trkpt><trkpt lat="43.442345" lon="11.5271633"><ele>609.0</ele><time>2026-03-27T10:57:15.795Z</time></trkpt><trkpt lat="43.442205" lon="11.5271517"><ele>609.0</ele><time>2026-03-27T10:57:16.795Z</time></trkpt><trkpt lat="43.4420783" lon="11.5271617"><ele>609.0</ele><time>2026-03-27T10:57:17.795Z</time></trkpt><trkpt lat="43.4419617" lon="11.5272017"><ele>609.0</ele><time>2026-03-27T10:57:18.793Z</time></trkpt><trkpt lat="43.441835" lon="11.527275"><ele>609.75</ele><time>2026-03-27T10:57:19.795Z</time></trkpt><trkpt lat="43.4417133" lon="11.5273583"><ele>610.5</ele><time>2026-03-27T10:57:20.796Z</time></trkpt><trkpt lat="43.4416033" lon="11.5274283"><ele>611.25</ele><time>2026-03-27T10:57:21.795Z</time></trkpt><trkpt lat="43.4415017" lon="11.5274917"><ele>612.0</ele><time>2026-03-27T10:57:22.795Z</time></trkpt><trkpt lat="43.4414117" lon="11.5275567"><ele>612.0</ele><time>2026-03-27T10:57:23.795Z</time></trkpt><trkpt lat="43.4413283" lon="11.5276217"><ele>612.0</ele><time>2026-03-27T10:57:24.795Z</time></trkpt><trkpt lat="43.441245" lon="11.52771"><ele>612.0</ele><time>2026-03-27T10:57:25.796Z</time></trkpt><trkpt lat="43.4411733" lon="11.527825"><ele>612.0</ele><time>2026-03-27T10:57:26.796Z</time></trkpt><trkpt lat="43.4411" lon="11.5279683"><ele>612.0</ele><time>2026-03-27T10:57:27.796Z</time></trkpt><trkpt lat="43.4410217" lon="11.5281333"><ele>614.5</ele><time>2026-03-27T10:57:28.793Z</time></trkpt><trkpt lat="43.4409567" lon="11.5282967"><ele>617.0</ele><time>2026-03-27T10:57:29.796Z</time></trkpt><trkpt lat="43.4408983" lon="11.5284483"><ele>619.5</ele><time>2026-03-27T10:57:30.795Z</time></trkpt><trkpt lat="43.4408467" lon="11.5285867"><ele>622.0</ele><time>2026-03-27T10:57:31.795Z</time></trkpt><trkpt lat="43.4408117" lon="11.528705"><ele>621.6</ele><time>2026-03-27T10:57:32.795Z</time></trkpt><trkpt lat="43.4407933" lon="11.5288117"><ele>621.2</ele><time>2026-03-27T10:57:33.795Z</time></trkpt><trkpt lat="43.4407917" lon="11.5289333"><ele>620.8</ele><time>2026-03-27T10:57:34.795Z</time></trkpt><trkpt lat="43.440805" lon="11.5290817"><ele>620.4</ele><time>2026-03-27T10:57:35.795Z</time></trkpt><trkpt lat="43.4408083" lon="11.5292283"><ele>620.0</ele><time>2026-03-27T10:57:36.795Z</time></trkpt><trkpt lat="43.4408167" lon="11.529355"><ele>620.0</ele><time>2026-03-27T10:57:37.794Z</time></trkpt><trkpt lat="43.4408233" lon="11.5294633"><ele>620.0</ele><time>2026-03-27T10:57:38.797Z</time></trkpt><trkpt lat="43.4408283" lon="11.5295533"><ele>620.0</ele><time>2026-03-27T10:57:39.794Z</time></trkpt><trkpt lat="43.4408883" lon="11.52969"><ele>620.0</ele><time>2026-03-27T10:57:41.795Z</time></trkpt><trkpt lat="43.44097" lon="11.5297983"><ele>620.0</ele><time>2026-03-27T10:57:43.796Z</time></trkpt><trkpt lat="43.440955" lon="11.5298833"><ele>620.0</ele><time>2026-03-27T10:57:45.796Z</time></trkpt><trkpt lat="43.44086" lon="11.5299633"><ele>622.2</ele><time>2026-03-27T10:57:47.796Z</time></trkpt><trkpt lat="43.44086" lon="11.530065"><ele>624.4</ele><time>2026-03-27T10:57:49.794Z</time></trkpt><trkpt lat="43.4409733" lon="11.530135"><ele>626.6</ele><time>2026-03-27T10:57:51.795Z</time></trkpt><trkpt lat="43.44106" lon="11.530155"><ele>628.8</ele><time>2026-03-27T10:57:52.794Z</time></trkpt><trkpt lat="43.4411483" lon="11.5301733"><ele>631.0</ele><time>2026-03-27T10:57:53.795Z</time></trkpt><trkpt lat="43.4412267" lon="11.5301967"><ele>631.0</ele><time>2026-03-27T10:57:54.794Z</time></trkpt><trkpt lat="43.4412883" lon="11.5302267"><ele>631.0</ele><time>2026-03-27T10:57:55.795Z</time></trkpt><trkpt lat="43.441355" lon="11.5303033"><ele>631.0</ele><time>2026-03-27T10:57:57.794Z</time></trkpt><trkpt lat="43.4413383" lon="11.5304517"><ele>631.0</ele><time>2026-03-27T10:57:59.795Z</time></trkpt><trkpt lat="43.4413167" lon="11.5305717"><ele>631.0</ele><time>2026-03-27T10:58:00.794Z</time></trkpt><trkpt lat="43.441295" lon="11.5307"><ele>631.0</ele><time>2026-03-27T10:58:01.793Z</time></trkpt><trkpt lat="43.4412783" lon="11.5308533"><ele>632.5</ele><time>2026-03-27T10:58:02.796Z</time></trkpt><trkpt lat="43.44127" lon="11.5309867"><ele>634.0</ele><time>2026-03-27T10:58:03.796Z</time></trkpt><trkpt lat="43.4412633" lon="11.5310983"><ele>635.5</ele><time>2026-03-27T10:58:04.793Z</time></trkpt><trkpt lat="43.4412717" lon="11.5312117"><ele>637.0</ele><time>2026-03-27T10:58:05.795Z</time></trkpt><trkpt lat="43.4412883" lon="11.5313283"><ele>638.5</ele><time>2026-03-27T10:58:06.795Z</time></trkpt><trkpt lat="43.4413117" lon="11.53144"><ele>640.0</ele><time>2026-03-27T10:58:07.796Z</time></trkpt><trkpt lat="43.4413433" lon="11.5315667"><ele>641.6666666666667</ele><time>2026-03-27T10:58:08.796Z</time></trkpt><trkpt lat="43.4413767" lon="11.531675"><ele>643.3333333333334</ele><time>2026-03-27T10:58:09.794Z</time></trkpt><trkpt lat="43.4413967" lon="11.53177"><ele>645.0</ele><time>2026-03-27T10:58:10.794Z</time></trkpt><trkpt lat="43.441405" lon="11.5318717"><ele>646.6666666666666</ele><time>2026-03-27T10:58:11.794Z</time></trkpt><trkpt lat="43.441405" lon="11.5319783"><ele>648.3333333333333</ele><time>2026-03-27T10:58:12.795Z</time></trkpt><trkpt lat="43.4413883" lon="11.5320883"><ele>650.0</ele><time>2026-03-27T10:58:13.797Z</time></trkpt><trkpt lat="43.4413667" lon="11.5322033"><ele>650.0</ele><time>2026-03-27T10:58:14.796Z</time></trkpt><trkpt lat="43.4413433" lon="11.532315"><ele>650.0</ele><time>2026-03-27T10:58:15.795Z</time></trkpt><trkpt lat="43.441325" lon="11.5324333"><ele>650.0</ele><time>2026-03-27T10:58:16.796Z</time></trkpt><trkpt lat="43.4413167" lon="11.5325433"><ele>650.0</ele><time>2026-03-27T10:58:17.795Z</time></trkpt><trkpt lat="43.441315" lon="11.5326417"><ele>650.0</ele><time>2026-03-27T10:58:18.796Z</time></trkpt><trkpt lat="43.44132" lon="11.53274"><ele>650.0</ele><time>2026-03-27T10:58:19.796Z</time></trkpt><trkpt lat="43.4413233" lon="11.5328467"><ele>649.3333333333333</ele><time>2026-03-27T10:58:20.797Z</time></trkpt><trkpt lat="43.441345" lon="11.5329567"><ele>648.6666666666666</ele><time>2026-03-27T10:58:21.797Z</time></trkpt><trkpt lat="43.4413817" lon="11.53308"><ele>648.0</ele><time>2026-03-27T10:58:22.796Z</time></trkpt><trkpt lat="43.4414217" lon="11.5331983"><ele>647.3333333333334</ele><time>2026-03-27T10:58:23.796Z</time></trkpt><trkpt lat="43.441455" lon="11.53331"><ele>646.6666666666667</ele><time>2026-03-27T10:58:24.795Z</time></trkpt><trkpt lat="43.4414717" lon="11.5333983"><ele>646.0</ele><time>2026-03-27T10:58:25.795Z</time></trkpt><trkpt lat="43.4414867" lon="11.533495"><ele>646.0</ele><time>2026-03-27T10:58:26.797Z</time></trkpt><trkpt lat="43.441495" lon="11.533655"><ele>646.0</ele><time>2026-03-27T10:58:28.795Z</time></trkpt><trkpt lat="43.441505" lon="11.5337833"><ele>646.0</ele><time>2026-03-27T10:58:30.796Z</time></trkpt><trkpt lat="43.4415017" lon="11.5339133"><ele>646.0</ele><time>2026-03-27T10:58:32.796Z</time></trkpt><trkpt lat="43.4415217" lon="11.534075"><ele>646.0</ele><time>2026-03-27T10:58:34.795Z</time></trkpt><trkpt lat="43.441555" lon="11.5341633"><ele>645.6666666666667</ele><time>2026-03-27T10:58:35.795Z</time></trkpt><trkpt lat="43.4415883" lon="11.5342633"><ele>645.3333333333334</ele><time>2026-03-27T10:58:36.797Z</time></trkpt><trkpt lat="43.4416433" lon="11.5343533"><ele>645.0</ele><time>2026-03-27T10:58:37.796Z</time></trkpt><trkpt lat="43.4417" lon="11.53445"><ele>644.6666666666666</ele><time>2026-03-27T10:58:38.796Z</time></trkpt><trkpt lat="43.4417417" lon="11.534535"><ele>644.3333333333333</ele><time>2026-03-27T10:58:39.796Z</time></trkpt><trkpt lat="43.4418233" lon="11.5346433"><ele>644.0</ele><time>2026-03-27T10:58:41.795Z</time></trkpt><trkpt lat="43.44194" lon="11.5346567"><ele>642.2</ele><time>2026-03-27T10:58:43.793Z</time></trkpt><trkpt lat="43.4420483" lon="11.5347017"><ele>640.4000000000001</ele><time>2026-03-27T10:58:45.796Z</time></trkpt><trkpt lat="43.4421333" lon="11.534795"><ele>638.6</ele><time>2026-03-27T10:58:47.796Z</time></trkpt><trkpt lat="43.442185" lon="11.53495"><ele>636.8</ele><time>2026-03-27T10:58:49.798Z</time></trkpt><trkpt lat="43.4422033" lon="11.5350383"><ele>635.0</ele><time>2026-03-27T10:58:50.796Z</time></trkpt><trkpt lat="43.4422233" lon="11.5352167"><ele>635.0</ele><time>2026-03-27T10:58:52.796Z</time></trkpt><trkpt lat="43.4422417" lon="11.5353133"><ele>635.0</ele><time>2026-03-27T10:58:53.796Z</time></trkpt><trkpt lat="43.4422567" lon="11.5353983"><ele>635.0</ele><time>2026-03-27T10:58:54.795Z</time></trkpt><trkpt lat="43.4422583" lon="11.5355583"><ele>635.0</ele><time>2026-03-27T10:58:56.796Z</time></trkpt><trkpt lat="43.4422133" lon="11.535705"><ele>635.0</ele><time>2026-03-27T10:58:58.795Z</time></trkpt><trkpt lat="43.442135" lon="11.5357733"><ele>632.8333333333333</ele><time>2026-03-27T10:59:00.795Z</time></trkpt><trkpt lat="43.4421033" lon="11.5358817"><ele>630.6666666666666</ele><time>2026-03-27T10:59:02.796Z</time></trkpt><trkpt lat="43.4420933" lon="11.5360383"><ele>628.5</ele><time>2026-03-27T10:59:04.794Z</time></trkpt><trkpt lat="43.442085" lon="11.5361267"><ele>626.3333333333334</ele><time>2026-03-27T10:59:05.794Z</time></trkpt><trkpt lat="43.4420817" lon="11.5362367"><ele>624.1666666666667</ele><time>2026-03-27T10:59:06.796Z</time></trkpt><trkpt lat="43.4420733" lon="11.5363767"><ele>622.0</ele><time>2026-03-27T10:59:07.795Z</time></trkpt><trkpt lat="43.4420733" lon="11.53653"><ele>621.0</ele><time>2026-03-27T10:59:08.797Z</time></trkpt><trkpt lat="43.442085" lon="11.5366667"><ele>620.0</ele><time>2026-03-27T10:59:09.794Z</time></trkpt><trkpt lat="43.4420917" lon="11.53681"><ele>619.0</ele><time>2026-03-27T10:59:10.795Z</time></trkpt><trkpt lat="43.4420817" lon="11.5369317"><ele>618.0</ele><time>2026-03-27T10:59:11.795Z</time></trkpt><trkpt lat="43.44207" lon="11.5370483"><ele>617.0</ele><time>2026-03-27T10:59:12.796Z</time></trkpt><trkpt lat="43.442055" lon="11.5371467"><ele>616.4</ele><time>2026-03-27T10:59:13.795Z</time></trkpt><trkpt lat="43.44203" lon="11.5373167"><ele>615.8000000000001</ele><time>2026-03-27T10:59:15.797Z</time></trkpt><trkpt lat="43.442025" lon="11.53742"><ele>615.2</ele><time>2026-03-27T10:59:16.794Z</time></trkpt><trkpt lat="43.4420217" lon="11.537535"><ele>614.6</ele><time>2026-03-27T10:59:17.796Z</time></trkpt><trkpt lat="43.442005" lon="11.5376567"><ele>614.0</ele><time>2026-03-27T10:59:18.796Z</time></trkpt><trkpt lat="43.4419917" lon="11.53779"><ele>613.5</ele><time>2026-03-27T10:59:19.796Z</time></trkpt><trkpt lat="43.4419817" lon="11.5379117"><ele>613.0</ele><time>2026-03-27T10:59:20.797Z</time></trkpt><trkpt lat="43.4419633" lon="11.5380133"><ele>612.5</ele><time>2026-03-27T10:59:21.791Z</time></trkpt><trkpt lat="43.4419417" lon="11.5381"><ele>612.0</ele><time>2026-03-27T10:59:22.795Z</time></trkpt><trkpt lat="43.4418867" lon="11.5382483"><ele>611.5</ele><time>2026-03-27T10:59:24.796Z</time></trkpt><trkpt lat="43.4418367" lon="11.5383567"><ele>611.0</ele><time>2026-03-27T10:59:26.796Z</time></trkpt><trkpt lat="43.4418417" lon="11.5384467"><ele>611.0000000000001</ele><time>2026-03-27T10:59:28.794Z</time></trkpt><trkpt lat="43.441875" lon="11.53853"><ele>611.0</ele><time>2026-03-27T10:59:30.794Z</time></trkpt><trkpt lat="43.4418733" lon="11.538645"><ele>611.0</ele><time>2026-03-27T10:59:33.793Z</time></trkpt><trkpt lat="43.441835" lon="11.5387267"><ele>611.0</ele><time>2026-03-27T10:59:35.795Z</time></trkpt><trkpt lat="43.44181" lon="11.5388067"><ele>611.0</ele><time>2026-03-27T10:59:37.794Z</time></trkpt><trkpt lat="43.44185" lon="11.5389"><ele>611.0000000000001</ele><time>2026-03-27T10:59:40.794Z</time></trkpt><trkpt lat="43.4419083" lon="11.5389517"><ele>611.0</ele><time>2026-03-27T10:59:42.795Z</time></trkpt><trkpt lat="43.4419467" lon="11.53906"><ele>611.0</ele><time>2026-03-27T10:59:44.797Z</time></trkpt><trkpt lat="43.441945" lon="11.5392417"><ele>611.0</ele><time>2026-03-27T10:59:46.794Z</time></trkpt><trkpt lat="43.441935" lon="11.5393533"><ele>611.0</ele><time>2026-03-27T10:59:47.795Z</time></trkpt><trkpt lat="43.4419233" lon="11.5394767"><ele>611.0</ele><time>2026-03-27T10:59:48.796Z</time></trkpt><trkpt lat="43.441915" lon="11.53961"><ele>611.0</ele><time>2026-03-27T10:59:49.796Z</time></trkpt><trkpt lat="43.441915" lon="11.5397283"><ele>611.3333333333333</ele><time>2026-03-27T10:59:50.796Z</time></trkpt><trkpt lat="43.44192" lon="11.539845"><ele>611.6666666666666</ele><time>2026-03-27T10:59:51.794Z</time></trkpt><trkpt lat="43.4419333" lon="11.53996"><ele>612.0</ele><time>2026-03-27T10:59:52.794Z</time></trkpt><trkpt lat="43.4419533" lon="11.54007"><ele>612.3333333333334</ele><time>2026-03-27T10:59:53.795Z</time></trkpt><trkpt lat="43.4419733" lon="11.5401783"><ele>612.6666666666667</ele><time>2026-03-27T10:59:54.796Z</time></trkpt><trkpt lat="43.4419883" lon="11.5402833"><ele>613.0</ele><time>2026-03-27T10:59:55.796Z</time></trkpt><trkpt lat="43.4419917" lon="11.5404033"><ele>613.0</ele><time>2026-03-27T10:59:56.797Z</time></trkpt><trkpt lat="43.4419933" lon="11.5405317"><ele>613.0</ele><time>2026-03-27T10:59:57.794Z</time></trkpt><trkpt lat="43.4419933" lon="11.540665"><ele>613.0</ele><time>2026-03-27T10:59:58.794Z</time></trkpt><trkpt lat="43.442" lon="11.5408017"><ele>613.0</ele><time>2026-03-27T10:59:59.795Z</time></trkpt><trkpt lat="43.4420067" lon="11.5409267"><ele>613.0</ele><time>2026-03-27T11:00:00.795Z</time></trkpt><trkpt lat="43.4420133" lon="11.5410417"><ele>613.0</ele><time>2026-03-27T11:00:01.793Z</time></trkpt><trkpt lat="43.442035" lon="11.5411383"><ele>613.0</ele><time>2026-03-27T11:00:02.794Z</time></trkpt><trkpt lat="43.4420667" lon="11.541225"><ele>613.0</ele><time>2026-03-27T11:00:03.795Z</time></trkpt><trkpt lat="43.4420967" lon="11.5413783"><ele>613.0</ele><time>2026-03-27T11:00:05.794Z</time></trkpt><trkpt lat="43.4421" lon="11.5414717"><ele>613.0</ele><time>2026-03-27T11:00:06.797Z</time></trkpt><trkpt lat="43.4421033" lon="11.5415883"><ele>613.0</ele><time>2026-03-27T11:00:07.795Z</time></trkpt><trkpt lat="43.4420983" lon="11.541705"><ele>610.3333333333334</ele><time>2026-03-27T11:00:08.795Z</time></trkpt><trkpt lat="43.4420983" lon="11.54181"><ele>607.6666666666667</ele><time>2026-03-27T11:00:09.795Z</time></trkpt><trkpt lat="43.4420933" lon="11.5419083"><ele>605.0</ele><time>2026-03-27T11:00:10.795Z</time></trkpt><trkpt lat="43.442085" lon="11.5420033"><ele>602.3333333333334</ele><time>2026-03-27T11:00:11.796Z</time></trkpt><trkpt lat="43.44207" lon="11.5420917"><ele>599.6666666666666</ele><time>2026-03-27T11:00:12.795Z</time></trkpt><trkpt lat="43.44208" lon="11.5422517"><ele>597.0</ele><time>2026-03-27T11:00:14.795Z</time></trkpt><trkpt lat="43.4421033" lon="11.5423433"><ele>595.1666666666666</ele><time>2026-03-27T11:00:15.793Z</time></trkpt><trkpt lat="43.4421333" lon="11.5424533"><ele>593.3333333333334</ele><time>2026-03-27T11:00:16.795Z</time></trkpt><trkpt lat="43.4421717" lon="11.5425517"><ele>591.5</ele><time>2026-03-27T11:00:17.795Z</time></trkpt><trkpt lat="43.4422133" lon="11.54264"><ele>589.6666666666667</ele><time>2026-03-27T11:00:18.796Z</time></trkpt><trkpt lat="43.4422517" lon="11.5427217"><ele>587.8333333333334</ele><time>2026-03-27T11:00:19.795Z</time></trkpt><trkpt lat="43.442315" lon="11.5428817"><ele>586.0</ele><time>2026-03-27T11:00:21.794Z</time></trkpt><trkpt lat="43.4423117" lon="11.54298"><ele>586.0</ele><time>2026-03-27T11:00:22.794Z</time></trkpt><trkpt lat="43.4423" lon="11.5430833"><ele>586.0</ele><time>2026-03-27T11:00:23.795Z</time></trkpt><trkpt lat="43.4422733" lon="11.5432"><ele>586.0</ele><time>2026-03-27T11:00:24.795Z</time></trkpt><trkpt lat="43.4422633" lon="11.5433533"><ele>586.0</ele><time>2026-03-27T11:00:25.796Z</time></trkpt><trkpt lat="43.44225" lon="11.5435117"><ele>586.0</ele><time>2026-03-27T11:00:26.797Z</time></trkpt><trkpt lat="43.4422367" lon="11.5436517"><ele>586.6666666666667</ele><time>2026-03-27T11:00:27.795Z</time></trkpt><trkpt lat="43.4422333" lon="11.543775"><ele>587.3333333333334</ele><time>2026-03-27T11:00:28.795Z</time></trkpt><trkpt lat="43.4422533" lon="11.543875"><ele>588.0</ele><time>2026-03-27T11:00:29.796Z</time></trkpt><trkpt lat="43.4422883" lon="11.5439717"><ele>588.6666666666666</ele><time>2026-03-27T11:00:30.796Z</time></trkpt><trkpt lat="43.4423133" lon="11.544075"><ele>589.3333333333333</ele><time>2026-03-27T11:00:31.796Z</time></trkpt><trkpt lat="43.442325" lon="11.5441783"><ele>590.0</ele><time>2026-03-27T11:00:32.796Z</time></trkpt><trkpt lat="43.4423367" lon="11.544275"><ele>590.0</ele><time>2026-03-27T11:00:33.796Z</time></trkpt><trkpt lat="43.4423517" lon="11.544365"><ele>590.0</ele><time>2026-03-27T11:00:34.795Z</time></trkpt><trkpt lat="43.442385" lon="11.54446"><ele>590.0</ele><time>2026-03-27T11:00:35.796Z</time></trkpt><trkpt lat="43.44243" lon="11.5445517"><ele>590.0</ele><time>2026-03-27T11:00:36.796Z</time></trkpt><trkpt lat="43.4424817" lon="11.54464"><ele>590.0</ele><time>2026-03-27T11:00:37.796Z</time></trkpt><trkpt lat="43.44253" lon="11.5447367"><ele>590.0</ele><time>2026-03-27T11:00:38.795Z</time></trkpt><trkpt lat="43.442585" lon="11.54485"><ele>592.2</ele><time>2026-03-27T11:00:39.797Z</time></trkpt><trkpt lat="43.4426467" lon="11.5449767"><ele>594.4</ele><time>2026-03-27T11:00:40.796Z</time></trkpt><trkpt lat="43.4426983" lon="11.5451067"><ele>596.6</ele><time>2026-03-27T11:00:41.795Z</time></trkpt><trkpt lat="43.4427433" lon="11.5452367"><ele>598.8</ele><time>2026-03-27T11:00:42.797Z</time></trkpt><trkpt lat="43.44278" lon="11.5453583"><ele>601.0</ele><time>2026-03-27T11:00:43.795Z</time></trkpt><trkpt lat="43.44282" lon="11.5454767"><ele>602.6666666666667</ele><time>2026-03-27T11:00:44.797Z</time></trkpt><trkpt lat="43.4428533" lon="11.5455983"><ele>604.3333333333334</ele><time>2026-03-27T11:00:45.795Z</time></trkpt><trkpt lat="43.4428817" lon="11.5457217"><ele>606.0</ele><time>2026-03-27T11:00:46.794Z</time></trkpt><trkpt lat="43.4428933" lon="11.5458433"><ele>607.6666666666666</ele><time>2026-03-27T11:00:47.796Z</time></trkpt><trkpt lat="43.4428867" lon="11.5459583"><ele>609.3333333333333</ele><time>2026-03-27T11:00:48.797Z</time></trkpt><trkpt lat="43.4428633" lon="11.5460633"><ele>611.0</ele><time>2026-03-27T11:00:49.797Z</time></trkpt><trkpt lat="43.4428233" lon="11.5461567"><ele>609.5714285714287</ele><time>2026-03-27T11:00:50.798Z</time></trkpt><trkpt lat="43.4427633" lon="11.5462367"><ele>608.1428571428571</ele><time>2026-03-27T11:00:51.796Z</time></trkpt><trkpt lat="43.4426967" lon="11.5462933"><ele>606.7142857142858</ele><time>2026-03-27T11:00:52.794Z</time></trkpt><trkpt lat="43.442635" lon="11.5463267"><ele>605.2857142857143</ele><time>2026-03-27T11:00:53.796Z</time></trkpt><trkpt lat="43.4425733" lon="11.5463583"><ele>603.8571428571429</ele><time>2026-03-27T11:00:54.794Z</time></trkpt><trkpt lat="43.4425133" lon="11.54639"><ele>602.4285714285714</ele><time>2026-03-27T11:00:55.795Z</time></trkpt><trkpt lat="43.4424433" lon="11.5464433"><ele>601.0</ele><time>2026-03-27T11:00:56.797Z</time></trkpt><trkpt lat="43.4423617" lon="11.546525"><ele>601.0</ele><time>2026-03-27T11:00:57.799Z</time></trkpt><trkpt lat="43.442285" lon="11.5466183"><ele>601.0</ele><time>2026-03-27T11:00:58.795Z</time></trkpt><trkpt lat="43.4422317" lon="11.5467167"><ele>601.0</ele><time>2026-03-27T11:00:59.796Z</time></trkpt><trkpt lat="43.442185" lon="11.5468033"><ele>601.0</ele><time>2026-03-27T11:01:00.795Z</time></trkpt><trkpt lat="43.4421417" lon="11.54689"><ele>601.0</ele><time>2026-03-27T11:01:01.796Z</time></trkpt><trkpt lat="43.442125" lon="11.546995"><ele>601.0</ele><time>2026-03-27T11:01:02.797Z</time></trkpt><trkpt lat="43.4421233" lon="11.547115"><ele>599.5</ele><time>2026-03-27T11:01:03.795Z</time></trkpt><trkpt lat="43.4421283" lon="11.547235"><ele>598.0</ele><time>2026-03-27T11:01:04.794Z</time></trkpt><trkpt lat="43.44213" lon="11.5473483"><ele>596.5</ele><time>2026-03-27T11:01:05.797Z</time></trkpt><trkpt lat="43.4421433" lon="11.5474567"><ele>595.0</ele><time>2026-03-27T11:01:06.796Z</time></trkpt><trkpt lat="43.442175" lon="11.5475583"><ele>593.5</ele><time>2026-03-27T11:01:07.795Z</time></trkpt><trkpt lat="43.4422133" lon="11.5476683"><ele>592.0</ele><time>2026-03-27T11:01:08.796Z</time></trkpt><trkpt lat="43.44225" lon="11.5477967"><ele>592.0</ele><time>2026-03-27T11:01:09.795Z</time></trkpt><trkpt lat="43.4422783" lon="11.5479383"><ele>592.0</ele><time>2026-03-27T11:01:10.795Z</time></trkpt><trkpt lat="43.4423" lon="11.54809"><ele>592.0</ele><time>2026-03-27T11:01:11.797Z</time></trkpt><trkpt lat="43.442315" lon="11.5482517"><ele>592.0</ele><time>2026-03-27T11:01:12.793Z</time></trkpt><trkpt lat="43.442315" lon="11.5484167"><ele>592.0</ele><time>2026-03-27T11:01:13.795Z</time></trkpt><trkpt lat="43.4423117" lon="11.5485833"><ele>592.0</ele><time>2026-03-27T11:01:14.796Z</time></trkpt><trkpt lat="43.4423133" lon="11.54875"><ele>592.0</ele><time>2026-03-27T11:01:15.795Z</time></trkpt><trkpt lat="43.442315" lon="11.548925"><ele>592.0</ele><time>2026-03-27T11:01:16.794Z</time></trkpt><trkpt lat="43.4423133" lon="11.549105"><ele>592.0</ele><time>2026-03-27T11:01:17.796Z</time></trkpt><trkpt lat="43.4423133" lon="11.54928"><ele>592.0</ele><time>2026-03-27T11:01:18.797Z</time></trkpt><trkpt lat="43.44231" lon="11.54943"><ele>592.0</ele><time>2026-03-27T11:01:19.796Z</time></trkpt><trkpt lat="43.4422967" lon="11.5495667"><ele>592.0</ele><time>2026-03-27T11:01:20.797Z</time></trkpt><trkpt lat="43.4422683" lon="11.5496967"><ele>592.0</ele><time>2026-03-27T11:01:21.796Z</time></trkpt><trkpt lat="43.4422283" lon="11.54982"><ele>592.0</ele><time>2026-03-27T11:01:22.796Z</time></trkpt><trkpt lat="43.4421867" lon="11.5499283"><ele>592.0</ele><time>2026-03-27T11:01:23.797Z</time></trkpt><trkpt lat="43.4421517" lon="11.5500183"><ele>592.0</ele><time>2026-03-27T11:01:24.795Z</time></trkpt><trkpt lat="43.44213" lon="11.5501767"><ele>592.0</ele><time>2026-03-27T11:01:26.796Z</time></trkpt><trkpt lat="43.44217" lon="11.5502817"><ele>592.0</ele><time>2026-03-27T11:01:27.795Z</time></trkpt><trkpt lat="43.44224" lon="11.55043"><ele>591.0</ele><time>2026-03-27T11:01:28.796Z</time></trkpt><trkpt lat="43.44231" lon="11.5506033"><ele>590.0</ele><time>2026-03-27T11:01:29.796Z</time></trkpt><trkpt lat="43.4423683" lon="11.5507717"><ele>589.0</ele><time>2026-03-27T11:01:30.797Z</time></trkpt><trkpt lat="43.4424167" lon="11.5509117"><ele>588.0</ele><time>2026-03-27T11:01:31.796Z</time></trkpt><trkpt lat="43.4424817" lon="11.5510183"><ele>588.0</ele><time>2026-03-27T11:01:32.797Z</time></trkpt><trkpt lat="43.4425567" lon="11.5511067"><ele>588.0</ele><time>2026-03-27T11:01:33.795Z</time></trkpt><trkpt lat="43.4426333" lon="11.5511883"><ele>588.0</ele><time>2026-03-27T11:01:34.794Z</time></trkpt><trkpt lat="43.442705" lon="11.55127"><ele>588.0</ele><time>2026-03-27T11:01:35.798Z</time></trkpt><trkpt lat="43.4427617" lon="11.55136"><ele>588.0</ele><time>2026-03-27T11:01:36.795Z</time></trkpt><trkpt lat="43.4428133" lon="11.5514683"><ele>589.0</ele><time>2026-03-27T11:01:37.796Z</time></trkpt><trkpt lat="43.4428617" lon="11.5515933"><ele>590.0</ele><time>2026-03-27T11:01:38.797Z</time></trkpt><trkpt lat="43.44292" lon="11.5517167"><ele>591.0</ele><time>2026-03-27T11:01:39.794Z</time></trkpt><trkpt lat="43.442995" lon="11.55183"><ele>592.0</ele><time>2026-03-27T11:01:40.794Z</time></trkpt><trkpt lat="43.4430667" lon="11.5519317"><ele>593.0</ele><time>2026-03-27T11:01:41.795Z</time></trkpt><trkpt lat="43.443125" lon="11.55204"><ele>593.0</ele><time>2026-03-27T11:01:42.796Z</time></trkpt><trkpt lat="43.4431783" lon="11.5521783"><ele>593.0</ele><time>2026-03-27T11:01:43.796Z</time></trkpt><trkpt lat="43.443235" lon="11.5523267"><ele>593.0</ele><time>2026-03-27T11:01:44.797Z</time></trkpt><trkpt lat="43.4432917" lon="11.55247"><ele>593.0</ele><time>2026-03-27T11:01:45.796Z</time></trkpt><trkpt lat="43.443345" lon="11.5526183"><ele>593.0</ele><time>2026-03-27T11:01:46.796Z</time></trkpt><trkpt lat="43.4433967" lon="11.5527717"><ele>593.0</ele><time>2026-03-27T11:01:47.796Z</time></trkpt><trkpt lat="43.443455" lon="11.5529333"><ele>593.0</ele><time>2026-03-27T11:01:48.796Z</time></trkpt><trkpt lat="43.4435183" lon="11.553095"><ele>593.0</ele><time>2026-03-27T11:01:49.796Z</time></trkpt><trkpt lat="43.4435767" lon="11.553245"><ele>596.8</ele><time>2026-03-27T11:01:50.797Z</time></trkpt><trkpt lat="43.4436167" lon="11.5533833"><ele>600.5999999999999</ele><time>2026-03-27T11:01:51.796Z</time></trkpt><trkpt lat="43.4436433" lon="11.5535167"><ele>604.4000000000001</ele><time>2026-03-27T11:01:52.796Z</time></trkpt><trkpt lat="43.4436683" lon="11.5536433"><ele>608.2</ele><time>2026-03-27T11:01:53.797Z</time></trkpt><trkpt lat="43.4436967" lon="11.5537567"><ele>612.0</ele><time>2026-03-27T11:01:54.797Z</time></trkpt><trkpt lat="43.44373" lon="11.55386"><ele>614.5</ele><time>2026-03-27T11:01:55.795Z</time></trkpt><trkpt lat="43.44377" lon="11.5539783"><ele>617.0</ele><time>2026-03-27T11:01:56.797Z</time></trkpt><trkpt lat="43.4438133" lon="11.5541283"><ele>619.5</ele><time>2026-03-27T11:01:57.795Z</time></trkpt><trkpt lat="43.4438683" lon="11.5542967"><ele>622.0</ele><time>2026-03-27T11:01:58.795Z</time></trkpt><trkpt lat="43.4439433" lon="11.5544867"><ele>614.6666666666667</ele><time>2026-03-27T11:01:59.796Z</time></trkpt><trkpt lat="43.4440283" lon="11.5546767"><ele>607.3333333333334</ele><time>2026-03-27T11:02:00.796Z</time></trkpt><trkpt lat="43.4441117" lon="11.5548533"><ele>600.0</ele><time>2026-03-27T11:02:01.797Z</time></trkpt><trkpt lat="43.44419" lon="11.5550133"><ele>600.0</ele><time>2026-03-27T11:02:02.797Z</time></trkpt><trkpt lat="43.44426" lon="11.5551733"><ele>600.0</ele><time>2026-03-27T11:02:03.796Z</time></trkpt><trkpt lat="43.4443217" lon="11.555325"><ele>600.0</ele><time>2026-03-27T11:02:04.797Z</time></trkpt><trkpt lat="43.4443883" lon="11.5554467"><ele>600.0</ele><time>2026-03-27T11:02:05.796Z</time></trkpt><trkpt lat="43.4444633" lon="11.5555533"><ele>602.0</ele><time>2026-03-27T11:02:06.796Z</time></trkpt><trkpt lat="43.4445217" lon="11.5556717"><ele>604.0</ele><time>2026-03-27T11:02:07.796Z</time></trkpt><trkpt lat="43.4445567" lon="11.5558017"><ele>606.0</ele><time>2026-03-27T11:02:08.803Z</time></trkpt><trkpt lat="43.4445783" lon="11.5559267"><ele>608.0</ele><time>2026-03-27T11:02:09.795Z</time></trkpt><trkpt lat="43.4445767" lon="11.556075"><ele>610.0</ele><time>2026-03-27T11:02:10.796Z</time></trkpt><trkpt lat="43.4445633" lon="11.55623"><ele>610.6</ele><time>2026-03-27T11:02:11.797Z</time></trkpt><trkpt lat="43.4445433" lon="11.55638"><ele>611.2</ele><time>2026-03-27T11:02:12.795Z</time></trkpt><trkpt lat="43.4445117" lon="11.5565317"><ele>611.8</ele><time>2026-03-27T11:02:13.796Z</time></trkpt><trkpt lat="43.44447" lon="11.55667"><ele>612.4</ele><time>2026-03-27T11:02:14.797Z</time></trkpt><trkpt lat="43.444415" lon="11.556795"><ele>613.0</ele><time>2026-03-27T11:02:15.796Z</time></trkpt><trkpt lat="43.4443417" lon="11.5568983"><ele>613.0</ele><time>2026-03-27T11:02:16.794Z</time></trkpt><trkpt lat="43.4442567" lon="11.5569733"><ele>613.0</ele><time>2026-03-27T11:02:17.797Z</time></trkpt><trkpt lat="43.4441767" lon="11.557035"><ele>613.0</ele><time>2026-03-27T11:02:18.794Z</time></trkpt><trkpt lat="43.4440933" lon="11.5570867"><ele>613.0</ele><time>2026-03-27T11:02:19.796Z</time></trkpt><trkpt lat="43.443995" lon="11.5571367"><ele>613.0</ele><time>2026-03-27T11:02:20.803Z</time></trkpt><trkpt lat="43.443885" lon="11.5571867"><ele>611.1999999999999</ele><time>2026-03-27T11:02:21.796Z</time></trkpt><trkpt lat="43.4437783" lon="11.5572333"><ele>609.4</ele><time>2026-03-27T11:02:22.795Z</time></trkpt><trkpt lat="43.4436783" lon="11.5572867"><ele>607.5999999999999</ele><time>2026-03-27T11:02:23.794Z</time></trkpt><trkpt lat="43.4435817" lon="11.55735"><ele>605.8</ele><time>2026-03-27T11:02:24.796Z</time></trkpt><trkpt lat="43.44349" lon="11.55742"><ele>604.0</ele><time>2026-03-27T11:02:25.796Z</time></trkpt><trkpt lat="43.4434033" lon="11.5575167"><ele>604.0</ele><time>2026-03-27T11:02:26.796Z</time></trkpt><trkpt lat="43.4433383" lon="11.5576233"><ele>604.0</ele><time>2026-03-27T11:02:27.795Z</time></trkpt><trkpt lat="43.4433017" lon="11.5577333"><ele>604.0</ele><time>2026-03-27T11:02:28.795Z</time></trkpt><trkpt lat="43.44328" lon="11.55784"><ele>604.0</ele><time>2026-03-27T11:02:29.796Z</time></trkpt><trkpt lat="43.4432817" lon="11.5579483"><ele>604.0</ele><time>2026-03-27T11:02:30.796Z</time></trkpt><trkpt lat="43.44329" lon="11.558045"><ele>604.0</ele><time>2026-03-27T11:02:31.794Z</time></trkpt><trkpt lat="43.443325" lon="11.5581783"><ele>603.4</ele><time>2026-03-27T11:02:33.796Z</time></trkpt><trkpt lat="43.4432183" lon="11.5582467"><ele>602.8</ele><time>2026-03-27T11:02:36.793Z</time></trkpt><trkpt lat="43.44313" lon="11.5582533"><ele>602.2</ele><time>2026-03-27T11:02:37.796Z</time></trkpt><trkpt lat="43.4430283" lon="11.55827"><ele>601.6</ele><time>2026-03-27T11:02:38.796Z</time></trkpt><trkpt lat="43.44292" lon="11.5583133"><ele>601.0</ele><time>2026-03-27T11:02:39.796Z</time></trkpt><trkpt lat="43.442815" lon="11.5583633"><ele>599.0</ele><time>2026-03-27T11:02:40.795Z</time></trkpt><trkpt lat="43.44271" lon="11.5584133"><ele>597.0</ele><time>2026-03-27T11:02:41.795Z</time></trkpt><trkpt lat="43.442605" lon="11.558475"><ele>595.0</ele><time>2026-03-27T11:02:42.795Z</time></trkpt><trkpt lat="43.4424967" lon="11.5585433"><ele>593.0</ele><time>2026-03-27T11:02:43.795Z</time></trkpt><trkpt lat="43.4423883" lon="11.5586183"><ele>593.0</ele><time>2026-03-27T11:02:44.796Z</time></trkpt><trkpt lat="43.4422617" lon="11.5586917"><ele>593.0</ele><time>2026-03-27T11:02:45.796Z</time></trkpt><trkpt lat="43.4421317" lon="11.55876"><ele>593.0</ele><time>2026-03-27T11:02:46.795Z</time></trkpt><trkpt lat="43.4419967" lon="11.55882"><ele>593.0</ele><time>2026-03-27T11:02:47.795Z</time></trkpt><trkpt lat="43.44186" lon="11.5588817"><ele>593.6</ele><time>2026-03-27T11:02:48.795Z</time></trkpt><trkpt lat="43.4417367" lon="11.5589433"><ele>594.1999999999999</ele><time>2026-03-27T11:02:49.797Z</time></trkpt><trkpt lat="43.4416367" lon="11.559005"><ele>594.8</ele><time>2026-03-27T11:02:50.797Z</time></trkpt><trkpt lat="43.4415533" lon="11.5590667"><ele>595.4</ele><time>2026-03-27T11:02:51.796Z</time></trkpt><trkpt lat="43.4414767" lon="11.5591317"><ele>596.0</ele><time>2026-03-27T11:02:52.794Z</time></trkpt><trkpt lat="43.4414067" lon="11.559225"><ele>596.0</ele><time>2026-03-27T11:02:53.796Z</time></trkpt><trkpt lat="43.44134" lon="11.559345"><ele>596.0</ele><time>2026-03-27T11:02:54.796Z</time></trkpt><trkpt lat="43.4412783" lon="11.559505"><ele>596.0</ele><time>2026-03-27T11:02:55.795Z</time></trkpt><trkpt lat="43.4412183" lon="11.5596683"><ele>596.0</ele><time>2026-03-27T11:02:56.796Z</time></trkpt><trkpt lat="43.441165" lon="11.5598167"><ele>595.25</ele><time>2026-03-27T11:02:57.795Z</time></trkpt><trkpt lat="43.4411133" lon="11.5599633"><ele>594.5</ele><time>2026-03-27T11:02:58.795Z</time></trkpt><trkpt lat="43.4410617" lon="11.5601183"><ele>593.75</ele><time>2026-03-27T11:02:59.796Z</time></trkpt><trkpt lat="43.44102" lon="11.5602733"><ele>593.0</ele><time>2026-03-27T11:03:00.796Z</time></trkpt><trkpt lat="43.4409867" lon="11.5604017"><ele>593.0</ele><time>2026-03-27T11:03:01.794Z</time></trkpt><trkpt lat="43.4409733" lon="11.560545"><ele>593.0</ele><time>2026-03-27T11:03:02.797Z</time></trkpt><trkpt lat="43.44097" lon="11.5606833"><ele>593.0</ele><time>2026-03-27T11:03:03.796Z</time></trkpt><trkpt lat="43.44096" lon="11.5608033"><ele>593.0</ele><time>2026-03-27T11:03:04.796Z</time></trkpt><trkpt lat="43.44095" lon="11.5609133"><ele>593.0</ele><time>2026-03-27T11:03:05.796Z</time></trkpt><trkpt lat="43.4409167" lon="11.561"><ele>593.0</ele><time>2026-03-27T11:03:06.796Z</time></trkpt><trkpt lat="43.440855" lon="11.56106"><ele>593.0</ele><time>2026-03-27T11:03:07.796Z</time></trkpt><trkpt lat="43.44077" lon="11.561085"><ele>593.0</ele><time>2026-03-27T11:03:08.797Z</time></trkpt><trkpt lat="43.440675" lon="11.5610917"><ele>593.0</ele><time>2026-03-27T11:03:09.795Z</time></trkpt><trkpt lat="43.440585" lon="11.5610733"><ele>593.0</ele><time>2026-03-27T11:03:10.795Z</time></trkpt><trkpt lat="43.4404933" lon="11.561025"><ele>593.0</ele><time>2026-03-27T11:03:11.795Z</time></trkpt><trkpt lat="43.4404" lon="11.5609417"><ele>594.6</ele><time>2026-03-27T11:03:12.795Z</time></trkpt><trkpt lat="43.440315" lon="11.5608333"><ele>596.1999999999999</ele><time>2026-03-27T11:03:13.798Z</time></trkpt><trkpt lat="43.4402367" lon="11.5607133"><ele>597.8</ele><time>2026-03-27T11:03:14.796Z</time></trkpt><trkpt lat="43.4401667" lon="11.560595"><ele>599.4</ele><time>2026-03-27T11:03:15.795Z</time></trkpt><trkpt lat="43.4401033" lon="11.560485"><ele>601.0</ele><time>2026-03-27T11:03:16.796Z</time></trkpt><trkpt lat="43.4400483" lon="11.5603883"><ele>600.0</ele><time>2026-03-27T11:03:17.795Z</time></trkpt><trkpt lat="43.4399783" lon="11.5603083"><ele>599.0</ele><time>2026-03-27T11:03:18.797Z</time></trkpt><trkpt lat="43.4398917" lon="11.5602483"><ele>598.0</ele><time>2026-03-27T11:03:19.796Z</time></trkpt><trkpt lat="43.4398083" lon="11.56018"><ele>597.0</ele><time>2026-03-27T11:03:20.797Z</time></trkpt><trkpt lat="43.4397333" lon="11.5601017"><ele>596.0</ele><time>2026-03-27T11:03:21.796Z</time></trkpt><trkpt lat="43.43967" lon="11.55999"><ele>599.0</ele><time>2026-03-27T11:03:22.794Z</time></trkpt><trkpt lat="43.4396183" lon="11.5598633"><ele>602.0</ele><time>2026-03-27T11:03:23.795Z</time></trkpt><trkpt lat="43.4395817" lon="11.5597367"><ele>605.0</ele><time>2026-03-27T11:03:24.796Z</time></trkpt><trkpt lat="43.4395483" lon="11.5596533"><ele>608.0</ele><time>2026-03-27T11:03:25.796Z</time></trkpt><trkpt lat="43.43951" lon="11.55957"><ele>611.0</ele><time>2026-03-27T11:03:26.796Z</time></trkpt><trkpt lat="43.4394633" lon="11.5594867"><ele>614.0</ele><time>2026-03-27T11:03:27.797Z</time></trkpt><trkpt lat="43.4394167" lon="11.5593967"><ele>614.1666666666666</ele><time>2026-03-27T11:03:28.794Z</time></trkpt><trkpt lat="43.43935" lon="11.5593283"><ele>614.3333333333333</ele><time>2026-03-27T11:03:29.797Z</time></trkpt><trkpt lat="43.4392817" lon="11.5592733"><ele>614.5</ele><time>2026-03-27T11:03:30.797Z</time></trkpt><trkpt lat="43.4392317" lon="11.55921"><ele>614.6666666666666</ele><time>2026-03-27T11:03:31.797Z</time></trkpt><trkpt lat="43.4391283" lon="11.5591033"><ele>614.8333333333334</ele><time>2026-03-27T11:03:33.796Z</time></trkpt><trkpt lat="43.439065" lon="11.5590783"><ele>615.0</ele><time>2026-03-27T11:03:34.796Z</time></trkpt><trkpt lat="43.4389633" lon="11.55909"><ele>615.0</ele><time>2026-03-27T11:03:36.797Z</time></trkpt><trkpt lat="43.4388483" lon="11.5591467"><ele>615.0</ele><time>2026-03-27T11:03:38.797Z</time></trkpt><trkpt lat="43.4387817" lon="11.559155"><ele>615.0</ele><time>2026-03-27T11:03:39.796Z</time></trkpt><trkpt lat="43.4387067" lon="11.5591367"><ele>615.0</ele><time>2026-03-27T11:03:40.795Z</time></trkpt><trkpt lat="43.43863" lon="11.5590967"><ele>615.0</ele><time>2026-03-27T11:03:41.796Z</time></trkpt><trkpt lat="43.43856" lon="11.5590533"><ele>615.0</ele><time>2026-03-27T11:03:42.794Z</time></trkpt><trkpt lat="43.4384833" lon="11.55902"><ele>613.8333333333334</ele><time>2026-03-27T11:03:43.795Z</time></trkpt><trkpt lat="43.4383967" lon="11.5589983"><ele>612.6666666666666</ele><time>2026-03-27T11:03:44.797Z</time></trkpt><trkpt lat="43.438315" lon="11.5589733"><ele>611.5</ele><time>2026-03-27T11:03:45.795Z</time></trkpt><trkpt lat="43.4382367" lon="11.5589417"><ele>610.3333333333333</ele><time>2026-03-27T11:03:46.796Z</time></trkpt><trkpt lat="43.4381633" lon="11.5588967"><ele>609.1666666666666</ele><time>2026-03-27T11:03:47.795Z</time></trkpt><trkpt lat="43.438095" lon="11.5588433"><ele>608.0</ele><time>2026-03-27T11:03:48.797Z</time></trkpt><trkpt lat="43.4380133" lon="11.5588017"><ele>607.8333333333333</ele><time>2026-03-27T11:03:49.795Z</time></trkpt><trkpt lat="43.437925" lon="11.5587633"><ele>607.6666666666666</ele><time>2026-03-27T11:03:50.796Z</time></trkpt><trkpt lat="43.4378483" lon="11.55873"><ele>607.5</ele><time>2026-03-27T11:03:51.797Z</time></trkpt><trkpt lat="43.43778" lon="11.558695"><ele>607.3333333333334</ele><time>2026-03-27T11:03:52.795Z</time></trkpt><trkpt lat="43.43772" lon="11.5586617"><ele>607.1666666666667</ele><time>2026-03-27T11:03:53.796Z</time></trkpt><trkpt lat="43.4376483" lon="11.5585783"><ele>607.0</ele><time>2026-03-27T11:03:55.796Z</time></trkpt><trkpt lat="43.4376017" lon="11.5585067"><ele>607.0</ele><time>2026-03-27T11:03:57.795Z</time></trkpt><trkpt lat="43.4375233" lon="11.5585383"><ele>607.0</ele><time>2026-03-27T11:04:00.797Z</time></trkpt><trkpt lat="43.43745" lon="11.5586833"><ele>607.0</ele><time>2026-03-27T11:04:02.797Z</time></trkpt><trkpt lat="43.4374117" lon="11.5587783"><ele>607.0</ele><time>2026-03-27T11:04:03.795Z</time></trkpt><trkpt lat="43.4373533" lon="11.5588583"><ele>607.0</ele><time>2026-03-27T11:04:04.796Z</time></trkpt><trkpt lat="43.43731" lon="11.5589283"><ele>607.0</ele><time>2026-03-27T11:04:05.794Z</time></trkpt><trkpt lat="43.4372583" lon="11.558995"><ele>606.2</ele><time>2026-03-27T11:04:06.795Z</time></trkpt><trkpt lat="43.4371967" lon="11.5590483"><ele>605.4000000000001</ele><time>2026-03-27T11:04:07.796Z</time></trkpt><trkpt lat="43.437085" lon="11.55913"><ele>604.5999999999999</ele><time>2026-03-27T11:04:09.796Z</time></trkpt><trkpt lat="43.437015" lon="11.5591733"><ele>603.8</ele><time>2026-03-27T11:04:10.795Z</time></trkpt><trkpt lat="43.4369083" lon="11.559265"><ele>603.0</ele><time>2026-03-27T11:04:12.797Z</time></trkpt><trkpt lat="43.4368517" lon="11.55932"><ele>603.0</ele><time>2026-03-27T11:04:13.797Z</time></trkpt><trkpt lat="43.4367867" lon="11.5593617"><ele>603.0</ele><time>2026-03-27T11:04:14.797Z</time></trkpt><trkpt lat="43.43672" lon="11.5593933"><ele>603.0</ele><time>2026-03-27T11:04:15.794Z</time></trkpt><trkpt lat="43.4366283" lon="11.55941"><ele>603.0</ele><time>2026-03-27T11:04:16.795Z</time></trkpt><trkpt lat="43.4365383" lon="11.5594167"><ele>603.0</ele><time>2026-03-27T11:04:17.795Z</time></trkpt><trkpt lat="43.43645" lon="11.5594067"><ele>603.0</ele><time>2026-03-27T11:04:18.797Z</time></trkpt><trkpt lat="43.4363717" lon="11.55937"><ele>603.0</ele><time>2026-03-27T11:04:19.796Z</time></trkpt><trkpt lat="43.4363033" lon="11.559325"><ele>603.0</ele><time>2026-03-27T11:04:20.797Z</time></trkpt><trkpt lat="43.4362367" lon="11.5592633"><ele>603.0</ele><time>2026-03-27T11:04:21.796Z</time></trkpt><trkpt lat="43.4361617" lon="11.5591983"><ele>603.0</ele><time>2026-03-27T11:04:22.795Z</time></trkpt><trkpt lat="43.4360833" lon="11.559145"><ele>603.0</ele><time>2026-03-27T11:04:23.795Z</time></trkpt><trkpt lat="43.4360167" lon="11.55908"><ele>603.0</ele><time>2026-03-27T11:04:24.796Z</time></trkpt><trkpt lat="43.4359567" lon="11.5590167"><ele>602.8</ele><time>2026-03-27T11:04:25.795Z</time></trkpt><trkpt lat="43.43586" lon="11.5589633"><ele>602.5999999999999</ele><time>2026-03-27T11:04:27.797Z</time></trkpt><trkpt lat="43.435785" lon="11.559015"><ele>602.4000000000001</ele><time>2026-03-27T11:04:29.795Z</time></trkpt><trkpt lat="43.435775" lon="11.5591617"><ele>602.2</ele><time>2026-03-27T11:04:31.796Z</time></trkpt><trkpt lat="43.4358033" lon="11.5592817"><ele>602.0</ele><time>2026-03-27T11:04:32.797Z</time></trkpt><trkpt lat="43.4358133" lon="11.5594"><ele>602.0</ele><time>2026-03-27T11:04:33.795Z</time></trkpt><trkpt lat="43.4358183" lon="11.5595267"><ele>602.0</ele><time>2026-03-27T11:04:34.795Z</time></trkpt><trkpt lat="43.435815" lon="11.5596617"><ele>602.0</ele><time>2026-03-27T11:04:35.796Z</time></trkpt><trkpt lat="43.4358" lon="11.55978"><ele>602.0</ele><time>2026-03-27T11:04:36.795Z</time></trkpt><trkpt lat="43.4357767" lon="11.5598733"><ele>602.0</ele><time>2026-03-27T11:04:37.796Z</time></trkpt><trkpt lat="43.4357167" lon="11.559955"><ele>602.0</ele><time>2026-03-27T11:04:39.796Z</time></trkpt><trkpt lat="43.435635" lon="11.5599933"><ele>601.1666666666666</ele><time>2026-03-27T11:04:59.795Z</time></trkpt><trkpt lat="43.4355733" lon="11.56006"><ele>600.3333333333333</ele><time>2026-03-27T11:05:01.796Z</time></trkpt><trkpt lat="43.435545" lon="11.560145"><ele>599.5</ele><time>2026-03-27T11:05:02.797Z</time></trkpt><trkpt lat="43.4355217" lon="11.5602567"><ele>598.6666666666666</ele><time>2026-03-27T11:05:03.796Z</time></trkpt><trkpt lat="43.4355017" lon="11.5603767"><ele>597.8333333333334</ele><time>2026-03-27T11:05:04.796Z</time></trkpt><trkpt lat="43.43548" lon="11.560495"><ele>597.0</ele><time>2026-03-27T11:05:05.795Z</time></trkpt><trkpt lat="43.4354617" lon="11.5606067"><ele>598.6666666666666</ele><time>2026-03-27T11:05:06.797Z</time></trkpt><trkpt lat="43.4354417" lon="11.56072"><ele>600.3333333333334</ele><time>2026-03-27T11:05:07.795Z</time></trkpt><trkpt lat="43.435415" lon="11.560845"><ele>602.0</ele><time>2026-03-27T11:05:08.796Z</time></trkpt><trkpt lat="43.435385" lon="11.5609683"><ele>603.6666666666667</ele><time>2026-03-27T11:05:09.795Z</time></trkpt><trkpt lat="43.4353467" lon="11.5610733"><ele>605.3333333333334</ele><time>2026-03-27T11:05:10.795Z</time></trkpt><trkpt lat="43.435305" lon="11.56117"><ele>607.0</ele><time>2026-03-27T11:05:11.795Z</time></trkpt><trkpt lat="43.435245" lon="11.5612483"><ele>607.0</ele><time>2026-03-27T11:05:12.796Z</time></trkpt><trkpt lat="43.4351733" lon="11.5613217"><ele>607.0</ele><time>2026-03-27T11:05:13.795Z</time></trkpt><trkpt lat="43.4350967" lon="11.5613917"><ele>607.0</ele><time>2026-03-27T11:05:14.796Z</time></trkpt><trkpt lat="43.4350133" lon="11.5614667"><ele>607.0</ele><time>2026-03-27T11:05:15.796Z</time></trkpt><trkpt lat="43.434935" lon="11.5615183"><ele>607.0</ele><time>2026-03-27T11:05:16.795Z</time></trkpt><trkpt lat="43.4348683" lon="11.5615467"><ele>607.0</ele><time>2026-03-27T11:05:17.794Z</time></trkpt><trkpt lat="43.4347817" lon="11.5615683"><ele>607.0</ele><time>2026-03-27T11:05:18.795Z</time></trkpt><trkpt lat="43.434685" lon="11.5615817"><ele>607.0</ele><time>2026-03-27T11:05:19.796Z</time></trkpt><trkpt lat="43.4345983" lon="11.5615867"><ele>607.0</ele><time>2026-03-27T11:05:20.796Z</time></trkpt><trkpt lat="43.4345117" lon="11.5615917"><ele>607.0</ele><time>2026-03-27T11:05:21.796Z</time></trkpt><trkpt lat="43.4344267" lon="11.5615967"><ele>607.0</ele><time>2026-03-27T11:05:22.794Z</time></trkpt><trkpt lat="43.4343383" lon="11.5616067"><ele>607.0</ele><time>2026-03-27T11:05:23.795Z</time></trkpt><trkpt lat="43.4342533" lon="11.5616133"><ele>607.5</ele><time>2026-03-27T11:05:24.796Z</time></trkpt><trkpt lat="43.4341733" lon="11.56162"><ele>608.0</ele><time>2026-03-27T11:05:25.796Z</time></trkpt><trkpt lat="43.4341067" lon="11.5616183"><ele>608.5</ele><time>2026-03-27T11:05:26.796Z</time></trkpt><trkpt lat="43.43404" lon="11.5616233"><ele>609.0</ele><time>2026-03-27T11:05:27.794Z</time></trkpt><trkpt lat="43.4339267" lon="11.561665"><ele>609.5</ele><time>2026-03-27T11:05:29.794Z</time></trkpt><trkpt lat="43.43387" lon="11.5617117"><ele>610.0</ele><time>2026-03-27T11:05:30.795Z</time></trkpt><trkpt lat="43.4338133" lon="11.5617583"><ele>610.8</ele><time>2026-03-27T11:05:31.801Z</time></trkpt><trkpt lat="43.4337167" lon="11.5618733"><ele>611.6</ele><time>2026-03-27T11:05:33.795Z</time></trkpt><trkpt lat="43.433685" lon="11.56196"><ele>612.4</ele><time>2026-03-27T11:05:34.795Z</time></trkpt><trkpt lat="43.4336517" lon="11.5620617"><ele>613.2</ele><time>2026-03-27T11:05:35.795Z</time></trkpt><trkpt lat="43.4336283" lon="11.5621883"><ele>614.0</ele><time>2026-03-27T11:05:36.795Z</time></trkpt><trkpt lat="43.433615" lon="11.5623233"><ele>614.2</ele><time>2026-03-27T11:05:37.796Z</time></trkpt><trkpt lat="43.4336033" lon="11.5624633"><ele>614.4</ele><time>2026-03-27T11:05:38.796Z</time></trkpt><trkpt lat="43.4335833" lon="11.5626033"><ele>614.6</ele><time>2026-03-27T11:05:39.796Z</time></trkpt><trkpt lat="43.4335633" lon="11.5627567"><ele>614.8</ele><time>2026-03-27T11:05:40.796Z</time></trkpt><trkpt lat="43.4335467" lon="11.5629283"><ele>615.0</ele><time>2026-03-27T11:05:41.796Z</time></trkpt><trkpt lat="43.433535" lon="11.56309"><ele>615.1666666666666</ele><time>2026-03-27T11:05:42.795Z</time></trkpt><trkpt lat="43.433525" lon="11.5632167"><ele>615.3333333333334</ele><time>2026-03-27T11:05:43.794Z</time></trkpt><trkpt lat="43.4335283" lon="11.56333"><ele>615.5</ele><time>2026-03-27T11:05:44.797Z</time></trkpt><trkpt lat="43.4335667" lon="11.5634467"><ele>615.6666666666667</ele><time>2026-03-27T11:05:45.795Z</time></trkpt><trkpt lat="43.43361" lon="11.56356"><ele>615.8333333333334</ele><time>2026-03-27T11:05:46.796Z</time></trkpt><trkpt lat="43.43365" lon="11.5636683"><ele>616.0</ele><time>2026-03-27T11:05:47.795Z</time></trkpt><trkpt lat="43.4336867" lon="11.5637733"><ele>616.6</ele><time>2026-03-27T11:05:48.796Z</time></trkpt><trkpt lat="43.4337183" lon="11.5638933"><ele>617.2</ele><time>2026-03-27T11:05:49.796Z</time></trkpt><trkpt lat="43.433745" lon="11.564025"><ele>617.8</ele><time>2026-03-27T11:05:50.796Z</time></trkpt><trkpt lat="43.4337667" lon="11.56415"><ele>618.4</ele><time>2026-03-27T11:05:51.795Z</time></trkpt><trkpt lat="43.4337867" lon="11.5642767"><ele>619.0</ele><time>2026-03-27T11:05:52.796Z</time></trkpt><trkpt lat="43.4338017" lon="11.5644033"><ele>617.8571428571429</ele><time>2026-03-27T11:05:53.794Z</time></trkpt><trkpt lat="43.4338133" lon="11.5645133"><ele>616.7142857142858</ele><time>2026-03-27T11:05:54.794Z</time></trkpt><trkpt lat="43.433825" lon="11.564605"><ele>615.5714285714287</ele><time>2026-03-27T11:05:55.796Z</time></trkpt><trkpt lat="43.4338183" lon="11.5646983"><ele>614.4285714285714</ele><time>2026-03-27T11:05:56.797Z</time></trkpt><trkpt lat="43.4337933" lon="11.56478"><ele>613.2857142857143</ele><time>2026-03-27T11:05:57.797Z</time></trkpt><trkpt lat="43.4337567" lon="11.5648717"><ele>612.1428571428572</ele><time>2026-03-27T11:05:58.796Z</time></trkpt><trkpt lat="43.4336983" lon="11.5649533"><ele>611.0</ele><time>2026-03-27T11:05:59.795Z</time></trkpt><trkpt lat="43.4336317" lon="11.5650267"><ele>611.0</ele><time>2026-03-27T11:06:00.795Z</time></trkpt><trkpt lat="43.43357" lon="11.5650967"><ele>611.0</ele><time>2026-03-27T11:06:01.796Z</time></trkpt><trkpt lat="43.433515" lon="11.5651617"><ele>611.0</ele><time>2026-03-27T11:06:02.797Z</time></trkpt><trkpt lat="43.4334667" lon="11.5652283"><ele>611.0</ele><time>2026-03-27T11:06:03.794Z</time></trkpt><trkpt lat="43.4334133" lon="11.56532"><ele>611.0</ele><time>2026-03-27T11:06:04.795Z</time></trkpt><trkpt lat="43.4333733" lon="11.565415"><ele>611.0</ele><time>2026-03-27T11:06:05.794Z</time></trkpt><trkpt lat="43.4333383" lon="11.5655167"><ele>607.0</ele><time>2026-03-27T11:06:06.795Z</time></trkpt><trkpt lat="43.4333017" lon="11.5656117"><ele>603.0</ele><time>2026-03-27T11:06:07.796Z</time></trkpt><trkpt lat="43.43327" lon="11.5657117"><ele>599.0</ele><time>2026-03-27T11:06:08.796Z</time></trkpt><trkpt lat="43.4332217" lon="11.5658233"><ele>595.0</ele><time>2026-03-27T11:06:09.796Z</time></trkpt><trkpt lat="43.4331833" lon="11.56595"><ele>591.0</ele><time>2026-03-27T11:06:10.796Z</time></trkpt><trkpt lat="43.4331367" lon="11.5660783"><ele>590.6</ele><time>2026-03-27T11:06:11.796Z</time></trkpt><trkpt lat="43.4330867" lon="11.5662067"><ele>590.2</ele><time>2026-03-27T11:06:12.797Z</time></trkpt><trkpt lat="43.433035" lon="11.5663283"><ele>589.8</ele><time>2026-03-27T11:06:13.794Z</time></trkpt><trkpt lat="43.4329683" lon="11.566435"><ele>589.4</ele><time>2026-03-27T11:06:14.796Z</time></trkpt><trkpt lat="43.4329117" lon="11.5665433"><ele>589.0</ele><time>2026-03-27T11:06:15.795Z</time></trkpt><trkpt lat="43.43287" lon="11.5666533"><ele>591.0</ele><time>2026-03-27T11:06:16.794Z</time></trkpt><trkpt lat="43.4328483" lon="11.56677"><ele>593.0</ele><time>2026-03-27T11:06:17.796Z</time></trkpt><trkpt lat="43.4328217" lon="11.5668867"><ele>595.0</ele><time>2026-03-27T11:06:18.795Z</time></trkpt><trkpt lat="43.4328083" lon="11.5669833"><ele>597.0</ele><time>2026-03-27T11:06:19.794Z</time></trkpt><trkpt lat="43.4327917" lon="11.5670817"><ele>599.0</ele><time>2026-03-27T11:06:20.797Z</time></trkpt><trkpt lat="43.4327717" lon="11.5672"><ele>601.0</ele><time>2026-03-27T11:06:21.795Z</time></trkpt><trkpt lat="43.4327567" lon="11.5673283"><ele>601.6</ele><time>2026-03-27T11:06:22.795Z</time></trkpt><trkpt lat="43.43274" lon="11.5674633"><ele>602.2</ele><time>2026-03-27T11:06:23.796Z</time></trkpt><trkpt lat="43.4327233" lon="11.567595"><ele>602.8</ele><time>2026-03-27T11:06:24.795Z</time></trkpt><trkpt lat="43.4327033" lon="11.56772"><ele>603.4</ele><time>2026-03-27T11:06:25.794Z</time></trkpt><trkpt lat="43.4326783" lon="11.56784"><ele>604.0</ele><time>2026-03-27T11:06:26.795Z</time></trkpt><trkpt lat="43.4326517" lon="11.567945"><ele>604.5</ele><time>2026-03-27T11:06:27.796Z</time></trkpt><trkpt lat="43.4326317" lon="11.56806"><ele>605.0</ele><time>2026-03-27T11:06:28.795Z</time></trkpt><trkpt lat="43.4326083" lon="11.5681633"><ele>605.5</ele><time>2026-03-27T11:06:29.796Z</time></trkpt><trkpt lat="43.4325883" lon="11.5682683"><ele>606.0</ele><time>2026-03-27T11:06:30.796Z</time></trkpt><trkpt lat="43.4325733" lon="11.5683917"><ele>606.5</ele><time>2026-03-27T11:06:31.797Z</time></trkpt><trkpt lat="43.43257" lon="11.5685117"><ele>607.0</ele><time>2026-03-27T11:06:32.797Z</time></trkpt><trkpt lat="43.4325817" lon="11.56861"><ele>606.2</ele><time>2026-03-27T11:06:33.795Z</time></trkpt><trkpt lat="43.432595" lon="11.56875"><ele>605.4000000000001</ele><time>2026-03-27T11:06:35.795Z</time></trkpt><trkpt lat="43.43261" lon="11.5689417"><ele>604.5999999999999</ele><time>2026-03-27T11:06:37.796Z</time></trkpt><trkpt lat="43.4326417" lon="11.56907"><ele>603.8</ele><time>2026-03-27T11:06:38.798Z</time></trkpt><trkpt lat="43.4326733" lon="11.5691783"><ele>603.0</ele><time>2026-03-27T11:06:39.794Z</time></trkpt><trkpt lat="43.4327017" lon="11.5692617"><ele>603.0</ele><time>2026-03-27T11:06:40.795Z</time></trkpt><trkpt lat="43.4327167" lon="11.5693967"><ele>603.0</ele><time>2026-03-27T11:06:42.796Z</time></trkpt><trkpt lat="43.4326617" lon="11.5695"><ele>603.0</ele><time>2026-03-27T11:06:44.796Z</time></trkpt><trkpt lat="43.4325417" lon="11.5695317"><ele>603.0</ele><time>2026-03-27T11:06:46.796Z</time></trkpt><trkpt lat="43.432455" lon="11.5695133"><ele>603.0</ele><time>2026-03-27T11:06:47.795Z</time></trkpt><trkpt lat="43.4323617" lon="11.56947"><ele>603.0</ele><time>2026-03-27T11:06:48.796Z</time></trkpt><trkpt lat="43.4322833" lon="11.5694267"><ele>603.0</ele><time>2026-03-27T11:06:49.795Z</time></trkpt><trkpt lat="43.4322083" lon="11.5693783"><ele>603.0</ele><time>2026-03-27T11:06:50.796Z</time></trkpt><trkpt lat="43.4321517" lon="11.56934"><ele>603.0</ele><time>2026-03-27T11:06:51.794Z</time></trkpt><trkpt lat="43.4320433" lon="11.5693267"><ele>603.0</ele><time>2026-03-27T11:06:53.794Z</time></trkpt><trkpt lat="43.4319767" lon="11.56935"><ele>603.0</ele><time>2026-03-27T11:06:54.796Z</time></trkpt><trkpt lat="43.4319133" lon="11.56937"><ele>605.4</ele><time>2026-03-27T11:06:55.795Z</time></trkpt><trkpt lat="43.43185" lon="11.5693617"><ele>607.8</ele><time>2026-03-27T11:06:56.795Z</time></trkpt><trkpt lat="43.4317533" lon="11.569285"><ele>610.2</ele><time>2026-03-27T11:06:57.794Z</time></trkpt><trkpt lat="43.431655" lon="11.5691917"><ele>612.6</ele><time>2026-03-27T11:06:58.791Z</time></trkpt><trkpt lat="43.4315433" lon="11.56911"><ele>615.0</ele><time>2026-03-27T11:06:59.795Z</time></trkpt><trkpt lat="43.431435" lon="11.5690317"><ele>615.0</ele><time>2026-03-27T11:07:00.795Z</time></trkpt><trkpt lat="43.43133" lon="11.5689583"><ele>615.0</ele><time>2026-03-27T11:07:01.792Z</time></trkpt><trkpt lat="43.4312367" lon="11.5689"><ele>615.0</ele><time>2026-03-27T11:07:02.795Z</time></trkpt><trkpt lat="43.4311483" lon="11.5688583"><ele>615.0</ele><time>2026-03-27T11:07:03.797Z</time></trkpt><trkpt lat="43.431055" lon="11.5688367"><ele>615.0</ele><time>2026-03-27T11:07:04.795Z</time></trkpt><trkpt lat="43.430965" lon="11.56884"><ele>614.3333333333334</ele><time>2026-03-27T11:07:05.794Z</time></trkpt><trkpt lat="43.430875" lon="11.568845"><ele>613.6666666666666</ele><time>2026-03-27T11:07:06.796Z</time></trkpt><trkpt lat="43.430785" lon="11.568835"><ele>613.0</ele><time>2026-03-27T11:07:07.796Z</time></trkpt><trkpt lat="43.4306967" lon="11.56881"><ele>612.3333333333333</ele><time>2026-03-27T11:07:08.795Z</time></trkpt><trkpt lat="43.4306217" lon="11.5687667"><ele>611.6666666666666</ele><time>2026-03-27T11:07:09.795Z</time></trkpt><trkpt lat="43.430535" lon="11.5687083"><ele>611.0</ele><time>2026-03-27T11:07:10.794Z</time></trkpt><trkpt lat="43.4304517" lon="11.568635"><ele>614.0</ele><time>2026-03-27T11:07:11.795Z</time></trkpt><trkpt lat="43.4303833" lon="11.5685583"><ele>617.0</ele><time>2026-03-27T11:07:12.793Z</time></trkpt><trkpt lat="43.4303183" lon="11.56847"><ele>620.0</ele><time>2026-03-27T11:07:13.793Z</time></trkpt><trkpt lat="43.4302617" lon="11.5683583"><ele>623.0</ele><time>2026-03-27T11:07:14.796Z</time></trkpt><trkpt lat="43.4301983" lon="11.5682233"><ele>626.0</ele><time>2026-03-27T11:07:15.794Z</time></trkpt><trkpt lat="43.4301233" lon="11.568075"><ele>626.0</ele><time>2026-03-27T11:07:16.794Z</time></trkpt><trkpt lat="43.4300583" lon="11.5679333"><ele>626.0</ele><time>2026-03-27T11:07:17.794Z</time></trkpt><trkpt lat="43.4299933" lon="11.5678"><ele>626.0</ele><time>2026-03-27T11:07:18.794Z</time></trkpt><trkpt lat="43.4299283" lon="11.5676683"><ele>626.0</ele><time>2026-03-27T11:07:19.795Z</time></trkpt><trkpt lat="43.4298733" lon="11.567545"><ele>628.0</ele><time>2026-03-27T11:07:20.796Z</time></trkpt><trkpt lat="43.4298283" lon="11.56743"><ele>630.0</ele><time>2026-03-27T11:07:21.794Z</time></trkpt><trkpt lat="43.4297817" lon="11.56732"><ele>632.0</ele><time>2026-03-27T11:07:22.793Z</time></trkpt><trkpt lat="43.429725" lon="11.5672217"><ele>634.0</ele><time>2026-03-27T11:07:23.793Z</time></trkpt><trkpt lat="43.429665" lon="11.5671333"><ele>636.0</ele><time>2026-03-27T11:07:24.796Z</time></trkpt><trkpt lat="43.4296067" lon="11.56705"><ele>632.0</ele><time>2026-03-27T11:07:25.793Z</time></trkpt><trkpt lat="43.4295683" lon="11.5669467"><ele>628.0</ele><time>2026-03-27T11:07:26.794Z</time></trkpt><trkpt lat="43.429555" lon="11.5668167"><ele>624.0</ele><time>2026-03-27T11:07:27.795Z</time></trkpt><trkpt lat="43.4295617" lon="11.5666867"><ele>620.0</ele><time>2026-03-27T11:07:28.795Z</time></trkpt><trkpt lat="43.42958" lon="11.56657"><ele>616.0</ele><time>2026-03-27T11:07:29.794Z</time></trkpt><trkpt lat="43.4295867" lon="11.56645"><ele>612.0</ele><time>2026-03-27T11:07:30.794Z</time></trkpt><trkpt lat="43.4295783" lon="11.5663217"><ele>613.4</ele><time>2026-03-27T11:07:31.794Z</time></trkpt><trkpt lat="43.4295217" lon="11.5661783"><ele>614.8000000000001</ele><time>2026-03-27T11:07:32.796Z</time></trkpt><trkpt lat="43.4294633" lon="11.5660367"><ele>616.2</ele><time>2026-03-27T11:07:33.795Z</time></trkpt><trkpt lat="43.4294117" lon="11.56592"><ele>617.6</ele><time>2026-03-27T11:07:34.795Z</time></trkpt><trkpt lat="43.4293667" lon="11.5658033"><ele>619.0</ele><time>2026-03-27T11:07:35.795Z</time></trkpt><trkpt lat="43.4293117" lon="11.565685"><ele>619.0</ele><time>2026-03-27T11:07:36.794Z</time></trkpt><trkpt lat="43.42925" lon="11.565565"><ele>619.0</ele><time>2026-03-27T11:07:37.796Z</time></trkpt><trkpt lat="43.42918" lon="11.56545"><ele>619.0</ele><time>2026-03-27T11:07:38.797Z</time></trkpt><trkpt lat="43.4291133" lon="11.56535"><ele>619.0</ele><time>2026-03-27T11:07:39.795Z</time></trkpt><trkpt lat="43.4290583" lon="11.5652683"><ele>619.0</ele><time>2026-03-27T11:07:40.795Z</time></trkpt><trkpt lat="43.4290117" lon="11.5652017"><ele>619.0</ele><time>2026-03-27T11:07:41.793Z</time></trkpt><trkpt lat="43.4289633" lon="11.5651033"><ele>619.0</ele><time>2026-03-27T11:07:43.794Z</time></trkpt><trkpt lat="43.4290467" lon="11.5650433"><ele>619.0</ele><time>2026-03-27T11:07:46.794Z</time></trkpt><trkpt lat="43.429125" lon="11.56506"><ele>619.0</ele><time>2026-03-27T11:07:47.795Z</time></trkpt><trkpt lat="43.4292233" lon="11.5651"><ele>619.0</ele><time>2026-03-27T11:07:48.795Z</time></trkpt><trkpt lat="43.4293217" lon="11.56515"><ele>619.0</ele><time>2026-03-27T11:07:49.794Z</time></trkpt><trkpt lat="43.4294217" lon="11.565205"><ele>619.0</ele><time>2026-03-27T11:07:50.797Z</time></trkpt><trkpt lat="43.4295217" lon="11.5652467"><ele>619.0</ele><time>2026-03-27T11:07:51.794Z</time></trkpt><trkpt lat="43.4296317" lon="11.5652783"><ele>619.0</ele><time>2026-03-27T11:07:52.794Z</time></trkpt><trkpt lat="43.429735" lon="11.565295"><ele>619.0</ele><time>2026-03-27T11:07:53.794Z</time></trkpt><trkpt lat="43.4298267" lon="11.5653017"><ele>619.1666666666667</ele><time>2026-03-27T11:07:54.795Z</time></trkpt><trkpt lat="43.429925" lon="11.5652883"><ele>619.3333333333334</ele><time>2026-03-27T11:07:55.796Z</time></trkpt><trkpt lat="43.429995" lon="11.565255"><ele>619.5</ele><time>2026-03-27T11:07:56.796Z</time></trkpt><trkpt lat="43.4300617" lon="11.5651933"><ele>619.6666666666666</ele><time>2026-03-27T11:07:57.797Z</time></trkpt><trkpt lat="43.4301217" lon="11.5651133"><ele>619.8333333333333</ele><time>2026-03-27T11:07:58.795Z</time></trkpt><trkpt lat="43.430185" lon="11.5650367"><ele>620.0</ele><time>2026-03-27T11:07:59.796Z</time></trkpt><trkpt lat="43.43025" lon="11.56497"><ele>620.0</ele><time>2026-03-27T11:08:00.796Z</time></trkpt><trkpt lat="43.4303267" lon="11.5649317"><ele>620.0</ele><time>2026-03-27T11:08:01.795Z</time></trkpt><trkpt lat="43.4304133" lon="11.56492"><ele>620.0</ele><time>2026-03-27T11:08:02.793Z</time></trkpt><trkpt lat="43.4305217" lon="11.5649383"><ele>620.0</ele><time>2026-03-27T11:08:03.794Z</time></trkpt><trkpt lat="43.4306283" lon="11.5649717"><ele>620.0</ele><time>2026-03-27T11:08:04.795Z</time></trkpt><trkpt lat="43.43073" lon="11.5650033"><ele>621.0</ele><time>2026-03-27T11:08:05.795Z</time></trkpt><trkpt lat="43.4308283" lon="11.565025"><ele>622.0</ele><time>2026-03-27T11:08:06.795Z</time></trkpt><trkpt lat="43.4309217" lon="11.56504"><ele>623.0</ele><time>2026-03-27T11:08:07.795Z</time></trkpt><trkpt lat="43.4310133" lon="11.565045"><ele>624.0</ele><time>2026-03-27T11:08:08.795Z</time></trkpt><trkpt lat="43.4311" lon="11.5650367"><ele>625.0</ele><time>2026-03-27T11:08:09.794Z</time></trkpt><trkpt lat="43.431185" lon="11.5650167"><ele>625.0</ele><time>2026-03-27T11:08:10.795Z</time></trkpt><trkpt lat="43.43127" lon="11.5649817"><ele>625.0</ele><time>2026-03-27T11:08:11.793Z</time></trkpt><trkpt lat="43.43136" lon="11.5648983"><ele>625.0</ele><time>2026-03-27T11:08:12.795Z</time></trkpt><trkpt lat="43.4314433" lon="11.5648117"><ele>625.0</ele><time>2026-03-27T11:08:13.795Z</time></trkpt><trkpt lat="43.4315267" lon="11.5647117"><ele>625.0</ele><time>2026-03-27T11:08:14.796Z</time></trkpt><trkpt lat="43.4316167" lon="11.564595"><ele>624.5</ele><time>2026-03-27T11:08:15.794Z</time></trkpt><trkpt lat="43.4317017" lon="11.564485"><ele>624.0</ele><time>2026-03-27T11:08:16.794Z</time></trkpt><trkpt lat="43.4317817" lon="11.5643817"><ele>623.5</ele><time>2026-03-27T11:08:17.795Z</time></trkpt><trkpt lat="43.4318617" lon="11.564265"><ele>623.0</ele><time>2026-03-27T11:08:18.796Z</time></trkpt><trkpt lat="43.431935" lon="11.5641383"><ele>623.0</ele><time>2026-03-27T11:08:19.795Z</time></trkpt><trkpt lat="43.431995" lon="11.5640033"><ele>623.0</ele><time>2026-03-27T11:08:20.796Z</time></trkpt><trkpt lat="43.4320533" lon="11.56385"><ele>623.0</ele><time>2026-03-27T11:08:21.794Z</time></trkpt><trkpt lat="43.43211" lon="11.563695"><ele>623.0</ele><time>2026-03-27T11:08:22.793Z</time></trkpt><trkpt lat="43.432155" lon="11.5635417"><ele>623.5</ele><time>2026-03-27T11:08:23.796Z</time></trkpt><trkpt lat="43.4321917" lon="11.5633967"><ele>624.0</ele><time>2026-03-27T11:08:24.796Z</time></trkpt><trkpt lat="43.4322183" lon="11.5632767"><ele>624.5</ele><time>2026-03-27T11:08:25.794Z</time></trkpt><trkpt lat="43.432245" lon="11.563175"><ele>625.0</ele><time>2026-03-27T11:08:26.795Z</time></trkpt><trkpt lat="43.4322767" lon="11.56309"><ele>625.5</ele><time>2026-03-27T11:08:27.795Z</time></trkpt><trkpt lat="43.4323133" lon="11.563015"><ele>626.0</ele><time>2026-03-27T11:08:28.794Z</time></trkpt><trkpt lat="43.4323533" lon="11.5629417"><ele>625.7142857142857</ele><time>2026-03-27T11:08:29.795Z</time></trkpt><trkpt lat="43.4323817" lon="11.5628517"><ele>625.4285714285714</ele><time>2026-03-27T11:08:30.795Z</time></trkpt><trkpt lat="43.4324017" lon="11.5627617"><ele>625.1428571428571</ele><time>2026-03-27T11:08:31.796Z</time></trkpt><trkpt lat="43.4324267" lon="11.56268"><ele>624.8571428571429</ele><time>2026-03-27T11:08:32.795Z</time></trkpt><trkpt lat="43.4324633" lon="11.5626083"><ele>624.5714285714286</ele><time>2026-03-27T11:08:33.795Z</time></trkpt><trkpt lat="43.4325617" lon="11.5625383"><ele>624.2857142857143</ele><time>2026-03-27T11:08:35.794Z</time></trkpt><trkpt lat="43.4326283" lon="11.5625617"><ele>624.0</ele><time>2026-03-27T11:08:36.794Z</time></trkpt><trkpt lat="43.4326933" lon="11.5625783"><ele>624.0</ele><time>2026-03-27T11:08:37.793Z</time></trkpt><trkpt lat="43.4327583" lon="11.562585"><ele>624.0</ele><time>2026-03-27T11:08:38.794Z</time></trkpt><trkpt lat="43.4328333" lon="11.5625583"><ele>624.0</ele><time>2026-03-27T11:08:39.794Z</time></trkpt><trkpt lat="43.4329167" lon="11.5625083"><ele>624.0</ele><time>2026-03-27T11:08:40.792Z</time></trkpt><trkpt lat="43.43301" lon="11.562445"><ele>624.0</ele><time>2026-03-27T11:08:41.794Z</time></trkpt><trkpt lat="43.4331017" lon="11.5623767"><ele>624.0</ele><time>2026-03-27T11:08:42.793Z</time></trkpt><trkpt lat="43.433195" lon="11.5623117"><ele>622.2</ele><time>2026-03-27T11:08:43.794Z</time></trkpt><trkpt lat="43.4332883" lon="11.5622283"><ele>620.4</ele><time>2026-03-27T11:08:44.795Z</time></trkpt><trkpt lat="43.43338" lon="11.5621433"><ele>618.6</ele><time>2026-03-27T11:08:45.794Z</time></trkpt><trkpt lat="43.4334667" lon="11.5620567"><ele>616.8</ele><time>2026-03-27T11:08:46.794Z</time></trkpt><trkpt lat="43.4335517" lon="11.5619717"><ele>615.0</ele><time>2026-03-27T11:08:47.794Z</time></trkpt><trkpt lat="43.433645" lon="11.56189"><ele>614.8</ele><time>2026-03-27T11:08:48.794Z</time></trkpt><trkpt lat="43.43374" lon="11.56182"><ele>614.6</ele><time>2026-03-27T11:08:49.794Z</time></trkpt><trkpt lat="43.433835" lon="11.5617483"><ele>614.4</ele><time>2026-03-27T11:08:50.796Z</time></trkpt><trkpt lat="43.4339333" lon="11.5616617"><ele>614.2</ele><time>2026-03-27T11:08:51.795Z</time></trkpt><trkpt lat="43.4340233" lon="11.5615767"><ele>614.0</ele><time>2026-03-27T11:08:52.794Z</time></trkpt><trkpt lat="43.4341" lon="11.5615167"><ele>613.2</ele><time>2026-03-27T11:08:53.795Z</time></trkpt><trkpt lat="43.4341783" lon="11.5614783"><ele>612.4</ele><time>2026-03-27T11:08:54.797Z</time></trkpt><trkpt lat="43.4342567" lon="11.5614633"><ele>611.6</ele><time>2026-03-27T11:08:55.795Z</time></trkpt><trkpt lat="43.4343517" lon="11.5614167"><ele>610.8</ele><time>2026-03-27T11:08:57.794Z</time></trkpt><trkpt lat="43.4344217" lon="11.561325"><ele>610.0</ele><time>2026-03-27T11:08:59.794Z</time></trkpt><trkpt lat="43.4345283" lon="11.5612233"><ele>610.8571428571429</ele><time>2026-03-27T11:09:01.793Z</time></trkpt><trkpt lat="43.4345967" lon="11.5611917"><ele>611.7142857142857</ele><time>2026-03-27T11:09:02.796Z</time></trkpt><trkpt lat="43.4346567" lon="11.5611583"><ele>612.5714285714286</ele><time>2026-03-27T11:09:03.793Z</time></trkpt><trkpt lat="43.4347233" lon="11.5610433"><ele>613.4285714285714</ele><time>2026-03-27T11:09:05.794Z</time></trkpt><trkpt lat="43.4347467" lon="11.5609617"><ele>614.2857142857142</ele><time>2026-03-27T11:09:06.794Z</time></trkpt><trkpt lat="43.4347633" lon="11.5608717"><ele>615.1428571428571</ele><time>2026-03-27T11:09:07.795Z</time></trkpt><trkpt lat="43.4347833" lon="11.560785"><ele>616.0</ele><time>2026-03-27T11:09:08.797Z</time></trkpt><trkpt lat="43.4348017" lon="11.5607017"><ele>616.6666666666667</ele><time>2026-03-27T11:09:09.794Z</time></trkpt><trkpt lat="43.43481" lon="11.5606117"><ele>617.3333333333334</ele><time>2026-03-27T11:09:10.794Z</time></trkpt><trkpt lat="43.4348283" lon="11.5605133"><ele>618.0</ele><time>2026-03-27T11:09:11.795Z</time></trkpt><trkpt lat="43.43485" lon="11.5604167"><ele>618.6666666666666</ele><time>2026-03-27T11:09:12.794Z</time></trkpt><trkpt lat="43.4348633" lon="11.5603283"><ele>619.3333333333333</ele><time>2026-03-27T11:09:13.796Z</time></trkpt><trkpt lat="43.4348583" lon="11.5602417"><ele>620.0</ele><time>2026-03-27T11:09:14.796Z</time></trkpt><trkpt lat="43.434785" lon="11.5600933"><ele>620.6666666666666</ele><time>2026-03-27T11:09:16.794Z</time></trkpt><trkpt lat="43.43474" lon="11.5600033"><ele>621.3333333333333</ele><time>2026-03-27T11:09:17.794Z</time></trkpt><trkpt lat="43.4346933" lon="11.5598983"><ele>622.0</ele><time>2026-03-27T11:09:18.794Z</time></trkpt><trkpt lat="43.43465" lon="11.559795"><ele>622.6666666666666</ele><time>2026-03-27T11:09:19.795Z</time></trkpt><trkpt lat="43.43461" lon="11.5597017"><ele>623.3333333333334</ele><time>2026-03-27T11:09:20.802Z</time></trkpt><trkpt lat="43.4345733" lon="11.55962"><ele>624.0</ele><time>2026-03-27T11:09:21.795Z</time></trkpt><trkpt lat="43.4345333" lon="11.55954"><ele>625.8</ele><time>2026-03-27T11:09:22.793Z</time></trkpt><trkpt lat="43.4344933" lon="11.5594483"><ele>627.5999999999999</ele><time>2026-03-27T11:09:23.794Z</time></trkpt><trkpt lat="43.434445" lon="11.5593433"><ele>629.4</ele><time>2026-03-27T11:09:24.794Z</time></trkpt><trkpt lat="43.434395" lon="11.5592233"><ele>631.1999999999999</ele><time>2026-03-27T11:09:25.794Z</time></trkpt><trkpt lat="43.4343483" lon="11.5590767"><ele>633.0</ele><time>2026-03-27T11:09:26.796Z</time></trkpt><trkpt lat="43.43431" lon="11.558915"><ele>633.0</ele><time>2026-03-27T11:09:27.794Z</time></trkpt><trkpt lat="43.43427" lon="11.5587567"><ele>633.0</ele><time>2026-03-27T11:09:28.794Z</time></trkpt><trkpt lat="43.43423" lon="11.558615"><ele>633.0</ele><time>2026-03-27T11:09:29.795Z</time></trkpt><trkpt lat="43.4342033" lon="11.5584783"><ele>633.0</ele><time>2026-03-27T11:09:30.794Z</time></trkpt><trkpt lat="43.4341783" lon="11.5583383"><ele>633.0</ele><time>2026-03-27T11:09:31.794Z</time></trkpt><trkpt lat="43.4341583" lon="11.5582017"><ele>633.0</ele><time>2026-03-27T11:09:32.798Z</time></trkpt><trkpt lat="43.43415" lon="11.558055"><ele>633.0</ele><time>2026-03-27T11:09:33.794Z</time></trkpt><trkpt lat="43.4341667" lon="11.5578983"><ele>633.0</ele><time>2026-03-27T11:09:34.794Z</time></trkpt><trkpt lat="43.4342017" lon="11.557745"><ele>633.0</ele><time>2026-03-27T11:09:35.795Z</time></trkpt><trkpt lat="43.4342433" lon="11.5576"><ele>633.0</ele><time>2026-03-27T11:09:36.793Z</time></trkpt><trkpt lat="43.43429" lon="11.5574633"><ele>633.0</ele><time>2026-03-27T11:09:37.793Z</time></trkpt><trkpt lat="43.4343267" lon="11.5573233"><ele>633.0</ele><time>2026-03-27T11:09:38.79Z</time></trkpt><trkpt lat="43.4343433" lon="11.557165"><ele>633.0</ele><time>2026-03-27T11:09:39.794Z</time></trkpt><trkpt lat="43.4343567" lon="11.5570033"><ele>632.4</ele><time>2026-03-27T11:09:40.793Z</time></trkpt><trkpt lat="43.4343667" lon="11.5568483"><ele>631.8</ele><time>2026-03-27T11:09:41.794Z</time></trkpt><trkpt lat="43.4343717" lon="11.5567"><ele>631.2</ele><time>2026-03-27T11:09:42.794Z</time></trkpt><trkpt lat="43.4343733" lon="11.55656"><ele>630.6</ele><time>2026-03-27T11:09:43.794Z</time></trkpt><trkpt lat="43.43438" lon="11.5564233"><ele>630.0</ele><time>2026-03-27T11:09:44.796Z</time></trkpt><trkpt lat="43.4343967" lon="11.5562817"><ele>628.75</ele><time>2026-03-27T11:09:45.795Z</time></trkpt><trkpt lat="43.4344367" lon="11.5561383"><ele>627.5</ele><time>2026-03-27T11:09:46.793Z</time></trkpt><trkpt lat="43.43449" lon="11.556"><ele>626.25</ele><time>2026-03-27T11:09:47.793Z</time></trkpt><trkpt lat="43.4345533" lon="11.5558567"><ele>625.0</ele><time>2026-03-27T11:09:48.793Z</time></trkpt><trkpt lat="43.43462" lon="11.5557"><ele>627.8</ele><time>2026-03-27T11:09:49.791Z</time></trkpt><trkpt lat="43.43468" lon="11.5555567"><ele>630.6</ele><time>2026-03-27T11:09:50.796Z</time></trkpt><trkpt lat="43.4347283" lon="11.555435"><ele>633.4</ele><time>2026-03-27T11:09:51.793Z</time></trkpt><trkpt lat="43.4347733" lon="11.5553233"><ele>636.2</ele><time>2026-03-27T11:09:52.794Z</time></trkpt><trkpt lat="43.4348133" lon="11.5552233"><ele>639.0</ele><time>2026-03-27T11:09:53.794Z</time></trkpt><trkpt lat="43.434845" lon="11.5551467"><ele>639.0</ele><time>2026-03-27T11:09:54.794Z</time></trkpt><trkpt lat="43.4348833" lon="11.5550733"><ele>639.0</ele><time>2026-03-27T11:09:55.793Z</time></trkpt><trkpt lat="43.4349667" lon="11.5549733"><ele>639.0</ele><time>2026-03-27T11:09:57.793Z</time></trkpt><trkpt lat="43.43507" lon="11.5549617"><ele>639.0</ele><time>2026-03-27T11:09:59.794Z</time></trkpt><trkpt lat="43.4351967" lon="11.5550017"><ele>639.0</ele><time>2026-03-27T11:10:01.797Z</time></trkpt><trkpt lat="43.43527" lon="11.555015"><ele>639.0</ele><time>2026-03-27T11:10:02.797Z</time></trkpt><trkpt lat="43.4353533" lon="11.5550317"><ele>639.0</ele><time>2026-03-27T11:10:03.795Z</time></trkpt><trkpt lat="43.4354567" lon="11.5550533"><ele>639.0</ele><time>2026-03-27T11:10:04.794Z</time></trkpt><trkpt lat="43.43556" lon="11.5550833"><ele>639.0</ele><time>2026-03-27T11:10:05.796Z</time></trkpt><trkpt lat="43.435655" lon="11.5551117"><ele>639.0</ele><time>2026-03-27T11:10:06.797Z</time></trkpt><trkpt lat="43.435735" lon="11.5551383"><ele>639.5</ele><time>2026-03-27T11:10:07.798Z</time></trkpt><trkpt lat="43.4358083" lon="11.5551683"><ele>640.0</ele><time>2026-03-27T11:10:08.796Z</time></trkpt><trkpt lat="43.43589" lon="11.5552033"><ele>640.5</ele><time>2026-03-27T11:10:09.798Z</time></trkpt><trkpt lat="43.43598" lon="11.55525"><ele>641.0</ele><time>2026-03-27T11:10:10.796Z</time></trkpt><trkpt lat="43.43607" lon="11.5553133"><ele>641.5</ele><time>2026-03-27T11:10:11.795Z</time></trkpt><trkpt lat="43.4361483" lon="11.5553733"><ele>642.0</ele><time>2026-03-27T11:10:12.796Z</time></trkpt><trkpt lat="43.4362217" lon="11.5554283"><ele>642.5</ele><time>2026-03-27T11:10:13.794Z</time></trkpt><trkpt lat="43.4363" lon="11.555485"><ele>643.0</ele><time>2026-03-27T11:10:14.796Z</time></trkpt><trkpt lat="43.43637" lon="11.5555483"><ele>643.5</ele><time>2026-03-27T11:10:15.796Z</time></trkpt><trkpt lat="43.4364333" lon="11.5556117"><ele>644.0</ele><time>2026-03-27T11:10:16.794Z</time></trkpt><trkpt lat="43.436495" lon="11.555675"><ele>644.5</ele><time>2026-03-27T11:10:17.796Z</time></trkpt><trkpt lat="43.4365583" lon="11.5557317"><ele>645.0</ele><time>2026-03-27T11:10:18.795Z</time></trkpt><trkpt lat="43.436625" lon="11.555775"><ele>645.0</ele><time>2026-03-27T11:10:19.795Z</time></trkpt><trkpt lat="43.4367033" lon="11.5558"><ele>645.0</ele><time>2026-03-27T11:10:20.796Z</time></trkpt><trkpt lat="43.4367983" lon="11.5558167"><ele>645.0</ele><time>2026-03-27T11:10:21.794Z</time></trkpt><trkpt lat="43.4368933" lon="11.5558217"><ele>645.0</ele><time>2026-03-27T11:10:22.794Z</time></trkpt><trkpt lat="43.43698" lon="11.555815"><ele>645.0</ele><time>2026-03-27T11:10:23.797Z</time></trkpt><trkpt lat="43.4370533" lon="11.5557983"><ele>645.0</ele><time>2026-03-27T11:10:24.797Z</time></trkpt><trkpt lat="43.437125" lon="11.5557867"><ele>643.4</ele><time>2026-03-27T11:10:25.795Z</time></trkpt><trkpt lat="43.437195" lon="11.5558033"><ele>641.8</ele><time>2026-03-27T11:10:26.795Z</time></trkpt><trkpt lat="43.4372633" lon="11.55585"><ele>640.2</ele><time>2026-03-27T11:10:27.794Z</time></trkpt><trkpt lat="43.4373217" lon="11.5559"><ele>638.6</ele><time>2026-03-27T11:10:28.795Z</time></trkpt><trkpt lat="43.43743" lon="11.555985"><ele>637.0</ele><time>2026-03-27T11:10:30.796Z</time></trkpt><trkpt lat="43.437545" lon="11.556065"><ele>637.0</ele><time>2026-03-27T11:10:32.798Z</time></trkpt><trkpt lat="43.437605" lon="11.556105"><ele>637.0</ele><time>2026-03-27T11:10:33.794Z</time></trkpt><trkpt lat="43.43771" lon="11.556175"><ele>637.0</ele><time>2026-03-27T11:10:35.795Z</time></trkpt><trkpt lat="43.4378067" lon="11.5562483"><ele>637.0</ele><time>2026-03-27T11:10:37.796Z</time></trkpt><trkpt lat="43.4378933" lon="11.5563617"><ele>637.0</ele><time>2026-03-27T11:10:39.795Z</time></trkpt><trkpt lat="43.4379317" lon="11.5564383"><ele>634.1666666666667</ele><time>2026-03-27T11:10:40.796Z</time></trkpt><trkpt lat="43.4379733" lon="11.5565183"><ele>631.3333333333334</ele><time>2026-03-27T11:10:41.795Z</time></trkpt><trkpt lat="43.4380183" lon="11.5566067"><ele>628.5</ele><time>2026-03-27T11:10:42.793Z</time></trkpt><trkpt lat="43.4380567" lon="11.5567017"><ele>625.6666666666666</ele><time>2026-03-27T11:10:43.795Z</time></trkpt><trkpt lat="43.438095" lon="11.55679"><ele>622.8333333333333</ele><time>2026-03-27T11:10:44.796Z</time></trkpt><trkpt lat="43.43814" lon="11.5568733"><ele>620.0</ele><time>2026-03-27T11:10:45.796Z</time></trkpt><trkpt lat="43.4381917" lon="11.5569533"><ele>619.8333333333333</ele><time>2026-03-27T11:10:46.796Z</time></trkpt><trkpt lat="43.4382383" lon="11.5570367"><ele>619.6666666666666</ele><time>2026-03-27T11:10:47.797Z</time></trkpt><trkpt lat="43.438285" lon="11.5571283"><ele>619.5</ele><time>2026-03-27T11:10:48.797Z</time></trkpt><trkpt lat="43.4383317" lon="11.5572333"><ele>619.3333333333334</ele><time>2026-03-27T11:10:49.798Z</time></trkpt><trkpt lat="43.43838" lon="11.5573467"><ele>619.1666666666667</ele><time>2026-03-27T11:10:50.797Z</time></trkpt><trkpt lat="43.4384167" lon="11.5574617"><ele>619.0</ele><time>2026-03-27T11:10:51.795Z</time></trkpt><trkpt lat="43.4384433" lon="11.5575933"><ele>619.0</ele><time>2026-03-27T11:10:52.796Z</time></trkpt><trkpt lat="43.43848" lon="11.5577567"><ele>619.0</ele><time>2026-03-27T11:10:53.797Z</time></trkpt><trkpt lat="43.4385183" lon="11.5579117"><ele>619.0</ele><time>2026-03-27T11:10:54.797Z</time></trkpt><trkpt lat="43.4385533" lon="11.55805"><ele>619.0</ele><time>2026-03-27T11:10:55.796Z</time></trkpt><trkpt lat="43.438585" lon="11.55816"><ele>619.0</ele><time>2026-03-27T11:10:56.798Z</time></trkpt><trkpt lat="43.4386217" lon="11.5582583"><ele>618.3333333333334</ele><time>2026-03-27T11:10:57.796Z</time></trkpt><trkpt lat="43.43866" lon="11.5583467"><ele>617.6666666666667</ele><time>2026-03-27T11:10:58.797Z</time></trkpt><trkpt lat="43.43871" lon="11.558445"><ele>617.0</ele><time>2026-03-27T11:10:59.795Z</time></trkpt><trkpt lat="43.4387817" lon="11.5585483"><ele>616.3333333333334</ele><time>2026-03-27T11:11:00.796Z</time></trkpt><trkpt lat="43.4388483" lon="11.5586483"><ele>615.6666666666666</ele><time>2026-03-27T11:11:01.795Z</time></trkpt><trkpt lat="43.4389033" lon="11.55872"><ele>615.0</ele><time>2026-03-27T11:11:02.798Z</time></trkpt><trkpt lat="43.4389883" lon="11.5588233"><ele>615.0</ele><time>2026-03-27T11:11:04.794Z</time></trkpt><trkpt lat="43.4390433" lon="11.55893"><ele>615.0</ele><time>2026-03-27T11:11:06.796Z</time></trkpt><trkpt lat="43.43907" lon="11.55902"><ele>615.0</ele><time>2026-03-27T11:11:08.797Z</time></trkpt><trkpt lat="43.43904" lon="11.5591067"><ele>615.0</ele><time>2026-03-27T11:11:10.798Z</time></trkpt><trkpt lat="43.4389517" lon="11.559195"><ele>615.0</ele><time>2026-03-27T11:11:12.798Z</time></trkpt><trkpt lat="43.43889" lon="11.5592467"><ele>615.0</ele><time>2026-03-27T11:11:13.795Z</time></trkpt><trkpt lat="43.438815" lon="11.559245"><ele>613.8333333333334</ele><time>2026-03-27T11:11:14.797Z</time></trkpt><trkpt lat="43.43874" lon="11.5592283"><ele>612.6666666666666</ele><time>2026-03-27T11:11:15.796Z</time></trkpt><trkpt lat="43.4386717" lon="11.5591983"><ele>611.5</ele><time>2026-03-27T11:11:16.796Z</time></trkpt><trkpt lat="43.4386017" lon="11.5591517"><ele>610.3333333333333</ele><time>2026-03-27T11:11:17.797Z</time></trkpt><trkpt lat="43.43853" lon="11.5591083"><ele>609.1666666666666</ele><time>2026-03-27T11:11:18.796Z</time></trkpt><trkpt lat="43.4384517" lon="11.5590683"><ele>608.0</ele><time>2026-03-27T11:11:19.795Z</time></trkpt><trkpt lat="43.4383733" lon="11.5590333"><ele>608.0</ele><time>2026-03-27T11:11:20.797Z</time></trkpt><trkpt lat="43.4382933" lon="11.5590033"><ele>608.0</ele><time>2026-03-27T11:11:21.796Z</time></trkpt><trkpt lat="43.4382133" lon="11.5589683"><ele>608.0</ele><time>2026-03-27T11:11:22.795Z</time></trkpt><trkpt lat="43.43814" lon="11.5589233"><ele>608.0</ele><time>2026-03-27T11:11:23.796Z</time></trkpt><trkpt lat="43.4380633" lon="11.5588767"><ele>608.0</ele><time>2026-03-27T11:11:24.796Z</time></trkpt><trkpt lat="43.4379867" lon="11.55883"><ele>608.0</ele><time>2026-03-27T11:11:25.796Z</time></trkpt><trkpt lat="43.4379017" lon="11.55878"><ele>607.8333333333333</ele><time>2026-03-27T11:11:26.796Z</time></trkpt><trkpt lat="43.4378133" lon="11.558745"><ele>607.6666666666666</ele><time>2026-03-27T11:11:27.796Z</time></trkpt><trkpt lat="43.4377383" lon="11.5587067"><ele>607.5</ele><time>2026-03-27T11:11:28.797Z</time></trkpt><trkpt lat="43.4376783" lon="11.5586617"><ele>607.3333333333334</ele><time>2026-03-27T11:11:29.797Z</time></trkpt><trkpt lat="43.4375967" lon="11.5585633"><ele>607.1666666666667</ele><time>2026-03-27T11:11:31.795Z</time></trkpt><trkpt lat="43.4375267" lon="11.5585017"><ele>607.0</ele><time>2026-03-27T11:11:34.796Z</time></trkpt><trkpt lat="43.4374733" lon="11.55857"><ele>607.0</ele><time>2026-03-27T11:11:36.798Z</time></trkpt><trkpt lat="43.4374317" lon="11.5586483"><ele>607.0</ele><time>2026-03-27T11:11:37.796Z</time></trkpt><trkpt lat="43.4373967" lon="11.558745"><ele>607.0</ele><time>2026-03-27T11:11:38.797Z</time></trkpt><trkpt lat="43.4373433" lon="11.5588333"><ele>607.0</ele><time>2026-03-27T11:11:39.796Z</time></trkpt><trkpt lat="43.4372767" lon="11.5589083"><ele>607.0</ele><time>2026-03-27T11:11:40.796Z</time></trkpt><trkpt lat="43.437215" lon="11.55898"><ele>607.0</ele><time>2026-03-27T11:11:41.796Z</time></trkpt><trkpt lat="43.4371467" lon="11.5590367"><ele>606.3333333333334</ele><time>2026-03-27T11:11:42.795Z</time></trkpt><trkpt lat="43.4370733" lon="11.5590817"><ele>605.6666666666667</ele><time>2026-03-27T11:11:43.797Z</time></trkpt><trkpt lat="43.4370067" lon="11.55913"><ele>605.0</ele><time>2026-03-27T11:11:44.797Z</time></trkpt><trkpt lat="43.4369433" lon="11.5591817"><ele>604.3333333333334</ele><time>2026-03-27T11:11:45.795Z</time></trkpt><trkpt lat="43.436885" lon="11.5592417"><ele>603.6666666666666</ele><time>2026-03-27T11:11:46.796Z</time></trkpt><trkpt lat="43.4368183" lon="11.5593033"><ele>603.0</ele><time>2026-03-27T11:11:47.796Z</time></trkpt><trkpt lat="43.4367633" lon="11.55936"><ele>603.0</ele><time>2026-03-27T11:11:48.797Z</time></trkpt><trkpt lat="43.436695" lon="11.559405"><ele>603.0</ele><time>2026-03-27T11:11:49.797Z</time></trkpt><trkpt lat="43.436625" lon="11.5594383"><ele>603.0</ele><time>2026-03-27T11:11:50.798Z</time></trkpt><trkpt lat="43.43656" lon="11.5594533"><ele>603.0</ele><time>2026-03-27T11:11:51.796Z</time></trkpt><trkpt lat="43.4364867" lon="11.55945"><ele>603.0</ele><time>2026-03-27T11:11:52.795Z</time></trkpt><trkpt lat="43.4364033" lon="11.5594233"><ele>603.0</ele><time>2026-03-27T11:11:53.796Z</time></trkpt><trkpt lat="43.4363233" lon="11.5593767"><ele>602.8333333333334</ele><time>2026-03-27T11:11:54.795Z</time></trkpt><trkpt lat="43.4362467" lon="11.5593217"><ele>602.6666666666666</ele><time>2026-03-27T11:11:55.796Z</time></trkpt><trkpt lat="43.436175" lon="11.559255"><ele>602.5</ele><time>2026-03-27T11:11:56.797Z</time></trkpt><trkpt lat="43.4361" lon="11.5592"><ele>602.3333333333333</ele><time>2026-03-27T11:11:57.796Z</time></trkpt><trkpt lat="43.4360267" lon="11.5591383"><ele>602.1666666666666</ele><time>2026-03-27T11:11:58.795Z</time></trkpt><trkpt lat="43.43596" lon="11.559075"><ele>602.0</ele><time>2026-03-27T11:11:59.796Z</time></trkpt><trkpt lat="43.435905" lon="11.5590167"><ele>602.0</ele><time>2026-03-27T11:12:00.796Z</time></trkpt><trkpt lat="43.4358317" lon="11.558975"><ele>602.0</ele><time>2026-03-27T11:12:02.797Z</time></trkpt><trkpt lat="43.4357717" lon="11.5590667"><ele>602.0</ele><time>2026-03-27T11:12:04.796Z</time></trkpt><trkpt lat="43.435795" lon="11.5592667"><ele>602.0</ele><time>2026-03-27T11:12:06.797Z</time></trkpt><trkpt lat="43.4358233" lon="11.5593983"><ele>602.0</ele><time>2026-03-27T11:12:07.795Z</time></trkpt><trkpt lat="43.435835" lon="11.5595333"><ele>601.1666666666666</ele><time>2026-03-27T11:12:08.797Z</time></trkpt><trkpt lat="43.4358317" lon="11.5596733"><ele>600.3333333333333</ele><time>2026-03-27T11:12:09.796Z</time></trkpt><trkpt lat="43.4358133" lon="11.5598017"><ele>599.5</ele><time>2026-03-27T11:12:10.796Z</time></trkpt><trkpt lat="43.435785" lon="11.5598967"><ele>598.6666666666666</ele><time>2026-03-27T11:12:11.795Z</time></trkpt><trkpt lat="43.435755" lon="11.5599733"><ele>597.8333333333334</ele><time>2026-03-27T11:12:12.794Z</time></trkpt><trkpt lat="43.4356967" lon="11.5600417"><ele>597.0</ele><time>2026-03-27T11:12:14.796Z</time></trkpt><trkpt lat="43.43561" lon="11.5600583"><ele>597.0</ele><time>2026-03-27T11:12:16.795Z</time></trkpt><trkpt lat="43.43552" lon="11.5601217"><ele>597.0</ele><time>2026-03-27T11:12:18.795Z</time></trkpt><trkpt lat="43.4354833" lon="11.5603033"><ele>597.0</ele><time>2026-03-27T11:12:20.798Z</time></trkpt><trkpt lat="43.4354633" lon="11.5604283"><ele>597.0</ele><time>2026-03-27T11:12:21.797Z</time></trkpt><trkpt lat="43.435445" lon="11.5605567"><ele>597.0</ele><time>2026-03-27T11:12:22.795Z</time></trkpt><trkpt lat="43.43543" lon="11.5606617"><ele>598.6666666666666</ele><time>2026-03-27T11:12:23.795Z</time></trkpt><trkpt lat="43.43542" lon="11.5607583"><ele>600.3333333333334</ele><time>2026-03-27T11:12:24.797Z</time></trkpt><trkpt lat="43.4354083" lon="11.56086"><ele>602.0</ele><time>2026-03-27T11:12:25.795Z</time></trkpt><trkpt lat="43.4353883" lon="11.5609567"><ele>603.6666666666667</ele><time>2026-03-27T11:12:26.797Z</time></trkpt><trkpt lat="43.43536" lon="11.561055"><ele>605.3333333333334</ele><time>2026-03-27T11:12:27.795Z</time></trkpt><trkpt lat="43.43532" lon="11.5611483"><ele>607.0</ele><time>2026-03-27T11:12:28.795Z</time></trkpt><trkpt lat="43.43526" lon="11.561225"><ele>607.0</ele><time>2026-03-27T11:12:29.796Z</time></trkpt><trkpt lat="43.4351933" lon="11.5612967"><ele>607.0</ele><time>2026-03-27T11:12:30.797Z</time></trkpt><trkpt lat="43.43513" lon="11.561365"><ele>607.0</ele><time>2026-03-27T11:12:31.795Z</time></trkpt><trkpt lat="43.4350617" lon="11.561425"><ele>607.0</ele><time>2026-03-27T11:12:32.796Z</time></trkpt><trkpt lat="43.4349783" lon="11.56148"><ele>607.0</ele><time>2026-03-27T11:12:33.795Z</time></trkpt><trkpt lat="43.4348967" lon="11.5615233"><ele>607.0</ele><time>2026-03-27T11:12:34.795Z</time></trkpt><trkpt lat="43.4348083" lon="11.5615533"><ele>607.0</ele><time>2026-03-27T11:12:35.796Z</time></trkpt><trkpt lat="43.4347167" lon="11.5615717"><ele>607.0</ele><time>2026-03-27T11:12:36.795Z</time></trkpt><trkpt lat="43.43462" lon="11.5615867"><ele>607.0</ele><time>2026-03-27T11:12:37.797Z</time></trkpt><trkpt lat="43.4345283" lon="11.56159"><ele>607.0</ele><time>2026-03-27T11:12:38.796Z</time></trkpt><trkpt lat="43.4344383" lon="11.561605"><ele>607.0</ele><time>2026-03-27T11:12:39.795Z</time></trkpt><trkpt lat="43.4343433" lon="11.5616233"><ele>607.5</ele><time>2026-03-27T11:12:40.795Z</time></trkpt><trkpt lat="43.4342483" lon="11.5616383"><ele>608.0</ele><time>2026-03-27T11:12:41.794Z</time></trkpt><trkpt lat="43.4341583" lon="11.5616383"><ele>608.5</ele><time>2026-03-27T11:12:42.794Z</time></trkpt><trkpt lat="43.4340833" lon="11.56163"><ele>609.0</ele><time>2026-03-27T11:12:43.796Z</time></trkpt><trkpt lat="43.4340167" lon="11.561635"><ele>609.5</ele><time>2026-03-27T11:12:44.798Z</time></trkpt><trkpt lat="43.4339483" lon="11.5616567"><ele>610.0</ele><time>2026-03-27T11:12:45.796Z</time></trkpt><trkpt lat="43.4338783" lon="11.561705"><ele>610.0</ele><time>2026-03-27T11:12:46.795Z</time></trkpt><trkpt lat="43.4338183" lon="11.56177"><ele>610.0</ele><time>2026-03-27T11:12:47.797Z</time></trkpt><trkpt lat="43.433775" lon="11.56184"><ele>610.0</ele><time>2026-03-27T11:12:48.796Z</time></trkpt><trkpt lat="43.4337417" lon="11.5619183"><ele>610.0</ele><time>2026-03-27T11:12:49.795Z</time></trkpt><trkpt lat="43.4337167" lon="11.56201"><ele>610.0</ele><time>2026-03-27T11:12:50.796Z</time></trkpt><trkpt lat="43.433695" lon="11.5621417"><ele>610.0</ele><time>2026-03-27T11:12:51.796Z</time></trkpt><trkpt lat="43.4336783" lon="11.5622717"><ele>611.0</ele><time>2026-03-27T11:12:52.795Z</time></trkpt><trkpt lat="43.4336567" lon="11.5623967"><ele>612.0</ele><time>2026-03-27T11:12:53.796Z</time></trkpt><trkpt lat="43.4336367" lon="11.5625283"><ele>613.0</ele><time>2026-03-27T11:12:54.796Z</time></trkpt><trkpt lat="43.4336067" lon="11.5626617"><ele>614.0</ele><time>2026-03-27T11:12:55.796Z</time></trkpt><trkpt lat="43.433585" lon="11.5628017"><ele>615.0</ele><time>2026-03-27T11:12:56.796Z</time></trkpt><trkpt lat="43.4335733" lon="11.5629483"><ele>615.1666666666666</ele><time>2026-03-27T11:12:57.796Z</time></trkpt><trkpt lat="43.4335617" lon="11.563095"><ele>615.3333333333334</ele><time>2026-03-27T11:12:58.796Z</time></trkpt><trkpt lat="43.4335533" lon="11.5632267"><ele>615.5</ele><time>2026-03-27T11:12:59.796Z</time></trkpt><trkpt lat="43.4335517" lon="11.5633383"><ele>615.6666666666667</ele><time>2026-03-27T11:13:00.796Z</time></trkpt><trkpt lat="43.43356" lon="11.5634383"><ele>615.8333333333334</ele><time>2026-03-27T11:13:01.795Z</time></trkpt><trkpt lat="43.43358" lon="11.5635367"><ele>616.0</ele><time>2026-03-27T11:13:02.797Z</time></trkpt><trkpt lat="43.4336133" lon="11.5636367"><ele>616.5</ele><time>2026-03-27T11:13:03.796Z</time></trkpt><trkpt lat="43.433655" lon="11.5637283"><ele>617.0</ele><time>2026-03-27T11:13:04.796Z</time></trkpt><trkpt lat="43.4336967" lon="11.5638317"><ele>617.5</ele><time>2026-03-27T11:13:05.796Z</time></trkpt><trkpt lat="43.4337317" lon="11.56395"><ele>618.0</ele><time>2026-03-27T11:13:06.794Z</time></trkpt><trkpt lat="43.4337583" lon="11.5640717"><ele>618.5</ele><time>2026-03-27T11:13:07.794Z</time></trkpt><trkpt lat="43.433775" lon="11.56419"><ele>619.0</ele><time>2026-03-27T11:13:08.797Z</time></trkpt><trkpt lat="43.4337917" lon="11.5643"><ele>619.0</ele><time>2026-03-27T11:13:09.795Z</time></trkpt><trkpt lat="43.4338033" lon="11.5644033"><ele>619.0</ele><time>2026-03-27T11:13:10.795Z</time></trkpt><trkpt lat="43.4338033" lon="11.5644917"><ele>619.0</ele><time>2026-03-27T11:13:11.796Z</time></trkpt><trkpt lat="43.4337733" lon="11.5646483"><ele>619.0</ele><time>2026-03-27T11:13:13.795Z</time></trkpt><trkpt lat="43.433705" lon="11.564805"><ele>619.0</ele><time>2026-03-27T11:13:15.795Z</time></trkpt><trkpt lat="43.4336517" lon="11.5649017"><ele>617.8571428571429</ele><time>2026-03-27T11:13:16.795Z</time></trkpt><trkpt lat="43.433595" lon="11.5649817"><ele>616.7142857142858</ele><time>2026-03-27T11:13:17.796Z</time></trkpt><trkpt lat="43.4335483" lon="11.56505"><ele>615.5714285714287</ele><time>2026-03-27T11:13:18.797Z</time></trkpt><trkpt lat="43.4334983" lon="11.5651217"><ele>614.4285714285714</ele><time>2026-03-27T11:13:19.797Z</time></trkpt><trkpt lat="43.4334583" lon="11.5651967"><ele>613.2857142857143</ele><time>2026-03-27T11:13:20.797Z</time></trkpt><trkpt lat="43.4334167" lon="11.5652783"><ele>612.1428571428572</ele><time>2026-03-27T11:13:21.795Z</time></trkpt><trkpt lat="43.43338" lon="11.565365"><ele>611.0</ele><time>2026-03-27T11:13:22.795Z</time></trkpt><trkpt lat="43.4333383" lon="11.5654617"><ele>607.0</ele><time>2026-03-27T11:13:23.796Z</time></trkpt><trkpt lat="43.4332967" lon="11.565565"><ele>603.0</ele><time>2026-03-27T11:13:24.796Z</time></trkpt><trkpt lat="43.433255" lon="11.5656783"><ele>599.0</ele><time>2026-03-27T11:13:25.796Z</time></trkpt><trkpt lat="43.4332217" lon="11.5657833"><ele>595.0</ele><time>2026-03-27T11:13:26.797Z</time></trkpt><trkpt lat="43.4331867" lon="11.565905"><ele>591.0</ele><time>2026-03-27T11:13:27.795Z</time></trkpt><trkpt lat="43.4331433" lon="11.566025"><ele>591.0</ele><time>2026-03-27T11:13:28.795Z</time></trkpt><trkpt lat="43.4331" lon="11.5661467"><ele>591.0</ele><time>2026-03-27T11:13:29.796Z</time></trkpt><trkpt lat="43.4330483" lon="11.5662767"><ele>591.0</ele><time>2026-03-27T11:13:30.795Z</time></trkpt><trkpt lat="43.4329867" lon="11.5664"><ele>591.0</ele><time>2026-03-27T11:13:31.796Z</time></trkpt><trkpt lat="43.4329283" lon="11.5665133"><ele>591.0</ele><time>2026-03-27T11:13:32.796Z</time></trkpt><trkpt lat="43.4328817" lon="11.5666167"><ele>592.6666666666666</ele><time>2026-03-27T11:13:33.796Z</time></trkpt><trkpt lat="43.4328417" lon="11.5667367"><ele>594.3333333333334</ele><time>2026-03-27T11:13:34.796Z</time></trkpt><trkpt lat="43.4328217" lon="11.5668583"><ele>596.0</ele><time>2026-03-27T11:13:35.795Z</time></trkpt><trkpt lat="43.4328017" lon="11.56697"><ele>597.6666666666667</ele><time>2026-03-27T11:13:36.798Z</time></trkpt><trkpt lat="43.4327833" lon="11.5670817"><ele>599.3333333333334</ele><time>2026-03-27T11:13:37.794Z</time></trkpt><trkpt lat="43.4327583" lon="11.5672017"><ele>601.0</ele><time>2026-03-27T11:13:38.798Z</time></trkpt><trkpt lat="43.432735" lon="11.5673417"><ele>601.6</ele><time>2026-03-27T11:13:39.795Z</time></trkpt><trkpt lat="43.432715" lon="11.5674883"><ele>602.2</ele><time>2026-03-27T11:13:40.795Z</time></trkpt><trkpt lat="43.4327" lon="11.5676317"><ele>602.8</ele><time>2026-03-27T11:13:41.795Z</time></trkpt><trkpt lat="43.432685" lon="11.56776"><ele>603.4</ele><time>2026-03-27T11:13:42.793Z</time></trkpt><trkpt lat="43.4326683" lon="11.56789"><ele>604.0</ele><time>2026-03-27T11:13:43.795Z</time></trkpt><trkpt lat="43.4326517" lon="11.5679967"><ele>604.5</ele><time>2026-03-27T11:13:44.795Z</time></trkpt><trkpt lat="43.432625" lon="11.5681067"><ele>605.0</ele><time>2026-03-27T11:13:45.796Z</time></trkpt><trkpt lat="43.432605" lon="11.5682167"><ele>605.5</ele><time>2026-03-27T11:13:46.797Z</time></trkpt><trkpt lat="43.43259" lon="11.5683217"><ele>606.0</ele><time>2026-03-27T11:13:47.796Z</time></trkpt><trkpt lat="43.4325767" lon="11.5684333"><ele>606.5</ele><time>2026-03-27T11:13:48.796Z</time></trkpt><trkpt lat="43.4325667" lon="11.568545"><ele>607.0</ele><time>2026-03-27T11:13:49.796Z</time></trkpt><trkpt lat="43.432565" lon="11.56864"><ele>606.3333333333334</ele><time>2026-03-27T11:13:50.797Z</time></trkpt><trkpt lat="43.432585" lon="11.5687367"><ele>605.6666666666667</ele><time>2026-03-27T11:13:51.796Z</time></trkpt><trkpt lat="43.4325883" lon="11.5688317"><ele>605.0</ele><time>2026-03-27T11:13:52.796Z</time></trkpt><trkpt lat="43.4326" lon="11.5689567"><ele>604.3333333333334</ele><time>2026-03-27T11:13:53.796Z</time></trkpt><trkpt lat="43.4326267" lon="11.5690983"><ele>603.6666666666666</ele><time>2026-03-27T11:13:54.796Z</time></trkpt><trkpt lat="43.43266" lon="11.5692333"><ele>603.0</ele><time>2026-03-27T11:13:55.796Z</time></trkpt><trkpt lat="43.43268" lon="11.5693383"><ele>603.0</ele><time>2026-03-27T11:13:56.798Z</time></trkpt><trkpt lat="43.4326867" lon="11.56947"><ele>603.0</ele><time>2026-03-27T11:13:58.794Z</time></trkpt><trkpt lat="43.4325817" lon="11.5695333"><ele>603.0</ele><time>2026-03-27T11:14:00.795Z</time></trkpt><trkpt lat="43.4325" lon="11.5695383"><ele>603.0</ele><time>2026-03-27T11:14:01.795Z</time></trkpt><trkpt lat="43.4324" lon="11.5695183"><ele>603.0</ele><time>2026-03-27T11:14:02.797Z</time></trkpt><trkpt lat="43.4323017" lon="11.5694683"><ele>603.0</ele><time>2026-03-27T11:14:03.797Z</time></trkpt><trkpt lat="43.4322183" lon="11.569425"><ele>603.0</ele><time>2026-03-27T11:14:04.795Z</time></trkpt><trkpt lat="43.43216" lon="11.569385"><ele>603.0</ele><time>2026-03-27T11:14:05.796Z</time></trkpt><trkpt lat="43.4321" lon="11.5693517"><ele>603.0</ele><time>2026-03-27T11:14:06.797Z</time></trkpt><trkpt lat="43.4320033" lon="11.56935"><ele>603.0</ele><time>2026-03-27T11:14:08.797Z</time></trkpt><trkpt lat="43.4318817" lon="11.569375"><ele>603.0</ele><time>2026-03-27T11:14:10.796Z</time></trkpt><trkpt lat="43.4318133" lon="11.5693467"><ele>606.0</ele><time>2026-03-27T11:14:11.794Z</time></trkpt><trkpt lat="43.4317233" lon="11.56926"><ele>609.0</ele><time>2026-03-27T11:14:12.794Z</time></trkpt><trkpt lat="43.4316333" lon="11.5691733"><ele>612.0</ele><time>2026-03-27T11:14:13.794Z</time></trkpt><trkpt lat="43.4315317" lon="11.569095"><ele>615.0</ele><time>2026-03-27T11:14:14.797Z</time></trkpt><trkpt lat="43.4314267" lon="11.5690283"><ele>615.0</ele><time>2026-03-27T11:14:15.793Z</time></trkpt><trkpt lat="43.431325" lon="11.5689617"><ele>615.0</ele><time>2026-03-27T11:14:16.794Z</time></trkpt><trkpt lat="43.43123" lon="11.5689067"><ele>615.0</ele><time>2026-03-27T11:14:17.796Z</time></trkpt><trkpt lat="43.4311533" lon="11.5688667"><ele>615.0</ele><time>2026-03-27T11:14:18.796Z</time></trkpt><trkpt lat="43.4310833" lon="11.568845"><ele>615.0</ele><time>2026-03-27T11:14:19.797Z</time></trkpt><trkpt lat="43.4309967" lon="11.56885"><ele>614.2</ele><time>2026-03-27T11:14:20.797Z</time></trkpt><trkpt lat="43.430895" lon="11.5688517"><ele>613.4</ele><time>2026-03-27T11:14:21.795Z</time></trkpt><trkpt lat="43.4307983" lon="11.568845"><ele>612.6</ele><time>2026-03-27T11:14:22.795Z</time></trkpt><trkpt lat="43.4307083" lon="11.5688267"><ele>611.8</ele><time>2026-03-27T11:14:23.794Z</time></trkpt><trkpt lat="43.430625" lon="11.5688"><ele>611.0</ele><time>2026-03-27T11:14:24.794Z</time></trkpt><trkpt lat="43.4305383" lon="11.5687517"><ele>614.0</ele><time>2026-03-27T11:14:25.794Z</time></trkpt><trkpt lat="43.4304517" lon="11.568685"><ele>617.0</ele><time>2026-03-27T11:14:26.794Z</time></trkpt><trkpt lat="43.43037" lon="11.5685983"><ele>620.0</ele><time>2026-03-27T11:14:27.795Z</time></trkpt><trkpt lat="43.4303017" lon="11.5685233"><ele>623.0</ele><time>2026-03-27T11:14:28.796Z</time></trkpt><trkpt lat="43.4302433" lon="11.5684317"><ele>626.0</ele><time>2026-03-27T11:14:29.796Z</time></trkpt><trkpt lat="43.4301883" lon="11.5683017"><ele>626.0</ele><time>2026-03-27T11:14:30.796Z</time></trkpt><trkpt lat="43.4301183" lon="11.5681633"><ele>626.0</ele><time>2026-03-27T11:14:31.795Z</time></trkpt><trkpt lat="43.4300567" lon="11.568015"><ele>626.0</ele><time>2026-03-27T11:14:32.796Z</time></trkpt><trkpt lat="43.429995" lon="11.5678667"><ele>626.0</ele><time>2026-03-27T11:14:33.797Z</time></trkpt><trkpt lat="43.4299333" lon="11.56772"><ele>628.0</ele><time>2026-03-27T11:14:34.794Z</time></trkpt><trkpt lat="43.4298717" lon="11.5675783"><ele>630.0</ele><time>2026-03-27T11:14:35.8Z</time></trkpt><trkpt lat="43.4298183" lon="11.56745"><ele>632.0</ele><time>2026-03-27T11:14:36.797Z</time></trkpt><trkpt lat="43.4297633" lon="11.5673317"><ele>634.0</ele><time>2026-03-27T11:14:37.796Z</time></trkpt><trkpt lat="43.4297083" lon="11.5672183"><ele>636.0</ele><time>2026-03-27T11:14:38.795Z</time></trkpt><trkpt lat="43.4296467" lon="11.567115"><ele>632.0</ele><time>2026-03-27T11:14:39.796Z</time></trkpt><trkpt lat="43.4295917" lon="11.567015"><ele>628.0</ele><time>2026-03-27T11:14:40.796Z</time></trkpt><trkpt lat="43.4295583" lon="11.56691"><ele>624.0</ele><time>2026-03-27T11:14:41.795Z</time></trkpt><trkpt lat="43.4295467" lon="11.5667833"><ele>620.0</ele><time>2026-03-27T11:14:42.795Z</time></trkpt><trkpt lat="43.42954" lon="11.56666"><ele>616.0</ele><time>2026-03-27T11:14:43.795Z</time></trkpt><trkpt lat="43.429545" lon="11.5665417"><ele>612.0</ele><time>2026-03-27T11:14:44.796Z</time></trkpt><trkpt lat="43.4295517" lon="11.5664283"><ele>612.0</ele><time>2026-03-27T11:14:45.796Z</time></trkpt><trkpt lat="43.4295417" lon="11.5663033"><ele>612.0</ele><time>2026-03-27T11:14:46.794Z</time></trkpt><trkpt lat="43.42949" lon="11.5661633"><ele>612.0</ele><time>2026-03-27T11:14:47.796Z</time></trkpt><trkpt lat="43.4294333" lon="11.5660233"><ele>612.0</ele><time>2026-03-27T11:14:48.795Z</time></trkpt><trkpt lat="43.4293867" lon="11.5659033"><ele>612.0</ele><time>2026-03-27T11:14:49.795Z</time></trkpt><trkpt lat="43.42934" lon="11.5657833"><ele>613.4</ele><time>2026-03-27T11:14:50.797Z</time></trkpt><trkpt lat="43.4292917" lon="11.5656583"><ele>614.8000000000001</ele><time>2026-03-27T11:14:51.795Z</time></trkpt><trkpt lat="43.4292317" lon="11.56554"><ele>616.2</ele><time>2026-03-27T11:14:52.794Z</time></trkpt><trkpt lat="43.4291617" lon="11.5654267"><ele>617.6</ele><time>2026-03-27T11:14:53.795Z</time></trkpt><trkpt lat="43.4290883" lon="11.56532"><ele>619.0</ele><time>2026-03-27T11:14:54.795Z</time></trkpt><trkpt lat="43.4290167" lon="11.5652167"><ele>619.0</ele><time>2026-03-27T11:14:55.795Z</time></trkpt><trkpt lat="43.42896" lon="11.5651017"><ele>619.0</ele><time>2026-03-27T11:14:56.796Z</time></trkpt><trkpt lat="43.42892" lon="11.56497"><ele>619.0</ele><time>2026-03-27T11:14:57.795Z</time></trkpt><trkpt lat="43.42888" lon="11.5648467"><ele>619.0</ele><time>2026-03-27T11:14:58.795Z</time></trkpt><trkpt lat="43.42884" lon="11.5647517"><ele>619.0</ele><time>2026-03-27T11:14:59.795Z</time></trkpt><trkpt lat="43.4287917" lon="11.56469"><ele>619.0</ele><time>2026-03-27T11:15:00.792Z</time></trkpt><trkpt lat="43.428685" lon="11.56465"><ele>616.8333333333334</ele><time>2026-03-27T11:15:02.796Z</time></trkpt><trkpt lat="43.4286233" lon="11.564675"><ele>614.6666666666667</ele><time>2026-03-27T11:15:03.795Z</time></trkpt><trkpt lat="43.428565" lon="11.5647117"><ele>612.5</ele><time>2026-03-27T11:15:04.796Z</time></trkpt><trkpt lat="43.428505" lon="11.56474"><ele>610.3333333333334</ele><time>2026-03-27T11:15:05.796Z</time></trkpt><trkpt lat="43.428385" lon="11.564775"><ele>608.1666666666666</ele><time>2026-03-27T11:15:07.795Z</time></trkpt><trkpt lat="43.4282817" lon="11.564765"><ele>606.0</ele><time>2026-03-27T11:15:09.793Z</time></trkpt><trkpt lat="43.42818" lon="11.5647267"><ele>606.0</ele><time>2026-03-27T11:15:11.795Z</time></trkpt><trkpt lat="43.4280567" lon="11.56468"><ele>606.0</ele><time>2026-03-27T11:15:13.795Z</time></trkpt><trkpt lat="43.427965" lon="11.5646417"><ele>606.0</ele><time>2026-03-27T11:15:14.795Z</time></trkpt><trkpt lat="43.4278367" lon="11.5645983"><ele>606.0</ele><time>2026-03-27T11:15:15.794Z</time></trkpt><trkpt lat="43.427715" lon="11.564555"><ele>606.0</ele><time>2026-03-27T11:15:16.796Z</time></trkpt><trkpt lat="43.4276133" lon="11.564535"><ele>606.0</ele><time>2026-03-27T11:15:17.796Z</time></trkpt><trkpt lat="43.4275367" lon="11.5645283"><ele>606.0</ele><time>2026-03-27T11:15:18.796Z</time></trkpt><trkpt lat="43.42744" lon="11.564565"><ele>606.0</ele><time>2026-03-27T11:15:20.796Z</time></trkpt><trkpt lat="43.4275333" lon="11.5646117"><ele>606.0</ele><time>2026-03-27T11:15:33.796Z</time></trkpt><trkpt lat="43.427625" lon="11.5646367"><ele>606.0</ele><time>2026-03-27T11:15:34.795Z</time></trkpt><trkpt lat="43.4277433" lon="11.5646883"><ele>606.0</ele><time>2026-03-27T11:15:35.796Z</time></trkpt><trkpt lat="43.4278583" lon="11.5647333"><ele>606.0</ele><time>2026-03-27T11:15:36.794Z</time></trkpt><trkpt lat="43.42796" lon="11.5647583"><ele>606.0</ele><time>2026-03-27T11:15:37.795Z</time></trkpt><trkpt lat="43.428055" lon="11.5647767"><ele>606.0</ele><time>2026-03-27T11:15:38.795Z</time></trkpt><trkpt lat="43.4281317" lon="11.5647933"><ele>606.0</ele><time>2026-03-27T11:15:39.795Z</time></trkpt><trkpt lat="43.4282083" lon="11.5648217"><ele>606.0</ele><time>2026-03-27T11:15:40.795Z</time></trkpt><trkpt lat="43.4282817" lon="11.5648433"><ele>606.0</ele><time>2026-03-27T11:15:41.794Z</time></trkpt><trkpt lat="43.4283983" lon="11.564855"><ele>606.0</ele><time>2026-03-27T11:15:43.795Z</time></trkpt><trkpt lat="43.42852" lon="11.5648"><ele>606.0</ele><time>2026-03-27T11:15:45.794Z</time></trkpt><trkpt lat="43.4285983" lon="11.5647617"><ele>606.0</ele><time>2026-03-27T11:15:46.795Z</time></trkpt><trkpt lat="43.4286683" lon="11.5647367"><ele>606.0</ele><time>2026-03-27T11:15:47.795Z</time></trkpt><trkpt lat="43.4287383" lon="11.5647467"><ele>606.0</ele><time>2026-03-27T11:15:48.796Z</time></trkpt><trkpt lat="43.4287883" lon="11.5648117"><ele>606.0</ele><time>2026-03-27T11:15:49.796Z</time></trkpt><trkpt lat="43.428845" lon="11.564875"><ele>606.0</ele><time>2026-03-27T11:15:50.798Z</time></trkpt><trkpt lat="43.42891" lon="11.5649417"><ele>606.0</ele><time>2026-03-27T11:15:51.797Z</time></trkpt><trkpt lat="43.42899" lon="11.5650067"><ele>609.25</ele><time>2026-03-27T11:15:52.796Z</time></trkpt><trkpt lat="43.429095" lon="11.5650467"><ele>612.5</ele><time>2026-03-27T11:15:53.795Z</time></trkpt><trkpt lat="43.42921" lon="11.565075"><ele>615.75</ele><time>2026-03-27T11:15:54.797Z</time></trkpt><trkpt lat="43.4293217" lon="11.5651233"><ele>619.0</ele><time>2026-03-27T11:15:55.795Z</time></trkpt><trkpt lat="43.4294383" lon="11.5651733"><ele>619.0</ele><time>2026-03-27T11:15:56.796Z</time></trkpt><trkpt lat="43.42955" lon="11.5652183"><ele>619.0</ele><time>2026-03-27T11:15:57.795Z</time></trkpt><trkpt lat="43.4296667" lon="11.5652483"><ele>619.0</ele><time>2026-03-27T11:15:58.796Z</time></trkpt><trkpt lat="43.4297783" lon="11.56526"><ele>619.0</ele><time>2026-03-27T11:15:59.797Z</time></trkpt><trkpt lat="43.42988" lon="11.5652517"><ele>619.0</ele><time>2026-03-27T11:16:00.794Z</time></trkpt><trkpt lat="43.4299667" lon="11.5652317"><ele>619.1666666666667</ele><time>2026-03-27T11:16:01.797Z</time></trkpt><trkpt lat="43.43004" lon="11.5651833"><ele>619.3333333333334</ele><time>2026-03-27T11:16:02.795Z</time></trkpt><trkpt lat="43.4301017" lon="11.56511"><ele>619.5</ele><time>2026-03-27T11:16:03.794Z</time></trkpt><trkpt lat="43.4301533" lon="11.5650317"><ele>619.6666666666666</ele><time>2026-03-27T11:16:04.795Z</time></trkpt><trkpt lat="43.430205" lon="11.5649617"><ele>619.8333333333333</ele><time>2026-03-27T11:16:05.796Z</time></trkpt><trkpt lat="43.4303233" lon="11.5648933"><ele>620.0</ele><time>2026-03-27T11:16:07.796Z</time></trkpt><trkpt lat="43.4304083" lon="11.564895"><ele>621.0</ele><time>2026-03-27T11:16:08.795Z</time></trkpt><trkpt lat="43.430505" lon="11.5649067"><ele>622.0</ele><time>2026-03-27T11:16:09.795Z</time></trkpt><trkpt lat="43.430605" lon="11.5649383"><ele>623.0</ele><time>2026-03-27T11:16:10.796Z</time></trkpt><trkpt lat="43.4307067" lon="11.5649717"><ele>624.0</ele><time>2026-03-27T11:16:11.795Z</time></trkpt><trkpt lat="43.4308133" lon="11.5649967"><ele>625.0</ele><time>2026-03-27T11:16:12.795Z</time></trkpt><trkpt lat="43.43091" lon="11.56502"><ele>625.0</ele><time>2026-03-27T11:16:13.794Z</time></trkpt><trkpt lat="43.4309983" lon="11.5650283"><ele>625.0</ele><time>2026-03-27T11:16:14.795Z</time></trkpt><trkpt lat="43.4310767" lon="11.56503"><ele>625.0</ele><time>2026-03-27T11:16:15.795Z</time></trkpt><trkpt lat="43.431155" lon="11.56502"><ele>625.0</ele><time>2026-03-27T11:16:16.794Z</time></trkpt><trkpt lat="43.4312333" lon="11.5649917"><ele>625.0</ele><time>2026-03-27T11:16:17.794Z</time></trkpt><trkpt lat="43.431315" lon="11.5649367"><ele>625.0</ele><time>2026-03-27T11:16:18.795Z</time></trkpt><trkpt lat="43.431395" lon="11.56486"><ele>625.5</ele><time>2026-03-27T11:16:19.796Z</time></trkpt><trkpt lat="43.4314783" lon="11.564765"><ele>626.0</ele><time>2026-03-27T11:16:20.796Z</time></trkpt><trkpt lat="43.4315683" lon="11.5646517"><ele>626.5</ele><time>2026-03-27T11:16:21.797Z</time></trkpt><trkpt lat="43.4316567" lon="11.5645383"><ele>627.0</ele><time>2026-03-27T11:16:22.795Z</time></trkpt><trkpt lat="43.431735" lon="11.5644167"><ele>626.0</ele><time>2026-03-27T11:16:23.796Z</time></trkpt><trkpt lat="43.4318117" lon="11.5643067"><ele>625.0</ele><time>2026-03-27T11:16:24.796Z</time></trkpt><trkpt lat="43.4318867" lon="11.5641933"><ele>624.0</ele><time>2026-03-27T11:16:25.796Z</time></trkpt><trkpt lat="43.4319533" lon="11.5640717"><ele>623.0</ele><time>2026-03-27T11:16:26.796Z</time></trkpt><trkpt lat="43.4320133" lon="11.563925"><ele>623.0</ele><time>2026-03-27T11:16:27.796Z</time></trkpt><trkpt lat="43.4320783" lon="11.5637583"><ele>623.0</ele><time>2026-03-27T11:16:28.796Z</time></trkpt><trkpt lat="43.4321317" lon="11.563595"><ele>623.0</ele><time>2026-03-27T11:16:29.795Z</time></trkpt><trkpt lat="43.4321733" lon="11.563445"><ele>623.0</ele><time>2026-03-27T11:16:30.795Z</time></trkpt><trkpt lat="43.4322083" lon="11.5633183"><ele>623.1428571428571</ele><time>2026-03-27T11:16:31.794Z</time></trkpt><trkpt lat="43.432235" lon="11.5632117"><ele>623.2857142857142</ele><time>2026-03-27T11:16:32.796Z</time></trkpt><trkpt lat="43.4322633" lon="11.5631217"><ele>623.4285714285714</ele><time>2026-03-27T11:16:33.796Z</time></trkpt><trkpt lat="43.4323" lon="11.56304"><ele>623.5714285714286</ele><time>2026-03-27T11:16:34.795Z</time></trkpt><trkpt lat="43.4323383" lon="11.5629617"><ele>623.7142857142857</ele><time>2026-03-27T11:16:35.795Z</time></trkpt><trkpt lat="43.4323767" lon="11.5628733"><ele>623.8571428571429</ele><time>2026-03-27T11:16:36.797Z</time></trkpt><trkpt lat="43.4323933" lon="11.562775"><ele>624.0</ele><time>2026-03-27T11:16:37.795Z</time></trkpt><trkpt lat="43.4324117" lon="11.5626783"><ele>624.0</ele><time>2026-03-27T11:16:38.797Z</time></trkpt><trkpt lat="43.4324483" lon="11.5625967"><ele>624.0</ele><time>2026-03-27T11:16:39.797Z</time></trkpt><trkpt lat="43.4325017" lon="11.562545"><ele>624.0</ele><time>2026-03-27T11:16:40.8Z</time></trkpt><trkpt lat="43.4326217" lon="11.5625533"><ele>624.0</ele><time>2026-03-27T11:16:42.796Z</time></trkpt><trkpt lat="43.4326867" lon="11.56257"><ele>624.0</ele><time>2026-03-27T11:16:43.794Z</time></trkpt><trkpt lat="43.4327533" lon="11.5625817"><ele>624.0</ele><time>2026-03-27T11:16:44.796Z</time></trkpt><trkpt lat="43.432825" lon="11.5625617"><ele>624.0</ele><time>2026-03-27T11:16:45.795Z</time></trkpt><trkpt lat="43.432905" lon="11.562525"><ele>624.0</ele><time>2026-03-27T11:16:46.795Z</time></trkpt><trkpt lat="43.43299" lon="11.5624733"><ele>624.0</ele><time>2026-03-27T11:16:47.795Z</time></trkpt><trkpt lat="43.4330767" lon="11.56242"><ele>624.0</ele><time>2026-03-27T11:16:48.797Z</time></trkpt><trkpt lat="43.4331667" lon="11.56236"><ele>624.0</ele><time>2026-03-27T11:16:49.796Z</time></trkpt><trkpt lat="43.4332567" lon="11.5622783"><ele>622.2</ele><time>2026-03-27T11:16:50.798Z</time></trkpt><trkpt lat="43.4333433" lon="11.5621867"><ele>620.4</ele><time>2026-03-27T11:16:51.796Z</time></trkpt><trkpt lat="43.4334317" lon="11.56209"><ele>618.6</ele><time>2026-03-27T11:16:52.796Z</time></trkpt><trkpt lat="43.43352" lon="11.5619967"><ele>616.8</ele><time>2026-03-27T11:16:53.796Z</time></trkpt><trkpt lat="43.4336033" lon="11.5619117"><ele>615.0</ele><time>2026-03-27T11:16:54.797Z</time></trkpt><trkpt lat="43.4336917" lon="11.5618433"><ele>614.8</ele><time>2026-03-27T11:16:55.796Z</time></trkpt><trkpt lat="43.4337833" lon="11.5617783"><ele>614.6</ele><time>2026-03-27T11:16:56.796Z</time></trkpt><trkpt lat="43.433885" lon="11.5616967"><ele>614.4</ele><time>2026-03-27T11:16:57.796Z</time></trkpt><trkpt lat="43.4339833" lon="11.5616083"><ele>614.2</ele><time>2026-03-27T11:16:58.795Z</time></trkpt><trkpt lat="43.43407" lon="11.5615433"><ele>614.0</ele><time>2026-03-27T11:16:59.795Z</time></trkpt><trkpt lat="43.4341483" lon="11.56151"><ele>613.2</ele><time>2026-03-27T11:17:00.796Z</time></trkpt><trkpt lat="43.434225" lon="11.5614917"><ele>612.4</ele><time>2026-03-27T11:17:01.795Z</time></trkpt><trkpt lat="43.43429" lon="11.5614767"><ele>611.6</ele><time>2026-03-27T11:17:02.796Z</time></trkpt><trkpt lat="43.43439" lon="11.5614"><ele>610.8</ele><time>2026-03-27T11:17:04.793Z</time></trkpt><trkpt lat="43.4344517" lon="11.5612783"><ele>610.0</ele><time>2026-03-27T11:17:06.794Z</time></trkpt><trkpt lat="43.43454" lon="11.5612033"><ele>611.6666666666667</ele><time>2026-03-27T11:17:08.795Z</time></trkpt><trkpt lat="43.4346467" lon="11.56117"><ele>613.3333333333334</ele><time>2026-03-27T11:17:10.794Z</time></trkpt><trkpt lat="43.4347167" lon="11.5610583"><ele>615.0</ele><time>2026-03-27T11:17:12.795Z</time></trkpt><trkpt lat="43.4347433" lon="11.5609717"><ele>616.6666666666666</ele><time>2026-03-27T11:17:13.796Z</time></trkpt><trkpt lat="43.4347683" lon="11.5608867"><ele>618.3333333333333</ele><time>2026-03-27T11:17:14.796Z</time></trkpt><trkpt lat="43.4347933" lon="11.5607967"><ele>620.0</ele><time>2026-03-27T11:17:15.796Z</time></trkpt><trkpt lat="43.4348167" lon="11.5607017"><ele>620.0</ele><time>2026-03-27T11:17:16.793Z</time></trkpt><trkpt lat="43.4348233" lon="11.56061"><ele>620.0</ele><time>2026-03-27T11:17:17.795Z</time></trkpt><trkpt lat="43.434835" lon="11.560515"><ele>620.0</ele><time>2026-03-27T11:17:18.796Z</time></trkpt><trkpt lat="43.43485" lon="11.5604283"><ele>620.0</ele><time>2026-03-27T11:17:19.798Z</time></trkpt><trkpt lat="43.43486" lon="11.56028"><ele>620.0</ele><time>2026-03-27T11:17:21.797Z</time></trkpt><trkpt lat="43.4347933" lon="11.5601467"><ele>620.0</ele><time>2026-03-27T11:17:23.795Z</time></trkpt><trkpt lat="43.4347533" lon="11.5600633"><ele>620.6666666666666</ele><time>2026-03-27T11:17:24.795Z</time></trkpt><trkpt lat="43.4347233" lon="11.5599733"><ele>621.3333333333333</ele><time>2026-03-27T11:17:25.794Z</time></trkpt><trkpt lat="43.4346933" lon="11.5598767"><ele>622.0</ele><time>2026-03-27T11:17:26.797Z</time></trkpt><trkpt lat="43.4346583" lon="11.55977"><ele>622.6666666666666</ele><time>2026-03-27T11:17:27.795Z</time></trkpt><trkpt lat="43.4346167" lon="11.5596617"><ele>623.3333333333334</ele><time>2026-03-27T11:17:28.794Z</time></trkpt><trkpt lat="43.4345717" lon="11.559555"><ele>624.0</ele><time>2026-03-27T11:17:29.794Z</time></trkpt><trkpt lat="43.434525" lon="11.5594467"><ele>625.8</ele><time>2026-03-27T11:17:30.794Z</time></trkpt><trkpt lat="43.434475" lon="11.5593433"><ele>627.5999999999999</ele><time>2026-03-27T11:17:31.796Z</time></trkpt><trkpt lat="43.4344333" lon="11.5592367"><ele>629.4</ele><time>2026-03-27T11:17:32.797Z</time></trkpt><trkpt lat="43.434385" lon="11.559125"><ele>631.1999999999999</ele><time>2026-03-27T11:17:33.794Z</time></trkpt><trkpt lat="43.4343483" lon="11.5589783"><ele>633.0</ele><time>2026-03-27T11:17:34.795Z</time></trkpt><trkpt lat="43.43431" lon="11.5588183"><ele>633.1999999999999</ele><time>2026-03-27T11:17:35.793Z</time></trkpt><trkpt lat="43.4342733" lon="11.558665"><ele>633.4</ele><time>2026-03-27T11:17:36.796Z</time></trkpt><trkpt lat="43.4342383" lon="11.5585283"><ele>633.5999999999999</ele><time>2026-03-27T11:17:37.796Z</time></trkpt><trkpt lat="43.4342083" lon="11.558395"><ele>633.8</ele><time>2026-03-27T11:17:38.796Z</time></trkpt><trkpt lat="43.4341833" lon="11.558265"><ele>634.0</ele><time>2026-03-27T11:17:39.794Z</time></trkpt><trkpt lat="43.434165" lon="11.55814"><ele>634.0</ele><time>2026-03-27T11:17:40.794Z</time></trkpt><trkpt lat="43.434155" lon="11.5580133"><ele>634.0</ele><time>2026-03-27T11:17:41.794Z</time></trkpt><trkpt lat="43.4341683" lon="11.5578667"><ele>634.0</ele><time>2026-03-27T11:17:42.797Z</time></trkpt><trkpt lat="43.4341983" lon="11.557725"><ele>634.0</ele><time>2026-03-27T11:17:43.794Z</time></trkpt><trkpt lat="43.4342383" lon="11.557585"><ele>634.0</ele><time>2026-03-27T11:17:44.796Z</time></trkpt><trkpt lat="43.4342867" lon="11.5574583"><ele>633.8</ele><time>2026-03-27T11:17:45.794Z</time></trkpt><trkpt lat="43.4343217" lon="11.5573283"><ele>633.5999999999999</ele><time>2026-03-27T11:17:46.796Z</time></trkpt><trkpt lat="43.43434" lon="11.5571733"><ele>633.4</ele><time>2026-03-27T11:17:47.796Z</time></trkpt><trkpt lat="43.4343483" lon="11.5570133"><ele>633.1999999999999</ele><time>2026-03-27T11:17:48.797Z</time></trkpt><trkpt lat="43.4343517" lon="11.5568667"><ele>633.0</ele><time>2026-03-27T11:17:49.795Z</time></trkpt><trkpt lat="43.434355" lon="11.556725"><ele>632.4</ele><time>2026-03-27T11:17:50.796Z</time></trkpt><trkpt lat="43.43436" lon="11.5565883"><ele>631.8</ele><time>2026-03-27T11:17:51.795Z</time></trkpt><trkpt lat="43.4343667" lon="11.556455"><ele>631.2</ele><time>2026-03-27T11:17:52.795Z</time></trkpt><trkpt lat="43.4343783" lon="11.55632"><ele>630.6</ele><time>2026-03-27T11:17:53.791Z</time></trkpt><trkpt lat="43.434405" lon="11.5561867"><ele>630.0</ele><time>2026-03-27T11:17:54.794Z</time></trkpt><trkpt lat="43.4344533" lon="11.5560567"><ele>629.0</ele><time>2026-03-27T11:17:55.796Z</time></trkpt><trkpt lat="43.434515" lon="11.5559233"><ele>628.0</ele><time>2026-03-27T11:17:56.797Z</time></trkpt><trkpt lat="43.43458" lon="11.5557833"><ele>627.0</ele><time>2026-03-27T11:17:57.795Z</time></trkpt><trkpt lat="43.4346383" lon="11.5556517"><ele>626.0</ele><time>2026-03-27T11:17:58.794Z</time></trkpt><trkpt lat="43.434685" lon="11.5555383"><ele>625.0</ele><time>2026-03-27T11:17:59.795Z</time></trkpt><trkpt lat="43.43472" lon="11.55543"><ele>627.3333333333334</ele><time>2026-03-27T11:18:00.796Z</time></trkpt><trkpt lat="43.434755" lon="11.55533"><ele>629.6666666666667</ele><time>2026-03-27T11:18:01.794Z</time></trkpt><trkpt lat="43.434795" lon="11.5552433"><ele>632.0</ele><time>2026-03-27T11:18:02.795Z</time></trkpt><trkpt lat="43.4348383" lon="11.55517"><ele>634.3333333333334</ele><time>2026-03-27T11:18:03.795Z</time></trkpt><trkpt lat="43.4349017" lon="11.5550433"><ele>636.6666666666666</ele><time>2026-03-27T11:18:05.795Z</time></trkpt><trkpt lat="43.4349917" lon="11.55498"><ele>639.0</ele><time>2026-03-27T11:18:07.796Z</time></trkpt><trkpt lat="43.43511" lon="11.555"><ele>639.0</ele><time>2026-03-27T11:18:09.794Z</time></trkpt><trkpt lat="43.4351783" lon="11.5550233"><ele>639.0</ele><time>2026-03-27T11:18:10.796Z</time></trkpt><trkpt lat="43.4352583" lon="11.5550383"><ele>639.0</ele><time>2026-03-27T11:18:11.797Z</time></trkpt><trkpt lat="43.4353517" lon="11.5550583"><ele>639.0</ele><time>2026-03-27T11:18:12.798Z</time></trkpt><trkpt lat="43.4354733" lon="11.5550817"><ele>639.0</ele><time>2026-03-27T11:18:13.793Z</time></trkpt><trkpt lat="43.4355917" lon="11.5551133"><ele>639.6</ele><time>2026-03-27T11:18:14.797Z</time></trkpt><trkpt lat="43.4356883" lon="11.55515"><ele>640.2</ele><time>2026-03-27T11:18:15.792Z</time></trkpt><trkpt lat="43.43577" lon="11.55518"><ele>640.8000000000001</ele><time>2026-03-27T11:18:16.795Z</time></trkpt><trkpt lat="43.4358433" lon="11.5552117"><ele>641.4</ele><time>2026-03-27T11:18:17.794Z</time></trkpt><trkpt lat="43.435925" lon="11.5552483"><ele>642.0</ele><time>2026-03-27T11:18:18.796Z</time></trkpt><trkpt lat="43.43602" lon="11.5553"><ele>642.0</ele><time>2026-03-27T11:18:19.795Z</time></trkpt><trkpt lat="43.4361083" lon="11.5553633"><ele>642.0</ele><time>2026-03-27T11:18:20.797Z</time></trkpt><trkpt lat="43.436185" lon="11.5554217"><ele>642.0</ele><time>2026-03-27T11:18:21.796Z</time></trkpt><trkpt lat="43.4362617" lon="11.5554767"><ele>642.0</ele><time>2026-03-27T11:18:22.794Z</time></trkpt><trkpt lat="43.4363367" lon="11.5555367"><ele>642.0</ele><time>2026-03-27T11:18:23.795Z</time></trkpt><trkpt lat="43.436405" lon="11.5556"><ele>642.0</ele><time>2026-03-27T11:18:24.796Z</time></trkpt><trkpt lat="43.4364717" lon="11.555665"><ele>642.5</ele><time>2026-03-27T11:18:25.796Z</time></trkpt><trkpt lat="43.4365283" lon="11.55572"><ele>643.0</ele><time>2026-03-27T11:18:26.796Z</time></trkpt><trkpt lat="43.43659" lon="11.555765"><ele>643.5</ele><time>2026-03-27T11:18:27.795Z</time></trkpt><trkpt lat="43.436665" lon="11.5557983"><ele>644.0</ele><time>2026-03-27T11:18:28.795Z</time></trkpt><trkpt lat="43.43676" lon="11.5558167"><ele>644.5</ele><time>2026-03-27T11:18:29.796Z</time></trkpt><trkpt lat="43.4368617" lon="11.5558217"><ele>645.0</ele><time>2026-03-27T11:18:30.796Z</time></trkpt><trkpt lat="43.4369567" lon="11.5558183"><ele>645.0</ele><time>2026-03-27T11:18:31.795Z</time></trkpt><trkpt lat="43.4370383" lon="11.5558033"><ele>645.0</ele><time>2026-03-27T11:18:32.797Z</time></trkpt><trkpt lat="43.4371183" lon="11.5557967"><ele>645.0</ele><time>2026-03-27T11:18:33.794Z</time></trkpt><trkpt lat="43.4371917" lon="11.5558017"><ele>645.0</ele><time>2026-03-27T11:18:34.796Z</time></trkpt><trkpt lat="43.437255" lon="11.555845"><ele>645.0</ele><time>2026-03-27T11:18:35.794Z</time></trkpt><trkpt lat="43.4373183" lon="11.5559033"><ele>645.0</ele><time>2026-03-27T11:18:36.794Z</time></trkpt><trkpt lat="43.4373783" lon="11.5559583"><ele>643.6666666666666</ele><time>2026-03-27T11:18:37.797Z</time></trkpt><trkpt lat="43.43744" lon="11.5560067"><ele>642.3333333333334</ele><time>2026-03-27T11:18:38.795Z</time></trkpt><trkpt lat="43.4375033" lon="11.5560467"><ele>641.0</ele><time>2026-03-27T11:18:39.795Z</time></trkpt><trkpt lat="43.4375667" lon="11.55609"><ele>639.6666666666667</ele><time>2026-03-27T11:18:40.794Z</time></trkpt><trkpt lat="43.4376717" lon="11.556155"><ele>638.3333333333334</ele><time>2026-03-27T11:18:42.797Z</time></trkpt><trkpt lat="43.4377667" lon="11.55621"><ele>637.0</ele><time>2026-03-27T11:18:44.796Z</time></trkpt><trkpt lat="43.43782" lon="11.5562683"><ele>635.4</ele><time>2026-03-27T11:18:47.794Z</time></trkpt><trkpt lat="43.4378767" lon="11.5563467"><ele>633.8000000000001</ele><time>2026-03-27T11:18:53.795Z</time></trkpt><trkpt lat="43.4379217" lon="11.5564233"><ele>632.2</ele><time>2026-03-27T11:19:08.797Z</time></trkpt><trkpt lat="43.437975" lon="11.556535"><ele>630.6</ele><time>2026-03-27T11:19:10.795Z</time></trkpt><trkpt lat="43.4380333" lon="11.556675"><ele>629.0</ele><time>2026-03-27T11:19:12.795Z</time></trkpt><trkpt lat="43.4381" lon="11.55682"><ele>627.7142857142857</ele><time>2026-03-27T11:19:14.796Z</time></trkpt><trkpt lat="43.438145" lon="11.5568883"><ele>626.4285714285714</ele><time>2026-03-27T11:19:15.796Z</time></trkpt><trkpt lat="43.43819" lon="11.55696"><ele>625.1428571428571</ele><time>2026-03-27T11:19:16.795Z</time></trkpt><trkpt lat="43.4382333" lon="11.5570433"><ele>623.8571428571429</ele><time>2026-03-27T11:19:17.795Z</time></trkpt><trkpt lat="43.43827" lon="11.5571267"><ele>622.5714285714286</ele><time>2026-03-27T11:19:18.795Z</time></trkpt><trkpt lat="43.4383083" lon="11.5572083"><ele>621.2857142857143</ele><time>2026-03-27T11:19:19.793Z</time></trkpt><trkpt lat="43.43835" lon="11.5572883"><ele>620.0</ele><time>2026-03-27T11:19:20.796Z</time></trkpt><trkpt lat="43.43838" lon="11.5573717"><ele>619.8333333333333</ele><time>2026-03-27T11:19:21.796Z</time></trkpt><trkpt lat="43.4384133" lon="11.5575033"><ele>619.6666666666666</ele><time>2026-03-27T11:19:23.795Z</time></trkpt><trkpt lat="43.4384233" lon="11.5576033"><ele>619.5</ele><time>2026-03-27T11:19:25.794Z</time></trkpt><trkpt lat="43.438455" lon="11.557695"><ele>619.3333333333334</ele><time>2026-03-27T11:19:27.797Z</time></trkpt><trkpt lat="43.4384783" lon="11.5577767"><ele>619.1666666666667</ele><time>2026-03-27T11:19:29.796Z</time></trkpt><trkpt lat="43.43851" lon="11.5578667"><ele>619.0</ele><time>2026-03-27T11:19:32.796Z</time></trkpt><trkpt lat="43.43853" lon="11.5579833"><ele>617.6</ele><time>2026-03-27T11:22:16.796Z</time></trkpt><trkpt lat="43.4385617" lon="11.5581367"><ele>616.2</ele><time>2026-03-27T11:22:18.796Z</time></trkpt><trkpt lat="43.438625" lon="11.5582783"><ele>614.8000000000001</ele><time>2026-03-27T11:22:20.797Z</time></trkpt><trkpt lat="43.4386617" lon="11.5583533"><ele>613.4</ele><time>2026-03-27T11:22:21.794Z</time></trkpt><trkpt lat="43.438715" lon="11.55845"><ele>612.0</ele><time>2026-03-27T11:22:22.796Z</time></trkpt><trkpt lat="43.4387817" lon="11.558545"><ele>612.5</ele><time>2026-03-27T11:22:23.796Z</time></trkpt><trkpt lat="43.4388367" lon="11.55863"><ele>613.0</ele><time>2026-03-27T11:22:24.795Z</time></trkpt><trkpt lat="43.4388817" lon="11.5587"><ele>613.5</ele><time>2026-03-27T11:22:25.797Z</time></trkpt><trkpt lat="43.438955" lon="11.5587883"><ele>614.0</ele><time>2026-03-27T11:22:27.795Z</time></trkpt><trkpt lat="43.4390117" lon="11.5588633"><ele>614.5</ele><time>2026-03-27T11:22:29.797Z</time></trkpt><trkpt lat="43.439045" lon="11.5589717"><ele>615.0</ele><time>2026-03-27T11:22:32.797Z</time></trkpt><trkpt lat="43.43904" lon="11.5590767"><ele>615.0</ele><time>2026-03-27T11:22:35.797Z</time></trkpt><trkpt lat="43.4389817" lon="11.5591417"><ele>615.0</ele><time>2026-03-27T11:22:37.795Z</time></trkpt><trkpt lat="43.4388683" lon="11.5591817"><ele>615.0</ele><time>2026-03-27T11:22:39.795Z</time></trkpt><trkpt lat="43.4388033" lon="11.5591867"><ele>615.0</ele><time>2026-03-27T11:22:40.795Z</time></trkpt><trkpt lat="43.4386783" lon="11.559155"><ele>615.0</ele><time>2026-03-27T11:22:42.795Z</time></trkpt><trkpt lat="43.438615" lon="11.559115"><ele>613.8333333333334</ele><time>2026-03-27T11:22:43.795Z</time></trkpt><trkpt lat="43.4385467" lon="11.559075"><ele>612.6666666666666</ele><time>2026-03-27T11:22:44.798Z</time></trkpt><trkpt lat="43.4384717" lon="11.5590367"><ele>611.5</ele><time>2026-03-27T11:22:45.796Z</time></trkpt><trkpt lat="43.4383933" lon="11.55901"><ele>610.3333333333333</ele><time>2026-03-27T11:22:46.793Z</time></trkpt><trkpt lat="43.4383133" lon="11.5589783"><ele>609.1666666666666</ele><time>2026-03-27T11:22:47.796Z</time></trkpt><trkpt lat="43.4382317" lon="11.55894"><ele>608.0</ele><time>2026-03-27T11:22:48.795Z</time></trkpt><trkpt lat="43.438155" lon="11.558885"><ele>608.0</ele><time>2026-03-27T11:22:49.795Z</time></trkpt><trkpt lat="43.438075" lon="11.5588383"><ele>608.0</ele><time>2026-03-27T11:22:50.796Z</time></trkpt><trkpt lat="43.438005" lon="11.558795"><ele>608.0</ele><time>2026-03-27T11:22:51.797Z</time></trkpt><trkpt lat="43.4379267" lon="11.5587567"><ele>608.0</ele><time>2026-03-27T11:22:52.798Z</time></trkpt><trkpt lat="43.4378517" lon="11.558715"><ele>608.0</ele><time>2026-03-27T11:22:53.796Z</time></trkpt><trkpt lat="43.4377783" lon="11.5586833"><ele>608.0</ele><time>2026-03-27T11:22:54.793Z</time></trkpt><trkpt lat="43.4377183" lon="11.5586483"><ele>607.8</ele><time>2026-03-27T11:22:55.795Z</time></trkpt><trkpt lat="43.4376333" lon="11.5585467"><ele>607.5999999999999</ele><time>2026-03-27T11:22:57.794Z</time></trkpt><trkpt lat="43.43756" lon="11.55847"><ele>607.4000000000001</ele><time>2026-03-27T11:22:59.796Z</time></trkpt><trkpt lat="43.4374883" lon="11.5584783"><ele>607.2</ele><time>2026-03-27T11:23:01.796Z</time></trkpt><trkpt lat="43.4374133" lon="11.5585683"><ele>607.0</ele><time>2026-03-27T11:23:03.796Z</time></trkpt><trkpt lat="43.4373283" lon="11.558715"><ele>606.3333333333334</ele><time>2026-03-27T11:23:05.796Z</time></trkpt><trkpt lat="43.4372683" lon="11.5587933"><ele>605.6666666666667</ele><time>2026-03-27T11:23:06.797Z</time></trkpt><trkpt lat="43.43721" lon="11.5588667"><ele>605.0</ele><time>2026-03-27T11:23:07.796Z</time></trkpt><trkpt lat="43.4371517" lon="11.5589417"><ele>604.3333333333334</ele><time>2026-03-27T11:23:08.794Z</time></trkpt><trkpt lat="43.43709" lon="11.558995"><ele>603.6666666666666</ele><time>2026-03-27T11:23:09.797Z</time></trkpt><trkpt lat="43.437025" lon="11.5590333"><ele>603.0</ele><time>2026-03-27T11:23:10.796Z</time></trkpt><trkpt lat="43.436955" lon="11.5590767"><ele>603.0</ele><time>2026-03-27T11:23:11.796Z</time></trkpt><trkpt lat="43.436885" lon="11.55913"><ele>603.0</ele><time>2026-03-27T11:23:12.796Z</time></trkpt><trkpt lat="43.4368217" lon="11.5591967"><ele>603.0</ele><time>2026-03-27T11:23:13.797Z</time></trkpt><trkpt lat="43.436755" lon="11.5592617"><ele>603.0</ele><time>2026-03-27T11:23:14.798Z</time></trkpt><trkpt lat="43.4366867" lon="11.5593267"><ele>603.0</ele><time>2026-03-27T11:23:15.795Z</time></trkpt><trkpt lat="43.4366267" lon="11.5593767"><ele>603.0</ele><time>2026-03-27T11:23:16.796Z</time></trkpt><trkpt lat="43.4365117" lon="11.5594283"><ele>603.0</ele><time>2026-03-27T11:23:18.798Z</time></trkpt><trkpt lat="43.4364467" lon="11.559445"><ele>603.0</ele><time>2026-03-27T11:23:19.796Z</time></trkpt><trkpt lat="43.4363833" lon="11.5594283"><ele>603.0</ele><time>2026-03-27T11:23:20.797Z</time></trkpt><trkpt lat="43.436315" lon="11.5593917"><ele>603.0</ele><time>2026-03-27T11:23:21.796Z</time></trkpt><trkpt lat="43.4362517" lon="11.55934"><ele>603.0</ele><time>2026-03-27T11:23:22.792Z</time></trkpt><trkpt lat="43.4361883" lon="11.5592767"><ele>603.0</ele><time>2026-03-27T11:23:23.796Z</time></trkpt><trkpt lat="43.4361233" lon="11.55921"><ele>603.0</ele><time>2026-03-27T11:23:24.794Z</time></trkpt><trkpt lat="43.436055" lon="11.5591583"><ele>602.8571428571429</ele><time>2026-03-27T11:23:25.795Z</time></trkpt><trkpt lat="43.4359983" lon="11.5591"><ele>602.7142857142857</ele><time>2026-03-27T11:23:26.796Z</time></trkpt><trkpt lat="43.435945" lon="11.5590383"><ele>602.5714285714286</ele><time>2026-03-27T11:23:27.794Z</time></trkpt><trkpt lat="43.435895" lon="11.5589833"><ele>602.4285714285714</ele><time>2026-03-27T11:23:28.795Z</time></trkpt><trkpt lat="43.435815" lon="11.5589317"><ele>602.2857142857142</ele><time>2026-03-27T11:23:30.795Z</time></trkpt><trkpt lat="43.4357767" lon="11.5590083"><ele>602.1428571428571</ele><time>2026-03-27T11:23:32.796Z</time></trkpt><trkpt lat="43.43577" lon="11.5591167"><ele>602.0</ele><time>2026-03-27T11:23:33.795Z</time></trkpt><trkpt lat="43.4357667" lon="11.559225"><ele>602.0</ele><time>2026-03-27T11:23:34.794Z</time></trkpt><trkpt lat="43.4357633" lon="11.5593517"><ele>602.0</ele><time>2026-03-27T11:23:35.793Z</time></trkpt><trkpt lat="43.4357667" lon="11.559485"><ele>602.0</ele><time>2026-03-27T11:23:36.796Z</time></trkpt><trkpt lat="43.4357717" lon="11.5596283"><ele>602.0</ele><time>2026-03-27T11:23:37.796Z</time></trkpt><trkpt lat="43.43577" lon="11.55976"><ele>602.0</ele><time>2026-03-27T11:23:38.796Z</time></trkpt><trkpt lat="43.4357483" lon="11.55986"><ele>601.0</ele><time>2026-03-27T11:23:39.795Z</time></trkpt><trkpt lat="43.43569" lon="11.5599767"><ele>600.0</ele><time>2026-03-27T11:23:41.794Z</time></trkpt><trkpt lat="43.4356333" lon="11.5600183"><ele>599.0</ele><time>2026-03-27T11:23:42.794Z</time></trkpt><trkpt lat="43.43553" lon="11.56006"><ele>598.0</ele><time>2026-03-27T11:23:44.797Z</time></trkpt><trkpt lat="43.4354633" lon="11.5601917"><ele>597.0</ele><time>2026-03-27T11:23:46.796Z</time></trkpt><trkpt lat="43.4354633" lon="11.5603017"><ele>600.8333333333334</ele><time>2026-03-27T11:23:47.797Z</time></trkpt><trkpt lat="43.4354533" lon="11.5604183"><ele>604.6666666666666</ele><time>2026-03-27T11:23:48.796Z</time></trkpt><trkpt lat="43.4354383" lon="11.5605333"><ele>608.5</ele><time>2026-03-27T11:23:49.797Z</time></trkpt><trkpt lat="43.4354217" lon="11.56064"><ele>612.3333333333333</ele><time>2026-03-27T11:23:50.796Z</time></trkpt><trkpt lat="43.435405" lon="11.56074"><ele>616.1666666666666</ele><time>2026-03-27T11:23:51.797Z</time></trkpt><trkpt lat="43.4353917" lon="11.5608483"><ele>620.0</ele><time>2026-03-27T11:23:52.796Z</time></trkpt><trkpt lat="43.4353717" lon="11.56096"><ele>620.0</ele><time>2026-03-27T11:23:53.796Z</time></trkpt><trkpt lat="43.43535" lon="11.5610667"><ele>620.0</ele><time>2026-03-27T11:23:54.797Z</time></trkpt><trkpt lat="43.4353133" lon="11.5611633"><ele>620.0</ele><time>2026-03-27T11:23:55.794Z</time></trkpt><trkpt lat="43.4352583" lon="11.56125"><ele>620.0</ele><time>2026-03-27T11:23:56.797Z</time></trkpt><trkpt lat="43.43519" lon="11.56133"><ele>620.0</ele><time>2026-03-27T11:23:57.795Z</time></trkpt><trkpt lat="43.43511" lon="11.5613917"><ele>620.0</ele><time>2026-03-27T11:23:58.796Z</time></trkpt><trkpt lat="43.4350233" lon="11.56145"><ele>618.0</ele><time>2026-03-27T11:23:59.796Z</time></trkpt><trkpt lat="43.4349383" lon="11.561505"><ele>616.0</ele><time>2026-03-27T11:24:00.796Z</time></trkpt><trkpt lat="43.4348517" lon="11.5615483"><ele>614.0</ele><time>2026-03-27T11:24:01.795Z</time></trkpt><trkpt lat="43.4347617" lon="11.56157"><ele>612.0</ele><time>2026-03-27T11:24:02.798Z</time></trkpt><trkpt lat="43.4346617" lon="11.5615867"><ele>610.0</ele><time>2026-03-27T11:24:03.796Z</time></trkpt><trkpt lat="43.4345717" lon="11.5616033"><ele>610.0</ele><time>2026-03-27T11:24:04.795Z</time></trkpt><trkpt lat="43.4344983" lon="11.5616083"><ele>610.0</ele><time>2026-03-27T11:24:05.794Z</time></trkpt><trkpt lat="43.4344317" lon="11.5616117"><ele>610.0</ele><time>2026-03-27T11:24:06.795Z</time></trkpt><trkpt lat="43.4343683" lon="11.5616083"><ele>610.0</ele><time>2026-03-27T11:24:07.794Z</time></trkpt><trkpt lat="43.434295" lon="11.5616083"><ele>610.0</ele><time>2026-03-27T11:24:08.796Z</time></trkpt><trkpt lat="43.4342283" lon="11.5616067"><ele>610.0</ele><time>2026-03-27T11:24:09.795Z</time></trkpt><trkpt lat="43.43416" lon="11.5616"><ele>610.0</ele><time>2026-03-27T11:24:10.797Z</time></trkpt><trkpt lat="43.434055" lon="11.5615883"><ele>610.0</ele><time>2026-03-27T11:24:12.798Z</time></trkpt><trkpt lat="43.4339533" lon="11.561645"><ele>610.0</ele><time>2026-03-27T11:24:14.797Z</time></trkpt><trkpt lat="43.4338833" lon="11.56172"><ele>610.0</ele><time>2026-03-27T11:24:15.795Z</time></trkpt><trkpt lat="43.4338267" lon="11.561785"><ele>610.0</ele><time>2026-03-27T11:24:16.796Z</time></trkpt><trkpt lat="43.4337633" lon="11.5619183"><ele>610.0</ele><time>2026-03-27T11:24:18.795Z</time></trkpt><trkpt lat="43.433745" lon="11.56202"><ele>611.0</ele><time>2026-03-27T11:24:19.795Z</time></trkpt><trkpt lat="43.4337267" lon="11.5621517"><ele>612.0</ele><time>2026-03-27T11:24:20.796Z</time></trkpt><trkpt lat="43.433705" lon="11.5622817"><ele>613.0</ele><time>2026-03-27T11:24:21.794Z</time></trkpt><trkpt lat="43.43368" lon="11.56241"><ele>614.0</ele><time>2026-03-27T11:24:22.796Z</time></trkpt><trkpt lat="43.43365" lon="11.562545"><ele>615.0</ele><time>2026-03-27T11:24:23.794Z</time></trkpt><trkpt lat="43.433615" lon="11.56269"><ele>615.0</ele><time>2026-03-27T11:24:24.794Z</time></trkpt><trkpt lat="43.43359" lon="11.5628517"><ele>615.0</ele><time>2026-03-27T11:24:25.795Z</time></trkpt><trkpt lat="43.4335733" lon="11.5630233"><ele>615.0</ele><time>2026-03-27T11:24:26.795Z</time></trkpt><trkpt lat="43.43356" lon="11.5631767"><ele>615.0</ele><time>2026-03-27T11:24:27.802Z</time></trkpt><trkpt lat="43.4335533" lon="11.56329"><ele>615.0</ele><time>2026-03-27T11:24:28.794Z</time></trkpt><trkpt lat="43.4335633" lon="11.5633967"><ele>615.2</ele><time>2026-03-27T11:24:29.796Z</time></trkpt><trkpt lat="43.4335883" lon="11.5635167"><ele>615.4</ele><time>2026-03-27T11:24:30.797Z</time></trkpt><trkpt lat="43.4336317" lon="11.5636333"><ele>615.6</ele><time>2026-03-27T11:24:31.795Z</time></trkpt><trkpt lat="43.4336733" lon="11.5637433"><ele>615.8</ele><time>2026-03-27T11:24:32.797Z</time></trkpt><trkpt lat="43.4337183" lon="11.563855"><ele>616.0</ele><time>2026-03-27T11:24:33.793Z</time></trkpt><trkpt lat="43.433745" lon="11.5639917"><ele>616.5</ele><time>2026-03-27T11:24:34.795Z</time></trkpt><trkpt lat="43.4337667" lon="11.564125"><ele>617.0</ele><time>2026-03-27T11:24:35.797Z</time></trkpt><trkpt lat="43.4337783" lon="11.5642567"><ele>617.5</ele><time>2026-03-27T11:24:36.796Z</time></trkpt><trkpt lat="43.43379" lon="11.5643817"><ele>618.0</ele><time>2026-03-27T11:24:37.795Z</time></trkpt><trkpt lat="43.4338033" lon="11.5644883"><ele>618.5</ele><time>2026-03-27T11:24:38.797Z</time></trkpt><trkpt lat="43.4338017" lon="11.5645833"><ele>619.0</ele><time>2026-03-27T11:24:39.796Z</time></trkpt><trkpt lat="43.4337617" lon="11.5647367"><ele>617.6666666666667</ele><time>2026-03-27T11:24:41.797Z</time></trkpt><trkpt lat="43.4337133" lon="11.5648117"><ele>616.3333333333334</ele><time>2026-03-27T11:24:42.794Z</time></trkpt><trkpt lat="43.433655" lon="11.5648933"><ele>615.0</ele><time>2026-03-27T11:24:43.795Z</time></trkpt><trkpt lat="43.43359" lon="11.564975"><ele>613.6666666666666</ele><time>2026-03-27T11:24:44.797Z</time></trkpt><trkpt lat="43.43353" lon="11.5650417"><ele>612.3333333333333</ele><time>2026-03-27T11:24:45.797Z</time></trkpt><trkpt lat="43.4334783" lon="11.5651083"><ele>611.0</ele><time>2026-03-27T11:24:46.794Z</time></trkpt><trkpt lat="43.43343" lon="11.5651833"><ele>611.0</ele><time>2026-03-27T11:24:47.797Z</time></trkpt><trkpt lat="43.4333883" lon="11.5652767"><ele>611.0</ele><time>2026-03-27T11:24:48.796Z</time></trkpt><trkpt lat="43.4333433" lon="11.56539"><ele>611.0</ele><time>2026-03-27T11:24:49.798Z</time></trkpt><trkpt lat="43.433305" lon="11.5654933"><ele>611.0</ele><time>2026-03-27T11:24:50.799Z</time></trkpt><trkpt lat="43.4332567" lon="11.565605"><ele>611.0</ele><time>2026-03-27T11:24:51.795Z</time></trkpt><trkpt lat="43.433215" lon="11.5657083"><ele>611.0</ele><time>2026-03-27T11:24:52.794Z</time></trkpt><trkpt lat="43.4331783" lon="11.5658183"><ele>609.0</ele><time>2026-03-27T11:24:53.795Z</time></trkpt><trkpt lat="43.4331417" lon="11.5659417"><ele>607.0</ele><time>2026-03-27T11:24:54.795Z</time></trkpt><trkpt lat="43.4330883" lon="11.5660683"><ele>605.0</ele><time>2026-03-27T11:24:55.797Z</time></trkpt><trkpt lat="43.433035" lon="11.5662017"><ele>603.0</ele><time>2026-03-27T11:24:56.797Z</time></trkpt><trkpt lat="43.4329917" lon="11.56633"><ele>601.0</ele><time>2026-03-27T11:24:57.795Z</time></trkpt><trkpt lat="43.4329383" lon="11.5664517"><ele>601.0</ele><time>2026-03-27T11:24:58.797Z</time></trkpt><trkpt lat="43.4328933" lon="11.56655"><ele>601.0</ele><time>2026-03-27T11:24:59.796Z</time></trkpt><trkpt lat="43.4328533" lon="11.5666367"><ele>601.0</ele><time>2026-03-27T11:25:00.796Z</time></trkpt><trkpt lat="43.4328317" lon="11.5667417"><ele>601.0</ele><time>2026-03-27T11:25:01.795Z</time></trkpt><trkpt lat="43.4328167" lon="11.5668333"><ele>601.0</ele><time>2026-03-27T11:25:02.802Z</time></trkpt><trkpt lat="43.4327883" lon="11.567005"><ele>601.0</ele><time>2026-03-27T11:25:04.795Z</time></trkpt><trkpt lat="43.432775" lon="11.5671117"><ele>601.6</ele><time>2026-03-27T11:25:05.795Z</time></trkpt><trkpt lat="43.4327583" lon="11.567245"><ele>602.2</ele><time>2026-03-27T11:25:06.796Z</time></trkpt><trkpt lat="43.4327433" lon="11.5673917"><ele>602.8</ele><time>2026-03-27T11:25:07.797Z</time></trkpt><trkpt lat="43.4327283" lon="11.5675317"><ele>603.4</ele><time>2026-03-27T11:25:08.795Z</time></trkpt><trkpt lat="43.4327117" lon="11.5676567"><ele>604.0</ele><time>2026-03-27T11:25:09.795Z</time></trkpt><trkpt lat="43.4326983" lon="11.5677733"><ele>604.5</ele><time>2026-03-27T11:25:10.795Z</time></trkpt><trkpt lat="43.4326817" lon="11.5678817"><ele>605.0</ele><time>2026-03-27T11:25:11.796Z</time></trkpt><trkpt lat="43.4326583" lon="11.56799"><ele>605.5</ele><time>2026-03-27T11:25:12.796Z</time></trkpt><trkpt lat="43.4326433" lon="11.5680933"><ele>606.0</ele><time>2026-03-27T11:25:13.795Z</time></trkpt><trkpt lat="43.4326267" lon="11.5681917"><ele>606.5</ele><time>2026-03-27T11:25:14.797Z</time></trkpt><trkpt lat="43.4326133" lon="11.5682967"><ele>607.0</ele><time>2026-03-27T11:25:15.795Z</time></trkpt><trkpt lat="43.4326017" lon="11.5684117"><ele>607.0</ele><time>2026-03-27T11:25:16.795Z</time></trkpt><trkpt lat="43.4325967" lon="11.5685317"><ele>607.0</ele><time>2026-03-27T11:25:17.796Z</time></trkpt><trkpt lat="43.4326033" lon="11.5686433"><ele>607.0</ele><time>2026-03-27T11:25:18.794Z</time></trkpt><trkpt lat="43.4326283" lon="11.5687383"><ele>607.0</ele><time>2026-03-27T11:25:19.795Z</time></trkpt><trkpt lat="43.4326367" lon="11.568825"><ele>607.0</ele><time>2026-03-27T11:25:20.795Z</time></trkpt><trkpt lat="43.4326433" lon="11.56893"><ele>607.0</ele><time>2026-03-27T11:25:21.796Z</time></trkpt><trkpt lat="43.4326683" lon="11.569055"><ele>606.3333333333334</ele><time>2026-03-27T11:25:22.794Z</time></trkpt><trkpt lat="43.4327033" lon="11.5691833"><ele>605.6666666666667</ele><time>2026-03-27T11:25:23.796Z</time></trkpt><trkpt lat="43.43273" lon="11.5692917"><ele>605.0</ele><time>2026-03-27T11:25:24.796Z</time></trkpt><trkpt lat="43.4327483" lon="11.569375"><ele>604.3333333333334</ele><time>2026-03-27T11:25:25.794Z</time></trkpt><trkpt lat="43.432775" lon="11.56948"><ele>603.6666666666666</ele><time>2026-03-27T11:25:27.793Z</time></trkpt><trkpt lat="43.432855" lon="11.56957"><ele>603.0</ele><time>2026-03-27T11:25:29.795Z</time></trkpt><trkpt lat="43.4329217" lon="11.56962"><ele>600.8333333333334</ele><time>2026-03-27T11:25:30.796Z</time></trkpt><trkpt lat="43.4329833" lon="11.569685"><ele>598.6666666666666</ele><time>2026-03-27T11:25:31.795Z</time></trkpt><trkpt lat="43.43305" lon="11.5697467"><ele>596.5</ele><time>2026-03-27T11:25:32.795Z</time></trkpt><trkpt lat="43.4331167" lon="11.5697917"><ele>594.3333333333333</ele><time>2026-03-27T11:25:33.795Z</time></trkpt><trkpt lat="43.4331917" lon="11.5698133"><ele>592.1666666666666</ele><time>2026-03-27T11:25:34.794Z</time></trkpt><trkpt lat="43.4332867" lon="11.5698133"><ele>590.0</ele><time>2026-03-27T11:25:35.795Z</time></trkpt><trkpt lat="43.433395" lon="11.569785"><ele>590.0</ele><time>2026-03-27T11:25:36.793Z</time></trkpt><trkpt lat="43.4335117" lon="11.5697667"><ele>590.0</ele><time>2026-03-27T11:25:37.795Z</time></trkpt><trkpt lat="43.4336233" lon="11.5697583"><ele>590.0</ele><time>2026-03-27T11:25:38.797Z</time></trkpt><trkpt lat="43.4337383" lon="11.56976"><ele>590.0</ele><time>2026-03-27T11:25:39.796Z</time></trkpt><trkpt lat="43.4338617" lon="11.5697717"><ele>590.0</ele><time>2026-03-27T11:25:40.796Z</time></trkpt><trkpt lat="43.434" lon="11.56978"><ele>590.0</ele><time>2026-03-27T11:25:41.794Z</time></trkpt><trkpt lat="43.4341417" lon="11.5697867"><ele>590.0</ele><time>2026-03-27T11:25:42.796Z</time></trkpt><trkpt lat="43.4342817" lon="11.569785"><ele>590.0</ele><time>2026-03-27T11:25:43.794Z</time></trkpt><trkpt lat="43.434415" lon="11.5697783"><ele>590.0</ele><time>2026-03-27T11:25:44.797Z</time></trkpt><trkpt lat="43.4345317" lon="11.5697783"><ele>590.0</ele><time>2026-03-27T11:25:45.794Z</time></trkpt><trkpt lat="43.4346417" lon="11.5698017"><ele>590.0</ele><time>2026-03-27T11:25:46.795Z</time></trkpt><trkpt lat="43.4347533" lon="11.5698567"><ele>590.0</ele><time>2026-03-27T11:25:47.795Z</time></trkpt><trkpt lat="43.43487" lon="11.569935"><ele>590.5</ele><time>2026-03-27T11:25:48.798Z</time></trkpt><trkpt lat="43.4349867" lon="11.5700333"><ele>591.0</ele><time>2026-03-27T11:25:49.793Z</time></trkpt><trkpt lat="43.4350983" lon="11.5701467"><ele>591.5</ele><time>2026-03-27T11:25:50.796Z</time></trkpt><trkpt lat="43.435205" lon="11.57027"><ele>592.0</ele><time>2026-03-27T11:25:51.796Z</time></trkpt><trkpt lat="43.4353067" lon="11.5703817"><ele>590.4</ele><time>2026-03-27T11:25:52.797Z</time></trkpt><trkpt lat="43.4353983" lon="11.570485"><ele>588.8000000000001</ele><time>2026-03-27T11:25:53.797Z</time></trkpt><trkpt lat="43.4354817" lon="11.5705767"><ele>587.2</ele><time>2026-03-27T11:25:54.796Z</time></trkpt><trkpt lat="43.4355633" lon="11.5706583"><ele>585.6</ele><time>2026-03-27T11:25:55.796Z</time></trkpt><trkpt lat="43.4356467" lon="11.570725"><ele>584.0</ele><time>2026-03-27T11:25:56.797Z</time></trkpt><trkpt lat="43.4357383" lon="11.570785"><ele>584.0</ele><time>2026-03-27T11:25:57.795Z</time></trkpt><trkpt lat="43.435835" lon="11.5708283"><ele>584.0</ele><time>2026-03-27T11:25:58.795Z</time></trkpt><trkpt lat="43.4359267" lon="11.5708567"><ele>584.0</ele><time>2026-03-27T11:25:59.796Z</time></trkpt><trkpt lat="43.4360183" lon="11.57088"><ele>584.0</ele><time>2026-03-27T11:26:00.795Z</time></trkpt><trkpt lat="43.4361017" lon="11.5708967"><ele>584.0</ele><time>2026-03-27T11:26:01.795Z</time></trkpt><trkpt lat="43.4361683" lon="11.5709533"><ele>584.0</ele><time>2026-03-27T11:26:02.797Z</time></trkpt><trkpt lat="43.436225" lon="11.571045"><ele>584.0</ele><time>2026-03-27T11:26:03.795Z</time></trkpt><trkpt lat="43.4362717" lon="11.5711583"><ele>584.0</ele><time>2026-03-27T11:26:04.794Z</time></trkpt><trkpt lat="43.436305" lon="11.5712817"><ele>584.0</ele><time>2026-03-27T11:26:05.796Z</time></trkpt><trkpt lat="43.4363367" lon="11.5714133"><ele>584.0</ele><time>2026-03-27T11:26:06.797Z</time></trkpt><trkpt lat="43.4363667" lon="11.5715683"><ele>583.8</ele><time>2026-03-27T11:26:07.795Z</time></trkpt><trkpt lat="43.4363933" lon="11.5717167"><ele>583.5999999999999</ele><time>2026-03-27T11:26:08.796Z</time></trkpt><trkpt lat="43.4364267" lon="11.5718467"><ele>583.4</ele><time>2026-03-27T11:26:09.795Z</time></trkpt><trkpt lat="43.4364717" lon="11.5719717"><ele>583.1999999999999</ele><time>2026-03-27T11:26:10.794Z</time></trkpt><trkpt lat="43.436535" lon="11.5720983"><ele>583.0</ele><time>2026-03-27T11:26:11.796Z</time></trkpt><trkpt lat="43.4366067" lon="11.5722317"><ele>578.5</ele><time>2026-03-27T11:26:12.797Z</time></trkpt><trkpt lat="43.4366783" lon="11.5723817"><ele>574.0</ele><time>2026-03-27T11:26:13.795Z</time></trkpt><trkpt lat="43.4367567" lon="11.5725567"><ele>569.5</ele><time>2026-03-27T11:26:14.796Z</time></trkpt><trkpt lat="43.4368333" lon="11.5727367"><ele>565.0</ele><time>2026-03-27T11:26:15.793Z</time></trkpt><trkpt lat="43.4368967" lon="11.572905"><ele>562.0</ele><time>2026-03-27T11:26:16.796Z</time></trkpt><trkpt lat="43.43694" lon="11.5730583"><ele>559.0</ele><time>2026-03-27T11:26:17.797Z</time></trkpt><trkpt lat="43.4369633" lon="11.5731933"><ele>556.0</ele><time>2026-03-27T11:26:18.795Z</time></trkpt><trkpt lat="43.4369817" lon="11.5733133"><ele>553.0</ele><time>2026-03-27T11:26:19.795Z</time></trkpt><trkpt lat="43.4370133" lon="11.5734217"><ele>550.0</ele><time>2026-03-27T11:26:20.796Z</time></trkpt><trkpt lat="43.4370667" lon="11.5735233"><ele>552.0</ele><time>2026-03-27T11:26:21.796Z</time></trkpt><trkpt lat="43.43715" lon="11.5736283"><ele>554.0</ele><time>2026-03-27T11:26:22.795Z</time></trkpt><trkpt lat="43.4372767" lon="11.5737383"><ele>556.0</ele><time>2026-03-27T11:26:23.794Z</time></trkpt><trkpt lat="43.4373917" lon="11.5738433"><ele>558.0</ele><time>2026-03-27T11:26:24.795Z</time></trkpt><trkpt lat="43.4374817" lon="11.5739417"><ele>558.0</ele><time>2026-03-27T11:26:25.795Z</time></trkpt><trkpt lat="43.43754" lon="11.574035"><ele>558.0</ele><time>2026-03-27T11:26:26.796Z</time></trkpt><trkpt lat="43.43759" lon="11.5741467"><ele>558.0</ele><time>2026-03-27T11:26:27.795Z</time></trkpt><trkpt lat="43.4376183" lon="11.5742967"><ele>558.0</ele><time>2026-03-27T11:26:28.794Z</time></trkpt><trkpt lat="43.4376367" lon="11.5744567"><ele>558.0</ele><time>2026-03-27T11:26:29.795Z</time></trkpt><trkpt lat="43.4376517" lon="11.5745883"><ele>559.1666666666666</ele><time>2026-03-27T11:26:30.794Z</time></trkpt><trkpt lat="43.4376683" lon="11.5746983"><ele>560.3333333333334</ele><time>2026-03-27T11:26:31.795Z</time></trkpt><trkpt lat="43.437695" lon="11.574795"><ele>561.5</ele><time>2026-03-27T11:26:32.797Z</time></trkpt><trkpt lat="43.43774" lon="11.5748733"><ele>562.6666666666667</ele><time>2026-03-27T11:26:33.796Z</time></trkpt><trkpt lat="43.437805" lon="11.5749417"><ele>563.8333333333334</ele><time>2026-03-27T11:26:34.795Z</time></trkpt><trkpt lat="43.43788" lon="11.5749833"><ele>565.0</ele><time>2026-03-27T11:26:35.795Z</time></trkpt><trkpt lat="43.4379717" lon="11.5750133"><ele>565.0</ele><time>2026-03-27T11:26:36.793Z</time></trkpt><trkpt lat="43.4380617" lon="11.5750733"><ele>565.0</ele><time>2026-03-27T11:26:37.794Z</time></trkpt><trkpt lat="43.4381467" lon="11.5751833"><ele>565.0</ele><time>2026-03-27T11:26:38.795Z</time></trkpt><trkpt lat="43.4382317" lon="11.575325"><ele>565.0</ele><time>2026-03-27T11:26:39.796Z</time></trkpt><trkpt lat="43.4383083" lon="11.5754817"><ele>561.2</ele><time>2026-03-27T11:26:40.796Z</time></trkpt><trkpt lat="43.4383767" lon="11.5756333"><ele>557.4</ele><time>2026-03-27T11:26:41.796Z</time></trkpt><trkpt lat="43.4384283" lon="11.57576"><ele>553.6</ele><time>2026-03-27T11:26:42.794Z</time></trkpt><trkpt lat="43.4384567" lon="11.5758667"><ele>549.8</ele><time>2026-03-27T11:26:43.795Z</time></trkpt><trkpt lat="43.43846" lon="11.57597"><ele>546.0</ele><time>2026-03-27T11:26:44.797Z</time></trkpt><trkpt lat="43.438455" lon="11.5760817"><ele>542.0</ele><time>2026-03-27T11:26:45.796Z</time></trkpt><trkpt lat="43.4384517" lon="11.5761933"><ele>538.0</ele><time>2026-03-27T11:26:46.795Z</time></trkpt><trkpt lat="43.438465" lon="11.5763"><ele>534.0</ele><time>2026-03-27T11:26:47.796Z</time></trkpt><trkpt lat="43.4384983" lon="11.5764017"><ele>530.0</ele><time>2026-03-27T11:26:48.796Z</time></trkpt><trkpt lat="43.43856" lon="11.5765133"><ele>526.0</ele><time>2026-03-27T11:26:49.796Z</time></trkpt><trkpt lat="43.438655" lon="11.576655"><ele>526.0</ele><time>2026-03-27T11:26:50.797Z</time></trkpt><trkpt lat="43.438755" lon="11.5768067"><ele>526.0</ele><time>2026-03-27T11:26:51.795Z</time></trkpt><trkpt lat="43.438845" lon="11.5769567"><ele>526.0</ele><time>2026-03-27T11:26:52.795Z</time></trkpt><trkpt lat="43.438925" lon="11.5770983"><ele>526.0</ele><time>2026-03-27T11:26:53.795Z</time></trkpt><trkpt lat="43.439" lon="11.5772233"><ele>526.1666666666667</ele><time>2026-03-27T11:26:54.796Z</time></trkpt><trkpt lat="43.4390683" lon="11.577325"><ele>526.3333333333334</ele><time>2026-03-27T11:26:55.796Z</time></trkpt><trkpt lat="43.4391167" lon="11.5774133"><ele>526.5</ele><time>2026-03-27T11:26:56.796Z</time></trkpt><trkpt lat="43.4391367" lon="11.5775183"><ele>526.6666666666666</ele><time>2026-03-27T11:26:57.796Z</time></trkpt><trkpt lat="43.43913" lon="11.5776383"><ele>526.8333333333333</ele><time>2026-03-27T11:26:58.796Z</time></trkpt><trkpt lat="43.4391183" lon="11.5777683"><ele>527.0</ele><time>2026-03-27T11:26:59.795Z</time></trkpt><trkpt lat="43.4391167" lon="11.5779017"><ele>526.4</ele><time>2026-03-27T11:27:00.797Z</time></trkpt><trkpt lat="43.4391167" lon="11.5780317"><ele>525.8000000000001</ele><time>2026-03-27T11:27:01.795Z</time></trkpt><trkpt lat="43.43912" lon="11.5781683"><ele>525.2</ele><time>2026-03-27T11:27:02.796Z</time></trkpt><trkpt lat="43.439115" lon="11.5783017"><ele>524.6</ele><time>2026-03-27T11:27:03.795Z</time></trkpt><trkpt lat="43.439105" lon="11.578425"><ele>524.0</ele><time>2026-03-27T11:27:04.794Z</time></trkpt><trkpt lat="43.4391117" lon="11.5785483"><ele>524.0</ele><time>2026-03-27T11:27:05.795Z</time></trkpt><trkpt lat="43.4391483" lon="11.5786783"><ele>524.0</ele><time>2026-03-27T11:27:06.796Z</time></trkpt><trkpt lat="43.4391933" lon="11.5788083"><ele>524.0</ele><time>2026-03-27T11:27:07.795Z</time></trkpt><trkpt lat="43.4392283" lon="11.578945"><ele>524.0</ele><time>2026-03-27T11:27:08.797Z</time></trkpt><trkpt lat="43.4392417" lon="11.57909"><ele>524.0</ele><time>2026-03-27T11:27:09.796Z</time></trkpt><trkpt lat="43.4392417" lon="11.5792317"><ele>524.4</ele><time>2026-03-27T11:27:10.795Z</time></trkpt><trkpt lat="43.4392433" lon="11.5793617"><ele>524.8</ele><time>2026-03-27T11:27:11.796Z</time></trkpt><trkpt lat="43.43926" lon="11.57948"><ele>525.2</ele><time>2026-03-27T11:27:12.796Z</time></trkpt><trkpt lat="43.4393083" lon="11.579595"><ele>525.6</ele><time>2026-03-27T11:27:13.795Z</time></trkpt><trkpt lat="43.4393717" lon="11.5797083"><ele>526.0</ele><time>2026-03-27T11:27:14.797Z</time></trkpt><trkpt lat="43.4394533" lon="11.5798183"><ele>525.2</ele><time>2026-03-27T11:27:15.797Z</time></trkpt><trkpt lat="43.4395367" lon="11.579905"><ele>524.4000000000001</ele><time>2026-03-27T11:27:16.795Z</time></trkpt><trkpt lat="43.4396083" lon="11.5799733"><ele>523.6</ele><time>2026-03-27T11:27:17.796Z</time></trkpt><trkpt lat="43.4396883" lon="11.58003"><ele>522.8000000000001</ele><time>2026-03-27T11:27:18.796Z</time></trkpt><trkpt lat="43.4397717" lon="11.5800817"><ele>522.0</ele><time>2026-03-27T11:27:19.794Z</time></trkpt><trkpt lat="43.4398567" lon="11.580135"><ele>521.0</ele><time>2026-03-27T11:27:20.796Z</time></trkpt><trkpt lat="43.43994" lon="11.580185"><ele>520.0</ele><time>2026-03-27T11:27:21.797Z</time></trkpt><trkpt lat="43.4400217" lon="11.5802417"><ele>519.0</ele><time>2026-03-27T11:27:22.796Z</time></trkpt><trkpt lat="43.4401033" lon="11.5803033"><ele>518.0</ele><time>2026-03-27T11:27:23.796Z</time></trkpt><trkpt lat="43.4401867" lon="11.5803617"><ele>517.0</ele><time>2026-03-27T11:27:24.796Z</time></trkpt><trkpt lat="43.4402633" lon="11.5804167"><ele>516.4</ele><time>2026-03-27T11:27:25.795Z</time></trkpt><trkpt lat="43.44034" lon="11.5804783"><ele>515.8000000000001</ele><time>2026-03-27T11:27:26.796Z</time></trkpt><trkpt lat="43.4404167" lon="11.580555"><ele>515.2</ele><time>2026-03-27T11:27:27.795Z</time></trkpt><trkpt lat="43.4404867" lon="11.5806517"><ele>514.6</ele><time>2026-03-27T11:27:28.797Z</time></trkpt><trkpt lat="43.44055" lon="11.5807583"><ele>514.0</ele><time>2026-03-27T11:27:29.796Z</time></trkpt><trkpt lat="43.4406117" lon="11.580855"><ele>511.6666666666667</ele><time>2026-03-27T11:27:30.794Z</time></trkpt><trkpt lat="43.4406767" lon="11.5809433"><ele>509.33333333333337</ele><time>2026-03-27T11:27:31.796Z</time></trkpt><trkpt lat="43.4407533" lon="11.5810183"><ele>507.0</ele><time>2026-03-27T11:27:32.795Z</time></trkpt><trkpt lat="43.4408317" lon="11.5810767"><ele>504.66666666666663</ele><time>2026-03-27T11:27:33.789Z</time></trkpt><trkpt lat="43.4408933" lon="11.5811333"><ele>502.3333333333333</ele><time>2026-03-27T11:27:34.795Z</time></trkpt><trkpt lat="43.4409417" lon="11.58119"><ele>500.0</ele><time>2026-03-27T11:27:35.796Z</time></trkpt><trkpt lat="43.44099" lon="11.5813083"><ele>499.66666666666663</ele><time>2026-03-27T11:27:37.794Z</time></trkpt><trkpt lat="43.441" lon="11.5814067"><ele>499.3333333333333</ele><time>2026-03-27T11:27:38.797Z</time></trkpt><trkpt lat="43.4410083" lon="11.5815317"><ele>499.0</ele><time>2026-03-27T11:27:39.796Z</time></trkpt><trkpt lat="43.44101" lon="11.5816767"><ele>498.66666666666663</ele><time>2026-03-27T11:27:40.795Z</time></trkpt><trkpt lat="43.4410133" lon="11.5818017"><ele>498.3333333333333</ele><time>2026-03-27T11:27:41.796Z</time></trkpt><trkpt lat="43.44102" lon="11.5819167"><ele>498.0</ele><time>2026-03-27T11:27:42.795Z</time></trkpt><trkpt lat="43.4410267" lon="11.5820167"><ele>496.6666666666667</ele><time>2026-03-27T11:27:43.795Z</time></trkpt><trkpt lat="43.441025" lon="11.58211"><ele>495.33333333333337</ele><time>2026-03-27T11:27:44.797Z</time></trkpt><trkpt lat="43.4410083" lon="11.5821983"><ele>494.0</ele><time>2026-03-27T11:27:45.795Z</time></trkpt><trkpt lat="43.4409867" lon="11.5823017"><ele>492.6666666666667</ele><time>2026-03-27T11:27:46.797Z</time></trkpt><trkpt lat="43.440985" lon="11.5824217"><ele>491.33333333333337</ele><time>2026-03-27T11:27:47.796Z</time></trkpt><trkpt lat="43.441" lon="11.5825533"><ele>490.0</ele><time>2026-03-27T11:27:48.797Z</time></trkpt><trkpt lat="43.4410183" lon="11.5826917"><ele>490.00000000000006</ele><time>2026-03-27T11:27:49.798Z</time></trkpt><trkpt lat="43.4410533" lon="11.58282"><ele>490.0</ele><time>2026-03-27T11:27:50.796Z</time></trkpt><trkpt lat="43.4410867" lon="11.58293"><ele>490.0</ele><time>2026-03-27T11:27:51.796Z</time></trkpt><trkpt lat="43.4411233" lon="11.58302"><ele>490.0</ele><time>2026-03-27T11:27:52.795Z</time></trkpt><trkpt lat="43.4412017" lon="11.5831317"><ele>490.00000000000006</ele><time>2026-03-27T11:27:54.797Z</time></trkpt><trkpt lat="43.44123" lon="11.583225"><ele>490.0</ele><time>2026-03-27T11:27:56.797Z</time></trkpt><trkpt lat="43.441185" lon="11.583305"><ele>487.2</ele><time>2026-03-27T11:27:58.795Z</time></trkpt><trkpt lat="43.4410933" lon="11.5832733"><ele>484.4</ele><time>2026-03-27T11:28:00.796Z</time></trkpt><trkpt lat="43.44104" lon="11.5832167"><ele>481.6</ele><time>2026-03-27T11:28:01.794Z</time></trkpt><trkpt lat="43.4409883" lon="11.583145"><ele>478.8</ele><time>2026-03-27T11:28:02.797Z</time></trkpt><trkpt lat="43.4409133" lon="11.5830617"><ele>476.0</ele><time>2026-03-27T11:28:04.795Z</time></trkpt><trkpt lat="43.4407733" lon="11.58302"><ele>476.0</ele><time>2026-03-27T11:28:06.795Z</time></trkpt><trkpt lat="43.4406733" lon="11.58302"><ele>476.0</ele><time>2026-03-27T11:28:07.795Z</time></trkpt><trkpt lat="43.4405633" lon="11.5830533"><ele>476.0</ele><time>2026-03-27T11:28:08.797Z</time></trkpt><trkpt lat="43.440435" lon="11.5831233"><ele>476.0</ele><time>2026-03-27T11:28:09.796Z</time></trkpt><trkpt lat="43.440305" lon="11.583205"><ele>476.0</ele><time>2026-03-27T11:28:10.795Z</time></trkpt><trkpt lat="43.4401867" lon="11.583275"><ele>476.0</ele><time>2026-03-27T11:28:11.796Z</time></trkpt><trkpt lat="43.4400733" lon="11.58337"><ele>476.0</ele><time>2026-03-27T11:28:12.794Z</time></trkpt><trkpt lat="43.4399717" lon="11.5834783"><ele>476.0</ele><time>2026-03-27T11:28:13.796Z</time></trkpt><trkpt lat="43.4398817" lon="11.5836083"><ele>476.5</ele><time>2026-03-27T11:28:14.796Z</time></trkpt><trkpt lat="43.4397967" lon="11.5837633"><ele>477.0</ele><time>2026-03-27T11:28:15.796Z</time></trkpt><trkpt lat="43.4397133" lon="11.5839217"><ele>477.5</ele><time>2026-03-27T11:28:16.794Z</time></trkpt><trkpt lat="43.4396367" lon="11.584085"><ele>478.0</ele><time>2026-03-27T11:28:17.791Z</time></trkpt><trkpt lat="43.4395633" lon="11.58424"><ele>478.0</ele><time>2026-03-27T11:28:18.795Z</time></trkpt><trkpt lat="43.439495" lon="11.5843767"><ele>478.0</ele><time>2026-03-27T11:28:19.796Z</time></trkpt><trkpt lat="43.4394217" lon="11.5845067"><ele>478.0</ele><time>2026-03-27T11:28:20.797Z</time></trkpt><trkpt lat="43.4393483" lon="11.5846267"><ele>478.0</ele><time>2026-03-27T11:28:21.796Z</time></trkpt><trkpt lat="43.4392717" lon="11.5847283"><ele>476.79999999999995</ele><time>2026-03-27T11:28:22.795Z</time></trkpt><trkpt lat="43.439195" lon="11.584825"><ele>475.59999999999997</ele><time>2026-03-27T11:28:23.795Z</time></trkpt><trkpt lat="43.4391333" lon="11.5849267"><ele>474.40000000000003</ele><time>2026-03-27T11:28:24.795Z</time></trkpt><trkpt lat="43.4390883" lon="11.5850483"><ele>473.20000000000005</ele><time>2026-03-27T11:28:25.795Z</time></trkpt><trkpt lat="43.4390617" lon="11.5851967"><ele>472.0</ele><time>2026-03-27T11:28:26.796Z</time></trkpt><trkpt lat="43.439045" lon="11.585355"><ele>470.20000000000005</ele><time>2026-03-27T11:28:27.795Z</time></trkpt><trkpt lat="43.4390333" lon="11.5855067"><ele>468.40000000000003</ele><time>2026-03-27T11:28:28.795Z</time></trkpt><trkpt lat="43.4390133" lon="11.58565"><ele>466.59999999999997</ele><time>2026-03-27T11:28:29.793Z</time></trkpt><trkpt lat="43.4389783" lon="11.58579"><ele>464.79999999999995</ele><time>2026-03-27T11:28:30.794Z</time></trkpt><trkpt lat="43.438925" lon="11.585925"><ele>463.0</ele><time>2026-03-27T11:28:31.793Z</time></trkpt><trkpt lat="43.438865" lon="11.5860567"><ele>462.0</ele><time>2026-03-27T11:28:32.796Z</time></trkpt><trkpt lat="43.4388117" lon="11.5861817"><ele>460.99999999999994</ele><time>2026-03-27T11:28:33.795Z</time></trkpt><trkpt lat="43.4387667" lon="11.5863033"><ele>459.99999999999994</ele><time>2026-03-27T11:28:34.795Z</time></trkpt><trkpt lat="43.43874" lon="11.5864117"><ele>459.0</ele><time>2026-03-27T11:28:35.794Z</time></trkpt><trkpt lat="43.4387183" lon="11.5865217"><ele>458.0</ele><time>2026-03-27T11:28:36.794Z</time></trkpt><trkpt lat="43.4387" lon="11.5866417"><ele>457.99999999999994</ele><time>2026-03-27T11:28:37.796Z</time></trkpt><trkpt lat="43.43869" lon="11.58677"><ele>458.0</ele><time>2026-03-27T11:28:38.795Z</time></trkpt><trkpt lat="43.4386783" lon="11.586895"><ele>458.0</ele><time>2026-03-27T11:28:39.794Z</time></trkpt><trkpt lat="43.4386633" lon="11.5870083"><ele>458.0</ele><time>2026-03-27T11:28:40.794Z</time></trkpt><trkpt lat="43.4386483" lon="11.5871017"><ele>457.99999999999994</ele><time>2026-03-27T11:28:41.794Z</time></trkpt><trkpt lat="43.4385933" lon="11.587225"><ele>458.0</ele><time>2026-03-27T11:28:43.793Z</time></trkpt><trkpt lat="43.4385133" lon="11.5873133"><ele>457.8333333333333</ele><time>2026-03-27T11:28:45.794Z</time></trkpt><trkpt lat="43.43846" lon="11.5873767"><ele>457.66666666666663</ele><time>2026-03-27T11:28:46.796Z</time></trkpt><trkpt lat="43.4384033" lon="11.5874583"><ele>457.5</ele><time>2026-03-27T11:28:47.796Z</time></trkpt><trkpt lat="43.4383533" lon="11.587535"><ele>457.33333333333337</ele><time>2026-03-27T11:28:48.802Z</time></trkpt><trkpt lat="43.438305" lon="11.5876083"><ele>457.1666666666667</ele><time>2026-03-27T11:28:49.795Z</time></trkpt><trkpt lat="43.4382633" lon="11.5876733"><ele>457.0</ele><time>2026-03-27T11:28:50.794Z</time></trkpt><trkpt lat="43.4381933" lon="11.5877583"><ele>457.00000000000006</ele><time>2026-03-27T11:28:52.794Z</time></trkpt><trkpt lat="43.438125" lon="11.5877783"><ele>457.0</ele><time>2026-03-27T11:28:55.795Z</time></trkpt><trkpt lat="43.4380867" lon="11.5876867"><ele>457.00000000000006</ele><time>2026-03-27T11:28:57.796Z</time></trkpt><trkpt lat="43.438065" lon="11.587595"><ele>457.00000000000006</ele><time>2026-03-27T11:28:58.794Z</time></trkpt><trkpt lat="43.43804" lon="11.5874983"><ele>457.0</ele><time>2026-03-27T11:28:59.796Z</time></trkpt><trkpt lat="43.438015" lon="11.5874033"><ele>457.00000000000006</ele><time>2026-03-27T11:29:00.795Z</time></trkpt><trkpt lat="43.4379867" lon="11.5873117"><ele>457.00000000000006</ele><time>2026-03-27T11:29:01.794Z</time></trkpt><trkpt lat="43.4379583" lon="11.5872283"><ele>454.7142857142858</ele><time>2026-03-27T11:29:02.796Z</time></trkpt><trkpt lat="43.43793" lon="11.58715"><ele>452.42857142857144</ele><time>2026-03-27T11:29:03.794Z</time></trkpt><trkpt lat="43.4378867" lon="11.587085"><ele>450.14285714285717</ele><time>2026-03-27T11:29:04.794Z</time></trkpt><trkpt lat="43.4378283" lon="11.5870317"><ele>447.8571428571429</ele><time>2026-03-27T11:29:05.794Z</time></trkpt><trkpt lat="43.4377683" lon="11.58697"><ele>445.57142857142856</ele><time>2026-03-27T11:29:06.794Z</time></trkpt><trkpt lat="43.4377083" lon="11.58689"><ele>443.2857142857143</ele><time>2026-03-27T11:29:07.795Z</time></trkpt><trkpt lat="43.4376617" lon="11.5867817"><ele>441.0</ele><time>2026-03-27T11:29:08.796Z</time></trkpt><trkpt lat="43.4376283" lon="11.5866667"><ele>441.0</ele><time>2026-03-27T11:29:09.795Z</time></trkpt><trkpt lat="43.4376067" lon="11.5865683"><ele>441.0</ele><time>2026-03-27T11:29:10.795Z</time></trkpt><trkpt lat="43.437585" lon="11.5864833"><ele>441.0</ele><time>2026-03-27T11:29:11.794Z</time></trkpt><trkpt lat="43.43754" lon="11.5864183"><ele>441.0</ele><time>2026-03-27T11:29:12.794Z</time></trkpt><trkpt lat="43.4374733" lon="11.5863683"><ele>441.0</ele><time>2026-03-27T11:29:13.794Z</time></trkpt><trkpt lat="43.4373967" lon="11.5863267"><ele>441.0</ele><time>2026-03-27T11:29:14.797Z</time></trkpt><trkpt lat="43.4373233" lon="11.5862817"><ele>441.0</ele><time>2026-03-27T11:29:15.794Z</time></trkpt><trkpt lat="43.437255" lon="11.58623"><ele>442.0</ele><time>2026-03-27T11:29:16.794Z</time></trkpt><trkpt lat="43.4371917" lon="11.5861733"><ele>443.0</ele><time>2026-03-27T11:29:17.796Z</time></trkpt><trkpt lat="43.4371283" lon="11.5861083"><ele>444.0</ele><time>2026-03-27T11:29:18.796Z</time></trkpt><trkpt lat="43.4370717" lon="11.5860417"><ele>445.0</ele><time>2026-03-27T11:29:19.798Z</time></trkpt><trkpt lat="43.43702" lon="11.58598"><ele>446.0</ele><time>2026-03-27T11:29:20.796Z</time></trkpt><trkpt lat="43.4369317" lon="11.585875"><ele>447.0</ele><time>2026-03-27T11:29:22.794Z</time></trkpt><trkpt lat="43.4368467" lon="11.585745"><ele>443.5</ele><time>2026-03-27T11:29:24.794Z</time></trkpt><trkpt lat="43.436805" lon="11.5856683"><ele>440.0</ele><time>2026-03-27T11:29:25.794Z</time></trkpt><trkpt lat="43.4367567" lon="11.585595"><ele>436.5</ele><time>2026-03-27T11:29:26.796Z</time></trkpt><trkpt lat="43.43671" lon="11.5855217"><ele>433.0</ele><time>2026-03-27T11:29:27.794Z</time></trkpt><trkpt lat="43.436665" lon="11.5854583"><ele>429.5</ele><time>2026-03-27T11:29:28.794Z</time></trkpt><trkpt lat="43.4365783" lon="11.5853683"><ele>426.0</ele><time>2026-03-27T11:29:30.795Z</time></trkpt><trkpt lat="43.4364883" lon="11.5853117"><ele>425.0</ele><time>2026-03-27T11:29:32.795Z</time></trkpt><trkpt lat="43.4364017" lon="11.5852617"><ele>424.0</ele><time>2026-03-27T11:29:34.794Z</time></trkpt><trkpt lat="43.43633" lon="11.5852517"><ele>423.0</ele><time>2026-03-27T11:29:36.796Z</time></trkpt><trkpt lat="43.4362667" lon="11.5852567"><ele>422.0</ele><time>2026-03-27T11:29:38.794Z</time></trkpt><trkpt lat="43.4361967" lon="11.585285"><ele>421.0</ele><time>2026-03-27T11:29:40.793Z</time></trkpt><trkpt lat="43.4361333" lon="11.5853683"><ele>420.0</ele><time>2026-03-27T11:29:42.797Z</time></trkpt><trkpt lat="43.436085" lon="11.58544"><ele>417.1666666666667</ele><time>2026-03-27T11:29:44.796Z</time></trkpt><trkpt lat="43.4360217" lon="11.5854417"><ele>414.33333333333337</ele><time>2026-03-27T11:29:46.796Z</time></trkpt><trkpt lat="43.4359583" lon="11.5854067"><ele>411.5</ele><time>2026-03-27T11:29:48.796Z</time></trkpt><trkpt lat="43.43588" lon="11.58538"><ele>408.6666666666667</ele><time>2026-03-27T11:29:51.796Z</time></trkpt><trkpt lat="43.43581" lon="11.58546"><ele>405.83333333333337</ele><time>2026-03-27T11:29:54.796Z</time></trkpt><trkpt lat="43.4357517" lon="11.5855567"><ele>403.0</ele><time>2026-03-27T11:29:57.794Z</time></trkpt><trkpt lat="43.4357067" lon="11.5856317"><ele>403.00000000000006</ele><time>2026-03-27T11:29:59.796Z</time></trkpt><trkpt lat="43.4356667" lon="11.5857317"><ele>403.0</ele><time>2026-03-27T11:30:01.794Z</time></trkpt><trkpt lat="43.4356317" lon="11.5858083"><ele>403.0</ele><time>2026-03-27T11:30:03.797Z</time></trkpt><trkpt lat="43.4355817" lon="11.5858633"><ele>403.0</ele><time>2026-03-27T11:30:06.795Z</time></trkpt><trkpt lat="43.4355133" lon="11.5858667"><ele>403.00000000000006</ele><time>2026-03-27T11:30:08.797Z</time></trkpt><trkpt lat="43.43543" lon="11.5858333"><ele>403.0</ele><time>2026-03-27T11:30:10.794Z</time></trkpt><trkpt lat="43.435345" lon="11.5858183"><ele>400.33333333333337</ele><time>2026-03-27T11:30:12.794Z</time></trkpt><trkpt lat="43.43526" lon="11.5858433"><ele>397.6666666666667</ele><time>2026-03-27T11:30:14.796Z</time></trkpt><trkpt lat="43.4352083" lon="11.5859"><ele>395.0</ele><time>2026-03-27T11:30:17.793Z</time></trkpt><trkpt lat="43.4351617" lon="11.5858417"><ele>392.33333333333337</ele><time>2026-03-27T11:30:22.794Z</time></trkpt><trkpt lat="43.43524" lon="11.5858383"><ele>389.6666666666667</ele><time>2026-03-27T11:30:25.795Z</time></trkpt><trkpt lat="43.435335" lon="11.58584"><ele>387.0</ele><time>2026-03-27T11:30:27.796Z</time></trkpt><trkpt lat="43.4354583" lon="11.585875"><ele>389.6666666666667</ele><time>2026-03-27T11:30:29.796Z</time></trkpt><trkpt lat="43.4355217" lon="11.5859017"><ele>392.33333333333337</ele><time>2026-03-27T11:30:30.798Z</time></trkpt><trkpt lat="43.4356217" lon="11.5859083"><ele>395.0</ele><time>2026-03-27T11:30:32.795Z</time></trkpt><trkpt lat="43.4356967" lon="11.58578"><ele>397.6666666666667</ele><time>2026-03-27T11:30:34.794Z</time></trkpt><trkpt lat="43.4357333" lon="11.585685"><ele>400.33333333333337</ele><time>2026-03-27T11:30:35.795Z</time></trkpt><trkpt lat="43.435775" lon="11.5855933"><ele>403.0</ele><time>2026-03-27T11:30:36.794Z</time></trkpt><trkpt lat="43.4358167" lon="11.5855067"><ele>403.00000000000006</ele><time>2026-03-27T11:30:37.794Z</time></trkpt><trkpt lat="43.435855" lon="11.5854333"><ele>403.0</ele><time>2026-03-27T11:30:38.796Z</time></trkpt><trkpt lat="43.4359433" lon="11.5853783"><ele>403.0</ele><time>2026-03-27T11:30:40.793Z</time></trkpt><trkpt lat="43.4360417" lon="11.5854267"><ele>403.0</ele><time>2026-03-27T11:30:42.795Z</time></trkpt><trkpt lat="43.436115" lon="11.5854117"><ele>403.00000000000006</ele><time>2026-03-27T11:30:44.796Z</time></trkpt><trkpt lat="43.4361683" lon="11.5853133"><ele>403.0</ele><time>2026-03-27T11:30:46.796Z</time></trkpt><trkpt lat="43.43628" lon="11.58525"><ele>405.83333333333337</ele><time>2026-03-27T11:30:48.797Z</time></trkpt><trkpt lat="43.4363483" lon="11.58525"><ele>408.6666666666667</ele><time>2026-03-27T11:30:49.795Z</time></trkpt><trkpt lat="43.4364117" lon="11.58528"><ele>411.5</ele><time>2026-03-27T11:30:50.797Z</time></trkpt><trkpt lat="43.4364767" lon="11.58533"><ele>414.33333333333337</ele><time>2026-03-27T11:30:51.795Z</time></trkpt><trkpt lat="43.4365517" lon="11.5853817"><ele>417.1666666666667</ele><time>2026-03-27T11:30:52.795Z</time></trkpt><trkpt lat="43.436625" lon="11.5854367"><ele>420.0</ele><time>2026-03-27T11:30:53.795Z</time></trkpt><trkpt lat="43.436685" lon="11.5855067"><ele>421.0</ele><time>2026-03-27T11:30:54.795Z</time></trkpt><trkpt lat="43.436745" lon="11.5855833"><ele>422.0</ele><time>2026-03-27T11:30:55.795Z</time></trkpt><trkpt lat="43.4368017" lon="11.585675"><ele>423.0</ele><time>2026-03-27T11:30:56.797Z</time></trkpt><trkpt lat="43.436855" lon="11.58576"><ele>424.0</ele><time>2026-03-27T11:30:57.795Z</time></trkpt><trkpt lat="43.4369083" lon="11.5858483"><ele>425.0</ele><time>2026-03-27T11:30:58.796Z</time></trkpt><trkpt lat="43.4369667" lon="11.585935"><ele>426.0</ele><time>2026-03-27T11:30:59.796Z</time></trkpt><trkpt lat="43.43703" lon="11.5860183"><ele>426.0</ele><time>2026-03-27T11:31:00.796Z</time></trkpt><trkpt lat="43.4370917" lon="11.5860983"><ele>426.0</ele><time>2026-03-27T11:31:01.796Z</time></trkpt><trkpt lat="43.4371433" lon="11.5861667"><ele>426.0</ele><time>2026-03-27T11:31:02.796Z</time></trkpt><trkpt lat="43.4372267" lon="11.5862533"><ele>426.0</ele><time>2026-03-27T11:31:04.796Z</time></trkpt><trkpt lat="43.4373467" lon="11.5863317"><ele>426.0</ele><time>2026-03-27T11:31:06.797Z</time></trkpt><trkpt lat="43.4374267" lon="11.5863817"><ele>429.0</ele><time>2026-03-27T11:31:07.795Z</time></trkpt><trkpt lat="43.4374983" lon="11.5864283"><ele>432.0</ele><time>2026-03-27T11:31:08.797Z</time></trkpt><trkpt lat="43.4375883" lon="11.5865417"><ele>435.0</ele><time>2026-03-27T11:31:10.797Z</time></trkpt><trkpt lat="43.4376283" lon="11.5866367"><ele>438.0</ele><time>2026-03-27T11:31:11.795Z</time></trkpt><trkpt lat="43.43767" lon="11.58676"><ele>441.0</ele><time>2026-03-27T11:31:12.795Z</time></trkpt><trkpt lat="43.437705" lon="11.5868717"><ele>441.0</ele><time>2026-03-27T11:31:13.794Z</time></trkpt><trkpt lat="43.4377467" lon="11.5869633"><ele>441.0</ele><time>2026-03-27T11:31:14.795Z</time></trkpt><trkpt lat="43.4378067" lon="11.58702"><ele>441.0</ele><time>2026-03-27T11:31:15.796Z</time></trkpt><trkpt lat="43.4378667" lon="11.5870767"><ele>441.0</ele><time>2026-03-27T11:31:16.796Z</time></trkpt><trkpt lat="43.4379217" lon="11.58716"><ele>441.0</ele><time>2026-03-27T11:31:17.796Z</time></trkpt><trkpt lat="43.43797" lon="11.5872683"><ele>441.0</ele><time>2026-03-27T11:31:18.792Z</time></trkpt><trkpt lat="43.4380083" lon="11.5874033"><ele>444.20000000000005</ele><time>2026-03-27T11:31:19.795Z</time></trkpt><trkpt lat="43.43804" lon="11.5875233"><ele>447.40000000000003</ele><time>2026-03-27T11:31:20.796Z</time></trkpt><trkpt lat="43.4380583" lon="11.58763"><ele>450.6</ele><time>2026-03-27T11:31:21.795Z</time></trkpt><trkpt lat="43.438075" lon="11.58776"><ele>453.8</ele><time>2026-03-27T11:31:23.796Z</time></trkpt><trkpt lat="43.438145" lon="11.5877917"><ele>457.0</ele><time>2026-03-27T11:31:26.797Z</time></trkpt><trkpt lat="43.43824" lon="11.5876717"><ele>457.00000000000006</ele><time>2026-03-27T11:31:28.795Z</time></trkpt><trkpt lat="43.4383" lon="11.58758"><ele>457.0</ele><time>2026-03-27T11:31:29.795Z</time></trkpt><trkpt lat="43.4383617" lon="11.5874867"><ele>457.0</ele><time>2026-03-27T11:31:30.796Z</time></trkpt><trkpt lat="43.438425" lon="11.5873983"><ele>457.0</ele><time>2026-03-27T11:31:31.797Z</time></trkpt><trkpt lat="43.4384817" lon="11.5873167"><ele>457.00000000000006</ele><time>2026-03-27T11:31:32.798Z</time></trkpt><trkpt lat="43.4385333" lon="11.58725"><ele>457.0</ele><time>2026-03-27T11:31:33.797Z</time></trkpt><trkpt lat="43.4385983" lon="11.5871733"><ele>457.0</ele><time>2026-03-27T11:31:35.795Z</time></trkpt><trkpt lat="43.4386467" lon="11.587075"><ele>457.00000000000006</ele><time>2026-03-27T11:31:39.797Z</time></trkpt><trkpt lat="43.438665" lon="11.5868783"><ele>457.00000000000006</ele><time>2026-03-27T11:31:41.795Z</time></trkpt><trkpt lat="43.4386817" lon="11.586745"><ele>457.0</ele><time>2026-03-27T11:31:42.796Z</time></trkpt><trkpt lat="43.4386883" lon="11.5866033"><ele>457.0</ele><time>2026-03-27T11:31:43.795Z</time></trkpt><trkpt lat="43.43871" lon="11.586465"><ele>457.20000000000005</ele><time>2026-03-27T11:31:44.796Z</time></trkpt><trkpt lat="43.43874" lon="11.5863467"><ele>457.40000000000003</ele><time>2026-03-27T11:31:45.795Z</time></trkpt><trkpt lat="43.4387817" lon="11.5862233"><ele>457.59999999999997</ele><time>2026-03-27T11:31:46.799Z</time></trkpt><trkpt lat="43.4388333" lon="11.5860983"><ele>457.79999999999995</ele><time>2026-03-27T11:31:47.795Z</time></trkpt><trkpt lat="43.4388883" lon="11.5859883"><ele>458.0</ele><time>2026-03-27T11:31:48.794Z</time></trkpt><trkpt lat="43.4389417" lon="11.5858867"><ele>459.0</ele><time>2026-03-27T11:31:49.794Z</time></trkpt><trkpt lat="43.4389833" lon="11.58578"><ele>459.99999999999994</ele><time>2026-03-27T11:31:50.797Z</time></trkpt><trkpt lat="43.4390167" lon="11.585665"><ele>460.99999999999994</ele><time>2026-03-27T11:31:51.795Z</time></trkpt><trkpt lat="43.43904" lon="11.5855333"><ele>462.0</ele><time>2026-03-27T11:31:52.794Z</time></trkpt><trkpt lat="43.439055" lon="11.5853883"><ele>463.0</ele><time>2026-03-27T11:31:53.795Z</time></trkpt><trkpt lat="43.4390683" lon="11.5852367"><ele>464.79999999999995</ele><time>2026-03-27T11:31:54.795Z</time></trkpt><trkpt lat="43.4390917" lon="11.5850983"><ele>466.59999999999997</ele><time>2026-03-27T11:31:55.794Z</time></trkpt><trkpt lat="43.43913" lon="11.5849633"><ele>468.40000000000003</ele><time>2026-03-27T11:31:56.796Z</time></trkpt><trkpt lat="43.4391817" lon="11.5848483"><ele>470.20000000000005</ele><time>2026-03-27T11:31:57.797Z</time></trkpt><trkpt lat="43.439245" lon="11.5847483"><ele>472.0</ele><time>2026-03-27T11:31:58.795Z</time></trkpt><trkpt lat="43.439315" lon="11.5846633"><ele>472.0</ele><time>2026-03-27T11:31:59.794Z</time></trkpt><trkpt lat="43.4393817" lon="11.5845717"><ele>472.00000000000006</ele><time>2026-03-27T11:32:00.794Z</time></trkpt><trkpt lat="43.4394467" lon="11.58446"><ele>472.00000000000006</ele><time>2026-03-27T11:32:01.796Z</time></trkpt><trkpt lat="43.4395083" lon="11.5843417"><ele>472.0</ele><time>2026-03-27T11:32:02.796Z</time></trkpt><trkpt lat="43.439575" lon="11.5842133"><ele>472.0</ele><time>2026-03-27T11:32:03.795Z</time></trkpt><trkpt lat="43.439645" lon="11.5840683"><ele>473.0</ele><time>2026-03-27T11:32:04.796Z</time></trkpt><trkpt lat="43.4397183" lon="11.5839167"><ele>474.0</ele><time>2026-03-27T11:32:05.795Z</time></trkpt><trkpt lat="43.439795" lon="11.5837583"><ele>475.0</ele><time>2026-03-27T11:32:06.796Z</time></trkpt><trkpt lat="43.439875" lon="11.5836167"><ele>476.0</ele><time>2026-03-27T11:32:07.795Z</time></trkpt><trkpt lat="43.4399567" lon="11.5834833"><ele>476.0</ele><time>2026-03-27T11:32:08.796Z</time></trkpt><trkpt lat="43.4400567" lon="11.5833733"><ele>476.0</ele><time>2026-03-27T11:32:09.795Z</time></trkpt><trkpt lat="43.440175" lon="11.5832817"><ele>476.0</ele><time>2026-03-27T11:32:10.795Z</time></trkpt><trkpt lat="43.4402933" lon="11.5832033"><ele>476.0</ele><time>2026-03-27T11:32:11.795Z</time></trkpt><trkpt lat="43.4403983" lon="11.5831383"><ele>476.0</ele><time>2026-03-27T11:32:12.795Z</time></trkpt><trkpt lat="43.4405" lon="11.5830867"><ele>476.0</ele><time>2026-03-27T11:32:13.794Z</time></trkpt><trkpt lat="43.440605" lon="11.5830517"><ele>476.0</ele><time>2026-03-27T11:32:14.795Z</time></trkpt><trkpt lat="43.4407017" lon="11.5830417"><ele>476.0</ele><time>2026-03-27T11:32:15.795Z</time></trkpt><trkpt lat="43.4407817" lon="11.5830567"><ele>476.0</ele><time>2026-03-27T11:32:16.795Z</time></trkpt><trkpt lat="43.4408633" lon="11.5830933"><ele>476.0</ele><time>2026-03-27T11:32:17.798Z</time></trkpt><trkpt lat="43.4409433" lon="11.5831733"><ele>476.0</ele><time>2026-03-27T11:32:18.795Z</time></trkpt><trkpt lat="43.441025" lon="11.583275"><ele>476.0</ele><time>2026-03-27T11:32:19.796Z</time></trkpt><trkpt lat="43.4411117" lon="11.5833717"><ele>476.0</ele><time>2026-03-27T11:32:20.796Z</time></trkpt><trkpt lat="43.441205" lon="11.5834333"><ele>476.0</ele><time>2026-03-27T11:32:21.795Z</time></trkpt><trkpt lat="43.4413083" lon="11.583485"><ele>477.49999999999994</ele><time>2026-03-27T11:32:22.795Z</time></trkpt><trkpt lat="43.4413967" lon="11.5835217"><ele>479.0</ele><time>2026-03-27T11:32:23.796Z</time></trkpt><trkpt lat="43.441465" lon="11.583535"><ele>480.5</ele><time>2026-03-27T11:32:24.796Z</time></trkpt><trkpt lat="43.441535" lon="11.5835283"><ele>482.0</ele><time>2026-03-27T11:32:25.796Z</time></trkpt><trkpt lat="43.4416117" lon="11.5834717"><ele>483.49999999999994</ele><time>2026-03-27T11:32:26.797Z</time></trkpt><trkpt lat="43.4417067" lon="11.58342"><ele>485.0</ele><time>2026-03-27T11:32:27.795Z</time></trkpt><trkpt lat="43.4418" lon="11.58339"><ele>485.0</ele><time>2026-03-27T11:32:28.795Z</time></trkpt><trkpt lat="43.4418967" lon="11.5833933"><ele>485.0</ele><time>2026-03-27T11:32:29.795Z</time></trkpt><trkpt lat="43.442" lon="11.58342"><ele>485.0</ele><time>2026-03-27T11:32:30.797Z</time></trkpt><trkpt lat="43.442085" lon="11.5834817"><ele>485.0</ele><time>2026-03-27T11:32:31.796Z</time></trkpt><trkpt lat="43.4421617" lon="11.583545"><ele>485.0</ele><time>2026-03-27T11:32:32.798Z</time></trkpt><trkpt lat="43.4422367" lon="11.5836033"><ele>486.16666666666663</ele><time>2026-03-27T11:32:33.797Z</time></trkpt><trkpt lat="43.442325" lon="11.5836433"><ele>487.3333333333333</ele><time>2026-03-27T11:32:34.797Z</time></trkpt><trkpt lat="43.4424" lon="11.583655"><ele>488.5</ele><time>2026-03-27T11:32:35.798Z</time></trkpt><trkpt lat="43.4424767" lon="11.583645"><ele>489.66666666666663</ele><time>2026-03-27T11:32:36.795Z</time></trkpt><trkpt lat="43.4425733" lon="11.5836117"><ele>490.8333333333333</ele><time>2026-03-27T11:32:37.796Z</time></trkpt><trkpt lat="43.442675" lon="11.58358"><ele>492.0</ele><time>2026-03-27T11:32:38.797Z</time></trkpt><trkpt lat="43.4427767" lon="11.5835817"><ele>492.0</ele><time>2026-03-27T11:32:39.795Z</time></trkpt><trkpt lat="43.4428733" lon="11.5836"><ele>492.00000000000006</ele><time>2026-03-27T11:32:40.795Z</time></trkpt><trkpt lat="43.442975" lon="11.5836233"><ele>492.00000000000006</ele><time>2026-03-27T11:32:41.794Z</time></trkpt><trkpt lat="43.4430767" lon="11.58364"><ele>492.0</ele><time>2026-03-27T11:32:42.796Z</time></trkpt><trkpt lat="43.4431867" lon="11.5836383"><ele>492.0</ele><time>2026-03-27T11:32:43.796Z</time></trkpt><trkpt lat="43.44331" lon="11.5836333"><ele>493.20000000000005</ele><time>2026-03-27T11:32:44.797Z</time></trkpt><trkpt lat="43.44343" lon="11.58361"><ele>494.40000000000003</ele><time>2026-03-27T11:32:45.796Z</time></trkpt><trkpt lat="43.443535" lon="11.5835917"><ele>495.59999999999997</ele><time>2026-03-27T11:32:46.795Z</time></trkpt><trkpt lat="43.44363" lon="11.5835883"><ele>496.79999999999995</ele><time>2026-03-27T11:32:47.796Z</time></trkpt><trkpt lat="43.4437183" lon="11.5836017"><ele>498.0</ele><time>2026-03-27T11:32:48.797Z</time></trkpt><trkpt lat="43.443795" lon="11.5836217"><ele>497.2</ele><time>2026-03-27T11:32:49.796Z</time></trkpt><trkpt lat="43.4438833" lon="11.5836217"><ele>496.4</ele><time>2026-03-27T11:32:50.797Z</time></trkpt><trkpt lat="43.4439917" lon="11.583605"><ele>495.59999999999997</ele><time>2026-03-27T11:32:51.794Z</time></trkpt><trkpt lat="43.4440983" lon="11.58359"><ele>494.79999999999995</ele><time>2026-03-27T11:32:52.796Z</time></trkpt><trkpt lat="43.4442" lon="11.5835883"><ele>494.0</ele><time>2026-03-27T11:32:53.796Z</time></trkpt><trkpt lat="43.4442967" lon="11.5835983"><ele>493.99999999999994</ele><time>2026-03-27T11:32:54.797Z</time></trkpt><trkpt lat="43.4443867" lon="11.5836133"><ele>494.0</ele><time>2026-03-27T11:32:55.796Z</time></trkpt><trkpt lat="43.44447" lon="11.5836267"><ele>494.0</ele><time>2026-03-27T11:32:56.798Z</time></trkpt><trkpt lat="43.4445383" lon="11.583635"><ele>494.0</ele><time>2026-03-27T11:32:57.794Z</time></trkpt><trkpt lat="43.4446067" lon="11.5836233"><ele>493.99999999999994</ele><time>2026-03-27T11:32:58.795Z</time></trkpt><trkpt lat="43.4446883" lon="11.58357"><ele>494.0</ele><time>2026-03-27T11:32:59.798Z</time></trkpt><trkpt lat="43.4447717" lon="11.5835017"><ele>492.49999999999994</ele><time>2026-03-27T11:33:00.795Z</time></trkpt><trkpt lat="43.4448533" lon="11.5834383"><ele>491.0</ele><time>2026-03-27T11:33:01.795Z</time></trkpt><trkpt lat="43.4449333" lon="11.58337"><ele>489.5</ele><time>2026-03-27T11:33:02.798Z</time></trkpt><trkpt lat="43.4450117" lon="11.5833017"><ele>488.0</ele><time>2026-03-27T11:33:03.797Z</time></trkpt><trkpt lat="43.445085" lon="11.5832283"><ele>486.49999999999994</ele><time>2026-03-27T11:33:04.797Z</time></trkpt><trkpt lat="43.44515" lon="11.5831683"><ele>485.0</ele><time>2026-03-27T11:33:05.795Z</time></trkpt><trkpt lat="43.4452133" lon="11.5831333"><ele>485.0</ele><time>2026-03-27T11:33:06.797Z</time></trkpt><trkpt lat="43.4452767" lon="11.5831667"><ele>485.0</ele><time>2026-03-27T11:33:07.796Z</time></trkpt><trkpt lat="43.4453467" lon="11.58322"><ele>485.0</ele><time>2026-03-27T11:33:08.798Z</time></trkpt><trkpt lat="43.4454367" lon="11.5832967"><ele>485.0</ele><time>2026-03-27T11:33:09.794Z</time></trkpt><trkpt lat="43.4455317" lon="11.5833833"><ele>485.0</ele><time>2026-03-27T11:33:10.795Z</time></trkpt><trkpt lat="43.4456267" lon="11.58346"><ele>485.75</ele><time>2026-03-27T11:33:11.795Z</time></trkpt><trkpt lat="43.4457267" lon="11.5835267"><ele>486.5</ele><time>2026-03-27T11:33:12.795Z</time></trkpt><trkpt lat="43.445835" lon="11.58359"><ele>487.25</ele><time>2026-03-27T11:33:13.796Z</time></trkpt><trkpt lat="43.4459467" lon="11.5836517"><ele>488.0</ele><time>2026-03-27T11:33:14.795Z</time></trkpt><trkpt lat="43.4460633" lon="11.5837083"><ele>486.0</ele><time>2026-03-27T11:33:15.795Z</time></trkpt><trkpt lat="43.4461717" lon="11.5837717"><ele>483.99999999999994</ele><time>2026-03-27T11:33:16.794Z</time></trkpt><trkpt lat="43.4462733" lon="11.5838367"><ele>481.99999999999994</ele><time>2026-03-27T11:33:17.795Z</time></trkpt><trkpt lat="43.4463617" lon="11.5838867"><ele>480.0</ele><time>2026-03-27T11:33:18.795Z</time></trkpt><trkpt lat="43.44644" lon="11.5839233"><ele>478.0</ele><time>2026-03-27T11:33:19.794Z</time></trkpt><trkpt lat="43.4465117" lon="11.58394"><ele>478.00000000000006</ele><time>2026-03-27T11:33:20.797Z</time></trkpt><trkpt lat="43.4465867" lon="11.5839167"><ele>478.0</ele><time>2026-03-27T11:33:21.794Z</time></trkpt><trkpt lat="43.44666" lon="11.5838817"><ele>478.0</ele><time>2026-03-27T11:33:22.795Z</time></trkpt><trkpt lat="43.446735" lon="11.5838483"><ele>478.0</ele><time>2026-03-27T11:33:23.796Z</time></trkpt><trkpt lat="43.4468233" lon="11.5838383"><ele>478.00000000000006</ele><time>2026-03-27T11:33:24.794Z</time></trkpt><trkpt lat="43.4469167" lon="11.5838333"><ele>478.0</ele><time>2026-03-27T11:33:25.794Z</time></trkpt><trkpt lat="43.44701" lon="11.5838067"><ele>478.0</ele><time>2026-03-27T11:33:26.796Z</time></trkpt><trkpt lat="43.4470983" lon="11.583765"><ele>477.99999999999994</ele><time>2026-03-27T11:33:27.796Z</time></trkpt><trkpt lat="43.4471883" lon="11.58372"><ele>477.99999999999994</ele><time>2026-03-27T11:33:28.795Z</time></trkpt><trkpt lat="43.4472917" lon="11.58367"><ele>478.0</ele><time>2026-03-27T11:33:29.795Z</time></trkpt><trkpt lat="43.4474033" lon="11.5836283"><ele>478.0</ele><time>2026-03-27T11:33:30.795Z</time></trkpt><trkpt lat="43.44751" lon="11.5835933"><ele>480.33333333333337</ele><time>2026-03-27T11:33:31.796Z</time></trkpt><trkpt lat="43.4476033" lon="11.58357"><ele>482.6666666666667</ele><time>2026-03-27T11:33:32.796Z</time></trkpt><trkpt lat="43.4476833" lon="11.5835517"><ele>485.0</ele><time>2026-03-27T11:33:33.796Z</time></trkpt><trkpt lat="43.44775" lon="11.5835367"><ele>487.33333333333337</ele><time>2026-03-27T11:33:34.795Z</time></trkpt><trkpt lat="43.4478317" lon="11.5834783"><ele>489.6666666666667</ele><time>2026-03-27T11:33:36.796Z</time></trkpt><trkpt lat="43.4478467" lon="11.5833933"><ele>492.0</ele><time>2026-03-27T11:33:39.796Z</time></trkpt><trkpt lat="43.4477733" lon="11.5833133"><ele>492.0</ele><time>2026-03-27T11:33:42.796Z</time></trkpt><trkpt lat="43.4476917" lon="11.5832517"><ele>492.00000000000006</ele><time>2026-03-27T11:33:44.797Z</time></trkpt><trkpt lat="43.4476017" lon="11.5831683"><ele>492.00000000000006</ele><time>2026-03-27T11:33:46.795Z</time></trkpt><trkpt lat="43.4475417" lon="11.583085"><ele>492.0</ele><time>2026-03-27T11:33:48.796Z</time></trkpt><trkpt lat="43.44752" lon="11.58293"><ele>492.0</ele><time>2026-03-27T11:33:50.797Z</time></trkpt><trkpt lat="43.4474867" lon="11.58277"><ele>493.6666666666667</ele><time>2026-03-27T11:33:52.795Z</time></trkpt><trkpt lat="43.4474467" lon="11.5826933"><ele>495.33333333333337</ele><time>2026-03-27T11:33:53.797Z</time></trkpt><trkpt lat="43.4473933" lon="11.5826417"><ele>497.0</ele><time>2026-03-27T11:33:54.798Z</time></trkpt><trkpt lat="43.447335" lon="11.5825917"><ele>498.6666666666667</ele><time>2026-03-27T11:33:55.795Z</time></trkpt><trkpt lat="43.4472233" lon="11.58255"><ele>500.33333333333337</ele><time>2026-03-27T11:33:57.796Z</time></trkpt><trkpt lat="43.4471483" lon="11.582565"><ele>502.0</ele><time>2026-03-27T11:33:58.795Z</time></trkpt><trkpt lat="43.44705" lon="11.58257"><ele>502.0</ele><time>2026-03-27T11:33:59.796Z</time></trkpt><trkpt lat="43.44693" lon="11.5825567"><ele>502.0</ele><time>2026-03-27T11:34:00.797Z</time></trkpt><trkpt lat="43.4468067" lon="11.58254"><ele>502.0</ele><time>2026-03-27T11:34:01.794Z</time></trkpt><trkpt lat="43.4466833" lon="11.5825383"><ele>502.0</ele><time>2026-03-27T11:34:02.797Z</time></trkpt><trkpt lat="43.4465533" lon="11.5825233"><ele>502.0</ele><time>2026-03-27T11:34:03.796Z</time></trkpt><trkpt lat="43.4464233" lon="11.5824917"><ele>502.0</ele><time>2026-03-27T11:34:04.795Z</time></trkpt><trkpt lat="43.4463067" lon="11.582455"><ele>502.0</ele><time>2026-03-27T11:34:05.796Z</time></trkpt><trkpt lat="43.4461933" lon="11.5824117"><ele>502.0</ele><time>2026-03-27T11:34:06.796Z</time></trkpt><trkpt lat="43.4460933" lon="11.5823517"><ele>501.33333333333337</ele><time>2026-03-27T11:34:07.795Z</time></trkpt><trkpt lat="43.446" lon="11.5822867"><ele>500.6666666666667</ele><time>2026-03-27T11:34:08.796Z</time></trkpt><trkpt lat="43.4459167" lon="11.58222"><ele>500.0</ele><time>2026-03-27T11:34:09.796Z</time></trkpt><trkpt lat="43.4458467" lon="11.5821633"><ele>499.33333333333337</ele><time>2026-03-27T11:34:10.795Z</time></trkpt><trkpt lat="43.4457717" lon="11.5821217"><ele>498.6666666666667</ele><time>2026-03-27T11:34:11.797Z</time></trkpt><trkpt lat="43.44569" lon="11.5820967"><ele>498.0</ele><time>2026-03-27T11:34:12.794Z</time></trkpt><trkpt lat="43.445615" lon="11.5820833"><ele>498.0</ele><time>2026-03-27T11:34:13.796Z</time></trkpt><trkpt lat="43.4455417" lon="11.58209"><ele>498.0</ele><time>2026-03-27T11:34:14.795Z</time></trkpt><trkpt lat="43.4454717" lon="11.58211"><ele>498.0</ele><time>2026-03-27T11:34:15.794Z</time></trkpt><trkpt lat="43.4454017" lon="11.5821417"><ele>498.0</ele><time>2026-03-27T11:34:16.795Z</time></trkpt><trkpt lat="43.44534" lon="11.5821983"><ele>498.0</ele><time>2026-03-27T11:34:17.795Z</time></trkpt><trkpt lat="43.445275" lon="11.582295"><ele>498.0</ele><time>2026-03-27T11:34:18.794Z</time></trkpt><trkpt lat="43.4452167" lon="11.58241"><ele>497.0</ele><time>2026-03-27T11:34:19.795Z</time></trkpt><trkpt lat="43.4451767" lon="11.582525"><ele>495.99999999999994</ele><time>2026-03-27T11:34:20.796Z</time></trkpt><trkpt lat="43.4451383" lon="11.5826317"><ele>494.99999999999994</ele><time>2026-03-27T11:34:21.794Z</time></trkpt><trkpt lat="43.44508" lon="11.5827333"><ele>494.0</ele><time>2026-03-27T11:34:22.795Z</time></trkpt><trkpt lat="43.4450033" lon="11.5828433"><ele>493.0</ele><time>2026-03-27T11:34:23.795Z</time></trkpt><trkpt lat="43.4449133" lon="11.5829583"><ele>493.2</ele><time>2026-03-27T11:34:24.799Z</time></trkpt><trkpt lat="43.4448283" lon="11.583075"><ele>493.4</ele><time>2026-03-27T11:34:25.795Z</time></trkpt><trkpt lat="43.4447533" lon="11.5831833"><ele>493.59999999999997</ele><time>2026-03-27T11:34:26.796Z</time></trkpt><trkpt lat="43.4446867" lon="11.583285"><ele>493.79999999999995</ele><time>2026-03-27T11:34:27.796Z</time></trkpt><trkpt lat="43.4446283" lon="11.5833717"><ele>494.0</ele><time>2026-03-27T11:34:28.795Z</time></trkpt><trkpt lat="43.4445817" lon="11.5834383"><ele>494.0</ele><time>2026-03-27T11:34:29.797Z</time></trkpt><trkpt lat="43.4444983" lon="11.5835133"><ele>494.0</ele><time>2026-03-27T11:34:31.796Z</time></trkpt><trkpt lat="43.4444017" lon="11.58355"><ele>494.0</ele><time>2026-03-27T11:34:33.795Z</time></trkpt><trkpt lat="43.4444183" lon="11.58364"><ele>494.0</ele><time>2026-03-27T11:34:38.796Z</time></trkpt><trkpt lat="43.4445383" lon="11.5836283"><ele>494.0</ele><time>2026-03-27T11:34:40.795Z</time></trkpt><trkpt lat="43.4446033" lon="11.5835833"><ele>492.2</ele><time>2026-03-27T11:34:41.796Z</time></trkpt><trkpt lat="43.4446867" lon="11.5835183"><ele>490.4</ele><time>2026-03-27T11:34:42.795Z</time></trkpt><trkpt lat="43.44478" lon="11.5834517"><ele>488.6</ele><time>2026-03-27T11:34:43.794Z</time></trkpt><trkpt lat="43.4448683" lon="11.5833883"><ele>486.8</ele><time>2026-03-27T11:34:44.798Z</time></trkpt><trkpt lat="43.4449483" lon="11.5833217"><ele>485.0</ele><time>2026-03-27T11:34:45.796Z</time></trkpt><trkpt lat="43.4450267" lon="11.583255"><ele>484.99999999999994</ele><time>2026-03-27T11:34:46.796Z</time></trkpt><trkpt lat="43.4451033" lon="11.5831917"><ele>485.0</ele><time>2026-03-27T11:34:47.797Z</time></trkpt><trkpt lat="43.4451683" lon="11.5831517"><ele>485.0</ele><time>2026-03-27T11:34:48.796Z</time></trkpt><trkpt lat="43.4452333" lon="11.5831433"><ele>485.0</ele><time>2026-03-27T11:34:49.797Z</time></trkpt><trkpt lat="43.44531" lon="11.58318"><ele>484.99999999999994</ele><time>2026-03-27T11:34:50.798Z</time></trkpt><trkpt lat="43.4453983" lon="11.583245"><ele>485.0</ele><time>2026-03-27T11:34:51.796Z</time></trkpt><trkpt lat="43.445495" lon="11.583335"><ele>485.6</ele><time>2026-03-27T11:34:52.795Z</time></trkpt><trkpt lat="43.4455917" lon="11.5834267"><ele>486.2</ele><time>2026-03-27T11:34:53.796Z</time></trkpt><trkpt lat="43.4456817" lon="11.5835033"><ele>486.79999999999995</ele><time>2026-03-27T11:34:54.795Z</time></trkpt><trkpt lat="43.4457733" lon="11.5835633"><ele>487.4</ele><time>2026-03-27T11:34:55.796Z</time></trkpt><trkpt lat="43.4458683" lon="11.5836217"><ele>488.0</ele><time>2026-03-27T11:34:56.798Z</time></trkpt><trkpt lat="43.445975" lon="11.58368"><ele>486.0</ele><time>2026-03-27T11:34:57.797Z</time></trkpt><trkpt lat="43.44608" lon="11.5837283"><ele>483.99999999999994</ele><time>2026-03-27T11:34:58.796Z</time></trkpt><trkpt lat="43.4461867" lon="11.583785"><ele>481.99999999999994</ele><time>2026-03-27T11:34:59.795Z</time></trkpt><trkpt lat="43.4462867" lon="11.5838483"><ele>480.0</ele><time>2026-03-27T11:35:00.797Z</time></trkpt><trkpt lat="43.446375" lon="11.5839"><ele>478.0</ele><time>2026-03-27T11:35:01.796Z</time></trkpt><trkpt lat="43.4464567" lon="11.583935"><ele>478.00000000000006</ele><time>2026-03-27T11:35:02.797Z</time></trkpt><trkpt lat="43.4465333" lon="11.583945"><ele>478.0</ele><time>2026-03-27T11:35:03.794Z</time></trkpt><trkpt lat="43.4466083" lon="11.5839283"><ele>478.0</ele><time>2026-03-27T11:35:04.794Z</time></trkpt><trkpt lat="43.4466783" lon="11.583895"><ele>478.0</ele><time>2026-03-27T11:35:05.795Z</time></trkpt><trkpt lat="43.4467567" lon="11.5838683"><ele>478.00000000000006</ele><time>2026-03-27T11:35:06.795Z</time></trkpt><trkpt lat="43.4468467" lon="11.5838567"><ele>478.0</ele><time>2026-03-27T11:35:07.795Z</time></trkpt><trkpt lat="43.446945" lon="11.5838417"><ele>478.0</ele><time>2026-03-27T11:35:08.796Z</time></trkpt><trkpt lat="43.447035" lon="11.583815"><ele>477.99999999999994</ele><time>2026-03-27T11:35:09.795Z</time></trkpt><trkpt lat="43.4471167" lon="11.5837767"><ele>477.99999999999994</ele><time>2026-03-27T11:35:10.795Z</time></trkpt><trkpt lat="43.4472033" lon="11.5837233"><ele>478.0</ele><time>2026-03-27T11:35:11.795Z</time></trkpt><trkpt lat="43.447305" lon="11.5836617"><ele>478.0</ele><time>2026-03-27T11:35:12.795Z</time></trkpt><trkpt lat="43.44741" lon="11.5836083"><ele>480.33333333333337</ele><time>2026-03-27T11:35:13.795Z</time></trkpt><trkpt lat="43.4475117" lon="11.583575"><ele>482.6666666666667</ele><time>2026-03-27T11:35:14.797Z</time></trkpt><trkpt lat="43.4476067" lon="11.583555"><ele>485.0</ele><time>2026-03-27T11:35:15.795Z</time></trkpt><trkpt lat="43.4476883" lon="11.5835367"><ele>487.33333333333337</ele><time>2026-03-27T11:35:16.795Z</time></trkpt><trkpt lat="43.447765" lon="11.5835083"><ele>489.6666666666667</ele><time>2026-03-27T11:35:17.795Z</time></trkpt><trkpt lat="43.44783" lon="11.58347"><ele>492.0</ele><time>2026-03-27T11:35:18.797Z</time></trkpt><trkpt lat="43.4479" lon="11.583425"><ele>490.28571428571433</ele><time>2026-03-27T11:35:19.797Z</time></trkpt><trkpt lat="43.4479717" lon="11.5833733"><ele>488.57142857142856</ele><time>2026-03-27T11:35:20.797Z</time></trkpt><trkpt lat="43.448045" lon="11.5833217"><ele>486.8571428571429</ele><time>2026-03-27T11:35:21.796Z</time></trkpt><trkpt lat="43.44811" lon="11.5832817"><ele>485.14285714285717</ele><time>2026-03-27T11:35:22.795Z</time></trkpt><trkpt lat="43.4481733" lon="11.5832567"><ele>483.42857142857144</ele><time>2026-03-27T11:35:23.797Z</time></trkpt><trkpt lat="43.4482367" lon="11.5832433"><ele>481.7142857142857</ele><time>2026-03-27T11:35:24.796Z</time></trkpt><trkpt lat="43.4483017" lon="11.5832283"><ele>480.0</ele><time>2026-03-27T11:35:25.794Z</time></trkpt><trkpt lat="43.4483633" lon="11.58321"><ele>480.0</ele><time>2026-03-27T11:35:26.796Z</time></trkpt><trkpt lat="43.448485" lon="11.5831683"><ele>480.0</ele><time>2026-03-27T11:35:28.792Z</time></trkpt><trkpt lat="43.4486067" lon="11.58312"><ele>480.0</ele><time>2026-03-27T11:35:30.795Z</time></trkpt><trkpt lat="43.4486683" lon="11.5831017"><ele>480.0</ele><time>2026-03-27T11:35:31.794Z</time></trkpt><trkpt lat="43.4487333" lon="11.5830833"><ele>480.0</ele><time>2026-03-27T11:35:32.795Z</time></trkpt><trkpt lat="43.4488017" lon="11.5830567"><ele>477.4</ele><time>2026-03-27T11:35:33.796Z</time></trkpt><trkpt lat="43.448865" lon="11.58303"><ele>474.8</ele><time>2026-03-27T11:35:34.796Z</time></trkpt><trkpt lat="43.4489783" lon="11.58299"><ele>472.20000000000005</ele><time>2026-03-27T11:35:36.795Z</time></trkpt><trkpt lat="43.4490833" lon="11.582975"><ele>469.6</ele><time>2026-03-27T11:35:38.796Z</time></trkpt><trkpt lat="43.4491617" lon="11.582935"><ele>467.0</ele><time>2026-03-27T11:35:40.796Z</time></trkpt><trkpt lat="43.4492117" lon="11.58278"><ele>467.0</ele><time>2026-03-27T11:35:42.796Z</time></trkpt><trkpt lat="43.44923" lon="11.5826767"><ele>467.00000000000006</ele><time>2026-03-27T11:35:43.796Z</time></trkpt><trkpt lat="43.4492617" lon="11.58253"><ele>467.00000000000006</ele><time>2026-03-27T11:35:44.796Z</time></trkpt><trkpt lat="43.4493233" lon="11.5823983"><ele>467.0</ele><time>2026-03-27T11:35:45.794Z</time></trkpt><trkpt lat="43.4493983" lon="11.582285"><ele>467.0</ele><time>2026-03-27T11:35:46.795Z</time></trkpt><trkpt lat="43.4495" lon="11.5821917"><ele>467.0</ele><time>2026-03-27T11:35:47.797Z</time></trkpt><trkpt lat="43.4496183" lon="11.5821167"><ele>467.0</ele><time>2026-03-27T11:35:48.797Z</time></trkpt><trkpt lat="43.449735" lon="11.5820467"><ele>467.0</ele><time>2026-03-27T11:35:49.799Z</time></trkpt><trkpt lat="43.4498433" lon="11.5819833"><ele>467.0</ele><time>2026-03-27T11:35:50.797Z</time></trkpt><trkpt lat="43.4499433" lon="11.581915"><ele>466.8</ele><time>2026-03-27T11:35:51.795Z</time></trkpt><trkpt lat="43.4500383" lon="11.5818667"><ele>466.6</ele><time>2026-03-27T11:35:52.795Z</time></trkpt><trkpt lat="43.4501383" lon="11.5818517"><ele>466.40000000000003</ele><time>2026-03-27T11:35:53.795Z</time></trkpt><trkpt lat="43.4502533" lon="11.5818417"><ele>466.20000000000005</ele><time>2026-03-27T11:35:54.795Z</time></trkpt><trkpt lat="43.4503617" lon="11.5818367"><ele>466.0</ele><time>2026-03-27T11:35:55.797Z</time></trkpt><trkpt lat="43.4504767" lon="11.5818367"><ele>465.33333333333337</ele><time>2026-03-27T11:35:56.795Z</time></trkpt><trkpt lat="43.45058" lon="11.5818217"><ele>464.6666666666667</ele><time>2026-03-27T11:35:57.796Z</time></trkpt><trkpt lat="43.450665" lon="11.5818"><ele>464.0</ele><time>2026-03-27T11:35:58.796Z</time></trkpt><trkpt lat="43.4507367" lon="11.5817783"><ele>463.33333333333337</ele><time>2026-03-27T11:35:59.795Z</time></trkpt><trkpt lat="43.4508017" lon="11.5817767"><ele>462.6666666666667</ele><time>2026-03-27T11:36:00.798Z</time></trkpt><trkpt lat="43.450865" lon="11.58179"><ele>462.0</ele><time>2026-03-27T11:36:01.794Z</time></trkpt><trkpt lat="43.4509283" lon="11.5818233"><ele>462.0</ele><time>2026-03-27T11:36:02.796Z</time></trkpt><trkpt lat="43.4509867" lon="11.5818733"><ele>462.0</ele><time>2026-03-27T11:36:03.795Z</time></trkpt><trkpt lat="43.4510333" lon="11.5819333"><ele>462.0</ele><time>2026-03-27T11:36:04.795Z</time></trkpt><trkpt lat="43.4511267" lon="11.5820217"><ele>462.0</ele><time>2026-03-27T11:36:06.796Z</time></trkpt><trkpt lat="43.45121" lon="11.581985"><ele>462.0</ele><time>2026-03-27T11:36:08.795Z</time></trkpt><trkpt lat="43.4512217" lon="11.58183"><ele>462.0</ele><time>2026-03-27T11:36:10.794Z</time></trkpt><trkpt lat="43.4511983" lon="11.5817183"><ele>462.0</ele><time>2026-03-27T11:36:11.795Z</time></trkpt><trkpt lat="43.45118" lon="11.5816167"><ele>462.0</ele><time>2026-03-27T11:36:12.796Z</time></trkpt><trkpt lat="43.4511583" lon="11.5815217"><ele>462.0</ele><time>2026-03-27T11:36:13.796Z</time></trkpt><trkpt lat="43.45114" lon="11.5814317"><ele>462.0</ele><time>2026-03-27T11:36:14.796Z</time></trkpt><trkpt lat="43.4511367" lon="11.5813433"><ele>462.0</ele><time>2026-03-27T11:36:15.793Z</time></trkpt><trkpt lat="43.45115" lon="11.581255"><ele>462.0</ele><time>2026-03-27T11:36:16.794Z</time></trkpt><trkpt lat="43.451175" lon="11.5811683"><ele>462.0</ele><time>2026-03-27T11:36:17.794Z</time></trkpt><trkpt lat="43.4512083" lon="11.5810833"><ele>461.0</ele><time>2026-03-27T11:36:18.795Z</time></trkpt><trkpt lat="43.451255" lon="11.581"><ele>460.00000000000006</ele><time>2026-03-27T11:36:19.795Z</time></trkpt><trkpt lat="43.45132" lon="11.5809117"><ele>459.00000000000006</ele><time>2026-03-27T11:36:20.801Z</time></trkpt><trkpt lat="43.451405" lon="11.5808283"><ele>458.0</ele><time>2026-03-27T11:36:21.797Z</time></trkpt><trkpt lat="43.451495" lon="11.5807533"><ele>457.0</ele><time>2026-03-27T11:36:22.795Z</time></trkpt><trkpt lat="43.45159" lon="11.5806833"><ele>455.0</ele><time>2026-03-27T11:36:23.796Z</time></trkpt><trkpt lat="43.4516917" lon="11.5806333"><ele>453.00000000000006</ele><time>2026-03-27T11:36:24.797Z</time></trkpt><trkpt lat="43.4518033" lon="11.580595"><ele>451.00000000000006</ele><time>2026-03-27T11:36:25.795Z</time></trkpt><trkpt lat="43.451905" lon="11.5805617"><ele>449.0</ele><time>2026-03-27T11:36:26.795Z</time></trkpt><trkpt lat="43.4519933" lon="11.5805417"><ele>447.0</ele><time>2026-03-27T11:36:27.796Z</time></trkpt><trkpt lat="43.4520717" lon="11.580545"><ele>445.85714285714283</ele><time>2026-03-27T11:36:28.796Z</time></trkpt><trkpt lat="43.4521367" lon="11.580555"><ele>444.7142857142857</ele><time>2026-03-27T11:36:29.795Z</time></trkpt><trkpt lat="43.4522" lon="11.5805733"><ele>443.57142857142856</ele><time>2026-03-27T11:36:30.796Z</time></trkpt><trkpt lat="43.4522717" lon="11.580585"><ele>442.42857142857144</ele><time>2026-03-27T11:36:31.795Z</time></trkpt><trkpt lat="43.45235" lon="11.5805783"><ele>441.2857142857143</ele><time>2026-03-27T11:36:32.796Z</time></trkpt><trkpt lat="43.4524217" lon="11.5805717"><ele>440.1428571428571</ele><time>2026-03-27T11:36:33.795Z</time></trkpt><trkpt lat="43.45249" lon="11.5805533"><ele>439.0</ele><time>2026-03-27T11:36:34.796Z</time></trkpt><trkpt lat="43.4525567" lon="11.5805283"><ele>439.0</ele><time>2026-03-27T11:36:35.795Z</time></trkpt><trkpt lat="43.452625" lon="11.58051"><ele>439.0</ele><time>2026-03-27T11:36:36.794Z</time></trkpt><trkpt lat="43.452695" lon="11.5804917"><ele>439.0</ele><time>2026-03-27T11:36:37.795Z</time></trkpt><trkpt lat="43.4527667" lon="11.5804817"><ele>439.0</ele><time>2026-03-27T11:36:38.797Z</time></trkpt><trkpt lat="43.4528333" lon="11.5804733"><ele>439.0</ele><time>2026-03-27T11:36:39.795Z</time></trkpt><trkpt lat="43.4529017" lon="11.5804683"><ele>439.0</ele><time>2026-03-27T11:36:40.796Z</time></trkpt><trkpt lat="43.4529683" lon="11.58047"><ele>439.0</ele><time>2026-03-27T11:36:41.795Z</time></trkpt><trkpt lat="43.4530383" lon="11.5804733"><ele>437.0</ele><time>2026-03-27T11:36:42.796Z</time></trkpt><trkpt lat="43.4531083" lon="11.5804783"><ele>435.0</ele><time>2026-03-27T11:36:43.795Z</time></trkpt><trkpt lat="43.453185" lon="11.5804967"><ele>433.0</ele><time>2026-03-27T11:36:44.797Z</time></trkpt><trkpt lat="43.4532683" lon="11.5805383"><ele>431.0</ele><time>2026-03-27T11:36:45.795Z</time></trkpt><trkpt lat="43.4533617" lon="11.58061"><ele>429.0</ele><time>2026-03-27T11:36:46.795Z</time></trkpt><trkpt lat="43.4534483" lon="11.5806983"><ele>429.0</ele><time>2026-03-27T11:36:47.796Z</time></trkpt><trkpt lat="43.453525" lon="11.580805"><ele>429.0</ele><time>2026-03-27T11:36:48.798Z</time></trkpt><trkpt lat="43.4536" lon="11.5809"><ele>429.0</ele><time>2026-03-27T11:36:49.8Z</time></trkpt><trkpt lat="43.45366" lon="11.580985"><ele>429.0</ele><time>2026-03-27T11:36:50.797Z</time></trkpt><trkpt lat="43.453715" lon="11.5810733"><ele>429.0</ele><time>2026-03-27T11:36:51.803Z</time></trkpt><trkpt lat="43.4537683" lon="11.5811567"><ele>427.0</ele><time>2026-03-27T11:36:52.795Z</time></trkpt><trkpt lat="43.453825" lon="11.5812333"><ele>425.0</ele><time>2026-03-27T11:36:53.797Z</time></trkpt><trkpt lat="43.4538883" lon="11.5812933"><ele>423.0</ele><time>2026-03-27T11:36:54.796Z</time></trkpt><trkpt lat="43.4539483" lon="11.5813517"><ele>421.0</ele><time>2026-03-27T11:36:55.796Z</time></trkpt><trkpt lat="43.4540067" lon="11.5814083"><ele>419.0</ele><time>2026-03-27T11:36:56.797Z</time></trkpt><trkpt lat="43.45406" lon="11.58146"><ele>417.0</ele><time>2026-03-27T11:36:57.796Z</time></trkpt><trkpt lat="43.4541633" lon="11.581535"><ele>417.0</ele><time>2026-03-27T11:36:59.79Z</time></trkpt><trkpt lat="43.4542833" lon="11.5815583"><ele>417.0</ele><time>2026-03-27T11:37:01.795Z</time></trkpt><trkpt lat="43.4543467" lon="11.5815483"><ele>417.0</ele><time>2026-03-27T11:37:02.797Z</time></trkpt><trkpt lat="43.45445" lon="11.58152"><ele>417.0</ele><time>2026-03-27T11:37:04.795Z</time></trkpt><trkpt lat="43.4545117" lon="11.5814867"><ele>417.0</ele><time>2026-03-27T11:37:06.798Z</time></trkpt><trkpt lat="43.454575" lon="11.58139"><ele>417.0</ele><time>2026-03-27T11:37:08.798Z</time></trkpt><trkpt lat="43.4546133" lon="11.5813133"><ele>417.0</ele><time>2026-03-27T11:37:09.795Z</time></trkpt><trkpt lat="43.4546517" lon="11.5812267"><ele>417.0</ele><time>2026-03-27T11:37:10.794Z</time></trkpt><trkpt lat="43.454685" lon="11.581135"><ele>417.0</ele><time>2026-03-27T11:37:11.794Z</time></trkpt><trkpt lat="43.4547133" lon="11.5810367"><ele>417.0</ele><time>2026-03-27T11:37:12.797Z</time></trkpt><trkpt lat="43.45473" lon="11.5809417"><ele>417.0</ele><time>2026-03-27T11:37:13.796Z</time></trkpt><trkpt lat="43.4547333" lon="11.5808517"><ele>417.0</ele><time>2026-03-27T11:37:14.797Z</time></trkpt><trkpt lat="43.4547417" lon="11.5807633"><ele>419.0</ele><time>2026-03-27T11:37:15.794Z</time></trkpt><trkpt lat="43.4548067" lon="11.5806183"><ele>421.0</ele><time>2026-03-27T11:37:17.795Z</time></trkpt><trkpt lat="43.4548567" lon="11.5805533"><ele>423.00000000000006</ele><time>2026-03-27T11:37:18.797Z</time></trkpt><trkpt lat="43.454945" lon="11.580445"><ele>425.0</ele><time>2026-03-27T11:37:20.797Z</time></trkpt><trkpt lat="43.455045" lon="11.5803667"><ele>427.0</ele><time>2026-03-27T11:37:22.795Z</time></trkpt><trkpt lat="43.4551083" lon="11.5803417"><ele>429.1666666666667</ele><time>2026-03-27T11:37:23.797Z</time></trkpt><trkpt lat="43.4551717" lon="11.5803083"><ele>431.33333333333337</ele><time>2026-03-27T11:37:24.796Z</time></trkpt><trkpt lat="43.4552283" lon="11.5802683"><ele>433.5</ele><time>2026-03-27T11:37:25.793Z</time></trkpt><trkpt lat="43.4553117" lon="11.58014"><ele>435.66666666666663</ele><time>2026-03-27T11:37:27.794Z</time></trkpt><trkpt lat="43.4553467" lon="11.580065"><ele>437.8333333333333</ele><time>2026-03-27T11:37:28.795Z</time></trkpt><trkpt lat="43.4553767" lon="11.5799783"><ele>440.0</ele><time>2026-03-27T11:37:29.795Z</time></trkpt><trkpt lat="43.4554067" lon="11.5798783"><ele>439.99999999999994</ele><time>2026-03-27T11:37:30.796Z</time></trkpt><trkpt lat="43.455425" lon="11.5797717"><ele>440.0</ele><time>2026-03-27T11:37:31.794Z</time></trkpt><trkpt lat="43.4554433" lon="11.5796583"><ele>440.0</ele><time>2026-03-27T11:37:32.795Z</time></trkpt><trkpt lat="43.4554467" lon="11.579545"><ele>440.0</ele><time>2026-03-27T11:37:33.794Z</time></trkpt><trkpt lat="43.45545" lon="11.57944"><ele>439.99999999999994</ele><time>2026-03-27T11:37:34.795Z</time></trkpt><trkpt lat="43.4554583" lon="11.5793333"><ele>440.0</ele><time>2026-03-27T11:37:35.795Z</time></trkpt><trkpt lat="43.455465" lon="11.5792117"><ele>440.3333333333333</ele><time>2026-03-27T11:37:36.797Z</time></trkpt><trkpt lat="43.4554733" lon="11.5790817"><ele>440.66666666666663</ele><time>2026-03-27T11:37:37.796Z</time></trkpt><trkpt lat="43.4554983" lon="11.5789633"><ele>441.0</ele><time>2026-03-27T11:37:38.797Z</time></trkpt><trkpt lat="43.45552" lon="11.57885"><ele>441.33333333333337</ele><time>2026-03-27T11:37:39.795Z</time></trkpt><trkpt lat="43.4555567" lon="11.5787533"><ele>441.6666666666667</ele><time>2026-03-27T11:37:40.795Z</time></trkpt><trkpt lat="43.4556167" lon="11.5786683"><ele>442.0</ele><time>2026-03-27T11:37:41.795Z</time></trkpt><trkpt lat="43.45569" lon="11.5785833"><ele>444.33333333333337</ele><time>2026-03-27T11:37:42.796Z</time></trkpt><trkpt lat="43.4557633" lon="11.5784933"><ele>446.6666666666667</ele><time>2026-03-27T11:37:43.796Z</time></trkpt><trkpt lat="43.45583" lon="11.5783983"><ele>449.0</ele><time>2026-03-27T11:37:44.797Z</time></trkpt><trkpt lat="43.455895" lon="11.5783133"><ele>451.33333333333337</ele><time>2026-03-27T11:37:45.795Z</time></trkpt><trkpt lat="43.4559517" lon="11.578245"><ele>453.6666666666667</ele><time>2026-03-27T11:37:46.796Z</time></trkpt><trkpt lat="43.4559967" lon="11.5781783"><ele>456.0</ele><time>2026-03-27T11:37:47.796Z</time></trkpt><trkpt lat="43.456035" lon="11.5781"><ele>456.0</ele><time>2026-03-27T11:37:48.796Z</time></trkpt><trkpt lat="43.45607" lon="11.57799"><ele>456.0</ele><time>2026-03-27T11:37:49.796Z</time></trkpt><trkpt lat="43.4561" lon="11.5778933"><ele>456.0</ele><time>2026-03-27T11:37:50.795Z</time></trkpt><trkpt lat="43.4561467" lon="11.57773"><ele>456.0</ele><time>2026-03-27T11:37:52.795Z</time></trkpt><trkpt lat="43.4561533" lon="11.5775633"><ele>456.0</ele><time>2026-03-27T11:37:54.794Z</time></trkpt><trkpt lat="43.456145" lon="11.5774183"><ele>457.20000000000005</ele><time>2026-03-27T11:37:56.796Z</time></trkpt><trkpt lat="43.4561617" lon="11.5773"><ele>458.40000000000003</ele><time>2026-03-27T11:37:58.794Z</time></trkpt><trkpt lat="43.4562317" lon="11.5771533"><ele>459.6</ele><time>2026-03-27T11:38:00.797Z</time></trkpt><trkpt lat="43.4562833" lon="11.577055"><ele>460.8</ele><time>2026-03-27T11:38:01.795Z</time></trkpt><trkpt lat="43.456335" lon="11.5769467"><ele>462.0</ele><time>2026-03-27T11:38:02.797Z</time></trkpt><trkpt lat="43.4563833" lon="11.5768317"><ele>462.1666666666667</ele><time>2026-03-27T11:38:03.795Z</time></trkpt><trkpt lat="43.4564333" lon="11.5767067"><ele>462.33333333333337</ele><time>2026-03-27T11:38:04.794Z</time></trkpt><trkpt lat="43.4564817" lon="11.5765983"><ele>462.5</ele><time>2026-03-27T11:38:05.796Z</time></trkpt><trkpt lat="43.4565333" lon="11.57651"><ele>462.6666666666667</ele><time>2026-03-27T11:38:06.794Z</time></trkpt><trkpt lat="43.4565833" lon="11.5764217"><ele>462.83333333333337</ele><time>2026-03-27T11:38:07.794Z</time></trkpt><trkpt lat="43.4566367" lon="11.5763267"><ele>463.0</ele><time>2026-03-27T11:38:08.796Z</time></trkpt><trkpt lat="43.4566933" lon="11.5762317"><ele>463.00000000000006</ele><time>2026-03-27T11:38:09.794Z</time></trkpt><trkpt lat="43.4567533" lon="11.5761367"><ele>463.0</ele><time>2026-03-27T11:38:10.796Z</time></trkpt><trkpt lat="43.4568117" lon="11.5760467"><ele>463.0</ele><time>2026-03-27T11:38:11.795Z</time></trkpt><trkpt lat="43.4568667" lon="11.5759617"><ele>463.0</ele><time>2026-03-27T11:38:12.793Z</time></trkpt><trkpt lat="43.4569767" lon="11.5759017"><ele>463.00000000000006</ele><time>2026-03-27T11:38:14.797Z</time></trkpt><trkpt lat="43.457045" lon="11.575885"><ele>463.0</ele><time>2026-03-27T11:38:15.795Z</time></trkpt><trkpt lat="43.4571183" lon="11.5758617"><ele>463.57142857142856</ele><time>2026-03-27T11:38:16.794Z</time></trkpt><trkpt lat="43.4571833" lon="11.5758367"><ele>464.1428571428571</ele><time>2026-03-27T11:38:17.794Z</time></trkpt><trkpt lat="43.45725" lon="11.5758"><ele>464.71428571428567</ele><time>2026-03-27T11:38:18.795Z</time></trkpt><trkpt lat="43.4573133" lon="11.57576"><ele>465.2857142857142</ele><time>2026-03-27T11:38:19.795Z</time></trkpt><trkpt lat="43.4573833" lon="11.57572"><ele>465.85714285714283</ele><time>2026-03-27T11:38:20.797Z</time></trkpt><trkpt lat="43.4574567" lon="11.575695"><ele>466.42857142857133</ele><time>2026-03-27T11:38:21.793Z</time></trkpt><trkpt lat="43.4575267" lon="11.5756833"><ele>466.99999999999994</ele><time>2026-03-27T11:38:22.794Z</time></trkpt><trkpt lat="43.4575967" lon="11.5756983"><ele>466.99999999999994</ele><time>2026-03-27T11:38:23.795Z</time></trkpt><trkpt lat="43.45766" lon="11.575725"><ele>467.0</ele><time>2026-03-27T11:38:24.795Z</time></trkpt><trkpt lat="43.4577767" lon="11.5757533"><ele>467.0</ele><time>2026-03-27T11:38:26.798Z</time></trkpt><trkpt lat="43.4578867" lon="11.5756967"><ele>467.0</ele><time>2026-03-27T11:38:28.796Z</time></trkpt><trkpt lat="43.45794" lon="11.5756417"><ele>466.99999999999994</ele><time>2026-03-27T11:38:29.795Z</time></trkpt><trkpt lat="43.4579883" lon="11.5755633"><ele>467.0</ele><time>2026-03-27T11:38:30.794Z</time></trkpt><trkpt lat="43.4580267" lon="11.57547"><ele>467.20000000000005</ele><time>2026-03-27T11:38:31.795Z</time></trkpt><trkpt lat="43.458055" lon="11.5753833"><ele>467.40000000000003</ele><time>2026-03-27T11:38:32.795Z</time></trkpt><trkpt lat="43.4581167" lon="11.57524"><ele>467.59999999999997</ele><time>2026-03-27T11:38:34.794Z</time></trkpt><trkpt lat="43.4581417" lon="11.5751567"><ele>467.79999999999995</ele><time>2026-03-27T11:38:35.794Z</time></trkpt><trkpt lat="43.458195" lon="11.5750033"><ele>468.0</ele><time>2026-03-27T11:38:37.796Z</time></trkpt><trkpt lat="43.4582383" lon="11.5748533"><ele>465.0</ele><time>2026-03-27T11:38:39.794Z</time></trkpt><trkpt lat="43.4583367" lon="11.574765"><ele>461.99999999999994</ele><time>2026-03-27T11:38:41.795Z</time></trkpt><trkpt lat="43.4584067" lon="11.57477"><ele>458.99999999999994</ele><time>2026-03-27T11:38:42.795Z</time></trkpt><trkpt lat="43.458485" lon="11.574795"><ele>456.0</ele><time>2026-03-27T11:38:43.797Z</time></trkpt><trkpt lat="43.45857" lon="11.5748283"><ele>453.0</ele><time>2026-03-27T11:38:44.796Z</time></trkpt><trkpt lat="43.4586683" lon="11.5748683"><ele>453.0</ele><time>2026-03-27T11:38:45.794Z</time></trkpt><trkpt lat="43.4587683" lon="11.5748983"><ele>452.99999999999994</ele><time>2026-03-27T11:38:46.795Z</time></trkpt><trkpt lat="43.4588683" lon="11.574915"><ele>452.99999999999994</ele><time>2026-03-27T11:38:47.794Z</time></trkpt><trkpt lat="43.4589667" lon="11.5749283"><ele>453.0</ele><time>2026-03-27T11:38:48.794Z</time></trkpt><trkpt lat="43.4590583" lon="11.57494"><ele>453.0</ele><time>2026-03-27T11:38:49.794Z</time></trkpt><trkpt lat="43.4591517" lon="11.574945"><ele>451.8333333333333</ele><time>2026-03-27T11:38:50.796Z</time></trkpt><trkpt lat="43.459245" lon="11.5749517"><ele>450.66666666666663</ele><time>2026-03-27T11:38:51.796Z</time></trkpt><trkpt lat="43.459335" lon="11.5749533"><ele>449.5</ele><time>2026-03-27T11:38:52.794Z</time></trkpt><trkpt lat="43.45942" lon="11.5749433"><ele>448.3333333333333</ele><time>2026-03-27T11:38:53.794Z</time></trkpt><trkpt lat="43.4595017" lon="11.574905"><ele>447.16666666666663</ele><time>2026-03-27T11:38:54.797Z</time></trkpt><trkpt lat="43.4595683" lon="11.5748533"><ele>446.0</ele><time>2026-03-27T11:38:55.794Z</time></trkpt><trkpt lat="43.4596333" lon="11.5747967"><ele>444.3333333333333</ele><time>2026-03-27T11:38:56.796Z</time></trkpt><trkpt lat="43.45971" lon="11.57474"><ele>442.66666666666663</ele><time>2026-03-27T11:38:57.796Z</time></trkpt><trkpt lat="43.4597883" lon="11.5746833"><ele>441.0</ele><time>2026-03-27T11:38:58.796Z</time></trkpt><trkpt lat="43.4598533" lon="11.5746233"><ele>439.33333333333337</ele><time>2026-03-27T11:38:59.795Z</time></trkpt><trkpt lat="43.4599083" lon="11.574565"><ele>437.6666666666667</ele><time>2026-03-27T11:39:00.795Z</time></trkpt><trkpt lat="43.45997" lon="11.574485"><ele>436.0</ele><time>2026-03-27T11:39:02.796Z</time></trkpt><trkpt lat="43.459935" lon="11.574575"><ele>436.0</ele><time>2026-03-27T11:39:08.797Z</time></trkpt><trkpt lat="43.4598633" lon="11.5745983"><ele>436.0</ele><time>2026-03-27T11:39:09.796Z</time></trkpt><trkpt lat="43.4597733" lon="11.574645"><ele>436.0</ele><time>2026-03-27T11:39:10.795Z</time></trkpt><trkpt lat="43.4596817" lon="11.5747167"><ele>436.0</ele><time>2026-03-27T11:39:11.795Z</time></trkpt><trkpt lat="43.4595967" lon="11.5747917"><ele>436.0</ele><time>2026-03-27T11:39:12.796Z</time></trkpt><trkpt lat="43.4595167" lon="11.574865"><ele>438.0</ele><time>2026-03-27T11:39:13.795Z</time></trkpt><trkpt lat="43.4594217" lon="11.57492"><ele>440.0</ele><time>2026-03-27T11:39:14.796Z</time></trkpt><trkpt lat="43.4593233" lon="11.57495"><ele>442.0</ele><time>2026-03-27T11:39:15.795Z</time></trkpt><trkpt lat="43.45922" lon="11.5749517"><ele>444.0</ele><time>2026-03-27T11:39:16.795Z</time></trkpt><trkpt lat="43.45912" lon="11.5749433"><ele>446.0</ele><time>2026-03-27T11:39:17.796Z</time></trkpt><trkpt lat="43.459025" lon="11.57494"><ele>446.0</ele><time>2026-03-27T11:39:18.796Z</time></trkpt><trkpt lat="43.4589333" lon="11.5749333"><ele>446.0</ele><time>2026-03-27T11:39:19.795Z</time></trkpt><trkpt lat="43.458835" lon="11.5749217"><ele>446.0</ele><time>2026-03-27T11:39:20.797Z</time></trkpt><trkpt lat="43.4587283" lon="11.5748983"><ele>446.0</ele><time>2026-03-27T11:39:21.795Z</time></trkpt><trkpt lat="43.4586217" lon="11.5748633"><ele>446.0</ele><time>2026-03-27T11:39:22.795Z</time></trkpt><trkpt lat="43.4585283" lon="11.5748283"><ele>447.16666666666663</ele><time>2026-03-27T11:39:23.796Z</time></trkpt><trkpt lat="43.458445" lon="11.5747967"><ele>448.3333333333333</ele><time>2026-03-27T11:39:24.797Z</time></trkpt><trkpt lat="43.4583717" lon="11.574765"><ele>449.5</ele><time>2026-03-27T11:39:25.795Z</time></trkpt><trkpt lat="43.4583067" lon="11.5747533"><ele>450.66666666666663</ele><time>2026-03-27T11:39:26.796Z</time></trkpt><trkpt lat="43.458205" lon="11.574805"><ele>451.8333333333333</ele><time>2026-03-27T11:39:28.795Z</time></trkpt><trkpt lat="43.458155" lon="11.5748917"><ele>453.0</ele><time>2026-03-27T11:39:29.794Z</time></trkpt><trkpt lat="43.4581183" lon="11.575015"><ele>453.0</ele><time>2026-03-27T11:39:30.796Z</time></trkpt><trkpt lat="43.4580883" lon="11.5751417"><ele>452.99999999999994</ele><time>2026-03-27T11:39:31.794Z</time></trkpt><trkpt lat="43.458045" lon="11.5752567"><ele>452.99999999999994</ele><time>2026-03-27T11:39:32.796Z</time></trkpt><trkpt lat="43.4580017" lon="11.575375"><ele>453.0</ele><time>2026-03-27T11:39:33.796Z</time></trkpt><trkpt lat="43.4579583" lon="11.575485"><ele>453.0</ele><time>2026-03-27T11:39:34.796Z</time></trkpt><trkpt lat="43.4579167" lon="11.57558"><ele>455.3333333333333</ele><time>2026-03-27T11:39:35.796Z</time></trkpt><trkpt lat="43.4578733" lon="11.575655"><ele>457.66666666666663</ele><time>2026-03-27T11:39:36.796Z</time></trkpt><trkpt lat="43.4577767" lon="11.575725"><ele>460.0</ele><time>2026-03-27T11:39:38.796Z</time></trkpt><trkpt lat="43.4577117" lon="11.5757333"><ele>462.3333333333333</ele><time>2026-03-27T11:39:39.795Z</time></trkpt><trkpt lat="43.4576383" lon="11.5757267"><ele>464.66666666666663</ele><time>2026-03-27T11:39:40.794Z</time></trkpt><trkpt lat="43.45757" lon="11.5757067"><ele>467.0</ele><time>2026-03-27T11:39:41.795Z</time></trkpt><trkpt lat="43.4575017" lon="11.5757017"><ele>466.99999999999994</ele><time>2026-03-27T11:39:42.796Z</time></trkpt><trkpt lat="43.4574267" lon="11.57572"><ele>467.0</ele><time>2026-03-27T11:39:43.796Z</time></trkpt><trkpt lat="43.4573467" lon="11.57576"><ele>467.0</ele><time>2026-03-27T11:39:44.796Z</time></trkpt><trkpt lat="43.4572733" lon="11.5758033"><ele>467.0</ele><time>2026-03-27T11:39:45.795Z</time></trkpt><trkpt lat="43.457205" lon="11.5758417"><ele>466.99999999999994</ele><time>2026-03-27T11:39:46.796Z</time></trkpt><trkpt lat="43.4571333" lon="11.5758667"><ele>467.0</ele><time>2026-03-27T11:39:47.795Z</time></trkpt><trkpt lat="43.4570533" lon="11.5758883"><ele>466.3333333333333</ele><time>2026-03-27T11:39:48.796Z</time></trkpt><trkpt lat="43.4569733" lon="11.5759183"><ele>465.66666666666663</ele><time>2026-03-27T11:39:49.795Z</time></trkpt><trkpt lat="43.456905" lon="11.5759483"><ele>465.0</ele><time>2026-03-27T11:39:50.796Z</time></trkpt><trkpt lat="43.4568383" lon="11.5759967"><ele>464.33333333333337</ele><time>2026-03-27T11:39:51.797Z</time></trkpt><trkpt lat="43.4567783" lon="11.5760767"><ele>463.6666666666667</ele><time>2026-03-27T11:39:52.796Z</time></trkpt><trkpt lat="43.4567183" lon="11.5761733"><ele>463.0</ele><time>2026-03-27T11:39:53.796Z</time></trkpt><trkpt lat="43.4566667" lon="11.57628"><ele>463.0</ele><time>2026-03-27T11:39:54.795Z</time></trkpt><trkpt lat="43.4566167" lon="11.576385"><ele>462.99999999999994</ele><time>2026-03-27T11:39:55.796Z</time></trkpt><trkpt lat="43.4565617" lon="11.57649"><ele>462.99999999999994</ele><time>2026-03-27T11:39:56.796Z</time></trkpt><trkpt lat="43.4565033" lon="11.576595"><ele>463.0</ele><time>2026-03-27T11:39:57.794Z</time></trkpt><trkpt lat="43.4564533" lon="11.57671"><ele>463.0</ele><time>2026-03-27T11:39:58.794Z</time></trkpt><trkpt lat="43.4564083" lon="11.5768417"><ele>463.00000000000006</ele><time>2026-03-27T11:39:59.795Z</time></trkpt><trkpt lat="43.4563533" lon="11.576975"><ele>463.0</ele><time>2026-03-27T11:40:00.796Z</time></trkpt><trkpt lat="43.4563017" lon="11.5770883"><ele>463.0</ele><time>2026-03-27T11:40:01.796Z</time></trkpt><trkpt lat="43.4562617" lon="11.5771683"><ele>463.0</ele><time>2026-03-27T11:40:02.796Z</time></trkpt><trkpt lat="43.4562" lon="11.5772317"><ele>463.00000000000006</ele><time>2026-03-27T11:40:04.795Z</time></trkpt><trkpt lat="43.45615" lon="11.5773333"><ele>463.0</ele><time>2026-03-27T11:40:07.796Z</time></trkpt><trkpt lat="43.45617" lon="11.5774533"><ele>462.83333333333337</ele><time>2026-03-27T11:40:09.796Z</time></trkpt><trkpt lat="43.4561833" lon="11.5776067"><ele>462.6666666666667</ele><time>2026-03-27T11:40:11.797Z</time></trkpt><trkpt lat="43.4561683" lon="11.5777817"><ele>462.5</ele><time>2026-03-27T11:40:13.796Z</time></trkpt><trkpt lat="43.4561433" lon="11.5778633"><ele>462.33333333333337</ele><time>2026-03-27T11:40:14.795Z</time></trkpt><trkpt lat="43.45611" lon="11.5779417"><ele>462.1666666666667</ele><time>2026-03-27T11:40:15.795Z</time></trkpt><trkpt lat="43.4560783" lon="11.5780267"><ele>462.0</ele><time>2026-03-27T11:40:16.796Z</time></trkpt><trkpt lat="43.45605" lon="11.5781167"><ele>461.0</ele><time>2026-03-27T11:40:17.796Z</time></trkpt><trkpt lat="43.4560233" lon="11.5782017"><ele>460.0</ele><time>2026-03-27T11:40:18.796Z</time></trkpt><trkpt lat="43.4559867" lon="11.5782833"><ele>459.0</ele><time>2026-03-27T11:40:19.794Z</time></trkpt><trkpt lat="43.4559467" lon="11.5783633"><ele>458.0</ele><time>2026-03-27T11:40:20.797Z</time></trkpt><trkpt lat="43.45589" lon="11.5784317"><ele>457.0</ele><time>2026-03-27T11:40:21.796Z</time></trkpt><trkpt lat="43.4558233" lon="11.5785083"><ele>456.0</ele><time>2026-03-27T11:40:22.794Z</time></trkpt><trkpt lat="43.4557517" lon="11.5785817"><ele>456.0</ele><time>2026-03-27T11:40:23.797Z</time></trkpt><trkpt lat="43.455685" lon="11.578655"><ele>455.99999999999994</ele><time>2026-03-27T11:40:24.796Z</time></trkpt><trkpt lat="43.4556317" lon="11.5787267"><ele>456.0</ele><time>2026-03-27T11:40:25.796Z</time></trkpt><trkpt lat="43.45558" lon="11.578785"><ele>456.0</ele><time>2026-03-27T11:40:26.797Z</time></trkpt><trkpt lat="43.4555333" lon="11.5788433"><ele>455.99999999999994</ele><time>2026-03-27T11:40:27.797Z</time></trkpt><trkpt lat="43.4555033" lon="11.5789217"><ele>456.0</ele><time>2026-03-27T11:40:28.796Z</time></trkpt><trkpt lat="43.4554867" lon="11.5790317"><ele>456.0</ele><time>2026-03-27T11:40:29.794Z</time></trkpt><trkpt lat="43.4554717" lon="11.5791433"><ele>455.5</ele><time>2026-03-27T11:40:30.796Z</time></trkpt><trkpt lat="43.4554633" lon="11.5792583"><ele>455.0</ele><time>2026-03-27T11:40:31.795Z</time></trkpt><trkpt lat="43.4554517" lon="11.5793533"><ele>454.5</ele><time>2026-03-27T11:40:32.796Z</time></trkpt><trkpt lat="43.4554433" lon="11.5794567"><ele>454.0</ele><time>2026-03-27T11:40:33.798Z</time></trkpt><trkpt lat="43.4554333" lon="11.579555"><ele>453.5</ele><time>2026-03-27T11:40:34.795Z</time></trkpt><trkpt lat="43.455425" lon="11.5797133"><ele>453.0</ele><time>2026-03-27T11:40:36.796Z</time></trkpt><trkpt lat="43.4553883" lon="11.57985"><ele>450.4</ele><time>2026-03-27T11:40:38.795Z</time></trkpt><trkpt lat="43.4553583" lon="11.579965"><ele>447.79999999999995</ele><time>2026-03-27T11:40:40.795Z</time></trkpt><trkpt lat="43.45532" lon="11.5800867"><ele>445.2</ele><time>2026-03-27T11:40:42.796Z</time></trkpt><trkpt lat="43.4552683" lon="11.5802017"><ele>442.6</ele><time>2026-03-27T11:40:44.796Z</time></trkpt><trkpt lat="43.4551933" lon="11.580305"><ele>440.0</ele><time>2026-03-27T11:40:46.795Z</time></trkpt><trkpt lat="43.4551083" lon="11.5803683"><ele>437.8333333333333</ele><time>2026-03-27T11:40:48.796Z</time></trkpt><trkpt lat="43.4550217" lon="11.5804167"><ele>435.66666666666663</ele><time>2026-03-27T11:40:50.795Z</time></trkpt><trkpt lat="43.4549533" lon="11.580485"><ele>433.5</ele><time>2026-03-27T11:40:52.794Z</time></trkpt><trkpt lat="43.4548933" lon="11.580545"><ele>431.33333333333337</ele><time>2026-03-27T11:40:54.797Z</time></trkpt><trkpt lat="43.4548333" lon="11.5806333"><ele>429.1666666666667</ele><time>2026-03-27T11:40:56.796Z</time></trkpt><trkpt lat="43.4547983" lon="11.5807467"><ele>427.0</ele><time>2026-03-27T11:40:58.795Z</time></trkpt><trkpt lat="43.45479" lon="11.58089"><ele>427.0</ele><time>2026-03-27T11:41:00.796Z</time></trkpt><trkpt lat="43.4547583" lon="11.5810417"><ele>427.00000000000006</ele><time>2026-03-27T11:41:02.795Z</time></trkpt><trkpt lat="43.4547167" lon="11.5811983"><ele>427.00000000000006</ele><time>2026-03-27T11:41:04.794Z</time></trkpt><trkpt lat="43.4546817" lon="11.5812717"><ele>427.0</ele><time>2026-03-27T11:41:05.796Z</time></trkpt><trkpt lat="43.4546217" lon="11.58138"><ele>427.0</ele><time>2026-03-27T11:41:07.796Z</time></trkpt><trkpt lat="43.454575" lon="11.5814483"><ele>427.00000000000006</ele><time>2026-03-27T11:41:10.795Z</time></trkpt><trkpt lat="43.4546483" lon="11.5813517"><ele>427.0</ele><time>2026-03-27T11:41:41.796Z</time></trkpt><trkpt lat="43.454685" lon="11.5812633"><ele>427.0</ele><time>2026-03-27T11:41:42.796Z</time></trkpt><trkpt lat="43.4547267" lon="11.5811567"><ele>427.0</ele><time>2026-03-27T11:41:43.794Z</time></trkpt><trkpt lat="43.4547617" lon="11.5810433"><ele>427.00000000000006</ele><time>2026-03-27T11:41:44.791Z</time></trkpt><trkpt lat="43.4547883" lon="11.5809333"><ele>427.0</ele><time>2026-03-27T11:41:45.794Z</time></trkpt><trkpt lat="43.4548" lon="11.58083"><ele>427.0</ele><time>2026-03-27T11:41:46.79Z</time></trkpt><trkpt lat="43.4548183" lon="11.5807417"><ele>427.0</ele><time>2026-03-27T11:41:47.79Z</time></trkpt><trkpt lat="43.4548467" lon="11.5806533"><ele>427.0</ele><time>2026-03-27T11:41:48.79Z</time></trkpt><trkpt lat="43.4548867" lon="11.5805733"><ele>427.0</ele><time>2026-03-27T11:41:49.796Z</time></trkpt><trkpt lat="43.45493" lon="11.5805033"><ele>427.0</ele><time>2026-03-27T11:41:50.793Z</time></trkpt><trkpt lat="43.4549833" lon="11.5804433"><ele>427.0</ele><time>2026-03-27T11:41:51.792Z</time></trkpt><trkpt lat="43.455035" lon="11.58039"><ele>427.0</ele><time>2026-03-27T11:41:52.794Z</time></trkpt><trkpt lat="43.4550967" lon="11.5803417"><ele>429.1666666666667</ele><time>2026-03-27T11:41:53.795Z</time></trkpt><trkpt lat="43.4551617" lon="11.5803083"><ele>431.33333333333337</ele><time>2026-03-27T11:41:54.795Z</time></trkpt><trkpt lat="43.4552317" lon="11.5802717"><ele>433.5</ele><time>2026-03-27T11:41:55.797Z</time></trkpt><trkpt lat="43.455285" lon="11.5802133"><ele>435.66666666666663</ele><time>2026-03-27T11:41:56.793Z</time></trkpt><trkpt lat="43.4553283" lon="11.5801417"><ele>437.8333333333333</ele><time>2026-03-27T11:41:57.792Z</time></trkpt><trkpt lat="43.4553617" lon="11.5800433"><ele>440.0</ele><time>2026-03-27T11:41:58.792Z</time></trkpt><trkpt lat="43.455385" lon="11.57992"><ele>440.0</ele><time>2026-03-27T11:41:59.795Z</time></trkpt><trkpt lat="43.4554117" lon="11.57979"><ele>440.0</ele><time>2026-03-27T11:42:00.795Z</time></trkpt><trkpt lat="43.45543" lon="11.5796633"><ele>440.0</ele><time>2026-03-27T11:42:01.795Z</time></trkpt><trkpt lat="43.4554417" lon="11.579535"><ele>440.0</ele><time>2026-03-27T11:42:02.792Z</time></trkpt><trkpt lat="43.45545" lon="11.5794217"><ele>440.0</ele><time>2026-03-27T11:42:03.794Z</time></trkpt><trkpt lat="43.4554617" lon="11.5793083"><ele>440.4</ele><time>2026-03-27T11:42:04.793Z</time></trkpt><trkpt lat="43.4554717" lon="11.57918"><ele>440.8</ele><time>2026-03-27T11:42:05.797Z</time></trkpt><trkpt lat="43.455485" lon="11.5790383"><ele>441.20000000000005</ele><time>2026-03-27T11:42:06.795Z</time></trkpt><trkpt lat="43.4555117" lon="11.5789117"><ele>441.6</ele><time>2026-03-27T11:42:07.796Z</time></trkpt><trkpt lat="43.455545" lon="11.5788"><ele>442.0</ele><time>2026-03-27T11:42:08.798Z</time></trkpt><trkpt lat="43.4555883" lon="11.5787017"><ele>444.33333333333337</ele><time>2026-03-27T11:42:09.795Z</time></trkpt><trkpt lat="43.4556533" lon="11.578625"><ele>446.6666666666667</ele><time>2026-03-27T11:42:10.794Z</time></trkpt><trkpt lat="43.4557217" lon="11.5785417"><ele>449.0</ele><time>2026-03-27T11:42:11.796Z</time></trkpt><trkpt lat="43.4557917" lon="11.5784667"><ele>451.33333333333337</ele><time>2026-03-27T11:42:12.796Z</time></trkpt><trkpt lat="43.455855" lon="11.5783883"><ele>453.6666666666667</ele><time>2026-03-27T11:42:13.796Z</time></trkpt><trkpt lat="43.4559117" lon="11.5783217"><ele>456.0</ele><time>2026-03-27T11:42:14.795Z</time></trkpt><trkpt lat="43.4559633" lon="11.5782533"><ele>456.0</ele><time>2026-03-27T11:42:15.795Z</time></trkpt><trkpt lat="43.4560083" lon="11.578165"><ele>456.0</ele><time>2026-03-27T11:42:16.792Z</time></trkpt><trkpt lat="43.4560483" lon="11.5780667"><ele>456.0</ele><time>2026-03-27T11:42:17.797Z</time></trkpt><trkpt lat="43.456085" lon="11.57797"><ele>456.0</ele><time>2026-03-27T11:42:18.795Z</time></trkpt><trkpt lat="43.4561217" lon="11.5778767"><ele>456.0</ele><time>2026-03-27T11:42:19.794Z</time></trkpt><trkpt lat="43.4561433" lon="11.5777867"><ele>456.0</ele><time>2026-03-27T11:42:20.794Z</time></trkpt><trkpt lat="43.45616" lon="11.57769"><ele>457.0</ele><time>2026-03-27T11:42:21.793Z</time></trkpt><trkpt lat="43.4561617" lon="11.57758"><ele>458.0</ele><time>2026-03-27T11:42:22.793Z</time></trkpt><trkpt lat="43.456155" lon="11.57748"><ele>459.0</ele><time>2026-03-27T11:42:23.794Z</time></trkpt><trkpt lat="43.4561283" lon="11.5773717"><ele>460.0</ele><time>2026-03-27T11:42:25.795Z</time></trkpt><trkpt lat="43.4560117" lon="11.577375"><ele>461.0</ele><time>2026-03-27T11:42:27.793Z</time></trkpt><trkpt lat="43.45594" lon="11.577385"><ele>462.0</ele><time>2026-03-27T11:42:28.796Z</time></trkpt><trkpt lat="43.4558683" lon="11.577415"><ele>462.0</ele><time>2026-03-27T11:42:29.794Z</time></trkpt><trkpt lat="43.4557933" lon="11.57747"><ele>462.0</ele><time>2026-03-27T11:42:30.793Z</time></trkpt><trkpt lat="43.4557167" lon="11.577525"><ele>462.0</ele><time>2026-03-27T11:42:31.791Z</time></trkpt><trkpt lat="43.45565" lon="11.5775683"><ele>462.0</ele><time>2026-03-27T11:42:32.792Z</time></trkpt><trkpt lat="43.455585" lon="11.5775967"><ele>462.0</ele><time>2026-03-27T11:42:33.796Z</time></trkpt><trkpt lat="43.4554717" lon="11.5775883"><ele>462.0</ele><time>2026-03-27T11:42:35.796Z</time></trkpt><trkpt lat="43.4553833" lon="11.5776067"><ele>462.1666666666667</ele><time>2026-03-27T11:42:37.796Z</time></trkpt><trkpt lat="43.45532" lon="11.5776667"><ele>462.33333333333337</ele><time>2026-03-27T11:42:39.796Z</time></trkpt><trkpt lat="43.4552667" lon="11.5777517"><ele>462.5</ele><time>2026-03-27T11:43:02.797Z</time></trkpt><trkpt lat="43.4552117" lon="11.5778167"><ele>462.6666666666667</ele><time>2026-03-27T11:43:10.796Z</time></trkpt><trkpt lat="43.4551367" lon="11.5778767"><ele>462.83333333333337</ele><time>2026-03-27T11:43:12.797Z</time></trkpt><trkpt lat="43.4550617" lon="11.5779483"><ele>463.0</ele><time>2026-03-27T11:43:14.797Z</time></trkpt><trkpt lat="43.454985" lon="11.57805"><ele>463.0</ele><time>2026-03-27T11:43:16.796Z</time></trkpt><trkpt lat="43.454915" lon="11.578165"><ele>462.99999999999994</ele><time>2026-03-27T11:43:18.796Z</time></trkpt><trkpt lat="43.4548417" lon="11.5782767"><ele>462.99999999999994</ele><time>2026-03-27T11:43:20.796Z</time></trkpt><trkpt lat="43.4547617" lon="11.5783733"><ele>463.0</ele><time>2026-03-27T11:43:22.797Z</time></trkpt><trkpt lat="43.454665" lon="11.5783967"><ele>463.0</ele><time>2026-03-27T11:43:24.795Z</time></trkpt><trkpt lat="43.4545533" lon="11.5784183"><ele>462.0</ele><time>2026-03-27T11:43:26.794Z</time></trkpt><trkpt lat="43.454445" lon="11.5784933"><ele>460.99999999999994</ele><time>2026-03-27T11:43:28.795Z</time></trkpt><trkpt lat="43.45435" lon="11.5785567"><ele>459.99999999999994</ele><time>2026-03-27T11:43:30.795Z</time></trkpt><trkpt lat="43.4542433" lon="11.5786517"><ele>459.0</ele><time>2026-03-27T11:43:32.796Z</time></trkpt><trkpt lat="43.45416" lon="11.57871"><ele>458.0</ele><time>2026-03-27T11:43:33.796Z</time></trkpt><trkpt lat="43.4540683" lon="11.5787733"><ele>457.59999999999997</ele><time>2026-03-27T11:43:34.796Z</time></trkpt><trkpt lat="43.4539633" lon="11.5788617"><ele>457.19999999999993</ele><time>2026-03-27T11:43:35.795Z</time></trkpt><trkpt lat="43.4538717" lon="11.5789483"><ele>456.8</ele><time>2026-03-27T11:43:36.797Z</time></trkpt><trkpt lat="43.4537883" lon="11.57903"><ele>456.4</ele><time>2026-03-27T11:43:37.796Z</time></trkpt><trkpt lat="43.4536983" lon="11.5791017"><ele>456.0</ele><time>2026-03-27T11:43:38.796Z</time></trkpt><trkpt lat="43.4536" lon="11.5791733"><ele>456.0</ele><time>2026-03-27T11:43:39.795Z</time></trkpt><trkpt lat="43.453485" lon="11.579245"><ele>456.0</ele><time>2026-03-27T11:43:40.795Z</time></trkpt><trkpt lat="43.453355" lon="11.57932"><ele>456.0</ele><time>2026-03-27T11:43:41.795Z</time></trkpt><trkpt lat="43.4532217" lon="11.5794017"><ele>456.0</ele><time>2026-03-27T11:43:42.796Z</time></trkpt><trkpt lat="43.4531" lon="11.5794767"><ele>454.25</ele><time>2026-03-27T11:43:43.796Z</time></trkpt><trkpt lat="43.452985" lon="11.5795467"><ele>452.5</ele><time>2026-03-27T11:43:44.797Z</time></trkpt><trkpt lat="43.4528733" lon="11.5796117"><ele>450.75</ele><time>2026-03-27T11:43:45.795Z</time></trkpt><trkpt lat="43.45276" lon="11.5796783"><ele>449.0</ele><time>2026-03-27T11:43:46.796Z</time></trkpt><trkpt lat="43.4526417" lon="11.5797467"><ele>449.0</ele><time>2026-03-27T11:43:47.796Z</time></trkpt><trkpt lat="43.4525233" lon="11.5798167"><ele>449.0</ele><time>2026-03-27T11:43:48.794Z</time></trkpt><trkpt lat="43.4523983" lon="11.5798867"><ele>449.0</ele><time>2026-03-27T11:43:49.794Z</time></trkpt><trkpt lat="43.4522767" lon="11.5799533"><ele>449.0</ele><time>2026-03-27T11:43:50.796Z</time></trkpt><trkpt lat="43.4521717" lon="11.5800133"><ele>448.99999999999994</ele><time>2026-03-27T11:43:51.794Z</time></trkpt><trkpt lat="43.45209" lon="11.5800567"><ele>449.0</ele><time>2026-03-27T11:43:52.794Z</time></trkpt><trkpt lat="43.4520267" lon="11.580095"><ele>449.0</ele><time>2026-03-27T11:43:53.797Z</time></trkpt><trkpt lat="43.45198" lon="11.580185"><ele>449.0</ele><time>2026-03-27T11:43:55.796Z</time></trkpt><trkpt lat="43.45201" lon="11.5803333"><ele>448.99999999999994</ele><time>2026-03-27T11:43:57.796Z</time></trkpt><trkpt lat="43.4520483" lon="11.58041"><ele>449.0</ele><time>2026-03-27T11:43:58.796Z</time></trkpt><trkpt lat="43.4521117" lon="11.5805367"><ele>447.0</ele><time>2026-03-27T11:44:00.796Z</time></trkpt><trkpt lat="43.4522017" lon="11.5806183"><ele>445.0</ele><time>2026-03-27T11:44:02.796Z</time></trkpt><trkpt lat="43.45228" lon="11.5806283"><ele>443.0</ele><time>2026-03-27T11:44:03.795Z</time></trkpt><trkpt lat="43.4523717" lon="11.5806167"><ele>441.0</ele><time>2026-03-27T11:44:04.794Z</time></trkpt><trkpt lat="43.4524667" lon="11.5805817"><ele>439.0</ele><time>2026-03-27T11:44:05.795Z</time></trkpt><trkpt lat="43.4525667" lon="11.5805383"><ele>439.0</ele><time>2026-03-27T11:44:06.795Z</time></trkpt><trkpt lat="43.4526667" lon="11.5805"><ele>439.0</ele><time>2026-03-27T11:44:07.795Z</time></trkpt><trkpt lat="43.4527733" lon="11.580475"><ele>439.0</ele><time>2026-03-27T11:44:08.795Z</time></trkpt><trkpt lat="43.4528833" lon="11.5804583"><ele>439.0</ele><time>2026-03-27T11:44:09.795Z</time></trkpt><trkpt lat="43.452995" lon="11.580455"><ele>439.0</ele><time>2026-03-27T11:44:10.795Z</time></trkpt><trkpt lat="43.4530983" lon="11.5804633"><ele>437.0</ele><time>2026-03-27T11:44:11.796Z</time></trkpt><trkpt lat="43.4531983" lon="11.5804833"><ele>435.0</ele><time>2026-03-27T11:44:12.796Z</time></trkpt><trkpt lat="43.4532983" lon="11.58053"><ele>433.0</ele><time>2026-03-27T11:44:13.796Z</time></trkpt><trkpt lat="43.4534033" lon="11.5806033"><ele>431.0</ele><time>2026-03-27T11:44:14.796Z</time></trkpt><trkpt lat="43.4535017" lon="11.5807067"><ele>429.0</ele><time>2026-03-27T11:44:15.796Z</time></trkpt><trkpt lat="43.4535817" lon="11.58082"><ele>429.0</ele><time>2026-03-27T11:44:16.795Z</time></trkpt><trkpt lat="43.4536533" lon="11.5809183"><ele>429.0</ele><time>2026-03-27T11:44:17.795Z</time></trkpt><trkpt lat="43.4537117" lon="11.5810033"><ele>429.0</ele><time>2026-03-27T11:44:18.796Z</time></trkpt><trkpt lat="43.45377" lon="11.5810933"><ele>429.0</ele><time>2026-03-27T11:44:19.796Z</time></trkpt><trkpt lat="43.45382" lon="11.5811717"><ele>429.0</ele><time>2026-03-27T11:44:20.796Z</time></trkpt><trkpt lat="43.4538633" lon="11.5812417"><ele>429.0</ele><time>2026-03-27T11:44:21.795Z</time></trkpt><trkpt lat="43.4538967" lon="11.5813517"><ele>427.0</ele><time>2026-03-27T11:44:23.795Z</time></trkpt><trkpt lat="43.45393" lon="11.5814683"><ele>425.0</ele><time>2026-03-27T11:44:25.795Z</time></trkpt><trkpt lat="43.453945" lon="11.5815733"><ele>423.0</ele><time>2026-03-27T11:44:27.795Z</time></trkpt><trkpt lat="43.453955" lon="11.58167"><ele>421.0</ele><time>2026-03-27T11:44:29.797Z</time></trkpt><trkpt lat="43.4539917" lon="11.581765"><ele>419.0</ele><time>2026-03-27T11:44:31.796Z</time></trkpt><trkpt lat="43.4540367" lon="11.5818683"><ele>417.0</ele><time>2026-03-27T11:44:33.799Z</time></trkpt><trkpt lat="43.45404" lon="11.5820067"><ele>414.40000000000003</ele><time>2026-03-27T11:44:35.796Z</time></trkpt><trkpt lat="43.4540283" lon="11.5821517"><ele>411.8</ele><time>2026-03-27T11:44:37.795Z</time></trkpt><trkpt lat="43.454" lon="11.5823017"><ele>409.2</ele><time>2026-03-27T11:44:39.795Z</time></trkpt><trkpt lat="43.4539583" lon="11.5824717"><ele>406.6</ele><time>2026-03-27T11:44:41.795Z</time></trkpt><trkpt lat="43.4539383" lon="11.5825767"><ele>404.0</ele><time>2026-03-27T11:44:42.797Z</time></trkpt><trkpt lat="43.45392" lon="11.5826883"><ele>403.99999999999994</ele><time>2026-03-27T11:44:43.795Z</time></trkpt><trkpt lat="43.4539117" lon="11.5827917"><ele>404.0</ele><time>2026-03-27T11:44:44.797Z</time></trkpt><trkpt lat="43.4539017" lon="11.582885"><ele>404.0</ele><time>2026-03-27T11:44:45.796Z</time></trkpt><trkpt lat="43.453905" lon="11.5829883"><ele>404.0</ele><time>2026-03-27T11:44:46.795Z</time></trkpt><trkpt lat="43.4539117" lon="11.58309"><ele>403.99999999999994</ele><time>2026-03-27T11:44:47.796Z</time></trkpt><trkpt lat="43.45391" lon="11.583195"><ele>404.0</ele><time>2026-03-27T11:44:48.797Z</time></trkpt><trkpt lat="43.453895" lon="11.5833067"><ele>403.66666666666663</ele><time>2026-03-27T11:44:49.796Z</time></trkpt><trkpt lat="43.4538867" lon="11.5834267"><ele>403.3333333333333</ele><time>2026-03-27T11:44:50.797Z</time></trkpt><trkpt lat="43.45387" lon="11.5835567"><ele>403.0</ele><time>2026-03-27T11:44:51.797Z</time></trkpt><trkpt lat="43.45386" lon="11.5836867"><ele>402.66666666666663</ele><time>2026-03-27T11:44:52.796Z</time></trkpt><trkpt lat="43.4538483" lon="11.583805"><ele>402.3333333333333</ele><time>2026-03-27T11:44:53.797Z</time></trkpt><trkpt lat="43.4538417" lon="11.5839117"><ele>402.0</ele><time>2026-03-27T11:44:54.797Z</time></trkpt><trkpt lat="43.45383" lon="11.5840133"><ele>400.5</ele><time>2026-03-27T11:44:55.797Z</time></trkpt><trkpt lat="43.4538183" lon="11.5841133"><ele>399.0</ele><time>2026-03-27T11:44:56.797Z</time></trkpt><trkpt lat="43.45381" lon="11.5842183"><ele>397.5</ele><time>2026-03-27T11:44:57.797Z</time></trkpt><trkpt lat="43.45382" lon="11.5843367"><ele>396.0</ele><time>2026-03-27T11:44:58.796Z</time></trkpt><trkpt lat="43.45385" lon="11.58446"><ele>394.5</ele><time>2026-03-27T11:44:59.795Z</time></trkpt><trkpt lat="43.4538917" lon="11.584585"><ele>393.0</ele><time>2026-03-27T11:45:00.794Z</time></trkpt><trkpt lat="43.453925" lon="11.584705"><ele>390.2</ele><time>2026-03-27T11:45:01.796Z</time></trkpt><trkpt lat="43.4539633" lon="11.584825"><ele>387.4</ele><time>2026-03-27T11:45:02.798Z</time></trkpt><trkpt lat="43.4540017" lon="11.5849417"><ele>384.59999999999997</ele><time>2026-03-27T11:45:03.796Z</time></trkpt><trkpt lat="43.4540433" lon="11.5850483"><ele>381.79999999999995</ele><time>2026-03-27T11:45:04.794Z</time></trkpt><trkpt lat="43.4540783" lon="11.5851633"><ele>379.0</ele><time>2026-03-27T11:45:05.796Z</time></trkpt><trkpt lat="43.4541033" lon="11.5852867"><ele>377.3333333333333</ele><time>2026-03-27T11:45:06.797Z</time></trkpt><trkpt lat="43.4541217" lon="11.5854133"><ele>375.66666666666663</ele><time>2026-03-27T11:45:07.797Z</time></trkpt><trkpt lat="43.4541283" lon="11.585535"><ele>374.0</ele><time>2026-03-27T11:45:08.797Z</time></trkpt><trkpt lat="43.4541317" lon="11.5856417"><ele>372.3333333333333</ele><time>2026-03-27T11:45:09.793Z</time></trkpt><trkpt lat="43.4541383" lon="11.58575"><ele>370.6666666666667</ele><time>2026-03-27T11:45:10.796Z</time></trkpt><trkpt lat="43.4541433" lon="11.5858517"><ele>369.0</ele><time>2026-03-27T11:45:11.796Z</time></trkpt><trkpt lat="43.4541467" lon="11.5859567"><ele>369.0</ele><time>2026-03-27T11:45:12.796Z</time></trkpt><trkpt lat="43.4541483" lon="11.5860717"><ele>369.0</ele><time>2026-03-27T11:45:13.796Z</time></trkpt><trkpt lat="43.45414" lon="11.5861967"><ele>369.0</ele><time>2026-03-27T11:45:14.797Z</time></trkpt><trkpt lat="43.4541333" lon="11.5863217"><ele>369.0</ele><time>2026-03-27T11:45:15.797Z</time></trkpt><trkpt lat="43.45412" lon="11.5864517"><ele>369.0</ele><time>2026-03-27T11:45:16.796Z</time></trkpt><trkpt lat="43.4541167" lon="11.5865783"><ele>367.6666666666667</ele><time>2026-03-27T11:45:17.796Z</time></trkpt><trkpt lat="43.4541083" lon="11.5867017"><ele>366.3333333333333</ele><time>2026-03-27T11:45:18.797Z</time></trkpt><trkpt lat="43.4540917" lon="11.58682"><ele>365.0</ele><time>2026-03-27T11:45:19.796Z</time></trkpt><trkpt lat="43.4540733" lon="11.586935"><ele>363.66666666666663</ele><time>2026-03-27T11:45:20.798Z</time></trkpt><trkpt lat="43.4540567" lon="11.58705"><ele>362.3333333333333</ele><time>2026-03-27T11:45:21.796Z</time></trkpt><trkpt lat="43.454045" lon="11.5871583"><ele>361.0</ele><time>2026-03-27T11:45:22.796Z</time></trkpt><trkpt lat="43.454035" lon="11.58726"><ele>360.42857142857144</ele><time>2026-03-27T11:45:23.796Z</time></trkpt><trkpt lat="43.454025" lon="11.5873583"><ele>359.85714285714283</ele><time>2026-03-27T11:45:24.797Z</time></trkpt><trkpt lat="43.4540133" lon="11.5874583"><ele>359.2857142857143</ele><time>2026-03-27T11:45:25.795Z</time></trkpt><trkpt lat="43.4540033" lon="11.58756"><ele>358.7142857142857</ele><time>2026-03-27T11:45:26.797Z</time></trkpt><trkpt lat="43.4539983" lon="11.5876583"><ele>358.1428571428571</ele><time>2026-03-27T11:45:27.796Z</time></trkpt><trkpt lat="43.454" lon="11.5877583"><ele>357.57142857142856</ele><time>2026-03-27T11:45:28.796Z</time></trkpt><trkpt lat="43.4540067" lon="11.5878683"><ele>357.0</ele><time>2026-03-27T11:45:29.795Z</time></trkpt><trkpt lat="43.454015" lon="11.58798"><ele>356.2857142857143</ele><time>2026-03-27T11:45:30.796Z</time></trkpt><trkpt lat="43.4540283" lon="11.588085"><ele>355.57142857142856</ele><time>2026-03-27T11:45:31.797Z</time></trkpt><trkpt lat="43.4540467" lon="11.58818"><ele>354.8571428571429</ele><time>2026-03-27T11:45:32.796Z</time></trkpt><trkpt lat="43.4540683" lon="11.5882733"><ele>354.1428571428571</ele><time>2026-03-27T11:45:33.794Z</time></trkpt><trkpt lat="43.4540917" lon="11.588365"><ele>353.42857142857144</ele><time>2026-03-27T11:45:34.794Z</time></trkpt><trkpt lat="43.4541117" lon="11.588455"><ele>352.7142857142857</ele><time>2026-03-27T11:45:35.797Z</time></trkpt><trkpt lat="43.4541233" lon="11.5885467"><ele>352.0</ele><time>2026-03-27T11:45:36.798Z</time></trkpt><trkpt lat="43.4541317" lon="11.58864"><ele>351.14285714285717</ele><time>2026-03-27T11:45:37.795Z</time></trkpt><trkpt lat="43.4541317" lon="11.58874"><ele>350.2857142857143</ele><time>2026-03-27T11:45:38.796Z</time></trkpt><trkpt lat="43.45412" lon="11.588835"><ele>349.42857142857144</ele><time>2026-03-27T11:45:39.794Z</time></trkpt><trkpt lat="43.45411" lon="11.5889317"><ele>348.57142857142856</ele><time>2026-03-27T11:45:40.795Z</time></trkpt><trkpt lat="43.4541083" lon="11.5890333"><ele>347.7142857142857</ele><time>2026-03-27T11:45:41.796Z</time></trkpt><trkpt lat="43.4541183" lon="11.5891383"><ele>346.85714285714283</ele><time>2026-03-27T11:45:42.796Z</time></trkpt><trkpt lat="43.4541183" lon="11.5892517"><ele>346.0</ele><time>2026-03-27T11:45:43.794Z</time></trkpt><trkpt lat="43.45411" lon="11.5893617"><ele>346.0</ele><time>2026-03-27T11:45:44.797Z</time></trkpt><trkpt lat="43.454095" lon="11.5894633"><ele>346.0</ele><time>2026-03-27T11:45:45.796Z</time></trkpt><trkpt lat="43.4540783" lon="11.5895483"><ele>346.0</ele><time>2026-03-27T11:45:46.795Z</time></trkpt><trkpt lat="43.4540683" lon="11.5896417"><ele>346.0</ele><time>2026-03-27T11:45:47.796Z</time></trkpt><trkpt lat="43.454055" lon="11.589735"><ele>346.0</ele><time>2026-03-27T11:45:48.795Z</time></trkpt><trkpt lat="43.454035" lon="11.5898867"><ele>346.0</ele><time>2026-03-27T11:45:50.797Z</time></trkpt><trkpt lat="43.4540067" lon="11.5899933"><ele>343.25</ele><time>2026-03-27T11:45:52.796Z</time></trkpt><trkpt lat="43.453935" lon="11.59009"><ele>340.5</ele><time>2026-03-27T11:45:54.796Z</time></trkpt><trkpt lat="43.4538733" lon="11.5902267"><ele>337.75</ele><time>2026-03-27T11:45:56.796Z</time></trkpt><trkpt lat="43.45385" lon="11.590385"><ele>335.0</ele><time>2026-03-27T11:45:58.795Z</time></trkpt><trkpt lat="43.4538767" lon="11.5905467"><ele>333.4285714285714</ele><time>2026-03-27T11:46:00.795Z</time></trkpt><trkpt lat="43.4538933" lon="11.5906317"><ele>331.85714285714283</ele><time>2026-03-27T11:46:01.796Z</time></trkpt><trkpt lat="43.4539033" lon="11.5907233"><ele>330.2857142857143</ele><time>2026-03-27T11:46:02.798Z</time></trkpt><trkpt lat="43.4539067" lon="11.5908217"><ele>328.71428571428567</ele><time>2026-03-27T11:46:03.797Z</time></trkpt><trkpt lat="43.4539083" lon="11.5909183"><ele>327.1428571428571</ele><time>2026-03-27T11:46:04.796Z</time></trkpt><trkpt lat="43.4539067" lon="11.5910167"><ele>325.57142857142856</ele><time>2026-03-27T11:46:05.797Z</time></trkpt><trkpt lat="43.4539067" lon="11.5911167"><ele>324.0</ele><time>2026-03-27T11:46:06.796Z</time></trkpt><trkpt lat="43.4539017" lon="11.59122"><ele>322.57142857142856</ele><time>2026-03-27T11:46:07.797Z</time></trkpt><trkpt lat="43.453895" lon="11.5913183"><ele>321.1428571428571</ele><time>2026-03-27T11:46:08.797Z</time></trkpt><trkpt lat="43.4538867" lon="11.5914183"><ele>319.71428571428567</ele><time>2026-03-27T11:46:09.796Z</time></trkpt><trkpt lat="43.4538767" lon="11.5915167"><ele>318.2857142857143</ele><time>2026-03-27T11:46:10.795Z</time></trkpt><trkpt lat="43.4538717" lon="11.5916083"><ele>316.85714285714283</ele><time>2026-03-27T11:46:11.798Z</time></trkpt><trkpt lat="43.453875" lon="11.5916983"><ele>315.4285714285714</ele><time>2026-03-27T11:46:12.796Z</time></trkpt><trkpt lat="43.4538917" lon="11.5917883"><ele>314.0</ele><time>2026-03-27T11:46:13.798Z</time></trkpt><trkpt lat="43.45392" lon="11.59189"><ele>314.0</ele><time>2026-03-27T11:46:14.798Z</time></trkpt><trkpt lat="43.4539533" lon="11.592005"><ele>314.0</ele><time>2026-03-27T11:46:15.795Z</time></trkpt><trkpt lat="43.4539967" lon="11.59212"><ele>314.0</ele><time>2026-03-27T11:46:16.795Z</time></trkpt><trkpt lat="43.4540417" lon="11.5922317"><ele>314.0</ele><time>2026-03-27T11:46:17.794Z</time></trkpt><trkpt lat="43.4540867" lon="11.5923433"><ele>314.0</ele><time>2026-03-27T11:46:18.796Z</time></trkpt><trkpt lat="43.4541317" lon="11.5924533"><ele>312.83333333333337</ele><time>2026-03-27T11:46:19.796Z</time></trkpt><trkpt lat="43.4541717" lon="11.5925583"><ele>311.6666666666667</ele><time>2026-03-27T11:46:20.796Z</time></trkpt><trkpt lat="43.4542067" lon="11.5926783"><ele>310.5</ele><time>2026-03-27T11:46:21.796Z</time></trkpt><trkpt lat="43.454235" lon="11.5927967"><ele>309.3333333333333</ele><time>2026-03-27T11:46:22.799Z</time></trkpt><trkpt lat="43.4542633" lon="11.5929083"><ele>308.16666666666663</ele><time>2026-03-27T11:46:23.794Z</time></trkpt><trkpt lat="43.45429" lon="11.593015"><ele>307.0</ele><time>2026-03-27T11:46:24.797Z</time></trkpt><trkpt lat="43.4543083" lon="11.593185"><ele>306.5</ele><time>2026-03-27T11:46:26.797Z</time></trkpt><trkpt lat="43.4542933" lon="11.593285"><ele>306.0</ele><time>2026-03-27T11:46:27.794Z</time></trkpt><trkpt lat="43.4542567" lon="11.5933833"><ele>305.5</ele><time>2026-03-27T11:46:28.794Z</time></trkpt><trkpt lat="43.4542083" lon="11.5934733"><ele>305.0</ele><time>2026-03-27T11:46:29.795Z</time></trkpt><trkpt lat="43.45415" lon="11.59353"><ele>304.5</ele><time>2026-03-27T11:46:30.796Z</time></trkpt><trkpt lat="43.45409" lon="11.59361"><ele>304.0</ele><time>2026-03-27T11:46:31.798Z</time></trkpt><trkpt lat="43.454035" lon="11.59369"><ele>303.3333333333333</ele><time>2026-03-27T11:46:32.797Z</time></trkpt><trkpt lat="43.453985" lon="11.5937733"><ele>302.66666666666663</ele><time>2026-03-27T11:46:33.794Z</time></trkpt><trkpt lat="43.4539517" lon="11.593855"><ele>302.0</ele><time>2026-03-27T11:46:34.796Z</time></trkpt><trkpt lat="43.4539383" lon="11.5939517"><ele>301.3333333333333</ele><time>2026-03-27T11:46:35.795Z</time></trkpt><trkpt lat="43.4539433" lon="11.59406"><ele>300.6666666666667</ele><time>2026-03-27T11:46:36.797Z</time></trkpt><trkpt lat="43.4539417" lon="11.5941767"><ele>300.0</ele><time>2026-03-27T11:46:37.796Z</time></trkpt><trkpt lat="43.4539367" lon="11.5942867"><ele>300.0</ele><time>2026-03-27T11:46:38.797Z</time></trkpt><trkpt lat="43.453925" lon="11.5943883"><ele>300.0</ele><time>2026-03-27T11:46:39.796Z</time></trkpt><trkpt lat="43.4539083" lon="11.594475"><ele>300.0</ele><time>2026-03-27T11:46:40.796Z</time></trkpt><trkpt lat="43.4538983" lon="11.5946083"><ele>300.0</ele><time>2026-03-27T11:46:42.795Z</time></trkpt><trkpt lat="43.4539683" lon="11.5947317"><ele>300.0</ele><time>2026-03-27T11:46:44.797Z</time></trkpt><trkpt lat="43.454035" lon="11.5947967"><ele>300.0</ele><time>2026-03-27T11:46:45.793Z</time></trkpt><trkpt lat="43.454105" lon="11.5948667"><ele>297.8</ele><time>2026-03-27T11:46:46.795Z</time></trkpt><trkpt lat="43.454175" lon="11.5949267"><ele>295.6</ele><time>2026-03-27T11:46:47.796Z</time></trkpt><trkpt lat="43.4542333" lon="11.59497"><ele>293.4</ele><time>2026-03-27T11:46:48.796Z</time></trkpt><trkpt lat="43.45434" lon="11.59499"><ele>291.2</ele><time>2026-03-27T11:46:50.797Z</time></trkpt><trkpt lat="43.4544533" lon="11.5949367"><ele>289.0</ele><time>2026-03-27T11:46:52.795Z</time></trkpt><trkpt lat="43.4545267" lon="11.5948817"><ele>289.0</ele><time>2026-03-27T11:46:53.795Z</time></trkpt><trkpt lat="43.4546083" lon="11.5948217"><ele>289.0</ele><time>2026-03-27T11:46:54.795Z</time></trkpt><trkpt lat="43.45469" lon="11.59478"><ele>289.0</ele><time>2026-03-27T11:46:55.794Z</time></trkpt><trkpt lat="43.4547733" lon="11.5947617"><ele>289.0</ele><time>2026-03-27T11:46:56.799Z</time></trkpt><trkpt lat="43.454855" lon="11.5947517"><ele>289.0</ele><time>2026-03-27T11:46:57.795Z</time></trkpt><trkpt lat="43.4549283" lon="11.59475"><ele>289.0</ele><time>2026-03-27T11:46:58.796Z</time></trkpt><trkpt lat="43.4549933" lon="11.5947683"><ele>289.4</ele><time>2026-03-27T11:46:59.795Z</time></trkpt><trkpt lat="43.4550533" lon="11.5948233"><ele>289.79999999999995</ele><time>2026-03-27T11:47:00.795Z</time></trkpt><trkpt lat="43.4550833" lon="11.59492"><ele>290.20000000000005</ele><time>2026-03-27T11:47:01.795Z</time></trkpt><trkpt lat="43.4551017" lon="11.5950467"><ele>290.6</ele><time>2026-03-27T11:47:02.797Z</time></trkpt><trkpt lat="43.4551083" lon="11.59519"><ele>291.0</ele><time>2026-03-27T11:47:03.795Z</time></trkpt><trkpt lat="43.4551183" lon="11.595335"><ele>289.8</ele><time>2026-03-27T11:47:04.795Z</time></trkpt><trkpt lat="43.4551383" lon="11.5954767"><ele>288.6</ele><time>2026-03-27T11:47:05.796Z</time></trkpt><trkpt lat="43.4551617" lon="11.5956133"><ele>287.4</ele><time>2026-03-27T11:47:06.796Z</time></trkpt><trkpt lat="43.45519" lon="11.5957333"><ele>286.2</ele><time>2026-03-27T11:47:07.796Z</time></trkpt><trkpt lat="43.4552183" lon="11.5958417"><ele>285.0</ele><time>2026-03-27T11:47:08.796Z</time></trkpt><trkpt lat="43.4552667" lon="11.59593"><ele>285.0</ele><time>2026-03-27T11:47:09.795Z</time></trkpt><trkpt lat="43.4553283" lon="11.59601"><ele>285.0</ele><time>2026-03-27T11:47:10.795Z</time></trkpt><trkpt lat="43.4554067" lon="11.5960817"><ele>285.0</ele><time>2026-03-27T11:47:11.796Z</time></trkpt><trkpt lat="43.455485" lon="11.59615"><ele>285.0</ele><time>2026-03-27T11:47:12.796Z</time></trkpt><trkpt lat="43.4555583" lon="11.596225"><ele>285.0</ele><time>2026-03-27T11:47:13.797Z</time></trkpt><trkpt lat="43.4556267" lon="11.59631"><ele>284.5</ele><time>2026-03-27T11:47:14.798Z</time></trkpt><trkpt lat="43.4556883" lon="11.5963933"><ele>284.0</ele><time>2026-03-27T11:47:15.796Z</time></trkpt><trkpt lat="43.4557433" lon="11.5964667"><ele>283.5</ele><time>2026-03-27T11:47:16.794Z</time></trkpt><trkpt lat="43.4557933" lon="11.59653"><ele>283.0</ele><time>2026-03-27T11:47:17.797Z</time></trkpt><trkpt lat="43.45591" lon="11.59658"><ele>282.5</ele><time>2026-03-27T11:47:19.796Z</time></trkpt><trkpt lat="43.45599" lon="11.5965633"><ele>282.0</ele><time>2026-03-27T11:47:20.796Z</time></trkpt><trkpt lat="43.45607" lon="11.59655"><ele>282.0</ele><time>2026-03-27T11:47:21.796Z</time></trkpt><trkpt lat="43.45614" lon="11.5965467"><ele>282.0</ele><time>2026-03-27T11:47:22.796Z</time></trkpt><trkpt lat="43.4562083" lon="11.596555"><ele>282.0</ele><time>2026-03-27T11:47:23.796Z</time></trkpt><trkpt lat="43.45628" lon="11.5965767"><ele>282.0</ele><time>2026-03-27T11:47:24.796Z</time></trkpt><trkpt lat="43.45636" lon="11.5966117"><ele>282.0</ele><time>2026-03-27T11:47:25.796Z</time></trkpt><trkpt lat="43.4564367" lon="11.59665"><ele>282.0</ele><time>2026-03-27T11:47:26.796Z</time></trkpt><trkpt lat="43.4565017" lon="11.5966817"><ele>282.0</ele><time>2026-03-27T11:47:27.796Z</time></trkpt><trkpt lat="43.45661" lon="11.5967267"><ele>280.4</ele><time>2026-03-27T11:47:29.797Z</time></trkpt><trkpt lat="43.4567083" lon="11.5968033"><ele>278.79999999999995</ele><time>2026-03-27T11:47:31.797Z</time></trkpt><trkpt lat="43.4567917" lon="11.5969317"><ele>277.2</ele><time>2026-03-27T11:47:33.797Z</time></trkpt><trkpt lat="43.45682" lon="11.5970183"><ele>275.59999999999997</ele><time>2026-03-27T11:47:34.796Z</time></trkpt><trkpt lat="43.4568367" lon="11.59712"><ele>274.0</ele><time>2026-03-27T11:47:35.797Z</time></trkpt><trkpt lat="43.45684" lon="11.5972233"><ele>273.8333333333333</ele><time>2026-03-27T11:47:36.796Z</time></trkpt><trkpt lat="43.4568517" lon="11.597335"><ele>273.66666666666663</ele><time>2026-03-27T11:47:37.796Z</time></trkpt><trkpt lat="43.456875" lon="11.5974383"><ele>273.5</ele><time>2026-03-27T11:47:38.798Z</time></trkpt><trkpt lat="43.4569217" lon="11.5975383"><ele>273.3333333333333</ele><time>2026-03-27T11:47:39.796Z</time></trkpt><trkpt lat="43.4569833" lon="11.5976317"><ele>273.1666666666667</ele><time>2026-03-27T11:47:40.797Z</time></trkpt><trkpt lat="43.457045" lon="11.5977283"><ele>273.0</ele><time>2026-03-27T11:47:41.796Z</time></trkpt><trkpt lat="43.4571117" lon="11.59783"><ele>272.6666666666667</ele><time>2026-03-27T11:47:42.796Z</time></trkpt><trkpt lat="43.4571767" lon="11.5979283"><ele>272.3333333333333</ele><time>2026-03-27T11:47:43.795Z</time></trkpt><trkpt lat="43.4572367" lon="11.5980233"><ele>272.0</ele><time>2026-03-27T11:47:44.797Z</time></trkpt><trkpt lat="43.4572967" lon="11.5981183"><ele>271.66666666666663</ele><time>2026-03-27T11:47:45.795Z</time></trkpt><trkpt lat="43.4573433" lon="11.5982167"><ele>271.3333333333333</ele><time>2026-03-27T11:47:46.795Z</time></trkpt><trkpt lat="43.4573783" lon="11.59832"><ele>271.0</ele><time>2026-03-27T11:47:47.794Z</time></trkpt><trkpt lat="43.4574033" lon="11.598425"><ele>271.0</ele><time>2026-03-27T11:47:48.795Z</time></trkpt><trkpt lat="43.4574317" lon="11.5985283"><ele>271.0</ele><time>2026-03-27T11:47:49.796Z</time></trkpt><trkpt lat="43.4574667" lon="11.5986317"><ele>271.0</ele><time>2026-03-27T11:47:50.796Z</time></trkpt><trkpt lat="43.4574967" lon="11.5987217"><ele>271.0</ele><time>2026-03-27T11:47:51.796Z</time></trkpt><trkpt lat="43.45753" lon="11.5988183"><ele>271.0</ele><time>2026-03-27T11:47:52.796Z</time></trkpt><trkpt lat="43.4575683" lon="11.5989167"><ele>271.0</ele><time>2026-03-27T11:47:53.797Z</time></trkpt><trkpt lat="43.4576183" lon="11.59902"><ele>270.25</ele><time>2026-03-27T11:47:54.796Z</time></trkpt><trkpt lat="43.4576817" lon="11.5991367"><ele>269.5</ele><time>2026-03-27T11:47:55.797Z</time></trkpt><trkpt lat="43.4577483" lon="11.5992717"><ele>268.75</ele><time>2026-03-27T11:47:56.797Z</time></trkpt><trkpt lat="43.4578217" lon="11.5994217"><ele>268.0</ele><time>2026-03-27T11:47:57.796Z</time></trkpt><trkpt lat="43.4579033" lon="11.5995917"><ele>266.75</ele><time>2026-03-27T11:47:58.794Z</time></trkpt><trkpt lat="43.45799" lon="11.5997717"><ele>265.5</ele><time>2026-03-27T11:47:59.796Z</time></trkpt><trkpt lat="43.4580683" lon="11.599935"><ele>264.25</ele><time>2026-03-27T11:48:00.797Z</time></trkpt><trkpt lat="43.458145" lon="11.6000933"><ele>263.0</ele><time>2026-03-27T11:48:01.797Z</time></trkpt><trkpt lat="43.4582167" lon="11.6002483"><ele>262.0</ele><time>2026-03-27T11:48:02.798Z</time></trkpt><trkpt lat="43.45829" lon="11.6004017"><ele>261.0</ele><time>2026-03-27T11:48:03.795Z</time></trkpt><trkpt lat="43.45836" lon="11.600545"><ele>260.0</ele><time>2026-03-27T11:48:04.795Z</time></trkpt><trkpt lat="43.4584333" lon="11.6006933"><ele>259.0</ele><time>2026-03-27T11:48:05.797Z</time></trkpt><trkpt lat="43.4585067" lon="11.6008433"><ele>259.0</ele><time>2026-03-27T11:48:06.797Z</time></trkpt><trkpt lat="43.4585817" lon="11.6010033"><ele>259.0</ele><time>2026-03-27T11:48:07.796Z</time></trkpt><trkpt lat="43.45866" lon="11.6011717"><ele>259.0</ele><time>2026-03-27T11:48:08.797Z</time></trkpt><trkpt lat="43.458745" lon="11.6013533"><ele>259.0</ele><time>2026-03-27T11:48:09.796Z</time></trkpt><trkpt lat="43.4588283" lon="11.6015333"><ele>259.25</ele><time>2026-03-27T11:48:10.794Z</time></trkpt><trkpt lat="43.4589017" lon="11.6016867"><ele>259.5</ele><time>2026-03-27T11:48:11.796Z</time></trkpt><trkpt lat="43.4589733" lon="11.60182"><ele>259.75</ele><time>2026-03-27T11:48:12.796Z</time></trkpt><trkpt lat="43.45905" lon="11.601915"><ele>260.0</ele><time>2026-03-27T11:48:13.797Z</time></trkpt><trkpt lat="43.459145" lon="11.6019833"><ele>259.75</ele><time>2026-03-27T11:48:14.796Z</time></trkpt><trkpt lat="43.4592567" lon="11.6020233"><ele>259.5</ele><time>2026-03-27T11:48:15.796Z</time></trkpt><trkpt lat="43.4593817" lon="11.602045"><ele>259.25</ele><time>2026-03-27T11:48:16.796Z</time></trkpt><trkpt lat="43.4595117" lon="11.602075"><ele>259.0</ele><time>2026-03-27T11:48:17.796Z</time></trkpt><trkpt lat="43.45964" lon="11.60213"><ele>259.0</ele><time>2026-03-27T11:48:18.796Z</time></trkpt><trkpt lat="43.4597617" lon="11.6022167"><ele>259.0</ele><time>2026-03-27T11:48:19.796Z</time></trkpt><trkpt lat="43.459885" lon="11.6023383"><ele>259.0</ele><time>2026-03-27T11:48:20.797Z</time></trkpt><trkpt lat="43.46001" lon="11.6024783"><ele>259.0</ele><time>2026-03-27T11:48:21.794Z</time></trkpt><trkpt lat="43.4601367" lon="11.6026317"><ele>259.0</ele><time>2026-03-27T11:48:22.796Z</time></trkpt><trkpt lat="43.46027" lon="11.6027883"><ele>259.0</ele><time>2026-03-27T11:48:23.797Z</time></trkpt><trkpt lat="43.4604" lon="11.6029467"><ele>257.66666666666663</ele><time>2026-03-27T11:48:24.797Z</time></trkpt><trkpt lat="43.4605233" lon="11.60311"><ele>256.3333333333333</ele><time>2026-03-27T11:48:25.795Z</time></trkpt><trkpt lat="43.46065" lon="11.6032783"><ele>255.0</ele><time>2026-03-27T11:48:26.796Z</time></trkpt><trkpt lat="43.4607667" lon="11.6034383"><ele>255.0</ele><time>2026-03-27T11:48:27.796Z</time></trkpt><trkpt lat="43.460875" lon="11.6035967"><ele>255.0</ele><time>2026-03-27T11:48:28.796Z</time></trkpt><trkpt lat="43.4609867" lon="11.6037517"><ele>255.0</ele><time>2026-03-27T11:48:29.795Z</time></trkpt><trkpt lat="43.461105" lon="11.6038983"><ele>254.0</ele><time>2026-03-27T11:48:30.795Z</time></trkpt><trkpt lat="43.4612333" lon="11.6040467"><ele>253.0</ele><time>2026-03-27T11:48:31.795Z</time></trkpt><trkpt lat="43.46137" lon="11.6041983"><ele>252.0</ele><time>2026-03-27T11:48:32.797Z</time></trkpt><trkpt lat="43.4615067" lon="11.6043633"><ele>249.33333333333331</ele><time>2026-03-27T11:48:33.794Z</time></trkpt><trkpt lat="43.4616333" lon="11.604535"><ele>246.66666666666666</ele><time>2026-03-27T11:48:34.796Z</time></trkpt><trkpt lat="43.4617633" lon="11.6046983"><ele>244.0</ele><time>2026-03-27T11:48:35.795Z</time></trkpt><trkpt lat="43.4618917" lon="11.6048617"><ele>244.0</ele><time>2026-03-27T11:48:36.795Z</time></trkpt><trkpt lat="43.4620283" lon="11.605025"><ele>244.0</ele><time>2026-03-27T11:48:37.795Z</time></trkpt><trkpt lat="43.46217" lon="11.60519"><ele>244.0</ele><time>2026-03-27T11:48:38.796Z</time></trkpt><trkpt lat="43.4623083" lon="11.6053467"><ele>241.0</ele><time>2026-03-27T11:48:39.795Z</time></trkpt><trkpt lat="43.46244" lon="11.60549"><ele>238.0</ele><time>2026-03-27T11:48:40.794Z</time></trkpt><trkpt lat="43.462565" lon="11.6056333"><ele>235.0</ele><time>2026-03-27T11:48:41.795Z</time></trkpt><trkpt lat="43.46269" lon="11.6057783"><ele>235.0</ele><time>2026-03-27T11:48:42.797Z</time></trkpt><trkpt lat="43.4628167" lon="11.6059283"><ele>235.0</ele><time>2026-03-27T11:48:43.797Z</time></trkpt><trkpt lat="43.4629467" lon="11.6060817"><ele>235.0</ele><time>2026-03-27T11:48:44.796Z</time></trkpt><trkpt lat="43.4630833" lon="11.60624"><ele>237.66666666666666</ele><time>2026-03-27T11:48:45.795Z</time></trkpt><trkpt lat="43.463225" lon="11.6063967"><ele>240.33333333333331</ele><time>2026-03-27T11:48:46.796Z</time></trkpt><trkpt lat="43.463375" lon="11.6065517"><ele>243.0</ele><time>2026-03-27T11:48:47.797Z</time></trkpt><trkpt lat="43.4635217" lon="11.6066883"><ele>243.0</ele><time>2026-03-27T11:48:48.796Z</time></trkpt><trkpt lat="43.463655" lon="11.6068033"><ele>243.0</ele><time>2026-03-27T11:48:49.796Z</time></trkpt><trkpt lat="43.4637933" lon="11.6069033"><ele>243.0</ele><time>2026-03-27T11:48:50.797Z</time></trkpt><trkpt lat="43.4639333" lon="11.6069833"><ele>247.0</ele><time>2026-03-27T11:48:51.796Z</time></trkpt><trkpt lat="43.4640833" lon="11.607055"><ele>251.0</ele><time>2026-03-27T11:48:52.795Z</time></trkpt><trkpt lat="43.4642317" lon="11.6071133"><ele>255.0</ele><time>2026-03-27T11:48:53.794Z</time></trkpt><trkpt lat="43.46438" lon="11.607155"><ele>255.0</ele><time>2026-03-27T11:48:54.796Z</time></trkpt><trkpt lat="43.46452" lon="11.6071783"><ele>255.0</ele><time>2026-03-27T11:48:55.796Z</time></trkpt><trkpt lat="43.4646533" lon="11.6071833"><ele>255.0</ele><time>2026-03-27T11:48:56.796Z</time></trkpt><trkpt lat="43.4647717" lon="11.6071817"><ele>255.0</ele><time>2026-03-27T11:48:57.795Z</time></trkpt><trkpt lat="43.4648917" lon="11.6071617"><ele>255.0</ele><time>2026-03-27T11:48:58.796Z</time></trkpt><trkpt lat="43.4650167" lon="11.6071117"><ele>255.0</ele><time>2026-03-27T11:48:59.794Z</time></trkpt><trkpt lat="43.4651433" lon="11.6070367"><ele>255.0</ele><time>2026-03-27T11:49:00.797Z</time></trkpt><trkpt lat="43.4652767" lon="11.60695"><ele>255.0</ele><time>2026-03-27T11:49:01.796Z</time></trkpt><trkpt lat="43.4654117" lon="11.60686"><ele>254.75</ele><time>2026-03-27T11:49:02.796Z</time></trkpt><trkpt lat="43.465545" lon="11.606775"><ele>254.5</ele><time>2026-03-27T11:49:03.797Z</time></trkpt><trkpt lat="43.46566" lon="11.6067067"><ele>254.25</ele><time>2026-03-27T11:49:04.795Z</time></trkpt><trkpt lat="43.4657667" lon="11.6066583"><ele>254.0</ele><time>2026-03-27T11:49:05.797Z</time></trkpt><trkpt lat="43.465875" lon="11.6066383"><ele>254.0</ele><time>2026-03-27T11:49:06.797Z</time></trkpt><trkpt lat="43.4659883" lon="11.6066617"><ele>254.0</ele><time>2026-03-27T11:49:07.797Z</time></trkpt><trkpt lat="43.4661" lon="11.6067317"><ele>254.0</ele><time>2026-03-27T11:49:08.798Z</time></trkpt><trkpt lat="43.46621" lon="11.6068217"><ele>254.0</ele><time>2026-03-27T11:49:09.796Z</time></trkpt><trkpt lat="43.466315" lon="11.606905"><ele>253.25</ele><time>2026-03-27T11:49:10.796Z</time></trkpt><trkpt lat="43.46642" lon="11.60699"><ele>252.5</ele><time>2026-03-27T11:49:11.796Z</time></trkpt><trkpt lat="43.4665383" lon="11.6070917"><ele>251.75</ele><time>2026-03-27T11:49:12.796Z</time></trkpt><trkpt lat="43.466665" lon="11.6072017"><ele>251.0</ele><time>2026-03-27T11:49:13.796Z</time></trkpt><trkpt lat="43.4668017" lon="11.60732"><ele>251.0</ele><time>2026-03-27T11:49:14.796Z</time></trkpt><trkpt lat="43.4669483" lon="11.6074483"><ele>251.0</ele><time>2026-03-27T11:49:15.796Z</time></trkpt><trkpt lat="43.4671033" lon="11.60758"><ele>251.0</ele><time>2026-03-27T11:49:16.794Z</time></trkpt><trkpt lat="43.46725" lon="11.6077067"><ele>249.0</ele><time>2026-03-27T11:49:17.797Z</time></trkpt><trkpt lat="43.4673933" lon="11.6078333"><ele>247.0</ele><time>2026-03-27T11:49:18.797Z</time></trkpt><trkpt lat="43.4675267" lon="11.6079667"><ele>245.0</ele><time>2026-03-27T11:49:19.796Z</time></trkpt><trkpt lat="43.467665" lon="11.60811"><ele>245.0</ele><time>2026-03-27T11:49:20.797Z</time></trkpt><trkpt lat="43.4678033" lon="11.608255"><ele>245.0</ele><time>2026-03-27T11:49:21.796Z</time></trkpt><trkpt lat="43.4679367" lon="11.6083883"><ele>245.0</ele><time>2026-03-27T11:49:22.797Z</time></trkpt><trkpt lat="43.4680733" lon="11.6085133"><ele>242.66666666666669</ele><time>2026-03-27T11:49:23.798Z</time></trkpt><trkpt lat="43.4682183" lon="11.6086367"><ele>240.33333333333331</ele><time>2026-03-27T11:49:24.8Z</time></trkpt><trkpt lat="43.46838" lon="11.6087617"><ele>238.0</ele><time>2026-03-27T11:49:25.799Z</time></trkpt><trkpt lat="43.4685483" lon="11.60889"><ele>238.0</ele><time>2026-03-27T11:49:26.799Z</time></trkpt><trkpt lat="43.4687117" lon="11.60902"><ele>238.0</ele><time>2026-03-27T11:49:27.795Z</time></trkpt><trkpt lat="43.468865" lon="11.6091417"><ele>238.0</ele><time>2026-03-27T11:49:28.796Z</time></trkpt><trkpt lat="43.4690083" lon="11.60926"><ele>237.25</ele><time>2026-03-27T11:49:29.795Z</time></trkpt><trkpt lat="43.4691417" lon="11.6093767"><ele>236.5</ele><time>2026-03-27T11:49:30.796Z</time></trkpt><trkpt lat="43.469265" lon="11.609475"><ele>235.75</ele><time>2026-03-27T11:49:31.796Z</time></trkpt><trkpt lat="43.4693733" lon="11.6095567"><ele>235.0</ele><time>2026-03-27T11:49:32.797Z</time></trkpt><trkpt lat="43.4694683" lon="11.6096317"><ele>234.99999999999997</ele><time>2026-03-27T11:49:33.795Z</time></trkpt><trkpt lat="43.4695467" lon="11.6096933"><ele>235.0</ele><time>2026-03-27T11:49:34.795Z</time></trkpt><trkpt lat="43.4696167" lon="11.60976"><ele>235.0</ele><time>2026-03-27T11:49:35.796Z</time></trkpt><trkpt lat="43.4696717" lon="11.6098117"><ele>235.0</ele><time>2026-03-27T11:49:36.795Z</time></trkpt><trkpt lat="43.4697417" lon="11.60987"><ele>234.99999999999997</ele><time>2026-03-27T11:49:38.797Z</time></trkpt><trkpt lat="43.469835" lon="11.609845"><ele>235.0</ele><time>2026-03-27T11:49:41.795Z</time></trkpt><trkpt lat="43.4698567" lon="11.60976"><ele>234.75</ele><time>2026-03-27T11:49:42.795Z</time></trkpt><trkpt lat="43.469875" lon="11.60964"><ele>234.5</ele><time>2026-03-27T11:49:43.794Z</time></trkpt><trkpt lat="43.4698983" lon="11.609485"><ele>234.25</ele><time>2026-03-27T11:49:44.797Z</time></trkpt><trkpt lat="43.4699283" lon="11.609305"><ele>234.0</ele><time>2026-03-27T11:49:45.794Z</time></trkpt><trkpt lat="43.4699617" lon="11.60911"><ele>234.0</ele><time>2026-03-27T11:49:46.794Z</time></trkpt><trkpt lat="43.47" lon="11.6089083"><ele>234.0</ele><time>2026-03-27T11:49:47.796Z</time></trkpt><trkpt lat="43.4700383" lon="11.60872"><ele>234.0</ele><time>2026-03-27T11:49:48.795Z</time></trkpt><trkpt lat="43.4700783" lon="11.6085433"><ele>234.0</ele><time>2026-03-27T11:49:49.795Z</time></trkpt><trkpt lat="43.4701167" lon="11.60838"><ele>234.0</ele><time>2026-03-27T11:49:50.797Z</time></trkpt><trkpt lat="43.4701417" lon="11.6082267"><ele>233.99999999999997</ele><time>2026-03-27T11:49:51.794Z</time></trkpt><trkpt lat="43.470155" lon="11.6080933"><ele>233.99999999999997</ele><time>2026-03-27T11:49:52.793Z</time></trkpt><trkpt lat="43.470155" lon="11.6079817"><ele>234.0</ele><time>2026-03-27T11:49:53.793Z</time></trkpt><trkpt lat="43.47018" lon="11.60784"><ele>234.0</ele><time>2026-03-27T11:49:55.796Z</time></trkpt><trkpt lat="43.4702583" lon="11.607815"><ele>234.0</ele><time>2026-03-27T11:49:57.795Z</time></trkpt><trkpt lat="43.47034" lon="11.607895"><ele>234.0</ele><time>2026-03-27T11:49:58.796Z</time></trkpt><trkpt lat="43.47042" lon="11.607995"><ele>234.0</ele><time>2026-03-27T11:49:59.797Z</time></trkpt><trkpt lat="43.4705283" lon="11.6081317"><ele>234.0</ele><time>2026-03-27T11:50:00.796Z</time></trkpt><trkpt lat="43.470655" lon="11.608285"><ele>234.33333333333331</ele><time>2026-03-27T11:50:01.795Z</time></trkpt><trkpt lat="43.47079" lon="11.608425"><ele>234.66666666666666</ele><time>2026-03-27T11:50:02.796Z</time></trkpt><trkpt lat="43.47092" lon="11.60855"><ele>235.0</ele><time>2026-03-27T11:50:03.795Z</time></trkpt><trkpt lat="43.4710433" lon="11.60866"><ele>234.5</ele><time>2026-03-27T11:50:04.795Z</time></trkpt><trkpt lat="43.4711683" lon="11.6087617"><ele>234.0</ele><time>2026-03-27T11:50:05.796Z</time></trkpt><trkpt lat="43.4713" lon="11.608835"><ele>233.5</ele><time>2026-03-27T11:50:06.798Z</time></trkpt><trkpt lat="43.47145" lon="11.6088983"><ele>233.0</ele><time>2026-03-27T11:50:07.795Z</time></trkpt><trkpt lat="43.4716167" lon="11.6089517"><ele>233.0</ele><time>2026-03-27T11:50:08.795Z</time></trkpt><trkpt lat="43.471795" lon="11.6089983"><ele>233.0</ele><time>2026-03-27T11:50:09.795Z</time></trkpt><trkpt lat="43.47198" lon="11.6090367"><ele>233.0</ele><time>2026-03-27T11:50:10.795Z</time></trkpt><trkpt lat="43.4721467" lon="11.6090667"><ele>233.5</ele><time>2026-03-27T11:50:11.796Z</time></trkpt><trkpt lat="43.4722967" lon="11.6090917"><ele>234.0</ele><time>2026-03-27T11:50:12.794Z</time></trkpt><trkpt lat="43.47243" lon="11.6091133"><ele>234.5</ele><time>2026-03-27T11:50:13.795Z</time></trkpt><trkpt lat="43.4725483" lon="11.6091417"><ele>235.0</ele><time>2026-03-27T11:50:14.796Z</time></trkpt><trkpt lat="43.47266" lon="11.609175"><ele>235.0</ele><time>2026-03-27T11:50:15.795Z</time></trkpt><trkpt lat="43.4727617" lon="11.6092133"><ele>235.0</ele><time>2026-03-27T11:50:16.796Z</time></trkpt><trkpt lat="43.47286" lon="11.6092667"><ele>235.0</ele><time>2026-03-27T11:50:17.794Z</time></trkpt><trkpt lat="43.4729517" lon="11.6093367"><ele>235.0</ele><time>2026-03-27T11:50:18.795Z</time></trkpt><trkpt lat="43.4730417" lon="11.609445"><ele>235.0</ele><time>2026-03-27T11:50:19.795Z</time></trkpt><trkpt lat="43.4731383" lon="11.6095717"><ele>233.75</ele><time>2026-03-27T11:50:20.797Z</time></trkpt><trkpt lat="43.47324" lon="11.6097133"><ele>232.5</ele><time>2026-03-27T11:50:21.796Z</time></trkpt><trkpt lat="43.47334" lon="11.60986"><ele>231.25</ele><time>2026-03-27T11:50:22.794Z</time></trkpt><trkpt lat="43.4734367" lon="11.6099983"><ele>230.0</ele><time>2026-03-27T11:50:23.795Z</time></trkpt><trkpt lat="43.473525" lon="11.61013"><ele>230.0</ele><time>2026-03-27T11:50:24.795Z</time></trkpt><trkpt lat="43.473615" lon="11.6102567"><ele>230.0</ele><time>2026-03-27T11:50:25.796Z</time></trkpt><trkpt lat="43.473705" lon="11.610385"><ele>230.0</ele><time>2026-03-27T11:50:26.796Z</time></trkpt><trkpt lat="43.4737883" lon="11.6105133"><ele>230.0</ele><time>2026-03-27T11:50:27.796Z</time></trkpt><trkpt lat="43.4738617" lon="11.6106417"><ele>230.25</ele><time>2026-03-27T11:50:28.795Z</time></trkpt><trkpt lat="43.4739267" lon="11.610775"><ele>230.5</ele><time>2026-03-27T11:50:29.796Z</time></trkpt><trkpt lat="43.4739717" lon="11.610925"><ele>230.75</ele><time>2026-03-27T11:50:30.795Z</time></trkpt><trkpt lat="43.4739983" lon="11.6110883"><ele>231.0</ele><time>2026-03-27T11:50:31.796Z</time></trkpt><trkpt lat="43.4740183" lon="11.6112583"><ele>231.0</ele><time>2026-03-27T11:50:32.796Z</time></trkpt><trkpt lat="43.4740483" lon="11.6114267"><ele>231.0</ele><time>2026-03-27T11:50:33.796Z</time></trkpt><trkpt lat="43.4740917" lon="11.6115983"><ele>231.0</ele><time>2026-03-27T11:50:34.796Z</time></trkpt><trkpt lat="43.4741383" lon="11.611755"><ele>231.0</ele><time>2026-03-27T11:50:35.796Z</time></trkpt><trkpt lat="43.4741783" lon="11.61189"><ele>232.0</ele><time>2026-03-27T11:50:36.797Z</time></trkpt><trkpt lat="43.4742217" lon="11.6120033"><ele>233.00000000000003</ele><time>2026-03-27T11:50:37.796Z</time></trkpt><trkpt lat="43.4742717" lon="11.612095"><ele>234.00000000000003</ele><time>2026-03-27T11:50:38.796Z</time></trkpt><trkpt lat="43.474325" lon="11.6121883"><ele>235.0</ele><time>2026-03-27T11:50:39.795Z</time></trkpt><trkpt lat="43.474385" lon="11.6122867"><ele>236.0</ele><time>2026-03-27T11:50:40.796Z</time></trkpt><trkpt lat="43.474455" lon="11.61239"><ele>236.0</ele><time>2026-03-27T11:50:41.796Z</time></trkpt><trkpt lat="43.474545" lon="11.612495"><ele>236.00000000000003</ele><time>2026-03-27T11:50:42.795Z</time></trkpt><trkpt lat="43.474635" lon="11.6125867"><ele>236.00000000000003</ele><time>2026-03-27T11:50:43.795Z</time></trkpt><trkpt lat="43.4747183" lon="11.61266"><ele>236.0</ele><time>2026-03-27T11:50:44.796Z</time></trkpt><trkpt lat="43.4748067" lon="11.6127417"><ele>236.0</ele><time>2026-03-27T11:50:45.796Z</time></trkpt><trkpt lat="43.4748983" lon="11.6128233"><ele>235.0</ele><time>2026-03-27T11:50:46.795Z</time></trkpt><trkpt lat="43.47499" lon="11.6129117"><ele>234.0</ele><time>2026-03-27T11:50:47.795Z</time></trkpt><trkpt lat="43.4750833" lon="11.6130067"><ele>233.0</ele><time>2026-03-27T11:50:48.795Z</time></trkpt><trkpt lat="43.4751817" lon="11.6131183"><ele>232.0</ele><time>2026-03-27T11:50:49.796Z</time></trkpt><trkpt lat="43.4752833" lon="11.61323"><ele>232.0</ele><time>2026-03-27T11:50:50.795Z</time></trkpt><trkpt lat="43.4753717" lon="11.613325"><ele>232.0</ele><time>2026-03-27T11:50:51.796Z</time></trkpt><trkpt lat="43.4754367" lon="11.6134083"><ele>232.0</ele><time>2026-03-27T11:50:52.796Z</time></trkpt><trkpt lat="43.4754867" lon="11.6134983"><ele>232.0</ele><time>2026-03-27T11:50:53.793Z</time></trkpt><trkpt lat="43.4755217" lon="11.613605"><ele>232.0</ele><time>2026-03-27T11:50:54.795Z</time></trkpt><trkpt lat="43.4755383" lon="11.6137367"><ele>233.0</ele><time>2026-03-27T11:50:55.794Z</time></trkpt><trkpt lat="43.4755383" lon="11.6138967"><ele>234.0</ele><time>2026-03-27T11:50:56.797Z</time></trkpt><trkpt lat="43.4755417" lon="11.6140733"><ele>235.0</ele><time>2026-03-27T11:50:57.796Z</time></trkpt><trkpt lat="43.4755567" lon="11.6142567"><ele>236.0</ele><time>2026-03-27T11:50:58.795Z</time></trkpt><trkpt lat="43.475585" lon="11.6144433"><ele>238.0</ele><time>2026-03-27T11:50:59.795Z</time></trkpt><trkpt lat="43.4756117" lon="11.6146217"><ele>240.0</ele><time>2026-03-27T11:51:00.795Z</time></trkpt><trkpt lat="43.4756233" lon="11.6147983"><ele>242.0</ele><time>2026-03-27T11:51:01.795Z</time></trkpt><trkpt lat="43.4756033" lon="11.6149767"><ele>244.0</ele><time>2026-03-27T11:51:02.796Z</time></trkpt><trkpt lat="43.4755633" lon="11.6151483"><ele>244.75</ele><time>2026-03-27T11:51:03.794Z</time></trkpt><trkpt lat="43.475505" lon="11.6153317"><ele>245.5</ele><time>2026-03-27T11:51:04.795Z</time></trkpt><trkpt lat="43.4754433" lon="11.6155183"><ele>246.25</ele><time>2026-03-27T11:51:05.796Z</time></trkpt><trkpt lat="43.4753833" lon="11.6156933"><ele>247.0</ele><time>2026-03-27T11:51:06.798Z</time></trkpt><trkpt lat="43.475335" lon="11.6158417"><ele>246.99999999999997</ele><time>2026-03-27T11:51:07.797Z</time></trkpt><trkpt lat="43.4752983" lon="11.6159617"><ele>247.0</ele><time>2026-03-27T11:51:08.796Z</time></trkpt><trkpt lat="43.4752783" lon="11.6160567"><ele>247.0</ele><time>2026-03-27T11:51:09.796Z</time></trkpt><trkpt lat="43.4752667" lon="11.6161767"><ele>247.0</ele><time>2026-03-27T11:51:11.796Z</time></trkpt><trkpt lat="43.4753133" lon="11.6162467"><ele>246.99999999999997</ele><time>2026-03-27T11:51:14.796Z</time></trkpt><trkpt lat="43.4754267" lon="11.61626"><ele>247.0</ele><time>2026-03-27T11:51:16.796Z</time></trkpt><trkpt lat="43.4755217" lon="11.6162433"><ele>247.5</ele><time>2026-03-27T11:51:17.794Z</time></trkpt><trkpt lat="43.4756433" lon="11.61623"><ele>248.0</ele><time>2026-03-27T11:51:18.795Z</time></trkpt><trkpt lat="43.4757783" lon="11.616205"><ele>248.5</ele><time>2026-03-27T11:51:19.796Z</time></trkpt><trkpt lat="43.4759117" lon="11.61617"><ele>249.0</ele><time>2026-03-27T11:51:20.799Z</time></trkpt><trkpt lat="43.47604" lon="11.6161483"><ele>249.5</ele><time>2026-03-27T11:51:21.796Z</time></trkpt><trkpt lat="43.4761583" lon="11.6161333"><ele>250.0</ele><time>2026-03-27T11:51:22.796Z</time></trkpt><trkpt lat="43.47627" lon="11.6161117"><ele>250.5</ele><time>2026-03-27T11:51:23.796Z</time></trkpt><trkpt lat="43.4763867" lon="11.616095"><ele>251.0</ele><time>2026-03-27T11:51:24.795Z</time></trkpt><trkpt lat="43.4765083" lon="11.6160833"><ele>251.0</ele><time>2026-03-27T11:51:25.796Z</time></trkpt><trkpt lat="43.47663" lon="11.616075"><ele>251.0</ele><time>2026-03-27T11:51:26.796Z</time></trkpt><trkpt lat="43.47675" lon="11.6160617"><ele>251.0</ele><time>2026-03-27T11:51:27.796Z</time></trkpt><trkpt lat="43.476865" lon="11.6160433"><ele>251.0</ele><time>2026-03-27T11:51:28.795Z</time></trkpt><trkpt lat="43.4769867" lon="11.6160267"><ele>251.0</ele><time>2026-03-27T11:51:29.796Z</time></trkpt><trkpt lat="43.4771317" lon="11.616005"><ele>251.0</ele><time>2026-03-27T11:51:30.794Z</time></trkpt><trkpt lat="43.4772817" lon="11.6159833"><ele>251.0</ele><time>2026-03-27T11:51:31.794Z</time></trkpt><trkpt lat="43.477415" lon="11.6159517"><ele>251.0</ele><time>2026-03-27T11:51:32.797Z</time></trkpt><trkpt lat="43.4775383" lon="11.6159117"><ele>251.0</ele><time>2026-03-27T11:51:33.795Z</time></trkpt><trkpt lat="43.4776467" lon="11.6158567"><ele>251.00000000000003</ele><time>2026-03-27T11:51:34.795Z</time></trkpt><trkpt lat="43.4777483" lon="11.61579"><ele>251.00000000000003</ele><time>2026-03-27T11:51:35.797Z</time></trkpt><trkpt lat="43.4778383" lon="11.6157083"><ele>251.0</ele><time>2026-03-27T11:51:36.796Z</time></trkpt><trkpt lat="43.4779117" lon="11.6155967"><ele>251.0</ele><time>2026-03-27T11:51:37.795Z</time></trkpt><trkpt lat="43.4779683" lon="11.6154583"><ele>250.4</ele><time>2026-03-27T11:51:38.796Z</time></trkpt><trkpt lat="43.4780117" lon="11.615305"><ele>249.8</ele><time>2026-03-27T11:51:39.797Z</time></trkpt><trkpt lat="43.478055" lon="11.6151533"><ele>249.20000000000002</ele><time>2026-03-27T11:51:40.796Z</time></trkpt><trkpt lat="43.4780933" lon="11.6150233"><ele>248.60000000000002</ele><time>2026-03-27T11:51:41.794Z</time></trkpt><trkpt lat="43.4781433" lon="11.6149217"><ele>248.0</ele><time>2026-03-27T11:51:42.796Z</time></trkpt><trkpt lat="43.4782033" lon="11.6148467"><ele>248.00000000000003</ele><time>2026-03-27T11:51:43.796Z</time></trkpt><trkpt lat="43.4782733" lon="11.61479"><ele>248.0</ele><time>2026-03-27T11:51:44.796Z</time></trkpt><trkpt lat="43.4783467" lon="11.6147467"><ele>248.0</ele><time>2026-03-27T11:51:45.795Z</time></trkpt><trkpt lat="43.478415" lon="11.6147417"><ele>248.0</ele><time>2026-03-27T11:51:46.795Z</time></trkpt><trkpt lat="43.47848" lon="11.614765"><ele>248.00000000000003</ele><time>2026-03-27T11:51:47.795Z</time></trkpt><trkpt lat="43.478505" lon="11.6149533"><ele>248.0</ele><time>2026-03-27T11:51:48.797Z</time></trkpt><trkpt lat="43.4785333" lon="11.6151167"><ele>248.0</ele><time>2026-03-27T11:51:49.795Z</time></trkpt><trkpt lat="43.47857" lon="11.6152683"><ele>248.0</ele><time>2026-03-27T11:51:50.797Z</time></trkpt><trkpt lat="43.4786083" lon="11.6154017"><ele>248.0</ele><time>2026-03-27T11:51:51.796Z</time></trkpt><trkpt lat="43.4786567" lon="11.6155133"><ele>248.0</ele><time>2026-03-27T11:51:52.795Z</time></trkpt><trkpt lat="43.4787317" lon="11.6155983"><ele>248.0</ele><time>2026-03-27T11:51:53.795Z</time></trkpt><trkpt lat="43.4788117" lon="11.615675"><ele>246.50000000000003</ele><time>2026-03-27T11:51:54.797Z</time></trkpt><trkpt lat="43.47889" lon="11.6157367"><ele>245.0</ele><time>2026-03-27T11:51:55.795Z</time></trkpt><trkpt lat="43.478965" lon="11.61579"><ele>243.5</ele><time>2026-03-27T11:51:56.796Z</time></trkpt><trkpt lat="43.4790467" lon="11.6158533"><ele>242.0</ele><time>2026-03-27T11:51:57.795Z</time></trkpt><trkpt lat="43.4791283" lon="11.615925"><ele>240.50000000000003</ele><time>2026-03-27T11:51:58.795Z</time></trkpt><trkpt lat="43.479185" lon="11.6160017"><ele>239.0</ele><time>2026-03-27T11:51:59.796Z</time></trkpt><trkpt lat="43.47922" lon="11.6160967"><ele>239.50000000000003</ele><time>2026-03-27T11:52:00.796Z</time></trkpt><trkpt lat="43.4792517" lon="11.6161883"><ele>240.0</ele><time>2026-03-27T11:52:01.797Z</time></trkpt><trkpt lat="43.4792717" lon="11.6162933"><ele>240.5</ele><time>2026-03-27T11:52:02.795Z</time></trkpt><trkpt lat="43.479265" lon="11.6164067"><ele>241.0</ele><time>2026-03-27T11:52:03.796Z</time></trkpt><trkpt lat="43.479245" lon="11.616515"><ele>241.50000000000003</ele><time>2026-03-27T11:52:04.795Z</time></trkpt><trkpt lat="43.479225" lon="11.61662"><ele>242.0</ele><time>2026-03-27T11:52:05.795Z</time></trkpt><trkpt lat="43.4791983" lon="11.6167367"><ele>242.0</ele><time>2026-03-27T11:52:06.796Z</time></trkpt><trkpt lat="43.4791583" lon="11.6168567"><ele>242.0</ele><time>2026-03-27T11:52:07.795Z</time></trkpt><trkpt lat="43.47912" lon="11.6169767"><ele>242.0</ele><time>2026-03-27T11:52:08.795Z</time></trkpt><trkpt lat="43.4790567" lon="11.6171033"><ele>242.0</ele><time>2026-03-27T11:52:09.794Z</time></trkpt><trkpt lat="43.4789917" lon="11.6172083"><ele>242.0</ele><time>2026-03-27T11:52:10.796Z</time></trkpt><trkpt lat="43.4789283" lon="11.61731"><ele>240.66666666666669</ele><time>2026-03-27T11:52:11.795Z</time></trkpt><trkpt lat="43.4788883" lon="11.6174067"><ele>239.33333333333334</ele><time>2026-03-27T11:52:12.794Z</time></trkpt><trkpt lat="43.4788533" lon="11.6174817"><ele>238.0</ele><time>2026-03-27T11:52:13.795Z</time></trkpt><trkpt lat="43.4788183" lon="11.6176033"><ele>236.66666666666669</ele><time>2026-03-27T11:52:15.795Z</time></trkpt><trkpt lat="43.478805" lon="11.6176917"><ele>235.33333333333334</ele><time>2026-03-27T11:52:16.795Z</time></trkpt><trkpt lat="43.4788183" lon="11.6178067"><ele>234.0</ele><time>2026-03-27T11:52:17.794Z</time></trkpt><trkpt lat="43.4788617" lon="11.6179183"><ele>233.83333333333334</ele><time>2026-03-27T11:52:18.796Z</time></trkpt><trkpt lat="43.47891" lon="11.6180267"><ele>233.66666666666669</ele><time>2026-03-27T11:52:19.796Z</time></trkpt><trkpt lat="43.4789633" lon="11.6181233"><ele>233.5</ele><time>2026-03-27T11:52:20.797Z</time></trkpt><trkpt lat="43.4790267" lon="11.6181983"><ele>233.33333333333334</ele><time>2026-03-27T11:52:21.797Z</time></trkpt><trkpt lat="43.479095" lon="11.61827"><ele>233.16666666666669</ele><time>2026-03-27T11:52:22.795Z</time></trkpt><trkpt lat="43.4791583" lon="11.6183367"><ele>233.0</ele><time>2026-03-27T11:52:23.796Z</time></trkpt><trkpt lat="43.47924" lon="11.6184067"><ele>233.0</ele><time>2026-03-27T11:52:25.795Z</time></trkpt><trkpt lat="43.4792617" lon="11.6185067"><ele>233.0</ele><time>2026-03-27T11:53:29.794Z</time></trkpt><trkpt lat="43.47926" lon="11.6186217"><ele>233.0</ele><time>2026-03-27T11:53:32.794Z</time></trkpt></trkseg></trk></gpx>